<?xml version="1.0" encoding="UTF-8" standalone="no" ?>
<gpx xmlns="http://www.topografix.com/GPX/1/1" xmlns:xsi="http://www.w3.org/2001/XMLSchema-instance" xsi:schemaLocation="http://www.topografix.com/GPX/1/1 http://www.topografix.com/GPX/1/1/gpx.xsd" version="1.1" creator="VisuGPX - https://www.visugpx.com">
  <metadata>
    <name>De Coulevon avec Jacky lundi 1 juin 2020 10:02</name>
    <desc><![CDATA[C'est notre quatrième sortie avec Jacky et c'est la plus longue. On a eu deux fois des gros arbres en travers du chemin...Terrain très sec et chaleur]]></desc>
  </metadata>
  <wpt lat="47.64448" lon="6.18327">
    <ele>232</ele>
    <name><![CDATA[0000001]]></name>
    <type><![CDATA[Point de départ]]></type>
  </wpt>
  <wpt lat="47.6444" lon="6.18325">
    <ele>231</ele>
    <name><![CDATA[0000002]]></name>
    <type><![CDATA[Point d'arrivée]]></type>
  </wpt>
  <trk>
    <name><![CDATA[2020-06-01 10:02]]></name>
    <desc><![CDATA[<p>Heure de départ: 06/01/2020 10:02<br/>Heure d'arrivée: 06/01/2020 12:05<br/>Distance: 23,2 km (02:02)<br/>Temps déplacement: 01:47<br/>Vitesse moyenne: 11,35 km/h<br/>Vitesse moyenne mouv.: 12,92 km/h<br/>Vitesse Max.: 43,44 km/h<br/>Altitude minimale: 220 m<br/>Altitude maximale: 298 m<br/>Vitesse de montée: 194 m/h<br/>Vitesse de descente: -418,2 m/h<br/>Gain d'altitude: 255 m<br/>Perte d'altitude: -238 m<br/>Temps de montée: 01:19<br/>Temps de descente: 00:34<br/></p><hr align="center" width="480" style="height: 2px; width: 517px"/>]]></desc>
    <trkseg>
      <trkpt lat="47.64448" lon="6.18327">
        <ele>232</ele>
        <time>2020-06-01T08:02:15Z</time>
      </trkpt>
      <trkpt lat="47.64443" lon="6.18325">
        <ele>231</ele>
        <time>2020-06-01T08:02:24Z</time>
      </trkpt>
      <trkpt lat="47.64443" lon="6.18315">
        <ele>231</ele>
        <time>2020-06-01T08:02:27Z</time>
      </trkpt>
      <trkpt lat="47.64442" lon="6.18304">
        <ele>231</ele>
        <time>2020-06-01T08:02:35Z</time>
      </trkpt>
      <trkpt lat="47.64438" lon="6.18307">
        <ele>230</ele>
        <time>2020-06-01T08:02:44Z</time>
      </trkpt>
      <trkpt lat="47.64443" lon="6.18306">
        <ele>231</ele>
        <time>2020-06-01T08:03:13Z</time>
      </trkpt>
      <trkpt lat="47.64446" lon="6.18301">
        <ele>231</ele>
        <time>2020-06-01T08:03:16Z</time>
      </trkpt>
      <trkpt lat="47.64451" lon="6.18297">
        <ele>231</ele>
        <time>2020-06-01T08:03:19Z</time>
      </trkpt>
      <trkpt lat="47.64456" lon="6.18291">
        <ele>231</ele>
        <time>2020-06-01T08:03:21Z</time>
      </trkpt>
      <trkpt lat="47.64461" lon="6.18284">
        <ele>231</ele>
        <time>2020-06-01T08:03:24Z</time>
      </trkpt>
      <trkpt lat="47.64466" lon="6.18279">
        <ele>231</ele>
        <time>2020-06-01T08:03:26Z</time>
      </trkpt>
      <trkpt lat="47.64471" lon="6.18272">
        <ele>231</ele>
        <time>2020-06-01T08:03:28Z</time>
      </trkpt>
      <trkpt lat="47.64475" lon="6.18266">
        <ele>231</ele>
        <time>2020-06-01T08:03:30Z</time>
      </trkpt>
      <trkpt lat="47.64479" lon="6.18261">
        <ele>231</ele>
        <time>2020-06-01T08:03:36Z</time>
      </trkpt>
      <trkpt lat="47.6449" lon="6.18237">
        <ele>228</ele>
        <time>2020-06-01T08:03:37Z</time>
      </trkpt>
      <trkpt lat="47.64493" lon="6.18229">
        <ele>228</ele>
        <time>2020-06-01T08:03:39Z</time>
      </trkpt>
      <trkpt lat="47.64496" lon="6.18219">
        <ele>227</ele>
        <time>2020-06-01T08:03:41Z</time>
      </trkpt>
      <trkpt lat="47.64499" lon="6.18211">
        <ele>226</ele>
        <time>2020-06-01T08:03:43Z</time>
      </trkpt>
      <trkpt lat="47.64502" lon="6.18199">
        <ele>233</ele>
        <time>2020-06-01T08:03:45Z</time>
      </trkpt>
      <trkpt lat="47.64503" lon="6.18191">
        <ele>232</ele>
        <time>2020-06-01T08:03:50Z</time>
      </trkpt>
      <trkpt lat="47.64501" lon="6.18173">
        <ele>228</ele>
        <time>2020-06-01T08:03:53Z</time>
      </trkpt>
      <trkpt lat="47.64498" lon="6.18153">
        <ele>224</ele>
        <time>2020-06-01T08:03:57Z</time>
      </trkpt>
      <trkpt lat="47.64501" lon="6.18121">
        <ele>229</ele>
        <time>2020-06-01T08:03:57Z</time>
      </trkpt>
      <trkpt lat="47.64503" lon="6.1811">
        <ele>229</ele>
        <time>2020-06-01T08:03:59Z</time>
      </trkpt>
      <trkpt lat="47.64504" lon="6.18101">
        <ele>228</ele>
        <time>2020-06-01T08:04:04Z</time>
      </trkpt>
      <trkpt lat="47.64508" lon="6.18084">
        <ele>226</ele>
        <time>2020-06-01T08:04:04Z</time>
      </trkpt>
      <trkpt lat="47.6451" lon="6.18076">
        <ele>226</ele>
        <time>2020-06-01T08:04:06Z</time>
      </trkpt>
      <trkpt lat="47.64511" lon="6.18068">
        <ele>227</ele>
        <time>2020-06-01T08:04:12Z</time>
      </trkpt>
      <trkpt lat="47.64514" lon="6.18061">
        <ele>227</ele>
        <time>2020-06-01T08:04:14Z</time>
      </trkpt>
      <trkpt lat="47.64517" lon="6.18054">
        <ele>228</ele>
        <time>2020-06-01T08:04:16Z</time>
      </trkpt>
      <trkpt lat="47.64525" lon="6.18044">
        <ele>228</ele>
        <time>2020-06-01T08:04:20Z</time>
      </trkpt>
      <trkpt lat="47.64535" lon="6.18031">
        <ele>229</ele>
        <time>2020-06-01T08:04:20Z</time>
      </trkpt>
      <trkpt lat="47.64537" lon="6.18025">
        <ele>229</ele>
        <time>2020-06-01T08:04:22Z</time>
      </trkpt>
      <trkpt lat="47.6454" lon="6.1802">
        <ele>229</ele>
        <time>2020-06-01T08:04:24Z</time>
      </trkpt>
      <trkpt lat="47.64543" lon="6.18013">
        <ele>229</ele>
        <time>2020-06-01T08:04:26Z</time>
      </trkpt>
      <trkpt lat="47.64546" lon="6.18003">
        <ele>230</ele>
        <time>2020-06-01T08:04:29Z</time>
      </trkpt>
      <trkpt lat="47.64549" lon="6.17994">
        <ele>227</ele>
        <time>2020-06-01T08:04:36Z</time>
      </trkpt>
      <trkpt lat="47.64552" lon="6.17974">
        <ele>227</ele>
        <time>2020-06-01T08:04:36Z</time>
      </trkpt>
      <trkpt lat="47.64555" lon="6.1796">
        <ele>226</ele>
        <time>2020-06-01T08:04:38Z</time>
      </trkpt>
      <trkpt lat="47.64558" lon="6.1795">
        <ele>226</ele>
        <time>2020-06-01T08:04:43Z</time>
      </trkpt>
      <trkpt lat="47.6456" lon="6.17942">
        <ele>225</ele>
        <time>2020-06-01T08:04:45Z</time>
      </trkpt>
      <trkpt lat="47.64568" lon="6.17928">
        <ele>225</ele>
        <time>2020-06-01T08:04:47Z</time>
      </trkpt>
      <trkpt lat="47.64571" lon="6.17924">
        <ele>225</ele>
        <time>2020-06-01T08:04:47Z</time>
      </trkpt>
      <trkpt lat="47.64579" lon="6.17916">
        <ele>224</ele>
        <time>2020-06-01T08:04:49Z</time>
      </trkpt>
      <trkpt lat="47.64607" lon="6.17893">
        <ele>223</ele>
        <time>2020-06-01T08:04:49Z</time>
      </trkpt>
      <trkpt lat="47.64613" lon="6.17892">
        <ele>223</ele>
        <time>2020-06-01T08:04:50Z</time>
      </trkpt>
      <trkpt lat="47.64619" lon="6.17892">
        <ele>223</ele>
        <time>2020-06-01T08:04:51Z</time>
      </trkpt>
      <trkpt lat="47.64625" lon="6.17893">
        <ele>223</ele>
        <time>2020-06-01T08:04:52Z</time>
      </trkpt>
      <trkpt lat="47.6463" lon="6.17894">
        <ele>223</ele>
        <time>2020-06-01T08:04:53Z</time>
      </trkpt>
      <trkpt lat="47.64634" lon="6.17896">
        <ele>223</ele>
        <time>2020-06-01T08:04:54Z</time>
      </trkpt>
      <trkpt lat="47.64639" lon="6.17898">
        <ele>223</ele>
        <time>2020-06-01T08:04:55Z</time>
      </trkpt>
      <trkpt lat="47.64643" lon="6.17901">
        <ele>223</ele>
        <time>2020-06-01T08:04:56Z</time>
      </trkpt>
      <trkpt lat="47.64648" lon="6.17903">
        <ele>223</ele>
        <time>2020-06-01T08:04:57Z</time>
      </trkpt>
      <trkpt lat="47.64652" lon="6.17906">
        <ele>222</ele>
        <time>2020-06-01T08:04:58Z</time>
      </trkpt>
      <trkpt lat="47.64656" lon="6.17908">
        <ele>222</ele>
        <time>2020-06-01T08:04:59Z</time>
      </trkpt>
      <trkpt lat="47.64663" lon="6.17912">
        <ele>222</ele>
        <time>2020-06-01T08:05:01Z</time>
      </trkpt>
      <trkpt lat="47.64669" lon="6.17916">
        <ele>222</ele>
        <time>2020-06-01T08:05:03Z</time>
      </trkpt>
      <trkpt lat="47.64675" lon="6.17922">
        <ele>223</ele>
        <time>2020-06-01T08:05:05Z</time>
      </trkpt>
      <trkpt lat="47.64681" lon="6.17928">
        <ele>223</ele>
        <time>2020-06-01T08:05:07Z</time>
      </trkpt>
      <trkpt lat="47.64687" lon="6.17936">
        <ele>224</ele>
        <time>2020-06-01T08:05:09Z</time>
      </trkpt>
      <trkpt lat="47.64693" lon="6.17944">
        <ele>224</ele>
        <time>2020-06-01T08:05:11Z</time>
      </trkpt>
      <trkpt lat="47.64696" lon="6.17951">
        <ele>224</ele>
        <time>2020-06-01T08:05:16Z</time>
      </trkpt>
      <trkpt lat="47.64701" lon="6.17957">
        <ele>225</ele>
        <time>2020-06-01T08:05:18Z</time>
      </trkpt>
      <trkpt lat="47.64706" lon="6.17965">
        <ele>225</ele>
        <time>2020-06-01T08:05:20Z</time>
      </trkpt>
      <trkpt lat="47.6471" lon="6.17971">
        <ele>225</ele>
        <time>2020-06-01T08:05:21Z</time>
      </trkpt>
      <trkpt lat="47.64714" lon="6.17978">
        <ele>225</ele>
        <time>2020-06-01T08:05:23Z</time>
      </trkpt>
      <trkpt lat="47.64718" lon="6.17984">
        <ele>224</ele>
        <time>2020-06-01T08:05:24Z</time>
      </trkpt>
      <trkpt lat="47.64723" lon="6.17994">
        <ele>224</ele>
        <time>2020-06-01T08:05:27Z</time>
      </trkpt>
      <trkpt lat="47.64729" lon="6.18002">
        <ele>229</ele>
        <time>2020-06-01T08:05:29Z</time>
      </trkpt>
      <trkpt lat="47.64733" lon="6.18009">
        <ele>228</ele>
        <time>2020-06-01T08:05:30Z</time>
      </trkpt>
      <trkpt lat="47.64737" lon="6.18014">
        <ele>229</ele>
        <time>2020-06-01T08:05:32Z</time>
      </trkpt>
      <trkpt lat="47.64747" lon="6.18032">
        <ele>231</ele>
        <time>2020-06-01T08:05:36Z</time>
      </trkpt>
      <trkpt lat="47.64763" lon="6.18053">
        <ele>228</ele>
        <time>2020-06-01T08:05:37Z</time>
      </trkpt>
      <trkpt lat="47.64769" lon="6.18058">
        <ele>229</ele>
        <time>2020-06-01T08:05:42Z</time>
      </trkpt>
      <trkpt lat="47.64773" lon="6.18062">
        <ele>229</ele>
        <time>2020-06-01T08:05:43Z</time>
      </trkpt>
      <trkpt lat="47.64783" lon="6.18067">
        <ele>228</ele>
        <time>2020-06-01T08:05:46Z</time>
      </trkpt>
      <trkpt lat="47.64789" lon="6.18069">
        <ele>228</ele>
        <time>2020-06-01T08:05:47Z</time>
      </trkpt>
      <trkpt lat="47.648" lon="6.18072">
        <ele>227</ele>
        <time>2020-06-01T08:05:47Z</time>
      </trkpt>
      <trkpt lat="47.64806" lon="6.18074">
        <ele>227</ele>
        <time>2020-06-01T08:05:53Z</time>
      </trkpt>
      <trkpt lat="47.64816" lon="6.18077">
        <ele>226</ele>
        <time>2020-06-01T08:05:53Z</time>
      </trkpt>
      <trkpt lat="47.64821" lon="6.18077">
        <ele>226</ele>
        <time>2020-06-01T08:05:55Z</time>
      </trkpt>
      <trkpt lat="47.64827" lon="6.18078">
        <ele>226</ele>
        <time>2020-06-01T08:05:57Z</time>
      </trkpt>
      <trkpt lat="47.64831" lon="6.18078">
        <ele>225</ele>
        <time>2020-06-01T08:06:02Z</time>
      </trkpt>
      <trkpt lat="47.64843" lon="6.1808">
        <ele>225</ele>
        <time>2020-06-01T08:06:06Z</time>
      </trkpt>
      <trkpt lat="47.64855" lon="6.18083">
        <ele>225</ele>
        <time>2020-06-01T08:06:07Z</time>
      </trkpt>
      <trkpt lat="47.64859" lon="6.18084">
        <ele>229</ele>
        <time>2020-06-01T08:06:12Z</time>
      </trkpt>
      <trkpt lat="47.64866" lon="6.18086">
        <ele>229</ele>
        <time>2020-06-01T08:06:15Z</time>
      </trkpt>
      <trkpt lat="47.64872" lon="6.18088">
        <ele>229</ele>
        <time>2020-06-01T08:06:17Z</time>
      </trkpt>
      <trkpt lat="47.64883" lon="6.18092">
        <ele>230</ele>
        <time>2020-06-01T08:06:20Z</time>
      </trkpt>
      <trkpt lat="47.64892" lon="6.18094">
        <ele>229</ele>
        <time>2020-06-01T08:06:22Z</time>
      </trkpt>
      <trkpt lat="47.64897" lon="6.18095">
        <ele>229</ele>
        <time>2020-06-01T08:06:23Z</time>
      </trkpt>
      <trkpt lat="47.64905" lon="6.18097">
        <ele>229</ele>
        <time>2020-06-01T08:06:25Z</time>
      </trkpt>
      <trkpt lat="47.64923" lon="6.181">
        <ele>230</ele>
        <time>2020-06-01T08:06:28Z</time>
      </trkpt>
      <trkpt lat="47.64929" lon="6.18102">
        <ele>231</ele>
        <time>2020-06-01T08:06:30Z</time>
      </trkpt>
      <trkpt lat="47.64946" lon="6.18104">
        <ele>232</ele>
        <time>2020-06-01T08:06:34Z</time>
      </trkpt>
      <trkpt lat="47.64966" lon="6.18102">
        <ele>233</ele>
        <time>2020-06-01T08:06:35Z</time>
      </trkpt>
      <trkpt lat="47.64974" lon="6.181">
        <ele>233</ele>
        <time>2020-06-01T08:06:41Z</time>
      </trkpt>
      <trkpt lat="47.64981" lon="6.181">
        <ele>232</ele>
        <time>2020-06-01T08:06:42Z</time>
      </trkpt>
      <trkpt lat="47.64997" lon="6.18098">
        <ele>232</ele>
        <time>2020-06-01T08:06:46Z</time>
      </trkpt>
      <trkpt lat="47.65023" lon="6.18098">
        <ele>235</ele>
        <time>2020-06-01T08:06:51Z</time>
      </trkpt>
      <trkpt lat="47.65029" lon="6.18099">
        <ele>235</ele>
        <time>2020-06-01T08:06:52Z</time>
      </trkpt>
      <trkpt lat="47.65056" lon="6.18103">
        <ele>236</ele>
        <time>2020-06-01T08:06:52Z</time>
      </trkpt>
      <trkpt lat="47.65061" lon="6.18104">
        <ele>236</ele>
        <time>2020-06-01T08:06:53Z</time>
      </trkpt>
      <trkpt lat="47.65065" lon="6.18105">
        <ele>236</ele>
        <time>2020-06-01T08:06:54Z</time>
      </trkpt>
      <trkpt lat="47.65072" lon="6.18104">
        <ele>235</ele>
        <time>2020-06-01T08:07:00Z</time>
      </trkpt>
      <trkpt lat="47.65086" lon="6.18108">
        <ele>237</ele>
        <time>2020-06-01T08:07:04Z</time>
      </trkpt>
      <trkpt lat="47.65094" lon="6.1811">
        <ele>238</ele>
        <time>2020-06-01T08:07:06Z</time>
      </trkpt>
      <trkpt lat="47.65101" lon="6.1811">
        <ele>238</ele>
        <time>2020-06-01T08:07:07Z</time>
      </trkpt>
      <trkpt lat="47.65115" lon="6.18106">
        <ele>238</ele>
        <time>2020-06-01T08:07:07Z</time>
      </trkpt>
      <trkpt lat="47.65124" lon="6.18103">
        <ele>238</ele>
        <time>2020-06-01T08:07:09Z</time>
      </trkpt>
      <trkpt lat="47.6513" lon="6.18101">
        <ele>238</ele>
        <time>2020-06-01T08:07:10Z</time>
      </trkpt>
      <trkpt lat="47.65137" lon="6.18097">
        <ele>238</ele>
        <time>2020-06-01T08:07:15Z</time>
      </trkpt>
      <trkpt lat="47.65141" lon="6.18094">
        <ele>238</ele>
        <time>2020-06-01T08:07:16Z</time>
      </trkpt>
      <trkpt lat="47.65153" lon="6.18083">
        <ele>232</ele>
        <time>2020-06-01T08:07:20Z</time>
      </trkpt>
      <trkpt lat="47.65156" lon="6.18078">
        <ele>232</ele>
        <time>2020-06-01T08:07:21Z</time>
      </trkpt>
      <trkpt lat="47.65165" lon="6.18065">
        <ele>232</ele>
        <time>2020-06-01T08:07:24Z</time>
      </trkpt>
      <trkpt lat="47.65176" lon="6.18046">
        <ele>232</ele>
        <time>2020-06-01T08:07:24Z</time>
      </trkpt>
      <trkpt lat="47.65181" lon="6.18038">
        <ele>231</ele>
        <time>2020-06-01T08:07:26Z</time>
      </trkpt>
      <trkpt lat="47.65186" lon="6.1803">
        <ele>230</ele>
        <time>2020-06-01T08:07:28Z</time>
      </trkpt>
      <trkpt lat="47.65191" lon="6.18024">
        <ele>230</ele>
        <time>2020-06-01T08:07:30Z</time>
      </trkpt>
      <trkpt lat="47.65195" lon="6.18018">
        <ele>230</ele>
        <time>2020-06-01T08:07:36Z</time>
      </trkpt>
      <trkpt lat="47.65204" lon="6.18008">
        <ele>230</ele>
        <time>2020-06-01T08:07:39Z</time>
      </trkpt>
      <trkpt lat="47.65211" lon="6.18001">
        <ele>230</ele>
        <time>2020-06-01T08:07:42Z</time>
      </trkpt>
      <trkpt lat="47.65216" lon="6.17996">
        <ele>227</ele>
        <time>2020-06-01T08:07:43Z</time>
      </trkpt>
      <trkpt lat="47.65226" lon="6.17988">
        <ele>227</ele>
        <time>2020-06-01T08:07:47Z</time>
      </trkpt>
      <trkpt lat="47.65232" lon="6.17986">
        <ele>227</ele>
        <time>2020-06-01T08:07:49Z</time>
      </trkpt>
      <trkpt lat="47.65247" lon="6.17983">
        <ele>227</ele>
        <time>2020-06-01T08:07:49Z</time>
      </trkpt>
      <trkpt lat="47.65253" lon="6.17985">
        <ele>227</ele>
        <time>2020-06-01T08:07:51Z</time>
      </trkpt>
      <trkpt lat="47.65261" lon="6.17988">
        <ele>227</ele>
        <time>2020-06-01T08:07:53Z</time>
      </trkpt>
      <trkpt lat="47.65268" lon="6.17994">
        <ele>227</ele>
        <time>2020-06-01T08:07:55Z</time>
      </trkpt>
      <trkpt lat="47.65275" lon="6.18001">
        <ele>229</ele>
        <time>2020-06-01T08:07:57Z</time>
      </trkpt>
      <trkpt lat="47.65282" lon="6.1801">
        <ele>229</ele>
        <time>2020-06-01T08:07:59Z</time>
      </trkpt>
      <trkpt lat="47.65287" lon="6.18018">
        <ele>229</ele>
        <time>2020-06-01T08:08:05Z</time>
      </trkpt>
      <trkpt lat="47.65291" lon="6.18027">
        <ele>230</ele>
        <time>2020-06-01T08:08:06Z</time>
      </trkpt>
      <trkpt lat="47.65298" lon="6.18049">
        <ele>230</ele>
        <time>2020-06-01T08:08:10Z</time>
      </trkpt>
      <trkpt lat="47.65301" lon="6.18067">
        <ele>230</ele>
        <time>2020-06-01T08:08:13Z</time>
      </trkpt>
      <trkpt lat="47.65303" lon="6.18078">
        <ele>230</ele>
        <time>2020-06-01T08:08:15Z</time>
      </trkpt>
      <trkpt lat="47.65307" lon="6.18102">
        <ele>234</ele>
        <time>2020-06-01T08:08:15Z</time>
      </trkpt>
      <trkpt lat="47.65309" lon="6.18111">
        <ele>235</ele>
        <time>2020-06-01T08:08:20Z</time>
      </trkpt>
      <trkpt lat="47.65314" lon="6.18129">
        <ele>235</ele>
        <time>2020-06-01T08:08:20Z</time>
      </trkpt>
      <trkpt lat="47.65318" lon="6.1814">
        <ele>235</ele>
        <time>2020-06-01T08:08:22Z</time>
      </trkpt>
      <trkpt lat="47.65321" lon="6.18148">
        <ele>234</ele>
        <time>2020-06-01T08:08:24Z</time>
      </trkpt>
      <trkpt lat="47.65325" lon="6.18158">
        <ele>233</ele>
        <time>2020-06-01T08:08:26Z</time>
      </trkpt>
      <trkpt lat="47.65329" lon="6.18166">
        <ele>231</ele>
        <time>2020-06-01T08:08:28Z</time>
      </trkpt>
      <trkpt lat="47.65333" lon="6.18173">
        <ele>233</ele>
        <time>2020-06-01T08:08:33Z</time>
      </trkpt>
      <trkpt lat="47.65344" lon="6.18187">
        <ele>231</ele>
        <time>2020-06-01T08:08:37Z</time>
      </trkpt>
      <trkpt lat="47.65348" lon="6.18192">
        <ele>232</ele>
        <time>2020-06-01T08:08:39Z</time>
      </trkpt>
      <trkpt lat="47.65359" lon="6.18205">
        <ele>232</ele>
        <time>2020-06-01T08:08:43Z</time>
      </trkpt>
      <trkpt lat="47.65371" lon="6.18218">
        <ele>232</ele>
        <time>2020-06-01T08:08:46Z</time>
      </trkpt>
      <trkpt lat="47.65382" lon="6.18228">
        <ele>232</ele>
        <time>2020-06-01T08:08:46Z</time>
      </trkpt>
      <trkpt lat="47.65388" lon="6.18234">
        <ele>232</ele>
        <time>2020-06-01T08:08:52Z</time>
      </trkpt>
      <trkpt lat="47.65401" lon="6.18245">
        <ele>231</ele>
        <time>2020-06-01T08:08:52Z</time>
      </trkpt>
      <trkpt lat="47.65406" lon="6.18249">
        <ele>230</ele>
        <time>2020-06-01T08:08:58Z</time>
      </trkpt>
      <trkpt lat="47.65419" lon="6.18257">
        <ele>232</ele>
        <time>2020-06-01T08:08:58Z</time>
      </trkpt>
      <trkpt lat="47.65424" lon="6.1826">
        <ele>233</ele>
        <time>2020-06-01T08:09:03Z</time>
      </trkpt>
      <trkpt lat="47.65434" lon="6.18264">
        <ele>235</ele>
        <time>2020-06-01T08:09:03Z</time>
      </trkpt>
      <trkpt lat="47.6544" lon="6.18266">
        <ele>236</ele>
        <time>2020-06-01T08:09:05Z</time>
      </trkpt>
      <trkpt lat="47.65446" lon="6.18268">
        <ele>237</ele>
        <time>2020-06-01T08:09:07Z</time>
      </trkpt>
      <trkpt lat="47.65453" lon="6.1827">
        <ele>237</ele>
        <time>2020-06-01T08:09:09Z</time>
      </trkpt>
      <trkpt lat="47.65457" lon="6.18271">
        <ele>238</ele>
        <time>2020-06-01T08:09:15Z</time>
      </trkpt>
      <trkpt lat="47.65463" lon="6.18272">
        <ele>238</ele>
        <time>2020-06-01T08:09:17Z</time>
      </trkpt>
      <trkpt lat="47.65469" lon="6.18273">
        <ele>238</ele>
        <time>2020-06-01T08:09:19Z</time>
      </trkpt>
      <trkpt lat="47.65474" lon="6.18273">
        <ele>238</ele>
        <time>2020-06-01T08:09:20Z</time>
      </trkpt>
      <trkpt lat="47.65479" lon="6.18273">
        <ele>238</ele>
        <time>2020-06-01T08:09:23Z</time>
      </trkpt>
      <trkpt lat="47.65491" lon="6.1827">
        <ele>237</ele>
        <time>2020-06-01T08:09:23Z</time>
      </trkpt>
      <trkpt lat="47.65496" lon="6.18267">
        <ele>236</ele>
        <time>2020-06-01T08:09:25Z</time>
      </trkpt>
      <trkpt lat="47.65501" lon="6.18266">
        <ele>239</ele>
        <time>2020-06-01T08:09:30Z</time>
      </trkpt>
      <trkpt lat="47.65507" lon="6.18262">
        <ele>238</ele>
        <time>2020-06-01T08:09:33Z</time>
      </trkpt>
      <trkpt lat="47.65518" lon="6.18258">
        <ele>240</ele>
        <time>2020-06-01T08:09:33Z</time>
      </trkpt>
      <trkpt lat="47.65523" lon="6.18256">
        <ele>240</ele>
        <time>2020-06-01T08:09:35Z</time>
      </trkpt>
      <trkpt lat="47.65528" lon="6.18254">
        <ele>241</ele>
        <time>2020-06-01T08:09:37Z</time>
      </trkpt>
      <trkpt lat="47.65533" lon="6.18253">
        <ele>242</ele>
        <time>2020-06-01T08:09:39Z</time>
      </trkpt>
      <trkpt lat="47.65539" lon="6.18251">
        <ele>242</ele>
        <time>2020-06-01T08:09:41Z</time>
      </trkpt>
      <trkpt lat="47.65545" lon="6.18248">
        <ele>234</ele>
        <time>2020-06-01T08:09:48Z</time>
      </trkpt>
      <trkpt lat="47.65555" lon="6.18243">
        <ele>235</ele>
        <time>2020-06-01T08:09:48Z</time>
      </trkpt>
      <trkpt lat="47.6556" lon="6.1824">
        <ele>235</ele>
        <time>2020-06-01T08:09:50Z</time>
      </trkpt>
      <trkpt lat="47.65565" lon="6.18236">
        <ele>235</ele>
        <time>2020-06-01T08:09:55Z</time>
      </trkpt>
      <trkpt lat="47.65569" lon="6.18232">
        <ele>235</ele>
        <time>2020-06-01T08:09:57Z</time>
      </trkpt>
      <trkpt lat="47.65579" lon="6.18222">
        <ele>234</ele>
        <time>2020-06-01T08:10:01Z</time>
      </trkpt>
      <trkpt lat="47.65584" lon="6.18214">
        <ele>238</ele>
        <time>2020-06-01T08:10:04Z</time>
      </trkpt>
      <trkpt lat="47.65594" lon="6.18198">
        <ele>236</ele>
        <time>2020-06-01T08:10:07Z</time>
      </trkpt>
      <trkpt lat="47.65597" lon="6.18192">
        <ele>236</ele>
        <time>2020-06-01T08:10:09Z</time>
      </trkpt>
      <trkpt lat="47.65607" lon="6.18181">
        <ele>235</ele>
        <time>2020-06-01T08:10:12Z</time>
      </trkpt>
      <trkpt lat="47.65629" lon="6.18177">
        <ele>237</ele>
        <time>2020-06-01T08:10:12Z</time>
      </trkpt>
      <trkpt lat="47.65636" lon="6.18177">
        <ele>238</ele>
        <time>2020-06-01T08:10:17Z</time>
      </trkpt>
      <trkpt lat="47.6565" lon="6.1817">
        <ele>238</ele>
        <time>2020-06-01T08:10:18Z</time>
      </trkpt>
      <trkpt lat="47.65655" lon="6.18167">
        <ele>238</ele>
        <time>2020-06-01T08:10:25Z</time>
      </trkpt>
      <trkpt lat="47.65664" lon="6.18156">
        <ele>235</ele>
        <time>2020-06-01T08:10:26Z</time>
      </trkpt>
      <trkpt lat="47.65669" lon="6.18151">
        <ele>238</ele>
        <time>2020-06-01T08:10:29Z</time>
      </trkpt>
      <trkpt lat="47.65672" lon="6.18146">
        <ele>238</ele>
        <time>2020-06-01T08:10:32Z</time>
      </trkpt>
      <trkpt lat="47.65677" lon="6.18143">
        <ele>238</ele>
        <time>2020-06-01T08:10:35Z</time>
      </trkpt>
      <trkpt lat="47.6568" lon="6.18138">
        <ele>238</ele>
        <time>2020-06-01T08:10:37Z</time>
      </trkpt>
      <trkpt lat="47.65685" lon="6.18129">
        <ele>238</ele>
        <time>2020-06-01T08:10:39Z</time>
      </trkpt>
      <trkpt lat="47.6569" lon="6.1812">
        <ele>238</ele>
        <time>2020-06-01T08:10:41Z</time>
      </trkpt>
      <trkpt lat="47.65695" lon="6.1811">
        <ele>237</ele>
        <time>2020-06-01T08:10:43Z</time>
      </trkpt>
      <trkpt lat="47.657" lon="6.18101">
        <ele>237</ele>
        <time>2020-06-01T08:10:45Z</time>
      </trkpt>
      <trkpt lat="47.65704" lon="6.18092">
        <ele>237</ele>
        <time>2020-06-01T08:10:47Z</time>
      </trkpt>
      <trkpt lat="47.65709" lon="6.18085">
        <ele>238</ele>
        <time>2020-06-01T08:10:49Z</time>
      </trkpt>
      <trkpt lat="47.65713" lon="6.1808">
        <ele>233</ele>
        <time>2020-06-01T08:10:51Z</time>
      </trkpt>
      <trkpt lat="47.65717" lon="6.18075">
        <ele>233</ele>
        <time>2020-06-01T08:10:53Z</time>
      </trkpt>
      <trkpt lat="47.6572" lon="6.18069">
        <ele>234</ele>
        <time>2020-06-01T08:10:55Z</time>
      </trkpt>
      <trkpt lat="47.65725" lon="6.18066">
        <ele>234</ele>
        <time>2020-06-01T08:10:57Z</time>
      </trkpt>
      <trkpt lat="47.65731" lon="6.18063">
        <ele>234</ele>
        <time>2020-06-01T08:10:59Z</time>
      </trkpt>
      <trkpt lat="47.65737" lon="6.18058">
        <ele>234</ele>
        <time>2020-06-01T08:11:02Z</time>
      </trkpt>
      <trkpt lat="47.65742" lon="6.18055">
        <ele>234</ele>
        <time>2020-06-01T08:11:04Z</time>
      </trkpt>
      <trkpt lat="47.65746" lon="6.18053">
        <ele>234</ele>
        <time>2020-06-01T08:11:10Z</time>
      </trkpt>
      <trkpt lat="47.65756" lon="6.18047">
        <ele>239</ele>
        <time>2020-06-01T08:11:14Z</time>
      </trkpt>
      <trkpt lat="47.65761" lon="6.18044">
        <ele>239</ele>
        <time>2020-06-01T08:11:16Z</time>
      </trkpt>
      <trkpt lat="47.65772" lon="6.18039">
        <ele>239</ele>
        <time>2020-06-01T08:11:19Z</time>
      </trkpt>
      <trkpt lat="47.65781" lon="6.18032">
        <ele>239</ele>
        <time>2020-06-01T08:11:19Z</time>
      </trkpt>
      <trkpt lat="47.65785" lon="6.18029">
        <ele>239</ele>
        <time>2020-06-01T08:11:21Z</time>
      </trkpt>
      <trkpt lat="47.6579" lon="6.18026">
        <ele>240</ele>
        <time>2020-06-01T08:11:23Z</time>
      </trkpt>
      <trkpt lat="47.65794" lon="6.18023">
        <ele>240</ele>
        <time>2020-06-01T08:11:25Z</time>
      </trkpt>
      <trkpt lat="47.65799" lon="6.18019">
        <ele>240</ele>
        <time>2020-06-01T08:11:27Z</time>
      </trkpt>
      <trkpt lat="47.65803" lon="6.18015">
        <ele>240</ele>
        <time>2020-06-01T08:11:29Z</time>
      </trkpt>
      <trkpt lat="47.65809" lon="6.1801">
        <ele>240</ele>
        <time>2020-06-01T08:11:35Z</time>
      </trkpt>
      <trkpt lat="47.65821" lon="6.18">
        <ele>239</ele>
        <time>2020-06-01T08:11:37Z</time>
      </trkpt>
      <trkpt lat="47.65828" lon="6.17995">
        <ele>237</ele>
        <time>2020-06-01T08:11:39Z</time>
      </trkpt>
      <trkpt lat="47.65843" lon="6.17982">
        <ele>236</ele>
        <time>2020-06-01T08:11:42Z</time>
      </trkpt>
      <trkpt lat="47.65879" lon="6.17964">
        <ele>234</ele>
        <time>2020-06-01T08:11:42Z</time>
      </trkpt>
      <trkpt lat="47.65886" lon="6.17963">
        <ele>234</ele>
        <time>2020-06-01T08:11:43Z</time>
      </trkpt>
      <trkpt lat="47.65893" lon="6.17962">
        <ele>234</ele>
        <time>2020-06-01T08:11:44Z</time>
      </trkpt>
      <trkpt lat="47.659" lon="6.17961">
        <ele>234</ele>
        <time>2020-06-01T08:11:45Z</time>
      </trkpt>
      <trkpt lat="47.65907" lon="6.1796">
        <ele>234</ele>
        <time>2020-06-01T08:11:46Z</time>
      </trkpt>
      <trkpt lat="47.65915" lon="6.1796">
        <ele>233</ele>
        <time>2020-06-01T08:11:47Z</time>
      </trkpt>
      <trkpt lat="47.65922" lon="6.17959">
        <ele>233</ele>
        <time>2020-06-01T08:11:48Z</time>
      </trkpt>
      <trkpt lat="47.6593" lon="6.17959">
        <ele>233</ele>
        <time>2020-06-01T08:11:49Z</time>
      </trkpt>
      <trkpt lat="47.65937" lon="6.17958">
        <ele>232</ele>
        <time>2020-06-01T08:11:50Z</time>
      </trkpt>
      <trkpt lat="47.65946" lon="6.17957">
        <ele>232</ele>
        <time>2020-06-01T08:11:51Z</time>
      </trkpt>
      <trkpt lat="47.65954" lon="6.17957">
        <ele>232</ele>
        <time>2020-06-01T08:11:52Z</time>
      </trkpt>
      <trkpt lat="47.65962" lon="6.17958">
        <ele>232</ele>
        <time>2020-06-01T08:11:53Z</time>
      </trkpt>
      <trkpt lat="47.6597" lon="6.17958">
        <ele>232</ele>
        <time>2020-06-01T08:11:54Z</time>
      </trkpt>
      <trkpt lat="47.65978" lon="6.17958">
        <ele>232</ele>
        <time>2020-06-01T08:11:55Z</time>
      </trkpt>
      <trkpt lat="47.65986" lon="6.17959">
        <ele>232</ele>
        <time>2020-06-01T08:11:56Z</time>
      </trkpt>
      <trkpt lat="47.65994" lon="6.1796">
        <ele>232</ele>
        <time>2020-06-01T08:11:57Z</time>
      </trkpt>
      <trkpt lat="47.66002" lon="6.17961">
        <ele>232</ele>
        <time>2020-06-01T08:11:58Z</time>
      </trkpt>
      <trkpt lat="47.6601" lon="6.17961">
        <ele>232</ele>
        <time>2020-06-01T08:11:59Z</time>
      </trkpt>
      <trkpt lat="47.66018" lon="6.17962">
        <ele>232</ele>
        <time>2020-06-01T08:12:00Z</time>
      </trkpt>
      <trkpt lat="47.66025" lon="6.17963">
        <ele>232</ele>
        <time>2020-06-01T08:12:01Z</time>
      </trkpt>
      <trkpt lat="47.66032" lon="6.17963">
        <ele>232</ele>
        <time>2020-06-01T08:12:02Z</time>
      </trkpt>
      <trkpt lat="47.66039" lon="6.17963">
        <ele>232</ele>
        <time>2020-06-01T08:12:03Z</time>
      </trkpt>
      <trkpt lat="47.66046" lon="6.17963">
        <ele>232</ele>
        <time>2020-06-01T08:12:04Z</time>
      </trkpt>
      <trkpt lat="47.66053" lon="6.17963">
        <ele>232</ele>
        <time>2020-06-01T08:12:05Z</time>
      </trkpt>
      <trkpt lat="47.6606" lon="6.17964">
        <ele>232</ele>
        <time>2020-06-01T08:12:06Z</time>
      </trkpt>
      <trkpt lat="47.66066" lon="6.17964">
        <ele>232</ele>
        <time>2020-06-01T08:12:07Z</time>
      </trkpt>
      <trkpt lat="47.66073" lon="6.17964">
        <ele>232</ele>
        <time>2020-06-01T08:12:08Z</time>
      </trkpt>
      <trkpt lat="47.66079" lon="6.17963">
        <ele>232</ele>
        <time>2020-06-01T08:12:09Z</time>
      </trkpt>
      <trkpt lat="47.66085" lon="6.17963">
        <ele>232</ele>
        <time>2020-06-01T08:12:10Z</time>
      </trkpt>
      <trkpt lat="47.6609" lon="6.17963">
        <ele>231</ele>
        <time>2020-06-01T08:12:11Z</time>
      </trkpt>
      <trkpt lat="47.66096" lon="6.17963">
        <ele>231</ele>
        <time>2020-06-01T08:12:12Z</time>
      </trkpt>
      <trkpt lat="47.66101" lon="6.17963">
        <ele>231</ele>
        <time>2020-06-01T08:12:13Z</time>
      </trkpt>
      <trkpt lat="47.66106" lon="6.17962">
        <ele>231</ele>
        <time>2020-06-01T08:12:14Z</time>
      </trkpt>
      <trkpt lat="47.66111" lon="6.17962">
        <ele>231</ele>
        <time>2020-06-01T08:12:15Z</time>
      </trkpt>
      <trkpt lat="47.66116" lon="6.17961">
        <ele>231</ele>
        <time>2020-06-01T08:12:16Z</time>
      </trkpt>
      <trkpt lat="47.6612" lon="6.17961">
        <ele>231</ele>
        <time>2020-06-01T08:12:17Z</time>
      </trkpt>
      <trkpt lat="47.66129" lon="6.1796">
        <ele>231</ele>
        <time>2020-06-01T08:12:19Z</time>
      </trkpt>
      <trkpt lat="47.66137" lon="6.1796">
        <ele>231</ele>
        <time>2020-06-01T08:12:21Z</time>
      </trkpt>
      <trkpt lat="47.66144" lon="6.1796">
        <ele>231</ele>
        <time>2020-06-01T08:12:23Z</time>
      </trkpt>
      <trkpt lat="47.66152" lon="6.1796">
        <ele>231</ele>
        <time>2020-06-01T08:12:25Z</time>
      </trkpt>
      <trkpt lat="47.6616" lon="6.1796">
        <ele>231</ele>
        <time>2020-06-01T08:12:27Z</time>
      </trkpt>
      <trkpt lat="47.66169" lon="6.17962">
        <ele>230</ele>
        <time>2020-06-01T08:12:29Z</time>
      </trkpt>
      <trkpt lat="47.66174" lon="6.17962">
        <ele>230</ele>
        <time>2020-06-01T08:12:31Z</time>
      </trkpt>
      <trkpt lat="47.6618" lon="6.17962">
        <ele>230</ele>
        <time>2020-06-01T08:12:36Z</time>
      </trkpt>
      <trkpt lat="47.66188" lon="6.17964">
        <ele>230</ele>
        <time>2020-06-01T08:12:38Z</time>
      </trkpt>
      <trkpt lat="47.66204" lon="6.17967">
        <ele>230</ele>
        <time>2020-06-01T08:12:42Z</time>
      </trkpt>
      <trkpt lat="47.66213" lon="6.17969">
        <ele>230</ele>
        <time>2020-06-01T08:12:44Z</time>
      </trkpt>
      <trkpt lat="47.66222" lon="6.17972">
        <ele>230</ele>
        <time>2020-06-01T08:12:46Z</time>
      </trkpt>
      <trkpt lat="47.66245" lon="6.17976">
        <ele>230</ele>
        <time>2020-06-01T08:12:47Z</time>
      </trkpt>
      <trkpt lat="47.6625" lon="6.17977">
        <ele>230</ele>
        <time>2020-06-01T08:12:48Z</time>
      </trkpt>
      <trkpt lat="47.66255" lon="6.17978">
        <ele>229</ele>
        <time>2020-06-01T08:12:49Z</time>
      </trkpt>
      <trkpt lat="47.6626" lon="6.17978">
        <ele>229</ele>
        <time>2020-06-01T08:12:50Z</time>
      </trkpt>
      <trkpt lat="47.66265" lon="6.17979">
        <ele>228</ele>
        <time>2020-06-01T08:12:51Z</time>
      </trkpt>
      <trkpt lat="47.66271" lon="6.17979">
        <ele>228</ele>
        <time>2020-06-01T08:12:52Z</time>
      </trkpt>
      <trkpt lat="47.66276" lon="6.1798">
        <ele>228</ele>
        <time>2020-06-01T08:12:53Z</time>
      </trkpt>
      <trkpt lat="47.66282" lon="6.1798">
        <ele>228</ele>
        <time>2020-06-01T08:12:54Z</time>
      </trkpt>
      <trkpt lat="47.66288" lon="6.1798">
        <ele>228</ele>
        <time>2020-06-01T08:12:55Z</time>
      </trkpt>
      <trkpt lat="47.66294" lon="6.1798">
        <ele>228</ele>
        <time>2020-06-01T08:12:56Z</time>
      </trkpt>
      <trkpt lat="47.66299" lon="6.1798">
        <ele>228</ele>
        <time>2020-06-01T08:12:57Z</time>
      </trkpt>
      <trkpt lat="47.66305" lon="6.1798">
        <ele>228</ele>
        <time>2020-06-01T08:12:58Z</time>
      </trkpt>
      <trkpt lat="47.6631" lon="6.17979">
        <ele>228</ele>
        <time>2020-06-01T08:12:59Z</time>
      </trkpt>
      <trkpt lat="47.66315" lon="6.17979">
        <ele>228</ele>
        <time>2020-06-01T08:13:00Z</time>
      </trkpt>
      <trkpt lat="47.6632" lon="6.17978">
        <ele>228</ele>
        <time>2020-06-01T08:13:01Z</time>
      </trkpt>
      <trkpt lat="47.66327" lon="6.17981">
        <ele>227</ele>
        <time>2020-06-01T08:13:03Z</time>
      </trkpt>
      <trkpt lat="47.66331" lon="6.17992">
        <ele>227</ele>
        <time>2020-06-01T08:13:05Z</time>
      </trkpt>
      <trkpt lat="47.66334" lon="6.18002">
        <ele>227</ele>
        <time>2020-06-01T08:13:07Z</time>
      </trkpt>
      <trkpt lat="47.66338" lon="6.18013">
        <ele>228</ele>
        <time>2020-06-01T08:13:09Z</time>
      </trkpt>
      <trkpt lat="47.66341" lon="6.18024">
        <ele>229</ele>
        <time>2020-06-01T08:13:11Z</time>
      </trkpt>
      <trkpt lat="47.66345" lon="6.18033">
        <ele>229</ele>
        <time>2020-06-01T08:13:13Z</time>
      </trkpt>
      <trkpt lat="47.66351" lon="6.18043">
        <ele>229</ele>
        <time>2020-06-01T08:13:14Z</time>
      </trkpt>
      <trkpt lat="47.66354" lon="6.18048">
        <ele>229</ele>
        <time>2020-06-01T08:13:19Z</time>
      </trkpt>
      <trkpt lat="47.66361" lon="6.1806">
        <ele>230</ele>
        <time>2020-06-01T08:13:22Z</time>
      </trkpt>
      <trkpt lat="47.66366" lon="6.18068">
        <ele>230</ele>
        <time>2020-06-01T08:13:24Z</time>
      </trkpt>
      <trkpt lat="47.6637" lon="6.18073">
        <ele>230</ele>
        <time>2020-06-01T08:13:25Z</time>
      </trkpt>
      <trkpt lat="47.66377" lon="6.18085">
        <ele>230</ele>
        <time>2020-06-01T08:13:29Z</time>
      </trkpt>
      <trkpt lat="47.66383" lon="6.18093">
        <ele>230</ele>
        <time>2020-06-01T08:13:30Z</time>
      </trkpt>
      <trkpt lat="47.6639" lon="6.18102">
        <ele>230</ele>
        <time>2020-06-01T08:13:33Z</time>
      </trkpt>
      <trkpt lat="47.664" lon="6.18116">
        <ele>230</ele>
        <time>2020-06-01T08:13:37Z</time>
      </trkpt>
      <trkpt lat="47.66409" lon="6.18128">
        <ele>230</ele>
        <time>2020-06-01T08:13:41Z</time>
      </trkpt>
      <trkpt lat="47.66418" lon="6.18138">
        <ele>231</ele>
        <time>2020-06-01T08:13:44Z</time>
      </trkpt>
      <trkpt lat="47.66422" lon="6.18141">
        <ele>231</ele>
        <time>2020-06-01T08:13:46Z</time>
      </trkpt>
      <trkpt lat="47.66426" lon="6.18145">
        <ele>231</ele>
        <time>2020-06-01T08:13:48Z</time>
      </trkpt>
      <trkpt lat="47.66431" lon="6.18151">
        <ele>231</ele>
        <time>2020-06-01T08:13:49Z</time>
      </trkpt>
      <trkpt lat="47.66435" lon="6.18157">
        <ele>231</ele>
        <time>2020-06-01T08:13:51Z</time>
      </trkpt>
      <trkpt lat="47.66443" lon="6.18172">
        <ele>230</ele>
        <time>2020-06-01T08:13:53Z</time>
      </trkpt>
      <trkpt lat="47.66445" lon="6.18178">
        <ele>231</ele>
        <time>2020-06-01T08:13:57Z</time>
      </trkpt>
      <trkpt lat="47.66449" lon="6.18188">
        <ele>231</ele>
        <time>2020-06-01T08:14:00Z</time>
      </trkpt>
      <trkpt lat="47.66451" lon="6.18196">
        <ele>231</ele>
        <time>2020-06-01T08:14:02Z</time>
      </trkpt>
      <trkpt lat="47.66456" lon="6.18211">
        <ele>231</ele>
        <time>2020-06-01T08:14:03Z</time>
      </trkpt>
      <trkpt lat="47.66459" lon="6.18218">
        <ele>231</ele>
        <time>2020-06-01T08:14:05Z</time>
      </trkpt>
      <trkpt lat="47.66462" lon="6.18225">
        <ele>231</ele>
        <time>2020-06-01T08:14:10Z</time>
      </trkpt>
      <trkpt lat="47.66464" lon="6.18232">
        <ele>231</ele>
        <time>2020-06-01T08:14:13Z</time>
      </trkpt>
      <trkpt lat="47.66467" lon="6.18239">
        <ele>231</ele>
        <time>2020-06-01T08:14:15Z</time>
      </trkpt>
      <trkpt lat="47.66472" lon="6.18254">
        <ele>232</ele>
        <time>2020-06-01T08:14:20Z</time>
      </trkpt>
      <trkpt lat="47.66476" lon="6.18267">
        <ele>232</ele>
        <time>2020-06-01T08:14:26Z</time>
      </trkpt>
      <trkpt lat="47.66485" lon="6.18281">
        <ele>232</ele>
        <time>2020-06-01T08:14:27Z</time>
      </trkpt>
      <trkpt lat="47.66489" lon="6.18287">
        <ele>232</ele>
        <time>2020-06-01T08:14:29Z</time>
      </trkpt>
      <trkpt lat="47.66494" lon="6.18292">
        <ele>232</ele>
        <time>2020-06-01T08:14:31Z</time>
      </trkpt>
      <trkpt lat="47.66498" lon="6.18297">
        <ele>232</ele>
        <time>2020-06-01T08:14:33Z</time>
      </trkpt>
      <trkpt lat="47.66502" lon="6.18303">
        <ele>234</ele>
        <time>2020-06-01T08:14:35Z</time>
      </trkpt>
      <trkpt lat="47.66506" lon="6.18308">
        <ele>234</ele>
        <time>2020-06-01T08:14:37Z</time>
      </trkpt>
      <trkpt lat="47.6651" lon="6.18313">
        <ele>234</ele>
        <time>2020-06-01T08:14:41Z</time>
      </trkpt>
      <trkpt lat="47.66513" lon="6.18317">
        <ele>234</ele>
        <time>2020-06-01T08:14:43Z</time>
      </trkpt>
      <trkpt lat="47.66518" lon="6.18323">
        <ele>234</ele>
        <time>2020-06-01T08:14:46Z</time>
      </trkpt>
      <trkpt lat="47.66523" lon="6.1833">
        <ele>234</ele>
        <time>2020-06-01T08:14:48Z</time>
      </trkpt>
      <trkpt lat="47.66529" lon="6.18337">
        <ele>235</ele>
        <time>2020-06-01T08:14:51Z</time>
      </trkpt>
      <trkpt lat="47.66539" lon="6.18347">
        <ele>235</ele>
        <time>2020-06-01T08:14:52Z</time>
      </trkpt>
      <trkpt lat="47.66543" lon="6.18351">
        <ele>235</ele>
        <time>2020-06-01T08:14:57Z</time>
      </trkpt>
      <trkpt lat="47.66553" lon="6.1836">
        <ele>235</ele>
        <time>2020-06-01T08:15:00Z</time>
      </trkpt>
      <trkpt lat="47.66557" lon="6.18364">
        <ele>236</ele>
        <time>2020-06-01T08:15:01Z</time>
      </trkpt>
      <trkpt lat="47.66566" lon="6.18371">
        <ele>236</ele>
        <time>2020-06-01T08:15:02Z</time>
      </trkpt>
      <trkpt lat="47.66572" lon="6.18375">
        <ele>236</ele>
        <time>2020-06-01T08:15:04Z</time>
      </trkpt>
      <trkpt lat="47.66576" lon="6.18379">
        <ele>236</ele>
        <time>2020-06-01T08:15:06Z</time>
      </trkpt>
      <trkpt lat="47.6658" lon="6.18382">
        <ele>236</ele>
        <time>2020-06-01T08:15:11Z</time>
      </trkpt>
      <trkpt lat="47.66591" lon="6.1839">
        <ele>237</ele>
        <time>2020-06-01T08:15:15Z</time>
      </trkpt>
      <trkpt lat="47.66602" lon="6.184">
        <ele>237</ele>
        <time>2020-06-01T08:15:19Z</time>
      </trkpt>
      <trkpt lat="47.66607" lon="6.18404">
        <ele>237</ele>
        <time>2020-06-01T08:15:20Z</time>
      </trkpt>
      <trkpt lat="47.66619" lon="6.18414">
        <ele>238</ele>
        <time>2020-06-01T08:15:25Z</time>
      </trkpt>
      <trkpt lat="47.66623" lon="6.18418">
        <ele>237</ele>
        <time>2020-06-01T08:15:26Z</time>
      </trkpt>
      <trkpt lat="47.66635" lon="6.18428">
        <ele>237</ele>
        <time>2020-06-01T08:15:31Z</time>
      </trkpt>
      <trkpt lat="47.66641" lon="6.18432">
        <ele>237</ele>
        <time>2020-06-01T08:15:33Z</time>
      </trkpt>
      <trkpt lat="47.66647" lon="6.18436">
        <ele>237</ele>
        <time>2020-06-01T08:15:35Z</time>
      </trkpt>
      <trkpt lat="47.66652" lon="6.1844">
        <ele>237</ele>
        <time>2020-06-01T08:15:37Z</time>
      </trkpt>
      <trkpt lat="47.66657" lon="6.18444">
        <ele>237</ele>
        <time>2020-06-01T08:15:39Z</time>
      </trkpt>
      <trkpt lat="47.66662" lon="6.18448">
        <ele>237</ele>
        <time>2020-06-01T08:15:41Z</time>
      </trkpt>
      <trkpt lat="47.66667" lon="6.18452">
        <ele>237</ele>
        <time>2020-06-01T08:15:42Z</time>
      </trkpt>
      <trkpt lat="47.66671" lon="6.18458">
        <ele>238</ele>
        <time>2020-06-01T08:15:44Z</time>
      </trkpt>
      <trkpt lat="47.66676" lon="6.18463">
        <ele>238</ele>
        <time>2020-06-01T08:15:46Z</time>
      </trkpt>
      <trkpt lat="47.66681" lon="6.18468">
        <ele>238</ele>
        <time>2020-06-01T08:15:49Z</time>
      </trkpt>
      <trkpt lat="47.66691" lon="6.18477">
        <ele>238</ele>
        <time>2020-06-01T08:15:53Z</time>
      </trkpt>
      <trkpt lat="47.66702" lon="6.18486">
        <ele>238</ele>
        <time>2020-06-01T08:15:55Z</time>
      </trkpt>
      <trkpt lat="47.66707" lon="6.18488">
        <ele>238</ele>
        <time>2020-06-01T08:15:59Z</time>
      </trkpt>
      <trkpt lat="47.66717" lon="6.18494">
        <ele>238</ele>
        <time>2020-06-01T08:16:04Z</time>
      </trkpt>
      <trkpt lat="47.66722" lon="6.18496">
        <ele>237</ele>
        <time>2020-06-01T08:16:06Z</time>
      </trkpt>
      <trkpt lat="47.66727" lon="6.18498">
        <ele>237</ele>
        <time>2020-06-01T08:16:09Z</time>
      </trkpt>
      <trkpt lat="47.66741" lon="6.18504">
        <ele>236</ele>
        <time>2020-06-01T08:16:14Z</time>
      </trkpt>
      <trkpt lat="47.66746" lon="6.18507">
        <ele>236</ele>
        <time>2020-06-01T08:16:16Z</time>
      </trkpt>
      <trkpt lat="47.66751" lon="6.18509">
        <ele>236</ele>
        <time>2020-06-01T08:16:18Z</time>
      </trkpt>
      <trkpt lat="47.66756" lon="6.1851">
        <ele>237</ele>
        <time>2020-06-01T08:16:20Z</time>
      </trkpt>
      <trkpt lat="47.66768" lon="6.18514">
        <ele>237</ele>
        <time>2020-06-01T08:16:25Z</time>
      </trkpt>
      <trkpt lat="47.66774" lon="6.18514">
        <ele>237</ele>
        <time>2020-06-01T08:16:27Z</time>
      </trkpt>
      <trkpt lat="47.66778" lon="6.18515">
        <ele>237</ele>
        <time>2020-06-01T08:16:29Z</time>
      </trkpt>
      <trkpt lat="47.66784" lon="6.18516">
        <ele>238</ele>
        <time>2020-06-01T08:16:31Z</time>
      </trkpt>
      <trkpt lat="47.66791" lon="6.18518">
        <ele>238</ele>
        <time>2020-06-01T08:16:33Z</time>
      </trkpt>
      <trkpt lat="47.66799" lon="6.18521">
        <ele>238</ele>
        <time>2020-06-01T08:16:34Z</time>
      </trkpt>
      <trkpt lat="47.66805" lon="6.18524">
        <ele>238</ele>
        <time>2020-06-01T08:16:37Z</time>
      </trkpt>
      <trkpt lat="47.66811" lon="6.18527">
        <ele>238</ele>
        <time>2020-06-01T08:16:38Z</time>
      </trkpt>
      <trkpt lat="47.66817" lon="6.18531">
        <ele>238</ele>
        <time>2020-06-01T08:16:41Z</time>
      </trkpt>
      <trkpt lat="47.66823" lon="6.18536">
        <ele>238</ele>
        <time>2020-06-01T08:16:43Z</time>
      </trkpt>
      <trkpt lat="47.6684" lon="6.18549">
        <ele>239</ele>
        <time>2020-06-01T08:16:44Z</time>
      </trkpt>
      <trkpt lat="47.66846" lon="6.18555">
        <ele>239</ele>
        <time>2020-06-01T08:16:48Z</time>
      </trkpt>
      <trkpt lat="47.66853" lon="6.18559">
        <ele>239</ele>
        <time>2020-06-01T08:16:50Z</time>
      </trkpt>
      <trkpt lat="47.6686" lon="6.18564">
        <ele>239</ele>
        <time>2020-06-01T08:16:52Z</time>
      </trkpt>
      <trkpt lat="47.66872" lon="6.18573">
        <ele>239</ele>
        <time>2020-06-01T08:16:54Z</time>
      </trkpt>
      <trkpt lat="47.66877" lon="6.18578">
        <ele>239</ele>
        <time>2020-06-01T08:16:56Z</time>
      </trkpt>
      <trkpt lat="47.66883" lon="6.18582">
        <ele>239</ele>
        <time>2020-06-01T08:16:57Z</time>
      </trkpt>
      <trkpt lat="47.66891" lon="6.18586">
        <ele>239</ele>
        <time>2020-06-01T08:16:59Z</time>
      </trkpt>
      <trkpt lat="47.66901" lon="6.18591">
        <ele>239</ele>
        <time>2020-06-01T08:17:03Z</time>
      </trkpt>
      <trkpt lat="47.66913" lon="6.18595">
        <ele>239</ele>
        <time>2020-06-01T08:17:04Z</time>
      </trkpt>
      <trkpt lat="47.66918" lon="6.18595">
        <ele>239</ele>
        <time>2020-06-01T08:17:08Z</time>
      </trkpt>
      <trkpt lat="47.6693" lon="6.18597">
        <ele>239</ele>
        <time>2020-06-01T08:17:12Z</time>
      </trkpt>
      <trkpt lat="47.66941" lon="6.18596">
        <ele>239</ele>
        <time>2020-06-01T08:17:17Z</time>
      </trkpt>
      <trkpt lat="47.66946" lon="6.18597">
        <ele>239</ele>
        <time>2020-06-01T08:17:19Z</time>
      </trkpt>
      <trkpt lat="47.66951" lon="6.18598">
        <ele>239</ele>
        <time>2020-06-01T08:17:22Z</time>
      </trkpt>
      <trkpt lat="47.66962" lon="6.18599">
        <ele>239</ele>
        <time>2020-06-01T08:17:24Z</time>
      </trkpt>
      <trkpt lat="47.66967" lon="6.18601">
        <ele>239</ele>
        <time>2020-06-01T08:17:26Z</time>
      </trkpt>
      <trkpt lat="47.66973" lon="6.18603">
        <ele>239</ele>
        <time>2020-06-01T08:17:31Z</time>
      </trkpt>
      <trkpt lat="47.66986" lon="6.18606">
        <ele>239</ele>
        <time>2020-06-01T08:17:36Z</time>
      </trkpt>
      <trkpt lat="47.66992" lon="6.18608">
        <ele>239</ele>
        <time>2020-06-01T08:17:38Z</time>
      </trkpt>
      <trkpt lat="47.67006" lon="6.18612">
        <ele>239</ele>
        <time>2020-06-01T08:17:39Z</time>
      </trkpt>
      <trkpt lat="47.67012" lon="6.18613">
        <ele>239</ele>
        <time>2020-06-01T08:17:44Z</time>
      </trkpt>
      <trkpt lat="47.67017" lon="6.18615">
        <ele>239</ele>
        <time>2020-06-01T08:17:45Z</time>
      </trkpt>
      <trkpt lat="47.67022" lon="6.18615">
        <ele>239</ele>
        <time>2020-06-01T08:17:47Z</time>
      </trkpt>
      <trkpt lat="47.67028" lon="6.18616">
        <ele>239</ele>
        <time>2020-06-01T08:17:49Z</time>
      </trkpt>
      <trkpt lat="47.67041" lon="6.18617">
        <ele>240</ele>
        <time>2020-06-01T08:17:53Z</time>
      </trkpt>
      <trkpt lat="47.67046" lon="6.18618">
        <ele>240</ele>
        <time>2020-06-01T08:17:55Z</time>
      </trkpt>
      <trkpt lat="47.67058" lon="6.18619">
        <ele>240</ele>
        <time>2020-06-01T08:18:00Z</time>
      </trkpt>
      <trkpt lat="47.67063" lon="6.18619">
        <ele>240</ele>
        <time>2020-06-01T08:18:01Z</time>
      </trkpt>
      <trkpt lat="47.67076" lon="6.18621">
        <ele>240</ele>
        <time>2020-06-01T08:18:06Z</time>
      </trkpt>
      <trkpt lat="47.6708" lon="6.18621">
        <ele>240</ele>
        <time>2020-06-01T08:18:07Z</time>
      </trkpt>
      <trkpt lat="47.6709" lon="6.18621">
        <ele>241</ele>
        <time>2020-06-01T08:18:11Z</time>
      </trkpt>
      <trkpt lat="47.67096" lon="6.18621">
        <ele>241</ele>
        <time>2020-06-01T08:18:12Z</time>
      </trkpt>
      <trkpt lat="47.6711" lon="6.18623">
        <ele>241</ele>
        <time>2020-06-01T08:18:16Z</time>
      </trkpt>
      <trkpt lat="47.67115" lon="6.18624">
        <ele>241</ele>
        <time>2020-06-01T08:18:18Z</time>
      </trkpt>
      <trkpt lat="47.67129" lon="6.18625">
        <ele>241</ele>
        <time>2020-06-01T08:18:19Z</time>
      </trkpt>
      <trkpt lat="47.67133" lon="6.18624">
        <ele>241</ele>
        <time>2020-06-01T08:18:23Z</time>
      </trkpt>
      <trkpt lat="47.67141" lon="6.18624">
        <ele>241</ele>
        <time>2020-06-01T08:18:26Z</time>
      </trkpt>
      <trkpt lat="47.67146" lon="6.18625">
        <ele>241</ele>
        <time>2020-06-01T08:18:28Z</time>
      </trkpt>
      <trkpt lat="47.67152" lon="6.18625">
        <ele>241</ele>
        <time>2020-06-01T08:18:30Z</time>
      </trkpt>
      <trkpt lat="47.67162" lon="6.18625">
        <ele>242</ele>
        <time>2020-06-01T08:18:34Z</time>
      </trkpt>
      <trkpt lat="47.67167" lon="6.18626">
        <ele>243</ele>
        <time>2020-06-01T08:18:36Z</time>
      </trkpt>
      <trkpt lat="47.67178" lon="6.18627">
        <ele>243</ele>
        <time>2020-06-01T08:18:40Z</time>
      </trkpt>
      <trkpt lat="47.67189" lon="6.18628">
        <ele>243</ele>
        <time>2020-06-01T08:18:43Z</time>
      </trkpt>
      <trkpt lat="47.67195" lon="6.18628">
        <ele>243</ele>
        <time>2020-06-01T08:18:46Z</time>
      </trkpt>
      <trkpt lat="47.67202" lon="6.18629">
        <ele>243</ele>
        <time>2020-06-01T08:18:47Z</time>
      </trkpt>
      <trkpt lat="47.67208" lon="6.1863">
        <ele>243</ele>
        <time>2020-06-01T08:18:49Z</time>
      </trkpt>
      <trkpt lat="47.67214" lon="6.1863">
        <ele>243</ele>
        <time>2020-06-01T08:18:51Z</time>
      </trkpt>
      <trkpt lat="47.67225" lon="6.18631">
        <ele>243</ele>
        <time>2020-06-01T08:18:52Z</time>
      </trkpt>
      <trkpt lat="47.6723" lon="6.1863">
        <ele>243</ele>
        <time>2020-06-01T08:18:57Z</time>
      </trkpt>
      <trkpt lat="47.67242" lon="6.1863">
        <ele>243</ele>
        <time>2020-06-01T08:19:02Z</time>
      </trkpt>
      <trkpt lat="47.67253" lon="6.18629">
        <ele>245</ele>
        <time>2020-06-01T08:19:06Z</time>
      </trkpt>
      <trkpt lat="47.67258" lon="6.1863">
        <ele>245</ele>
        <time>2020-06-01T08:19:08Z</time>
      </trkpt>
      <trkpt lat="47.67269" lon="6.1863">
        <ele>246</ele>
        <time>2020-06-01T08:19:13Z</time>
      </trkpt>
      <trkpt lat="47.67275" lon="6.1863">
        <ele>246</ele>
        <time>2020-06-01T08:19:16Z</time>
      </trkpt>
      <trkpt lat="47.67282" lon="6.18632">
        <ele>246</ele>
        <time>2020-06-01T08:19:19Z</time>
      </trkpt>
      <trkpt lat="47.67294" lon="6.18632">
        <ele>246</ele>
        <time>2020-06-01T08:19:20Z</time>
      </trkpt>
      <trkpt lat="47.67299" lon="6.18633">
        <ele>246</ele>
        <time>2020-06-01T08:19:27Z</time>
      </trkpt>
      <trkpt lat="47.67303" lon="6.18633">
        <ele>246</ele>
        <time>2020-06-01T08:19:30Z</time>
      </trkpt>
      <trkpt lat="47.67313" lon="6.18632">
        <ele>246</ele>
        <time>2020-06-01T08:19:35Z</time>
      </trkpt>
      <trkpt lat="47.67318" lon="6.18632">
        <ele>246</ele>
        <time>2020-06-01T08:19:38Z</time>
      </trkpt>
      <trkpt lat="47.67326" lon="6.18631">
        <ele>246</ele>
        <time>2020-06-01T08:19:40Z</time>
      </trkpt>
      <trkpt lat="47.67332" lon="6.1863">
        <ele>246</ele>
        <time>2020-06-01T08:19:44Z</time>
      </trkpt>
      <trkpt lat="47.67337" lon="6.1863">
        <ele>248</ele>
        <time>2020-06-01T08:19:47Z</time>
      </trkpt>
      <trkpt lat="47.67348" lon="6.18628">
        <ele>248</ele>
        <time>2020-06-01T08:19:48Z</time>
      </trkpt>
      <trkpt lat="47.67354" lon="6.18627">
        <ele>248</ele>
        <time>2020-06-01T08:19:51Z</time>
      </trkpt>
      <trkpt lat="47.6736" lon="6.18627">
        <ele>248</ele>
        <time>2020-06-01T08:19:57Z</time>
      </trkpt>
      <trkpt lat="47.67366" lon="6.18627">
        <ele>249</ele>
        <time>2020-06-01T08:19:59Z</time>
      </trkpt>
      <trkpt lat="47.67376" lon="6.18627">
        <ele>249</ele>
        <time>2020-06-01T08:20:01Z</time>
      </trkpt>
      <trkpt lat="47.6738" lon="6.18627">
        <ele>249</ele>
        <time>2020-06-01T08:20:06Z</time>
      </trkpt>
      <trkpt lat="47.67386" lon="6.18628">
        <ele>249</ele>
        <time>2020-06-01T08:20:09Z</time>
      </trkpt>
      <trkpt lat="47.67391" lon="6.18628">
        <ele>249</ele>
        <time>2020-06-01T08:20:12Z</time>
      </trkpt>
      <trkpt lat="47.67396" lon="6.18626">
        <ele>249</ele>
        <time>2020-06-01T08:20:13Z</time>
      </trkpt>
      <trkpt lat="47.67402" lon="6.18626">
        <ele>249</ele>
        <time>2020-06-01T08:20:19Z</time>
      </trkpt>
      <trkpt lat="47.67407" lon="6.18626">
        <ele>249</ele>
        <time>2020-06-01T08:20:21Z</time>
      </trkpt>
      <trkpt lat="47.67419" lon="6.18626">
        <ele>251</ele>
        <time>2020-06-01T08:20:26Z</time>
      </trkpt>
      <trkpt lat="47.67426" lon="6.18625">
        <ele>251</ele>
        <time>2020-06-01T08:20:28Z</time>
      </trkpt>
      <trkpt lat="47.67433" lon="6.18625">
        <ele>251</ele>
        <time>2020-06-01T08:20:29Z</time>
      </trkpt>
      <trkpt lat="47.67438" lon="6.18625">
        <ele>251</ele>
        <time>2020-06-01T08:20:31Z</time>
      </trkpt>
      <trkpt lat="47.67445" lon="6.18625">
        <ele>252</ele>
        <time>2020-06-01T08:20:33Z</time>
      </trkpt>
      <trkpt lat="47.67453" lon="6.18625">
        <ele>252</ele>
        <time>2020-06-01T08:20:34Z</time>
      </trkpt>
      <trkpt lat="47.67458" lon="6.18626">
        <ele>252</ele>
        <time>2020-06-01T08:20:37Z</time>
      </trkpt>
      <trkpt lat="47.67463" lon="6.18625">
        <ele>252</ele>
        <time>2020-06-01T08:20:43Z</time>
      </trkpt>
      <trkpt lat="47.67474" lon="6.18627">
        <ele>252</ele>
        <time>2020-06-01T08:20:46Z</time>
      </trkpt>
      <trkpt lat="47.67482" lon="6.18627">
        <ele>252</ele>
        <time>2020-06-01T08:20:52Z</time>
      </trkpt>
      <trkpt lat="47.67488" lon="6.18628">
        <ele>253</ele>
        <time>2020-06-01T08:20:55Z</time>
      </trkpt>
      <trkpt lat="47.67492" lon="6.18629">
        <ele>253</ele>
        <time>2020-06-01T08:20:58Z</time>
      </trkpt>
      <trkpt lat="47.67497" lon="6.18632">
        <ele>252</ele>
        <time>2020-06-01T08:20:59Z</time>
      </trkpt>
      <trkpt lat="47.675" lon="6.18627">
        <ele>253</ele>
        <time>2020-06-01T08:21:10Z</time>
      </trkpt>
      <trkpt lat="47.67505" lon="6.18624">
        <ele>257</ele>
        <time>2020-06-01T08:21:15Z</time>
      </trkpt>
      <trkpt lat="47.67509" lon="6.18622">
        <ele>258</ele>
        <time>2020-06-01T08:21:25Z</time>
      </trkpt>
      <trkpt lat="47.67514" lon="6.18625">
        <ele>258</ele>
        <time>2020-06-01T08:21:28Z</time>
      </trkpt>
      <trkpt lat="47.67518" lon="6.18629">
        <ele>258</ele>
        <time>2020-06-01T08:21:30Z</time>
      </trkpt>
      <trkpt lat="47.67522" lon="6.18635">
        <ele>257</ele>
        <time>2020-06-01T08:21:32Z</time>
      </trkpt>
      <trkpt lat="47.67518" lon="6.18641">
        <ele>257</ele>
        <time>2020-06-01T08:21:37Z</time>
      </trkpt>
      <trkpt lat="47.67515" lon="6.18648">
        <ele>256</ele>
        <time>2020-06-01T08:21:42Z</time>
      </trkpt>
      <trkpt lat="47.6751" lon="6.1866">
        <ele>253</ele>
        <time>2020-06-01T08:21:56Z</time>
      </trkpt>
      <trkpt lat="47.67508" lon="6.18654">
        <ele>254</ele>
        <time>2020-06-01T08:22:08Z</time>
      </trkpt>
      <trkpt lat="47.67508" lon="6.18647">
        <ele>255</ele>
        <time>2020-06-01T08:22:12Z</time>
      </trkpt>
      <trkpt lat="47.67507" lon="6.18639">
        <ele>256</ele>
        <time>2020-06-01T08:22:17Z</time>
      </trkpt>
      <trkpt lat="47.67507" lon="6.18632">
        <ele>257</ele>
        <time>2020-06-01T08:22:21Z</time>
      </trkpt>
      <trkpt lat="47.67508" lon="6.18626">
        <ele>257</ele>
        <time>2020-06-01T08:22:23Z</time>
      </trkpt>
      <trkpt lat="47.67513" lon="6.18627">
        <ele>258</ele>
        <time>2020-06-01T08:22:36Z</time>
      </trkpt>
      <trkpt lat="47.67518" lon="6.1863">
        <ele>258</ele>
        <time>2020-06-01T08:22:41Z</time>
      </trkpt>
      <trkpt lat="47.67524" lon="6.18641">
        <ele>257</ele>
        <time>2020-06-01T08:22:47Z</time>
      </trkpt>
      <trkpt lat="47.67531" lon="6.1866">
        <ele>257</ele>
        <time>2020-06-01T08:22:52Z</time>
      </trkpt>
      <trkpt lat="47.67534" lon="6.18666">
        <ele>257</ele>
        <time>2020-06-01T08:22:56Z</time>
      </trkpt>
      <trkpt lat="47.6754" lon="6.18679">
        <ele>253</ele>
        <time>2020-06-01T08:23:01Z</time>
      </trkpt>
      <trkpt lat="47.67545" lon="6.18684">
        <ele>254</ele>
        <time>2020-06-01T08:23:02Z</time>
      </trkpt>
      <trkpt lat="47.6755" lon="6.18689">
        <ele>254</ele>
        <time>2020-06-01T08:23:06Z</time>
      </trkpt>
      <trkpt lat="47.67556" lon="6.18691">
        <ele>254</ele>
        <time>2020-06-01T08:23:08Z</time>
      </trkpt>
      <trkpt lat="47.67567" lon="6.18694">
        <ele>255</ele>
        <time>2020-06-01T08:23:12Z</time>
      </trkpt>
      <trkpt lat="47.67572" lon="6.18695">
        <ele>255</ele>
        <time>2020-06-01T08:23:16Z</time>
      </trkpt>
      <trkpt lat="47.67578" lon="6.18696">
        <ele>255</ele>
        <time>2020-06-01T08:23:19Z</time>
      </trkpt>
      <trkpt lat="47.67585" lon="6.18696">
        <ele>257</ele>
        <time>2020-06-01T08:23:22Z</time>
      </trkpt>
      <trkpt lat="47.6759" lon="6.18696">
        <ele>257</ele>
        <time>2020-06-01T08:23:24Z</time>
      </trkpt>
      <trkpt lat="47.67595" lon="6.18693">
        <ele>257</ele>
        <time>2020-06-01T08:23:27Z</time>
      </trkpt>
      <trkpt lat="47.676" lon="6.18693">
        <ele>257</ele>
        <time>2020-06-01T08:23:30Z</time>
      </trkpt>
      <trkpt lat="47.67613" lon="6.18692">
        <ele>257</ele>
        <time>2020-06-01T08:23:37Z</time>
      </trkpt>
      <trkpt lat="47.67618" lon="6.18692">
        <ele>257</ele>
        <time>2020-06-01T08:23:39Z</time>
      </trkpt>
      <trkpt lat="47.67624" lon="6.18694">
        <ele>256</ele>
        <time>2020-06-01T08:23:42Z</time>
      </trkpt>
      <trkpt lat="47.67627" lon="6.187">
        <ele>256</ele>
        <time>2020-06-01T08:23:46Z</time>
      </trkpt>
      <trkpt lat="47.67629" lon="6.18706">
        <ele>256</ele>
        <time>2020-06-01T08:23:49Z</time>
      </trkpt>
      <trkpt lat="47.67631" lon="6.18716">
        <ele>255</ele>
        <time>2020-06-01T08:23:52Z</time>
      </trkpt>
      <trkpt lat="47.67633" lon="6.18724">
        <ele>255</ele>
        <time>2020-06-01T08:23:57Z</time>
      </trkpt>
      <trkpt lat="47.67635" lon="6.18732">
        <ele>255</ele>
        <time>2020-06-01T08:24:02Z</time>
      </trkpt>
      <trkpt lat="47.67639" lon="6.18745">
        <ele>254</ele>
        <time>2020-06-01T08:24:06Z</time>
      </trkpt>
      <trkpt lat="47.67641" lon="6.18752">
        <ele>251</ele>
        <time>2020-06-01T08:24:08Z</time>
      </trkpt>
      <trkpt lat="47.67644" lon="6.18759">
        <ele>251</ele>
        <time>2020-06-01T08:24:11Z</time>
      </trkpt>
      <trkpt lat="47.67647" lon="6.18763">
        <ele>251</ele>
        <time>2020-06-01T08:24:15Z</time>
      </trkpt>
      <trkpt lat="47.67651" lon="6.18768">
        <ele>251</ele>
        <time>2020-06-01T08:24:20Z</time>
      </trkpt>
      <trkpt lat="47.67653" lon="6.18773">
        <ele>250</ele>
        <time>2020-06-01T08:24:26Z</time>
      </trkpt>
      <trkpt lat="47.67657" lon="6.1878">
        <ele>250</ele>
        <time>2020-06-01T08:24:30Z</time>
      </trkpt>
      <trkpt lat="47.67661" lon="6.18785">
        <ele>250</ele>
        <time>2020-06-01T08:24:37Z</time>
      </trkpt>
      <trkpt lat="47.67666" lon="6.18788">
        <ele>250</ele>
        <time>2020-06-01T08:24:40Z</time>
      </trkpt>
      <trkpt lat="47.67673" lon="6.18791">
        <ele>251</ele>
        <time>2020-06-01T08:24:43Z</time>
      </trkpt>
      <trkpt lat="47.67678" lon="6.18792">
        <ele>251</ele>
        <time>2020-06-01T08:24:48Z</time>
      </trkpt>
      <trkpt lat="47.67683" lon="6.18793">
        <ele>251</ele>
        <time>2020-06-01T08:25:02Z</time>
      </trkpt>
      <trkpt lat="47.67687" lon="6.18796">
        <ele>251</ele>
        <time>2020-06-01T08:25:08Z</time>
      </trkpt>
      <trkpt lat="47.67691" lon="6.18795">
        <ele>251</ele>
        <time>2020-06-01T08:25:32Z</time>
      </trkpt>
      <trkpt lat="47.67696" lon="6.188">
        <ele>251</ele>
        <time>2020-06-01T08:25:36Z</time>
      </trkpt>
      <trkpt lat="47.67699" lon="6.18804">
        <ele>251</ele>
        <time>2020-06-01T08:25:40Z</time>
      </trkpt>
      <trkpt lat="47.67703" lon="6.18809">
        <ele>251</ele>
        <time>2020-06-01T08:25:42Z</time>
      </trkpt>
      <trkpt lat="47.67706" lon="6.18814">
        <ele>251</ele>
        <time>2020-06-01T08:25:44Z</time>
      </trkpt>
      <trkpt lat="47.6771" lon="6.18819">
        <ele>251</ele>
        <time>2020-06-01T08:25:47Z</time>
      </trkpt>
      <trkpt lat="47.67715" lon="6.18825">
        <ele>252</ele>
        <time>2020-06-01T08:25:50Z</time>
      </trkpt>
      <trkpt lat="47.6772" lon="6.18826">
        <ele>252</ele>
        <time>2020-06-01T08:25:52Z</time>
      </trkpt>
      <trkpt lat="47.67724" lon="6.18824">
        <ele>252</ele>
        <time>2020-06-01T08:25:54Z</time>
      </trkpt>
      <trkpt lat="47.67729" lon="6.18824">
        <ele>252</ele>
        <time>2020-06-01T08:25:57Z</time>
      </trkpt>
      <trkpt lat="47.67734" lon="6.18824">
        <ele>252</ele>
        <time>2020-06-01T08:25:59Z</time>
      </trkpt>
      <trkpt lat="47.67739" lon="6.18821">
        <ele>252</ele>
        <time>2020-06-01T08:26:03Z</time>
      </trkpt>
      <trkpt lat="47.67744" lon="6.1882">
        <ele>252</ele>
        <time>2020-06-01T08:26:06Z</time>
      </trkpt>
      <trkpt lat="47.67749" lon="6.18818">
        <ele>252</ele>
        <time>2020-06-01T08:26:10Z</time>
      </trkpt>
      <trkpt lat="47.67754" lon="6.18817">
        <ele>255</ele>
        <time>2020-06-01T08:26:12Z</time>
      </trkpt>
      <trkpt lat="47.67759" lon="6.18815">
        <ele>255</ele>
        <time>2020-06-01T08:26:15Z</time>
      </trkpt>
      <trkpt lat="47.67764" lon="6.18814">
        <ele>255</ele>
        <time>2020-06-01T08:26:19Z</time>
      </trkpt>
      <trkpt lat="47.6777" lon="6.18811">
        <ele>256</ele>
        <time>2020-06-01T08:26:23Z</time>
      </trkpt>
      <trkpt lat="47.67779" lon="6.18804">
        <ele>256</ele>
        <time>2020-06-01T08:26:28Z</time>
      </trkpt>
      <trkpt lat="47.67787" lon="6.18796">
        <ele>257</ele>
        <time>2020-06-01T08:26:33Z</time>
      </trkpt>
      <trkpt lat="47.67796" lon="6.18788">
        <ele>257</ele>
        <time>2020-06-01T08:26:39Z</time>
      </trkpt>
      <trkpt lat="47.678" lon="6.18782">
        <ele>257</ele>
        <time>2020-06-01T08:26:42Z</time>
      </trkpt>
      <trkpt lat="47.67804" lon="6.18778">
        <ele>257</ele>
        <time>2020-06-01T08:26:44Z</time>
      </trkpt>
      <trkpt lat="47.67808" lon="6.18773">
        <ele>257</ele>
        <time>2020-06-01T08:26:46Z</time>
      </trkpt>
      <trkpt lat="47.67813" lon="6.18768">
        <ele>258</ele>
        <time>2020-06-01T08:26:49Z</time>
      </trkpt>
      <trkpt lat="47.67818" lon="6.18764">
        <ele>258</ele>
        <time>2020-06-01T08:26:52Z</time>
      </trkpt>
      <trkpt lat="47.67828" lon="6.18754">
        <ele>258</ele>
        <time>2020-06-01T08:27:00Z</time>
      </trkpt>
      <trkpt lat="47.67832" lon="6.18749">
        <ele>259</ele>
        <time>2020-06-01T08:27:04Z</time>
      </trkpt>
      <trkpt lat="47.67835" lon="6.18744">
        <ele>260</ele>
        <time>2020-06-01T08:27:06Z</time>
      </trkpt>
      <trkpt lat="47.67839" lon="6.18741">
        <ele>260</ele>
        <time>2020-06-01T08:27:10Z</time>
      </trkpt>
      <trkpt lat="47.67846" lon="6.18742">
        <ele>261</ele>
        <time>2020-06-01T08:27:15Z</time>
      </trkpt>
      <trkpt lat="47.6785" lon="6.18748">
        <ele>261</ele>
        <time>2020-06-01T08:27:19Z</time>
      </trkpt>
      <trkpt lat="47.67854" lon="6.18752">
        <ele>262</ele>
        <time>2020-06-01T08:27:22Z</time>
      </trkpt>
      <trkpt lat="47.67858" lon="6.18756">
        <ele>263</ele>
        <time>2020-06-01T08:27:25Z</time>
      </trkpt>
      <trkpt lat="47.67862" lon="6.18761">
        <ele>263</ele>
        <time>2020-06-01T08:27:25Z</time>
      </trkpt>
      <trkpt lat="47.67865" lon="6.18768">
        <ele>264</ele>
        <time>2020-06-01T08:27:33Z</time>
      </trkpt>
      <trkpt lat="47.67867" lon="6.18775">
        <ele>264</ele>
        <time>2020-06-01T08:27:35Z</time>
      </trkpt>
      <trkpt lat="47.6787" lon="6.18782">
        <ele>264</ele>
        <time>2020-06-01T08:27:39Z</time>
      </trkpt>
      <trkpt lat="47.67872" lon="6.18791">
        <ele>265</ele>
        <time>2020-06-01T08:27:40Z</time>
      </trkpt>
      <trkpt lat="47.67874" lon="6.18798">
        <ele>265</ele>
        <time>2020-06-01T08:27:48Z</time>
      </trkpt>
      <trkpt lat="47.67877" lon="6.18805">
        <ele>265</ele>
        <time>2020-06-01T08:27:52Z</time>
      </trkpt>
      <trkpt lat="47.67881" lon="6.18813">
        <ele>265</ele>
        <time>2020-06-01T08:27:55Z</time>
      </trkpt>
      <trkpt lat="47.67884" lon="6.18818">
        <ele>266</ele>
        <time>2020-06-01T08:27:58Z</time>
      </trkpt>
      <trkpt lat="47.67889" lon="6.1882">
        <ele>266</ele>
        <time>2020-06-01T08:28:02Z</time>
      </trkpt>
      <trkpt lat="47.67896" lon="6.18821">
        <ele>267</ele>
        <time>2020-06-01T08:28:02Z</time>
      </trkpt>
      <trkpt lat="47.67901" lon="6.18822">
        <ele>267</ele>
        <time>2020-06-01T08:28:10Z</time>
      </trkpt>
      <trkpt lat="47.67906" lon="6.18824">
        <ele>268</ele>
        <time>2020-06-01T08:28:13Z</time>
      </trkpt>
      <trkpt lat="47.67916" lon="6.18826">
        <ele>269</ele>
        <time>2020-06-01T08:28:17Z</time>
      </trkpt>
      <trkpt lat="47.67922" lon="6.18826">
        <ele>271</ele>
        <time>2020-06-01T08:28:25Z</time>
      </trkpt>
      <trkpt lat="47.67931" lon="6.18822">
        <ele>272</ele>
        <time>2020-06-01T08:28:33Z</time>
      </trkpt>
      <trkpt lat="47.67935" lon="6.18819">
        <ele>272</ele>
        <time>2020-06-01T08:28:37Z</time>
      </trkpt>
      <trkpt lat="47.6794" lon="6.18816">
        <ele>272</ele>
        <time>2020-06-01T08:28:41Z</time>
      </trkpt>
      <trkpt lat="47.67945" lon="6.18814">
        <ele>272</ele>
        <time>2020-06-01T08:28:41Z</time>
      </trkpt>
      <trkpt lat="47.67949" lon="6.18812">
        <ele>273</ele>
        <time>2020-06-01T08:28:48Z</time>
      </trkpt>
      <trkpt lat="47.67955" lon="6.1881">
        <ele>273</ele>
        <time>2020-06-01T08:28:52Z</time>
      </trkpt>
      <trkpt lat="47.6796" lon="6.18807">
        <ele>273</ele>
        <time>2020-06-01T08:28:55Z</time>
      </trkpt>
      <trkpt lat="47.6797" lon="6.18802">
        <ele>273</ele>
        <time>2020-06-01T08:29:00Z</time>
      </trkpt>
      <trkpt lat="47.67975" lon="6.18799">
        <ele>274</ele>
        <time>2020-06-01T08:29:03Z</time>
      </trkpt>
      <trkpt lat="47.67982" lon="6.18793">
        <ele>274</ele>
        <time>2020-06-01T08:29:06Z</time>
      </trkpt>
      <trkpt lat="47.67987" lon="6.18789">
        <ele>274</ele>
        <time>2020-06-01T08:29:09Z</time>
      </trkpt>
      <trkpt lat="47.67995" lon="6.18784">
        <ele>274</ele>
        <time>2020-06-01T08:29:10Z</time>
      </trkpt>
      <trkpt lat="47.68" lon="6.18783">
        <ele>274</ele>
        <time>2020-06-01T08:29:21Z</time>
      </trkpt>
      <trkpt lat="47.68003" lon="6.18778">
        <ele>278</ele>
        <time>2020-06-01T08:29:29Z</time>
      </trkpt>
      <trkpt lat="47.68007" lon="6.18776">
        <ele>278</ele>
        <time>2020-06-01T08:29:30Z</time>
      </trkpt>
      <trkpt lat="47.68012" lon="6.18775">
        <ele>279</ele>
        <time>2020-06-01T08:29:33Z</time>
      </trkpt>
      <trkpt lat="47.68017" lon="6.18775">
        <ele>279</ele>
        <time>2020-06-01T08:29:39Z</time>
      </trkpt>
      <trkpt lat="47.68023" lon="6.18773">
        <ele>279</ele>
        <time>2020-06-01T08:29:44Z</time>
      </trkpt>
      <trkpt lat="47.68028" lon="6.18773">
        <ele>279</ele>
        <time>2020-06-01T08:29:58Z</time>
      </trkpt>
      <trkpt lat="47.68033" lon="6.18772">
        <ele>280</ele>
        <time>2020-06-01T08:30:01Z</time>
      </trkpt>
      <trkpt lat="47.68039" lon="6.18771">
        <ele>280</ele>
        <time>2020-06-01T08:30:07Z</time>
      </trkpt>
      <trkpt lat="47.68044" lon="6.18768">
        <ele>281</ele>
        <time>2020-06-01T08:30:12Z</time>
      </trkpt>
      <trkpt lat="47.68049" lon="6.18767">
        <ele>281</ele>
        <time>2020-06-01T08:30:15Z</time>
      </trkpt>
      <trkpt lat="47.68055" lon="6.18765">
        <ele>281</ele>
        <time>2020-06-01T08:30:17Z</time>
      </trkpt>
      <trkpt lat="47.68059" lon="6.18763">
        <ele>281</ele>
        <time>2020-06-01T08:30:22Z</time>
      </trkpt>
      <trkpt lat="47.68068" lon="6.18758">
        <ele>282</ele>
        <time>2020-06-01T08:30:24Z</time>
      </trkpt>
      <trkpt lat="47.68072" lon="6.18755">
        <ele>282</ele>
        <time>2020-06-01T08:30:33Z</time>
      </trkpt>
      <trkpt lat="47.68076" lon="6.18753">
        <ele>282</ele>
        <time>2020-06-01T08:30:35Z</time>
      </trkpt>
      <trkpt lat="47.68081" lon="6.18749">
        <ele>282</ele>
        <time>2020-06-01T08:30:38Z</time>
      </trkpt>
      <trkpt lat="47.68086" lon="6.18747">
        <ele>283</ele>
        <time>2020-06-01T08:30:40Z</time>
      </trkpt>
      <trkpt lat="47.6809" lon="6.18745">
        <ele>283</ele>
        <time>2020-06-01T08:30:47Z</time>
      </trkpt>
      <trkpt lat="47.68095" lon="6.18741">
        <ele>283</ele>
        <time>2020-06-01T08:30:59Z</time>
      </trkpt>
      <trkpt lat="47.681" lon="6.18737">
        <ele>284</ele>
        <time>2020-06-01T08:31:00Z</time>
      </trkpt>
      <trkpt lat="47.68105" lon="6.18734">
        <ele>284</ele>
        <time>2020-06-01T08:31:07Z</time>
      </trkpt>
      <trkpt lat="47.6811" lon="6.18729">
        <ele>284</ele>
        <time>2020-06-01T08:31:15Z</time>
      </trkpt>
      <trkpt lat="47.68114" lon="6.18726">
        <ele>284</ele>
        <time>2020-06-01T08:31:24Z</time>
      </trkpt>
      <trkpt lat="47.6812" lon="6.18725">
        <ele>284</ele>
        <time>2020-06-01T08:31:27Z</time>
      </trkpt>
      <trkpt lat="47.68125" lon="6.18724">
        <ele>284</ele>
        <time>2020-06-01T08:31:33Z</time>
      </trkpt>
      <trkpt lat="47.68131" lon="6.18723">
        <ele>285</ele>
        <time>2020-06-01T08:31:37Z</time>
      </trkpt>
      <trkpt lat="47.68137" lon="6.18721">
        <ele>285</ele>
        <time>2020-06-01T08:31:37Z</time>
      </trkpt>
      <trkpt lat="47.68142" lon="6.18719">
        <ele>285</ele>
        <time>2020-06-01T08:31:41Z</time>
      </trkpt>
      <trkpt lat="47.68147" lon="6.18716">
        <ele>285</ele>
        <time>2020-06-01T08:31:44Z</time>
      </trkpt>
      <trkpt lat="47.68152" lon="6.18712">
        <ele>285</ele>
        <time>2020-06-01T08:31:52Z</time>
      </trkpt>
      <trkpt lat="47.68156" lon="6.18707">
        <ele>285</ele>
        <time>2020-06-01T08:31:56Z</time>
      </trkpt>
      <trkpt lat="47.68161" lon="6.18703">
        <ele>285</ele>
        <time>2020-06-01T08:32:00Z</time>
      </trkpt>
      <trkpt lat="47.68166" lon="6.18699">
        <ele>285</ele>
        <time>2020-06-01T08:32:04Z</time>
      </trkpt>
      <trkpt lat="47.68171" lon="6.18696">
        <ele>288</ele>
        <time>2020-06-01T08:32:08Z</time>
      </trkpt>
      <trkpt lat="47.68176" lon="6.18694">
        <ele>288</ele>
        <time>2020-06-01T08:32:11Z</time>
      </trkpt>
      <trkpt lat="47.68182" lon="6.18692">
        <ele>288</ele>
        <time>2020-06-01T08:32:11Z</time>
      </trkpt>
      <trkpt lat="47.68187" lon="6.18691">
        <ele>288</ele>
        <time>2020-06-01T08:32:14Z</time>
      </trkpt>
      <trkpt lat="47.68192" lon="6.18689">
        <ele>289</ele>
        <time>2020-06-01T08:32:28Z</time>
      </trkpt>
      <trkpt lat="47.68197" lon="6.18688">
        <ele>289</ele>
        <time>2020-06-01T08:32:45Z</time>
      </trkpt>
      <trkpt lat="47.68202" lon="6.1869">
        <ele>289</ele>
        <time>2020-06-01T08:32:59Z</time>
      </trkpt>
      <trkpt lat="47.68205" lon="6.18687">
        <ele>289</ele>
        <time>2020-06-01T08:33:25Z</time>
      </trkpt>
      <trkpt lat="47.68205" lon="6.1868">
        <ele>289</ele>
        <time>2020-06-01T08:34:12Z</time>
      </trkpt>
      <trkpt lat="47.6821" lon="6.18679">
        <ele>289</ele>
        <time>2020-06-01T08:34:43Z</time>
      </trkpt>
      <trkpt lat="47.68214" lon="6.18677">
        <ele>289</ele>
        <time>2020-06-01T08:34:44Z</time>
      </trkpt>
      <trkpt lat="47.6822" lon="6.18676">
        <ele>289</ele>
        <time>2020-06-01T08:35:09Z</time>
      </trkpt>
      <trkpt lat="47.68225" lon="6.18675">
        <ele>289</ele>
        <time>2020-06-01T08:35:12Z</time>
      </trkpt>
      <trkpt lat="47.6823" lon="6.18673">
        <ele>289</ele>
        <time>2020-06-01T08:35:15Z</time>
      </trkpt>
      <trkpt lat="47.68237" lon="6.18671">
        <ele>290</ele>
        <time>2020-06-01T08:35:19Z</time>
      </trkpt>
      <trkpt lat="47.68242" lon="6.1867">
        <ele>290</ele>
        <time>2020-06-01T08:35:24Z</time>
      </trkpt>
      <trkpt lat="47.68246" lon="6.18672">
        <ele>290</ele>
        <time>2020-06-01T08:35:28Z</time>
      </trkpt>
      <trkpt lat="47.6825" lon="6.18677">
        <ele>290</ele>
        <time>2020-06-01T08:35:31Z</time>
      </trkpt>
      <trkpt lat="47.68254" lon="6.18682">
        <ele>289</ele>
        <time>2020-06-01T08:35:34Z</time>
      </trkpt>
      <trkpt lat="47.68258" lon="6.18688">
        <ele>289</ele>
        <time>2020-06-01T08:35:35Z</time>
      </trkpt>
      <trkpt lat="47.68262" lon="6.18691">
        <ele>288</ele>
        <time>2020-06-01T08:36:56Z</time>
      </trkpt>
      <trkpt lat="47.68264" lon="6.18698">
        <ele>288</ele>
        <time>2020-06-01T08:37:07Z</time>
      </trkpt>
      <trkpt lat="47.68266" lon="6.18704">
        <ele>288</ele>
        <time>2020-06-01T08:37:09Z</time>
      </trkpt>
      <trkpt lat="47.68269" lon="6.18711">
        <ele>288</ele>
        <time>2020-06-01T08:37:12Z</time>
      </trkpt>
      <trkpt lat="47.68273" lon="6.18718">
        <ele>288</ele>
        <time>2020-06-01T08:37:15Z</time>
      </trkpt>
      <trkpt lat="47.68277" lon="6.18724">
        <ele>288</ele>
        <time>2020-06-01T08:37:18Z</time>
      </trkpt>
      <trkpt lat="47.68281" lon="6.18729">
        <ele>288</ele>
        <time>2020-06-01T08:37:20Z</time>
      </trkpt>
      <trkpt lat="47.68283" lon="6.18735">
        <ele>288</ele>
        <time>2020-06-01T08:37:23Z</time>
      </trkpt>
      <trkpt lat="47.68285" lon="6.18742">
        <ele>288</ele>
        <time>2020-06-01T08:37:28Z</time>
      </trkpt>
      <trkpt lat="47.68287" lon="6.18749">
        <ele>288</ele>
        <time>2020-06-01T08:37:31Z</time>
      </trkpt>
      <trkpt lat="47.68287" lon="6.18757">
        <ele>290</ele>
        <time>2020-06-01T08:37:31Z</time>
      </trkpt>
      <trkpt lat="47.68287" lon="6.18763">
        <ele>290</ele>
        <time>2020-06-01T08:37:35Z</time>
      </trkpt>
      <trkpt lat="47.68287" lon="6.18771">
        <ele>290</ele>
        <time>2020-06-01T08:37:39Z</time>
      </trkpt>
      <trkpt lat="47.68288" lon="6.18778">
        <ele>290</ele>
        <time>2020-06-01T08:37:47Z</time>
      </trkpt>
      <trkpt lat="47.68289" lon="6.18785">
        <ele>290</ele>
        <time>2020-06-01T08:37:47Z</time>
      </trkpt>
      <trkpt lat="47.68291" lon="6.18791">
        <ele>291</ele>
        <time>2020-06-01T08:37:56Z</time>
      </trkpt>
      <trkpt lat="47.68294" lon="6.18799">
        <ele>291</ele>
        <time>2020-06-01T08:38:00Z</time>
      </trkpt>
      <trkpt lat="47.68296" lon="6.18806">
        <ele>291</ele>
        <time>2020-06-01T08:38:05Z</time>
      </trkpt>
      <trkpt lat="47.68299" lon="6.18811">
        <ele>291</ele>
        <time>2020-06-01T08:38:08Z</time>
      </trkpt>
      <trkpt lat="47.68303" lon="6.18817">
        <ele>291</ele>
        <time>2020-06-01T08:38:12Z</time>
      </trkpt>
      <trkpt lat="47.68307" lon="6.18823">
        <ele>290</ele>
        <time>2020-06-01T08:38:12Z</time>
      </trkpt>
      <trkpt lat="47.68311" lon="6.18826">
        <ele>290</ele>
        <time>2020-06-01T08:38:15Z</time>
      </trkpt>
      <trkpt lat="47.68315" lon="6.1883">
        <ele>290</ele>
        <time>2020-06-01T08:38:20Z</time>
      </trkpt>
      <trkpt lat="47.6832" lon="6.18834">
        <ele>291</ele>
        <time>2020-06-01T08:38:20Z</time>
      </trkpt>
      <trkpt lat="47.68325" lon="6.18836">
        <ele>291</ele>
        <time>2020-06-01T08:38:26Z</time>
      </trkpt>
      <trkpt lat="47.68334" lon="6.18839">
        <ele>288</ele>
        <time>2020-06-01T08:38:31Z</time>
      </trkpt>
      <trkpt lat="47.68339" lon="6.1884">
        <ele>287</ele>
        <time>2020-06-01T08:38:35Z</time>
      </trkpt>
      <trkpt lat="47.68345" lon="6.1884">
        <ele>286</ele>
        <time>2020-06-01T08:38:37Z</time>
      </trkpt>
      <trkpt lat="47.68351" lon="6.18842">
        <ele>285</ele>
        <time>2020-06-01T08:38:40Z</time>
      </trkpt>
      <trkpt lat="47.68362" lon="6.18845">
        <ele>284</ele>
        <time>2020-06-01T08:38:45Z</time>
      </trkpt>
      <trkpt lat="47.68366" lon="6.18847">
        <ele>283</ele>
        <time>2020-06-01T08:38:47Z</time>
      </trkpt>
      <trkpt lat="47.68371" lon="6.1885">
        <ele>282</ele>
        <time>2020-06-01T08:38:50Z</time>
      </trkpt>
      <trkpt lat="47.6838" lon="6.18856">
        <ele>281</ele>
        <time>2020-06-01T08:38:56Z</time>
      </trkpt>
      <trkpt lat="47.68388" lon="6.18863">
        <ele>281</ele>
        <time>2020-06-01T08:39:00Z</time>
      </trkpt>
      <trkpt lat="47.68392" lon="6.18867">
        <ele>281</ele>
        <time>2020-06-01T08:39:04Z</time>
      </trkpt>
      <trkpt lat="47.68396" lon="6.18869">
        <ele>280</ele>
        <time>2020-06-01T08:39:04Z</time>
      </trkpt>
      <trkpt lat="47.684" lon="6.18872">
        <ele>280</ele>
        <time>2020-06-01T08:39:16Z</time>
      </trkpt>
      <trkpt lat="47.68405" lon="6.18872">
        <ele>280</ele>
        <time>2020-06-01T08:39:30Z</time>
      </trkpt>
      <trkpt lat="47.6841" lon="6.18873">
        <ele>279</ele>
        <time>2020-06-01T08:39:39Z</time>
      </trkpt>
      <trkpt lat="47.68416" lon="6.18872">
        <ele>279</ele>
        <time>2020-06-01T08:39:42Z</time>
      </trkpt>
      <trkpt lat="47.68425" lon="6.18869">
        <ele>269</ele>
        <time>2020-06-01T08:39:47Z</time>
      </trkpt>
      <trkpt lat="47.6843" lon="6.18867">
        <ele>269</ele>
        <time>2020-06-01T08:39:47Z</time>
      </trkpt>
      <trkpt lat="47.68435" lon="6.18866">
        <ele>269</ele>
        <time>2020-06-01T08:40:04Z</time>
      </trkpt>
      <trkpt lat="47.68439" lon="6.18864">
        <ele>269</ele>
        <time>2020-06-01T08:40:07Z</time>
      </trkpt>
      <trkpt lat="47.68444" lon="6.18866">
        <ele>268</ele>
        <time>2020-06-01T08:40:41Z</time>
      </trkpt>
      <trkpt lat="47.68448" lon="6.18863">
        <ele>268</ele>
        <time>2020-06-01T08:40:46Z</time>
      </trkpt>
      <trkpt lat="47.68457" lon="6.18857">
        <ele>267</ele>
        <time>2020-06-01T08:40:46Z</time>
      </trkpt>
      <trkpt lat="47.68464" lon="6.18855">
        <ele>266</ele>
        <time>2020-06-01T08:40:48Z</time>
      </trkpt>
      <trkpt lat="47.6847" lon="6.18854">
        <ele>266</ele>
        <time>2020-06-01T08:40:55Z</time>
      </trkpt>
      <trkpt lat="47.68476" lon="6.18855">
        <ele>265</ele>
        <time>2020-06-01T08:40:56Z</time>
      </trkpt>
      <trkpt lat="47.68486" lon="6.18853">
        <ele>264</ele>
        <time>2020-06-01T08:41:01Z</time>
      </trkpt>
      <trkpt lat="47.68492" lon="6.18853">
        <ele>263</ele>
        <time>2020-06-01T08:41:04Z</time>
      </trkpt>
      <trkpt lat="47.68498" lon="6.18853">
        <ele>263</ele>
        <time>2020-06-01T08:41:05Z</time>
      </trkpt>
      <trkpt lat="47.68509" lon="6.18856">
        <ele>258</ele>
        <time>2020-06-01T08:41:09Z</time>
      </trkpt>
      <trkpt lat="47.68521" lon="6.18859">
        <ele>259</ele>
        <time>2020-06-01T08:41:10Z</time>
      </trkpt>
      <trkpt lat="47.68527" lon="6.18861">
        <ele>259</ele>
        <time>2020-06-01T08:41:11Z</time>
      </trkpt>
      <trkpt lat="47.68535" lon="6.18863">
        <ele>258</ele>
        <time>2020-06-01T08:41:17Z</time>
      </trkpt>
      <trkpt lat="47.68543" lon="6.18865">
        <ele>258</ele>
        <time>2020-06-01T08:41:19Z</time>
      </trkpt>
      <trkpt lat="47.68548" lon="6.18866">
        <ele>258</ele>
        <time>2020-06-01T08:41:20Z</time>
      </trkpt>
      <trkpt lat="47.68554" lon="6.18868">
        <ele>258</ele>
        <time>2020-06-01T08:41:22Z</time>
      </trkpt>
      <trkpt lat="47.68564" lon="6.1887">
        <ele>257</ele>
        <time>2020-06-01T08:41:26Z</time>
      </trkpt>
      <trkpt lat="47.68571" lon="6.18871">
        <ele>257</ele>
        <time>2020-06-01T08:41:28Z</time>
      </trkpt>
      <trkpt lat="47.68577" lon="6.18872">
        <ele>257</ele>
        <time>2020-06-01T08:41:31Z</time>
      </trkpt>
      <trkpt lat="47.68582" lon="6.18873">
        <ele>257</ele>
        <time>2020-06-01T08:41:32Z</time>
      </trkpt>
      <trkpt lat="47.68596" lon="6.18875">
        <ele>253</ele>
        <time>2020-06-01T08:41:33Z</time>
      </trkpt>
      <trkpt lat="47.68601" lon="6.18876">
        <ele>253</ele>
        <time>2020-06-01T08:41:35Z</time>
      </trkpt>
      <trkpt lat="47.68606" lon="6.18876">
        <ele>253</ele>
        <time>2020-06-01T08:41:40Z</time>
      </trkpt>
      <trkpt lat="47.68632" lon="6.18881">
        <ele>252</ele>
        <time>2020-06-01T08:41:41Z</time>
      </trkpt>
      <trkpt lat="47.6864" lon="6.18884">
        <ele>251</ele>
        <time>2020-06-01T08:41:42Z</time>
      </trkpt>
      <trkpt lat="47.68648" lon="6.18887">
        <ele>251</ele>
        <time>2020-06-01T08:41:43Z</time>
      </trkpt>
      <trkpt lat="47.68656" lon="6.18891">
        <ele>251</ele>
        <time>2020-06-01T08:41:44Z</time>
      </trkpt>
      <trkpt lat="47.68663" lon="6.18894">
        <ele>250</ele>
        <time>2020-06-01T08:41:45Z</time>
      </trkpt>
      <trkpt lat="47.68671" lon="6.18897">
        <ele>249</ele>
        <time>2020-06-01T08:41:46Z</time>
      </trkpt>
      <trkpt lat="47.68678" lon="6.189">
        <ele>249</ele>
        <time>2020-06-01T08:41:47Z</time>
      </trkpt>
      <trkpt lat="47.68686" lon="6.18904">
        <ele>249</ele>
        <time>2020-06-01T08:41:48Z</time>
      </trkpt>
      <trkpt lat="47.68693" lon="6.18907">
        <ele>249</ele>
        <time>2020-06-01T08:41:49Z</time>
      </trkpt>
      <trkpt lat="47.68699" lon="6.1891">
        <ele>249</ele>
        <time>2020-06-01T08:41:50Z</time>
      </trkpt>
      <trkpt lat="47.68706" lon="6.18912">
        <ele>249</ele>
        <time>2020-06-01T08:41:51Z</time>
      </trkpt>
      <trkpt lat="47.68712" lon="6.18914">
        <ele>249</ele>
        <time>2020-06-01T08:41:52Z</time>
      </trkpt>
      <trkpt lat="47.68718" lon="6.18916">
        <ele>249</ele>
        <time>2020-06-01T08:41:53Z</time>
      </trkpt>
      <trkpt lat="47.68724" lon="6.18917">
        <ele>248</ele>
        <time>2020-06-01T08:41:54Z</time>
      </trkpt>
      <trkpt lat="47.68729" lon="6.1892">
        <ele>248</ele>
        <time>2020-06-01T08:41:55Z</time>
      </trkpt>
      <trkpt lat="47.68733" lon="6.18922">
        <ele>249</ele>
        <time>2020-06-01T08:41:56Z</time>
      </trkpt>
      <trkpt lat="47.68738" lon="6.18924">
        <ele>249</ele>
        <time>2020-06-01T08:41:57Z</time>
      </trkpt>
      <trkpt lat="47.68744" lon="6.18928">
        <ele>249</ele>
        <time>2020-06-01T08:41:59Z</time>
      </trkpt>
      <trkpt lat="47.68751" lon="6.18932">
        <ele>249</ele>
        <time>2020-06-01T08:42:01Z</time>
      </trkpt>
      <trkpt lat="47.68759" lon="6.18935">
        <ele>249</ele>
        <time>2020-06-01T08:42:03Z</time>
      </trkpt>
      <trkpt lat="47.68765" lon="6.18941">
        <ele>249</ele>
        <time>2020-06-01T08:42:10Z</time>
      </trkpt>
      <trkpt lat="47.68771" lon="6.18943">
        <ele>249</ele>
        <time>2020-06-01T08:42:11Z</time>
      </trkpt>
      <trkpt lat="47.68776" lon="6.18944">
        <ele>249</ele>
        <time>2020-06-01T08:42:13Z</time>
      </trkpt>
      <trkpt lat="47.68786" lon="6.18948">
        <ele>249</ele>
        <time>2020-06-01T08:42:15Z</time>
      </trkpt>
      <trkpt lat="47.68793" lon="6.18951">
        <ele>249</ele>
        <time>2020-06-01T08:42:17Z</time>
      </trkpt>
      <trkpt lat="47.688" lon="6.18954">
        <ele>249</ele>
        <time>2020-06-01T08:42:20Z</time>
      </trkpt>
      <trkpt lat="47.68806" lon="6.18957">
        <ele>249</ele>
        <time>2020-06-01T08:42:22Z</time>
      </trkpt>
      <trkpt lat="47.68813" lon="6.1896">
        <ele>250</ele>
        <time>2020-06-01T08:42:25Z</time>
      </trkpt>
      <trkpt lat="47.68818" lon="6.18962">
        <ele>250</ele>
        <time>2020-06-01T08:42:27Z</time>
      </trkpt>
      <trkpt lat="47.68823" lon="6.18964">
        <ele>250</ele>
        <time>2020-06-01T08:42:29Z</time>
      </trkpt>
      <trkpt lat="47.68829" lon="6.18967">
        <ele>250</ele>
        <time>2020-06-01T08:42:31Z</time>
      </trkpt>
      <trkpt lat="47.68834" lon="6.18969">
        <ele>250</ele>
        <time>2020-06-01T08:42:32Z</time>
      </trkpt>
      <trkpt lat="47.6884" lon="6.18971">
        <ele>250</ele>
        <time>2020-06-01T08:42:35Z</time>
      </trkpt>
      <trkpt lat="47.68845" lon="6.18973">
        <ele>250</ele>
        <time>2020-06-01T08:42:37Z</time>
      </trkpt>
      <trkpt lat="47.68849" lon="6.18975">
        <ele>250</ele>
        <time>2020-06-01T08:42:39Z</time>
      </trkpt>
      <trkpt lat="47.68857" lon="6.18976">
        <ele>250</ele>
        <time>2020-06-01T08:42:42Z</time>
      </trkpt>
      <trkpt lat="47.68862" lon="6.18977">
        <ele>250</ele>
        <time>2020-06-01T08:42:43Z</time>
      </trkpt>
      <trkpt lat="47.68867" lon="6.18978">
        <ele>250</ele>
        <time>2020-06-01T08:42:45Z</time>
      </trkpt>
      <trkpt lat="47.68875" lon="6.18978">
        <ele>250</ele>
        <time>2020-06-01T08:42:47Z</time>
      </trkpt>
      <trkpt lat="47.68898" lon="6.18979">
        <ele>250</ele>
        <time>2020-06-01T08:42:48Z</time>
      </trkpt>
      <trkpt lat="47.68903" lon="6.18979">
        <ele>250</ele>
        <time>2020-06-01T08:42:49Z</time>
      </trkpt>
      <trkpt lat="47.68908" lon="6.1898">
        <ele>250</ele>
        <time>2020-06-01T08:42:50Z</time>
      </trkpt>
      <trkpt lat="47.68913" lon="6.1898">
        <ele>250</ele>
        <time>2020-06-01T08:42:51Z</time>
      </trkpt>
      <trkpt lat="47.68918" lon="6.18981">
        <ele>248</ele>
        <time>2020-06-01T08:42:52Z</time>
      </trkpt>
      <trkpt lat="47.68923" lon="6.18981">
        <ele>248</ele>
        <time>2020-06-01T08:42:53Z</time>
      </trkpt>
      <trkpt lat="47.68929" lon="6.18982">
        <ele>248</ele>
        <time>2020-06-01T08:42:54Z</time>
      </trkpt>
      <trkpt lat="47.68934" lon="6.18982">
        <ele>248</ele>
        <time>2020-06-01T08:42:55Z</time>
      </trkpt>
      <trkpt lat="47.6894" lon="6.18983">
        <ele>248</ele>
        <time>2020-06-01T08:42:56Z</time>
      </trkpt>
      <trkpt lat="47.68945" lon="6.18983">
        <ele>248</ele>
        <time>2020-06-01T08:42:57Z</time>
      </trkpt>
      <trkpt lat="47.6895" lon="6.18983">
        <ele>248</ele>
        <time>2020-06-01T08:42:58Z</time>
      </trkpt>
      <trkpt lat="47.68955" lon="6.18984">
        <ele>247</ele>
        <time>2020-06-01T08:42:59Z</time>
      </trkpt>
      <trkpt lat="47.6896" lon="6.18984">
        <ele>247</ele>
        <time>2020-06-01T08:43:00Z</time>
      </trkpt>
      <trkpt lat="47.68965" lon="6.18984">
        <ele>247</ele>
        <time>2020-06-01T08:43:01Z</time>
      </trkpt>
      <trkpt lat="47.68974" lon="6.18985">
        <ele>247</ele>
        <time>2020-06-01T08:43:03Z</time>
      </trkpt>
      <trkpt lat="47.68982" lon="6.18984">
        <ele>246</ele>
        <time>2020-06-01T08:43:05Z</time>
      </trkpt>
      <trkpt lat="47.68991" lon="6.18984">
        <ele>246</ele>
        <time>2020-06-01T08:43:07Z</time>
      </trkpt>
      <trkpt lat="47.68999" lon="6.18984">
        <ele>246</ele>
        <time>2020-06-01T08:43:09Z</time>
      </trkpt>
      <trkpt lat="47.69008" lon="6.18985">
        <ele>243</ele>
        <time>2020-06-01T08:43:11Z</time>
      </trkpt>
      <trkpt lat="47.69017" lon="6.18985">
        <ele>243</ele>
        <time>2020-06-01T08:43:13Z</time>
      </trkpt>
      <trkpt lat="47.69026" lon="6.18985">
        <ele>243</ele>
        <time>2020-06-01T08:43:15Z</time>
      </trkpt>
      <trkpt lat="47.69032" lon="6.18985">
        <ele>242</ele>
        <time>2020-06-01T08:43:16Z</time>
      </trkpt>
      <trkpt lat="47.69037" lon="6.18985">
        <ele>242</ele>
        <time>2020-06-01T08:43:17Z</time>
      </trkpt>
      <trkpt lat="47.69043" lon="6.18984">
        <ele>242</ele>
        <time>2020-06-01T08:43:18Z</time>
      </trkpt>
      <trkpt lat="47.6905" lon="6.18985">
        <ele>242</ele>
        <time>2020-06-01T08:43:19Z</time>
      </trkpt>
      <trkpt lat="47.69058" lon="6.18986">
        <ele>241</ele>
        <time>2020-06-01T08:43:20Z</time>
      </trkpt>
      <trkpt lat="47.69066" lon="6.18987">
        <ele>241</ele>
        <time>2020-06-01T08:43:21Z</time>
      </trkpt>
      <trkpt lat="47.69075" lon="6.18988">
        <ele>241</ele>
        <time>2020-06-01T08:43:22Z</time>
      </trkpt>
      <trkpt lat="47.69084" lon="6.1899">
        <ele>239</ele>
        <time>2020-06-01T08:43:23Z</time>
      </trkpt>
      <trkpt lat="47.69093" lon="6.18993">
        <ele>239</ele>
        <time>2020-06-01T08:43:24Z</time>
      </trkpt>
      <trkpt lat="47.69101" lon="6.18997">
        <ele>238</ele>
        <time>2020-06-01T08:43:25Z</time>
      </trkpt>
      <trkpt lat="47.6911" lon="6.19">
        <ele>238</ele>
        <time>2020-06-01T08:43:26Z</time>
      </trkpt>
      <trkpt lat="47.69118" lon="6.19003">
        <ele>239</ele>
        <time>2020-06-01T08:43:27Z</time>
      </trkpt>
      <trkpt lat="47.69125" lon="6.19006">
        <ele>239</ele>
        <time>2020-06-01T08:43:28Z</time>
      </trkpt>
      <trkpt lat="47.69133" lon="6.19009">
        <ele>239</ele>
        <time>2020-06-01T08:43:29Z</time>
      </trkpt>
      <trkpt lat="47.69141" lon="6.19012">
        <ele>238</ele>
        <time>2020-06-01T08:43:30Z</time>
      </trkpt>
      <trkpt lat="47.69148" lon="6.19015">
        <ele>238</ele>
        <time>2020-06-01T08:43:31Z</time>
      </trkpt>
      <trkpt lat="47.69155" lon="6.19017">
        <ele>238</ele>
        <time>2020-06-01T08:43:32Z</time>
      </trkpt>
      <trkpt lat="47.69162" lon="6.1902">
        <ele>238</ele>
        <time>2020-06-01T08:43:33Z</time>
      </trkpt>
      <trkpt lat="47.69169" lon="6.19022">
        <ele>236</ele>
        <time>2020-06-01T08:43:34Z</time>
      </trkpt>
      <trkpt lat="47.69176" lon="6.19024">
        <ele>236</ele>
        <time>2020-06-01T08:43:35Z</time>
      </trkpt>
      <trkpt lat="47.69183" lon="6.19026">
        <ele>236</ele>
        <time>2020-06-01T08:43:36Z</time>
      </trkpt>
      <trkpt lat="47.6919" lon="6.19029">
        <ele>236</ele>
        <time>2020-06-01T08:43:37Z</time>
      </trkpt>
      <trkpt lat="47.69197" lon="6.19031">
        <ele>236</ele>
        <time>2020-06-01T08:43:38Z</time>
      </trkpt>
      <trkpt lat="47.69203" lon="6.19031">
        <ele>235</ele>
        <time>2020-06-01T08:43:39Z</time>
      </trkpt>
      <trkpt lat="47.6921" lon="6.19031">
        <ele>235</ele>
        <time>2020-06-01T08:43:40Z</time>
      </trkpt>
      <trkpt lat="47.69217" lon="6.19031">
        <ele>235</ele>
        <time>2020-06-01T08:43:41Z</time>
      </trkpt>
      <trkpt lat="47.69224" lon="6.19031">
        <ele>235</ele>
        <time>2020-06-01T08:43:42Z</time>
      </trkpt>
      <trkpt lat="47.69231" lon="6.19032">
        <ele>235</ele>
        <time>2020-06-01T08:43:43Z</time>
      </trkpt>
      <trkpt lat="47.69239" lon="6.19032">
        <ele>235</ele>
        <time>2020-06-01T08:43:44Z</time>
      </trkpt>
      <trkpt lat="47.69246" lon="6.19034">
        <ele>235</ele>
        <time>2020-06-01T08:43:45Z</time>
      </trkpt>
      <trkpt lat="47.69253" lon="6.19035">
        <ele>234</ele>
        <time>2020-06-01T08:43:46Z</time>
      </trkpt>
      <trkpt lat="47.6926" lon="6.19036">
        <ele>234</ele>
        <time>2020-06-01T08:43:47Z</time>
      </trkpt>
      <trkpt lat="47.69267" lon="6.19037">
        <ele>234</ele>
        <time>2020-06-01T08:43:48Z</time>
      </trkpt>
      <trkpt lat="47.69273" lon="6.19038">
        <ele>234</ele>
        <time>2020-06-01T08:43:49Z</time>
      </trkpt>
      <trkpt lat="47.6928" lon="6.1904">
        <ele>234</ele>
        <time>2020-06-01T08:43:50Z</time>
      </trkpt>
      <trkpt lat="47.69286" lon="6.19043">
        <ele>234</ele>
        <time>2020-06-01T08:43:51Z</time>
      </trkpt>
      <trkpt lat="47.69291" lon="6.19048">
        <ele>234</ele>
        <time>2020-06-01T08:43:52Z</time>
      </trkpt>
      <trkpt lat="47.69297" lon="6.19052">
        <ele>234</ele>
        <time>2020-06-01T08:43:53Z</time>
      </trkpt>
      <trkpt lat="47.69302" lon="6.19057">
        <ele>234</ele>
        <time>2020-06-01T08:43:54Z</time>
      </trkpt>
      <trkpt lat="47.69307" lon="6.19061">
        <ele>234</ele>
        <time>2020-06-01T08:43:55Z</time>
      </trkpt>
      <trkpt lat="47.69312" lon="6.19065">
        <ele>234</ele>
        <time>2020-06-01T08:43:56Z</time>
      </trkpt>
      <trkpt lat="47.69317" lon="6.19069">
        <ele>234</ele>
        <time>2020-06-01T08:43:57Z</time>
      </trkpt>
      <trkpt lat="47.69322" lon="6.19074">
        <ele>234</ele>
        <time>2020-06-01T08:43:58Z</time>
      </trkpt>
      <trkpt lat="47.69327" lon="6.19078">
        <ele>234</ele>
        <time>2020-06-01T08:43:59Z</time>
      </trkpt>
      <trkpt lat="47.69332" lon="6.19082">
        <ele>234</ele>
        <time>2020-06-01T08:44:00Z</time>
      </trkpt>
      <trkpt lat="47.69336" lon="6.19086">
        <ele>234</ele>
        <time>2020-06-01T08:44:01Z</time>
      </trkpt>
      <trkpt lat="47.6934" lon="6.1909">
        <ele>234</ele>
        <time>2020-06-01T08:44:02Z</time>
      </trkpt>
      <trkpt lat="47.69345" lon="6.19094">
        <ele>234</ele>
        <time>2020-06-01T08:44:03Z</time>
      </trkpt>
      <trkpt lat="47.69349" lon="6.19097">
        <ele>234</ele>
        <time>2020-06-01T08:44:04Z</time>
      </trkpt>
      <trkpt lat="47.69353" lon="6.191">
        <ele>234</ele>
        <time>2020-06-01T08:44:05Z</time>
      </trkpt>
      <trkpt lat="47.6936" lon="6.19106">
        <ele>234</ele>
        <time>2020-06-01T08:44:07Z</time>
      </trkpt>
      <trkpt lat="47.69366" lon="6.19111">
        <ele>234</ele>
        <time>2020-06-01T08:44:09Z</time>
      </trkpt>
      <trkpt lat="47.69371" lon="6.19115">
        <ele>234</ele>
        <time>2020-06-01T08:44:11Z</time>
      </trkpt>
      <trkpt lat="47.69377" lon="6.19119">
        <ele>234</ele>
        <time>2020-06-01T08:44:13Z</time>
      </trkpt>
      <trkpt lat="47.69383" lon="6.19124">
        <ele>235</ele>
        <time>2020-06-01T08:44:18Z</time>
      </trkpt>
      <trkpt lat="47.69394" lon="6.19134">
        <ele>235</ele>
        <time>2020-06-01T08:44:19Z</time>
      </trkpt>
      <trkpt lat="47.694" lon="6.19138">
        <ele>235</ele>
        <time>2020-06-01T08:44:24Z</time>
      </trkpt>
      <trkpt lat="47.69405" lon="6.19142">
        <ele>235</ele>
        <time>2020-06-01T08:44:25Z</time>
      </trkpt>
      <trkpt lat="47.69411" lon="6.19146">
        <ele>235</ele>
        <time>2020-06-01T08:44:27Z</time>
      </trkpt>
      <trkpt lat="47.69417" lon="6.19149">
        <ele>235</ele>
        <time>2020-06-01T08:44:28Z</time>
      </trkpt>
      <trkpt lat="47.69427" lon="6.19156">
        <ele>235</ele>
        <time>2020-06-01T08:44:32Z</time>
      </trkpt>
      <trkpt lat="47.69433" lon="6.1916">
        <ele>235</ele>
        <time>2020-06-01T08:44:33Z</time>
      </trkpt>
      <trkpt lat="47.6944" lon="6.19165">
        <ele>235</ele>
        <time>2020-06-01T08:44:36Z</time>
      </trkpt>
      <trkpt lat="47.69446" lon="6.19168">
        <ele>236</ele>
        <time>2020-06-01T08:44:37Z</time>
      </trkpt>
      <trkpt lat="47.69456" lon="6.19175">
        <ele>236</ele>
        <time>2020-06-01T08:44:40Z</time>
      </trkpt>
      <trkpt lat="47.6947" lon="6.19183">
        <ele>236</ele>
        <time>2020-06-01T08:44:41Z</time>
      </trkpt>
      <trkpt lat="47.6948" lon="6.1919">
        <ele>236</ele>
        <time>2020-06-01T08:44:43Z</time>
      </trkpt>
      <trkpt lat="47.69485" lon="6.19194">
        <ele>236</ele>
        <time>2020-06-01T08:44:44Z</time>
      </trkpt>
      <trkpt lat="47.6949" lon="6.19197">
        <ele>236</ele>
        <time>2020-06-01T08:44:45Z</time>
      </trkpt>
      <trkpt lat="47.69494" lon="6.19202">
        <ele>236</ele>
        <time>2020-06-01T08:44:46Z</time>
      </trkpt>
      <trkpt lat="47.69499" lon="6.19206">
        <ele>236</ele>
        <time>2020-06-01T08:44:47Z</time>
      </trkpt>
      <trkpt lat="47.69503" lon="6.19211">
        <ele>235</ele>
        <time>2020-06-01T08:44:48Z</time>
      </trkpt>
      <trkpt lat="47.69507" lon="6.19216">
        <ele>235</ele>
        <time>2020-06-01T08:44:49Z</time>
      </trkpt>
      <trkpt lat="47.69511" lon="6.19221">
        <ele>235</ele>
        <time>2020-06-01T08:44:50Z</time>
      </trkpt>
      <trkpt lat="47.69514" lon="6.19227">
        <ele>235</ele>
        <time>2020-06-01T08:44:51Z</time>
      </trkpt>
      <trkpt lat="47.69518" lon="6.19234">
        <ele>235</ele>
        <time>2020-06-01T08:44:52Z</time>
      </trkpt>
      <trkpt lat="47.69522" lon="6.1924">
        <ele>235</ele>
        <time>2020-06-01T08:44:53Z</time>
      </trkpt>
      <trkpt lat="47.69525" lon="6.19247">
        <ele>235</ele>
        <time>2020-06-01T08:44:54Z</time>
      </trkpt>
      <trkpt lat="47.69529" lon="6.19253">
        <ele>236</ele>
        <time>2020-06-01T08:44:55Z</time>
      </trkpt>
      <trkpt lat="47.69532" lon="6.1926">
        <ele>236</ele>
        <time>2020-06-01T08:44:56Z</time>
      </trkpt>
      <trkpt lat="47.69536" lon="6.19266">
        <ele>235</ele>
        <time>2020-06-01T08:44:57Z</time>
      </trkpt>
      <trkpt lat="47.69539" lon="6.19272">
        <ele>235</ele>
        <time>2020-06-01T08:44:58Z</time>
      </trkpt>
      <trkpt lat="47.69542" lon="6.19276">
        <ele>235</ele>
        <time>2020-06-01T08:44:59Z</time>
      </trkpt>
      <trkpt lat="47.69549" lon="6.19284">
        <ele>235</ele>
        <time>2020-06-01T08:45:01Z</time>
      </trkpt>
      <trkpt lat="47.69556" lon="6.19286">
        <ele>235</ele>
        <time>2020-06-01T08:45:03Z</time>
      </trkpt>
      <trkpt lat="47.69561" lon="6.19287">
        <ele>235</ele>
        <time>2020-06-01T08:45:04Z</time>
      </trkpt>
      <trkpt lat="47.69569" lon="6.19286">
        <ele>235</ele>
        <time>2020-06-01T08:45:06Z</time>
      </trkpt>
      <trkpt lat="47.69574" lon="6.19283">
        <ele>235</ele>
        <time>2020-06-01T08:45:08Z</time>
      </trkpt>
      <trkpt lat="47.69579" lon="6.19281">
        <ele>235</ele>
        <time>2020-06-01T08:45:13Z</time>
      </trkpt>
      <trkpt lat="47.69585" lon="6.19281">
        <ele>235</ele>
        <time>2020-06-01T08:45:14Z</time>
      </trkpt>
      <trkpt lat="47.69592" lon="6.19279">
        <ele>235</ele>
        <time>2020-06-01T08:45:15Z</time>
      </trkpt>
      <trkpt lat="47.69597" lon="6.19278">
        <ele>235</ele>
        <time>2020-06-01T08:45:16Z</time>
      </trkpt>
      <trkpt lat="47.69601" lon="6.19277">
        <ele>235</ele>
        <time>2020-06-01T08:45:18Z</time>
      </trkpt>
      <trkpt lat="47.69613" lon="6.19273">
        <ele>235</ele>
        <time>2020-06-01T08:45:21Z</time>
      </trkpt>
      <trkpt lat="47.69622" lon="6.19269">
        <ele>235</ele>
        <time>2020-06-01T08:45:24Z</time>
      </trkpt>
      <trkpt lat="47.69626" lon="6.19267">
        <ele>235</ele>
        <time>2020-06-01T08:45:26Z</time>
      </trkpt>
      <trkpt lat="47.69631" lon="6.19264">
        <ele>235</ele>
        <time>2020-06-01T08:45:28Z</time>
      </trkpt>
      <trkpt lat="47.69638" lon="6.1926">
        <ele>235</ele>
        <time>2020-06-01T08:45:31Z</time>
      </trkpt>
      <trkpt lat="47.6965" lon="6.19252">
        <ele>235</ele>
        <time>2020-06-01T08:45:36Z</time>
      </trkpt>
      <trkpt lat="47.69654" lon="6.19248">
        <ele>236</ele>
        <time>2020-06-01T08:45:37Z</time>
      </trkpt>
      <trkpt lat="47.69659" lon="6.19244">
        <ele>236</ele>
        <time>2020-06-01T08:45:39Z</time>
      </trkpt>
      <trkpt lat="47.69665" lon="6.19239">
        <ele>236</ele>
        <time>2020-06-01T08:45:42Z</time>
      </trkpt>
      <trkpt lat="47.6968" lon="6.19227">
        <ele>235</ele>
        <time>2020-06-01T08:45:46Z</time>
      </trkpt>
      <trkpt lat="47.6969" lon="6.19218">
        <ele>235</ele>
        <time>2020-06-01T08:45:50Z</time>
      </trkpt>
      <trkpt lat="47.69695" lon="6.19214">
        <ele>235</ele>
        <time>2020-06-01T08:45:51Z</time>
      </trkpt>
      <trkpt lat="47.69699" lon="6.1921">
        <ele>235</ele>
        <time>2020-06-01T08:45:53Z</time>
      </trkpt>
      <trkpt lat="47.69703" lon="6.19206">
        <ele>235</ele>
        <time>2020-06-01T08:45:54Z</time>
      </trkpt>
      <trkpt lat="47.6971" lon="6.192">
        <ele>235</ele>
        <time>2020-06-01T08:45:56Z</time>
      </trkpt>
      <trkpt lat="47.69721" lon="6.19189">
        <ele>235</ele>
        <time>2020-06-01T08:45:59Z</time>
      </trkpt>
      <trkpt lat="47.69726" lon="6.19185">
        <ele>235</ele>
        <time>2020-06-01T08:46:00Z</time>
      </trkpt>
      <trkpt lat="47.69731" lon="6.19181">
        <ele>235</ele>
        <time>2020-06-01T08:46:01Z</time>
      </trkpt>
      <trkpt lat="47.69736" lon="6.19177">
        <ele>235</ele>
        <time>2020-06-01T08:46:02Z</time>
      </trkpt>
      <trkpt lat="47.6974" lon="6.19174">
        <ele>234</ele>
        <time>2020-06-01T08:46:03Z</time>
      </trkpt>
      <trkpt lat="47.69745" lon="6.1917">
        <ele>234</ele>
        <time>2020-06-01T08:46:05Z</time>
      </trkpt>
      <trkpt lat="47.69751" lon="6.19166">
        <ele>234</ele>
        <time>2020-06-01T08:46:07Z</time>
      </trkpt>
      <trkpt lat="47.69757" lon="6.19162">
        <ele>234</ele>
        <time>2020-06-01T08:46:08Z</time>
      </trkpt>
      <trkpt lat="47.69762" lon="6.19159">
        <ele>234</ele>
        <time>2020-06-01T08:46:10Z</time>
      </trkpt>
      <trkpt lat="47.69768" lon="6.19156">
        <ele>234</ele>
        <time>2020-06-01T08:46:12Z</time>
      </trkpt>
      <trkpt lat="47.69774" lon="6.19152">
        <ele>234</ele>
        <time>2020-06-01T08:46:15Z</time>
      </trkpt>
      <trkpt lat="47.6978" lon="6.19148">
        <ele>234</ele>
        <time>2020-06-01T08:46:17Z</time>
      </trkpt>
      <trkpt lat="47.69786" lon="6.19145">
        <ele>234</ele>
        <time>2020-06-01T08:46:18Z</time>
      </trkpt>
      <trkpt lat="47.6979" lon="6.19142">
        <ele>234</ele>
        <time>2020-06-01T08:46:20Z</time>
      </trkpt>
      <trkpt lat="47.69794" lon="6.19139">
        <ele>235</ele>
        <time>2020-06-01T08:46:21Z</time>
      </trkpt>
      <trkpt lat="47.698" lon="6.19136">
        <ele>235</ele>
        <time>2020-06-01T08:46:23Z</time>
      </trkpt>
      <trkpt lat="47.69805" lon="6.19131">
        <ele>235</ele>
        <time>2020-06-01T08:46:25Z</time>
      </trkpt>
      <trkpt lat="47.69812" lon="6.19126">
        <ele>235</ele>
        <time>2020-06-01T08:46:27Z</time>
      </trkpt>
      <trkpt lat="47.69816" lon="6.19122">
        <ele>235</ele>
        <time>2020-06-01T08:46:28Z</time>
      </trkpt>
      <trkpt lat="47.69822" lon="6.19117">
        <ele>235</ele>
        <time>2020-06-01T08:46:30Z</time>
      </trkpt>
      <trkpt lat="47.69832" lon="6.19111">
        <ele>235</ele>
        <time>2020-06-01T08:46:34Z</time>
      </trkpt>
      <trkpt lat="47.69837" lon="6.19108">
        <ele>236</ele>
        <time>2020-06-01T08:46:35Z</time>
      </trkpt>
      <trkpt lat="47.69851" lon="6.19104">
        <ele>237</ele>
        <time>2020-06-01T08:46:40Z</time>
      </trkpt>
      <trkpt lat="47.69858" lon="6.19103">
        <ele>237</ele>
        <time>2020-06-01T08:46:42Z</time>
      </trkpt>
      <trkpt lat="47.69863" lon="6.19102">
        <ele>237</ele>
        <time>2020-06-01T08:46:44Z</time>
      </trkpt>
      <trkpt lat="47.69869" lon="6.19101">
        <ele>237</ele>
        <time>2020-06-01T08:46:46Z</time>
      </trkpt>
      <trkpt lat="47.69881" lon="6.19097">
        <ele>238</ele>
        <time>2020-06-01T08:46:47Z</time>
      </trkpt>
      <trkpt lat="47.69887" lon="6.19096">
        <ele>238</ele>
        <time>2020-06-01T08:46:49Z</time>
      </trkpt>
      <trkpt lat="47.69892" lon="6.19094">
        <ele>238</ele>
        <time>2020-06-01T08:46:51Z</time>
      </trkpt>
      <trkpt lat="47.69898" lon="6.19092">
        <ele>239</ele>
        <time>2020-06-01T08:46:53Z</time>
      </trkpt>
      <trkpt lat="47.69903" lon="6.19091">
        <ele>239</ele>
        <time>2020-06-01T08:46:58Z</time>
      </trkpt>
      <trkpt lat="47.69915" lon="6.19088">
        <ele>240</ele>
        <time>2020-06-01T08:46:59Z</time>
      </trkpt>
      <trkpt lat="47.69919" lon="6.19086">
        <ele>240</ele>
        <time>2020-06-01T08:47:01Z</time>
      </trkpt>
      <trkpt lat="47.69924" lon="6.19085">
        <ele>241</ele>
        <time>2020-06-01T08:47:03Z</time>
      </trkpt>
      <trkpt lat="47.69929" lon="6.19083">
        <ele>241</ele>
        <time>2020-06-01T08:47:08Z</time>
      </trkpt>
      <trkpt lat="47.69941" lon="6.19077">
        <ele>241</ele>
        <time>2020-06-01T08:47:10Z</time>
      </trkpt>
      <trkpt lat="47.69946" lon="6.19075">
        <ele>242</ele>
        <time>2020-06-01T08:47:12Z</time>
      </trkpt>
      <trkpt lat="47.6995" lon="6.19073">
        <ele>242</ele>
        <time>2020-06-01T08:47:14Z</time>
      </trkpt>
      <trkpt lat="47.69956" lon="6.19068">
        <ele>242</ele>
        <time>2020-06-01T08:47:20Z</time>
      </trkpt>
      <trkpt lat="47.69958" lon="6.19059">
        <ele>242</ele>
        <time>2020-06-01T08:47:23Z</time>
      </trkpt>
      <trkpt lat="47.6996" lon="6.19052">
        <ele>242</ele>
        <time>2020-06-01T08:47:25Z</time>
      </trkpt>
      <trkpt lat="47.69961" lon="6.19044">
        <ele>242</ele>
        <time>2020-06-01T08:47:27Z</time>
      </trkpt>
      <trkpt lat="47.69962" lon="6.19028">
        <ele>242</ele>
        <time>2020-06-01T08:47:30Z</time>
      </trkpt>
      <trkpt lat="47.69965" lon="6.19009">
        <ele>241</ele>
        <time>2020-06-01T08:47:32Z</time>
      </trkpt>
      <trkpt lat="47.69966" lon="6.18997">
        <ele>239</ele>
        <time>2020-06-01T08:47:34Z</time>
      </trkpt>
      <trkpt lat="47.69967" lon="6.18988">
        <ele>239</ele>
        <time>2020-06-01T08:47:38Z</time>
      </trkpt>
      <trkpt lat="47.69963" lon="6.18972">
        <ele>239</ele>
        <time>2020-06-01T08:47:40Z</time>
      </trkpt>
      <trkpt lat="47.69958" lon="6.18968">
        <ele>239</ele>
        <time>2020-06-01T08:47:45Z</time>
      </trkpt>
      <trkpt lat="47.69954" lon="6.18961">
        <ele>239</ele>
        <time>2020-06-01T08:47:47Z</time>
      </trkpt>
      <trkpt lat="47.69954" lon="6.18953">
        <ele>238</ele>
        <time>2020-06-01T08:47:48Z</time>
      </trkpt>
      <trkpt lat="47.69956" lon="6.18942">
        <ele>238</ele>
        <time>2020-06-01T08:47:51Z</time>
      </trkpt>
      <trkpt lat="47.69958" lon="6.18925">
        <ele>238</ele>
        <time>2020-06-01T08:47:53Z</time>
      </trkpt>
      <trkpt lat="47.69958" lon="6.18898">
        <ele>236</ele>
        <time>2020-06-01T08:47:57Z</time>
      </trkpt>
      <trkpt lat="47.69958" lon="6.18884">
        <ele>236</ele>
        <time>2020-06-01T08:47:59Z</time>
      </trkpt>
      <trkpt lat="47.69958" lon="6.18876">
        <ele>236</ele>
        <time>2020-06-01T08:48:01Z</time>
      </trkpt>
      <trkpt lat="47.69958" lon="6.18865">
        <ele>236</ele>
        <time>2020-06-01T08:48:02Z</time>
      </trkpt>
      <trkpt lat="47.69957" lon="6.18856">
        <ele>236</ele>
        <time>2020-06-01T08:48:04Z</time>
      </trkpt>
      <trkpt lat="47.69957" lon="6.18845">
        <ele>236</ele>
        <time>2020-06-01T08:48:06Z</time>
      </trkpt>
      <trkpt lat="47.69955" lon="6.18824">
        <ele>236</ele>
        <time>2020-06-01T08:48:10Z</time>
      </trkpt>
      <trkpt lat="47.69954" lon="6.18817">
        <ele>236</ele>
        <time>2020-06-01T08:48:12Z</time>
      </trkpt>
      <trkpt lat="47.69954" lon="6.18797">
        <ele>236</ele>
        <time>2020-06-01T08:48:16Z</time>
      </trkpt>
      <trkpt lat="47.69954" lon="6.18785">
        <ele>236</ele>
        <time>2020-06-01T08:48:18Z</time>
      </trkpt>
      <trkpt lat="47.69954" lon="6.18776">
        <ele>236</ele>
        <time>2020-06-01T08:48:19Z</time>
      </trkpt>
      <trkpt lat="47.69958" lon="6.18759">
        <ele>236</ele>
        <time>2020-06-01T08:48:23Z</time>
      </trkpt>
      <trkpt lat="47.69964" lon="6.18754">
        <ele>236</ele>
        <time>2020-06-01T08:48:25Z</time>
      </trkpt>
      <trkpt lat="47.69982" lon="6.18748">
        <ele>236</ele>
        <time>2020-06-01T08:48:27Z</time>
      </trkpt>
      <trkpt lat="47.69987" lon="6.18746">
        <ele>236</ele>
        <time>2020-06-01T08:48:31Z</time>
      </trkpt>
      <trkpt lat="47.69991" lon="6.18745">
        <ele>236</ele>
        <time>2020-06-01T08:48:33Z</time>
      </trkpt>
      <trkpt lat="47.70007" lon="6.18734">
        <ele>235</ele>
        <time>2020-06-01T08:48:34Z</time>
      </trkpt>
      <trkpt lat="47.70014" lon="6.18729">
        <ele>235</ele>
        <time>2020-06-01T08:48:36Z</time>
      </trkpt>
      <trkpt lat="47.7002" lon="6.18724">
        <ele>235</ele>
        <time>2020-06-01T08:48:41Z</time>
      </trkpt>
      <trkpt lat="47.70028" lon="6.18717">
        <ele>235</ele>
        <time>2020-06-01T08:48:43Z</time>
      </trkpt>
      <trkpt lat="47.70035" lon="6.18711">
        <ele>235</ele>
        <time>2020-06-01T08:48:45Z</time>
      </trkpt>
      <trkpt lat="47.7004" lon="6.18706">
        <ele>235</ele>
        <time>2020-06-01T08:48:46Z</time>
      </trkpt>
      <trkpt lat="47.70051" lon="6.18696">
        <ele>235</ele>
        <time>2020-06-01T08:48:47Z</time>
      </trkpt>
      <trkpt lat="47.70056" lon="6.1869">
        <ele>235</ele>
        <time>2020-06-01T08:48:52Z</time>
      </trkpt>
      <trkpt lat="47.70061" lon="6.18687">
        <ele>235</ele>
        <time>2020-06-01T08:48:53Z</time>
      </trkpt>
      <trkpt lat="47.70067" lon="6.18682">
        <ele>235</ele>
        <time>2020-06-01T08:48:56Z</time>
      </trkpt>
      <trkpt lat="47.70073" lon="6.18677">
        <ele>235</ele>
        <time>2020-06-01T08:48:58Z</time>
      </trkpt>
      <trkpt lat="47.70079" lon="6.18672">
        <ele>235</ele>
        <time>2020-06-01T08:49:00Z</time>
      </trkpt>
      <trkpt lat="47.7009" lon="6.18664">
        <ele>235</ele>
        <time>2020-06-01T08:49:03Z</time>
      </trkpt>
      <trkpt lat="47.70101" lon="6.18659">
        <ele>236</ele>
        <time>2020-06-01T08:49:04Z</time>
      </trkpt>
      <trkpt lat="47.70107" lon="6.18656">
        <ele>236</ele>
        <time>2020-06-01T08:49:06Z</time>
      </trkpt>
      <trkpt lat="47.70113" lon="6.18653">
        <ele>236</ele>
        <time>2020-06-01T08:49:08Z</time>
      </trkpt>
      <trkpt lat="47.7012" lon="6.18651">
        <ele>236</ele>
        <time>2020-06-01T08:49:10Z</time>
      </trkpt>
      <trkpt lat="47.70124" lon="6.18649">
        <ele>237</ele>
        <time>2020-06-01T08:49:14Z</time>
      </trkpt>
      <trkpt lat="47.70135" lon="6.18645">
        <ele>237</ele>
        <time>2020-06-01T08:49:15Z</time>
      </trkpt>
      <trkpt lat="47.70139" lon="6.18644">
        <ele>237</ele>
        <time>2020-06-01T08:49:19Z</time>
      </trkpt>
      <trkpt lat="47.70152" lon="6.18641">
        <ele>237</ele>
        <time>2020-06-01T08:49:21Z</time>
      </trkpt>
      <trkpt lat="47.70158" lon="6.18639">
        <ele>237</ele>
        <time>2020-06-01T08:49:23Z</time>
      </trkpt>
      <trkpt lat="47.70165" lon="6.18637">
        <ele>237</ele>
        <time>2020-06-01T08:49:25Z</time>
      </trkpt>
      <trkpt lat="47.7017" lon="6.18637">
        <ele>239</ele>
        <time>2020-06-01T08:49:27Z</time>
      </trkpt>
      <trkpt lat="47.70175" lon="6.18636">
        <ele>239</ele>
        <time>2020-06-01T08:49:29Z</time>
      </trkpt>
      <trkpt lat="47.7018" lon="6.18635">
        <ele>240</ele>
        <time>2020-06-01T08:49:31Z</time>
      </trkpt>
      <trkpt lat="47.70187" lon="6.18634">
        <ele>240</ele>
        <time>2020-06-01T08:49:34Z</time>
      </trkpt>
      <trkpt lat="47.70193" lon="6.18635">
        <ele>240</ele>
        <time>2020-06-01T08:49:37Z</time>
      </trkpt>
      <trkpt lat="47.70198" lon="6.18635">
        <ele>240</ele>
        <time>2020-06-01T08:49:39Z</time>
      </trkpt>
      <trkpt lat="47.70204" lon="6.18631">
        <ele>240</ele>
        <time>2020-06-01T08:49:42Z</time>
      </trkpt>
      <trkpt lat="47.70208" lon="6.18627">
        <ele>240</ele>
        <time>2020-06-01T08:49:47Z</time>
      </trkpt>
      <trkpt lat="47.70212" lon="6.18621">
        <ele>241</ele>
        <time>2020-06-01T08:49:49Z</time>
      </trkpt>
      <trkpt lat="47.70216" lon="6.18616">
        <ele>241</ele>
        <time>2020-06-01T08:49:51Z</time>
      </trkpt>
      <trkpt lat="47.70223" lon="6.18605">
        <ele>242</ele>
        <time>2020-06-01T08:49:53Z</time>
      </trkpt>
      <trkpt lat="47.70227" lon="6.18599">
        <ele>242</ele>
        <time>2020-06-01T08:50:00Z</time>
      </trkpt>
      <trkpt lat="47.7023" lon="6.18593">
        <ele>242</ele>
        <time>2020-06-01T08:50:08Z</time>
      </trkpt>
      <trkpt lat="47.70234" lon="6.18586">
        <ele>243</ele>
        <time>2020-06-01T08:50:09Z</time>
      </trkpt>
      <trkpt lat="47.70236" lon="6.1858">
        <ele>244</ele>
        <time>2020-06-01T08:50:12Z</time>
      </trkpt>
      <trkpt lat="47.70239" lon="6.18573">
        <ele>244</ele>
        <time>2020-06-01T08:50:16Z</time>
      </trkpt>
      <trkpt lat="47.70241" lon="6.18567">
        <ele>244</ele>
        <time>2020-06-01T08:50:20Z</time>
      </trkpt>
      <trkpt lat="47.70246" lon="6.18554">
        <ele>245</ele>
        <time>2020-06-01T08:50:24Z</time>
      </trkpt>
      <trkpt lat="47.70249" lon="6.18546">
        <ele>245</ele>
        <time>2020-06-01T08:50:27Z</time>
      </trkpt>
      <trkpt lat="47.7025" lon="6.18537">
        <ele>247</ele>
        <time>2020-06-01T08:50:30Z</time>
      </trkpt>
      <trkpt lat="47.70251" lon="6.1853">
        <ele>247</ele>
        <time>2020-06-01T08:50:34Z</time>
      </trkpt>
      <trkpt lat="47.70253" lon="6.18523">
        <ele>248</ele>
        <time>2020-06-01T08:50:38Z</time>
      </trkpt>
      <trkpt lat="47.70255" lon="6.18515">
        <ele>248</ele>
        <time>2020-06-01T08:50:42Z</time>
      </trkpt>
      <trkpt lat="47.70259" lon="6.18509">
        <ele>248</ele>
        <time>2020-06-01T08:50:45Z</time>
      </trkpt>
      <trkpt lat="47.70262" lon="6.18502">
        <ele>248</ele>
        <time>2020-06-01T08:50:49Z</time>
      </trkpt>
      <trkpt lat="47.70264" lon="6.18495">
        <ele>249</ele>
        <time>2020-06-01T08:50:53Z</time>
      </trkpt>
      <trkpt lat="47.70267" lon="6.18489">
        <ele>249</ele>
        <time>2020-06-01T08:51:02Z</time>
      </trkpt>
      <trkpt lat="47.70269" lon="6.18481">
        <ele>250</ele>
        <time>2020-06-01T08:51:06Z</time>
      </trkpt>
      <trkpt lat="47.70272" lon="6.18476">
        <ele>250</ele>
        <time>2020-06-01T08:51:09Z</time>
      </trkpt>
      <trkpt lat="47.70273" lon="6.18467">
        <ele>250</ele>
        <time>2020-06-01T08:51:16Z</time>
      </trkpt>
      <trkpt lat="47.70275" lon="6.18459">
        <ele>250</ele>
        <time>2020-06-01T08:51:17Z</time>
      </trkpt>
      <trkpt lat="47.70277" lon="6.18452">
        <ele>250</ele>
        <time>2020-06-01T08:51:21Z</time>
      </trkpt>
      <trkpt lat="47.7028" lon="6.18446">
        <ele>251</ele>
        <time>2020-06-01T08:51:27Z</time>
      </trkpt>
      <trkpt lat="47.70283" lon="6.18438">
        <ele>251</ele>
        <time>2020-06-01T08:51:28Z</time>
      </trkpt>
      <trkpt lat="47.70286" lon="6.18432">
        <ele>251</ele>
        <time>2020-06-01T08:51:34Z</time>
      </trkpt>
      <trkpt lat="47.70289" lon="6.18424">
        <ele>251</ele>
        <time>2020-06-01T08:51:35Z</time>
      </trkpt>
      <trkpt lat="47.70291" lon="6.18418">
        <ele>251</ele>
        <time>2020-06-01T08:51:38Z</time>
      </trkpt>
      <trkpt lat="47.70293" lon="6.18412">
        <ele>253</ele>
        <time>2020-06-01T08:51:42Z</time>
      </trkpt>
      <trkpt lat="47.70295" lon="6.18405">
        <ele>253</ele>
        <time>2020-06-01T08:51:49Z</time>
      </trkpt>
      <trkpt lat="47.70295" lon="6.18399">
        <ele>253</ele>
        <time>2020-06-01T08:52:06Z</time>
      </trkpt>
      <trkpt lat="47.70296" lon="6.18391">
        <ele>254</ele>
        <time>2020-06-01T08:52:16Z</time>
      </trkpt>
      <trkpt lat="47.70297" lon="6.18382">
        <ele>254</ele>
        <time>2020-06-01T08:52:19Z</time>
      </trkpt>
      <trkpt lat="47.70297" lon="6.1837">
        <ele>254</ele>
        <time>2020-06-01T08:52:21Z</time>
      </trkpt>
      <trkpt lat="47.70299" lon="6.18362">
        <ele>254</ele>
        <time>2020-06-01T08:52:25Z</time>
      </trkpt>
      <trkpt lat="47.703" lon="6.18354">
        <ele>254</ele>
        <time>2020-06-01T08:52:27Z</time>
      </trkpt>
      <trkpt lat="47.703" lon="6.18347">
        <ele>255</ele>
        <time>2020-06-01T08:52:31Z</time>
      </trkpt>
      <trkpt lat="47.70302" lon="6.18339">
        <ele>255</ele>
        <time>2020-06-01T08:52:35Z</time>
      </trkpt>
      <trkpt lat="47.70303" lon="6.1833">
        <ele>256</ele>
        <time>2020-06-01T08:52:41Z</time>
      </trkpt>
      <trkpt lat="47.70303" lon="6.18323">
        <ele>257</ele>
        <time>2020-06-01T08:52:44Z</time>
      </trkpt>
      <trkpt lat="47.70306" lon="6.18308">
        <ele>257</ele>
        <time>2020-06-01T08:52:50Z</time>
      </trkpt>
      <trkpt lat="47.70307" lon="6.18301">
        <ele>257</ele>
        <time>2020-06-01T08:52:53Z</time>
      </trkpt>
      <trkpt lat="47.70308" lon="6.18293">
        <ele>257</ele>
        <time>2020-06-01T08:52:54Z</time>
      </trkpt>
      <trkpt lat="47.7031" lon="6.18285">
        <ele>257</ele>
        <time>2020-06-01T08:52:58Z</time>
      </trkpt>
      <trkpt lat="47.70312" lon="6.18278">
        <ele>257</ele>
        <time>2020-06-01T08:53:01Z</time>
      </trkpt>
      <trkpt lat="47.70313" lon="6.18271">
        <ele>257</ele>
        <time>2020-06-01T08:53:04Z</time>
      </trkpt>
      <trkpt lat="47.70315" lon="6.18261">
        <ele>258</ele>
        <time>2020-06-01T08:53:07Z</time>
      </trkpt>
      <trkpt lat="47.70316" lon="6.18255">
        <ele>258</ele>
        <time>2020-06-01T08:53:11Z</time>
      </trkpt>
      <trkpt lat="47.70316" lon="6.18246">
        <ele>259</ele>
        <time>2020-06-01T08:53:15Z</time>
      </trkpt>
      <trkpt lat="47.70317" lon="6.18239">
        <ele>259</ele>
        <time>2020-06-01T08:53:18Z</time>
      </trkpt>
      <trkpt lat="47.70319" lon="6.18232">
        <ele>259</ele>
        <time>2020-06-01T08:53:24Z</time>
      </trkpt>
      <trkpt lat="47.70324" lon="6.18213">
        <ele>259</ele>
        <time>2020-06-01T08:53:27Z</time>
      </trkpt>
      <trkpt lat="47.70326" lon="6.18207">
        <ele>259</ele>
        <time>2020-06-01T08:53:28Z</time>
      </trkpt>
      <trkpt lat="47.70328" lon="6.18198">
        <ele>259</ele>
        <time>2020-06-01T08:53:32Z</time>
      </trkpt>
      <trkpt lat="47.7033" lon="6.18189">
        <ele>259</ele>
        <time>2020-06-01T08:53:35Z</time>
      </trkpt>
      <trkpt lat="47.70333" lon="6.18178">
        <ele>260</ele>
        <time>2020-06-01T08:53:40Z</time>
      </trkpt>
      <trkpt lat="47.70335" lon="6.18168">
        <ele>261</ele>
        <time>2020-06-01T08:53:43Z</time>
      </trkpt>
      <trkpt lat="47.70343" lon="6.18143">
        <ele>261</ele>
        <time>2020-06-01T08:53:45Z</time>
      </trkpt>
      <trkpt lat="47.70346" lon="6.18136">
        <ele>261</ele>
        <time>2020-06-01T08:53:47Z</time>
      </trkpt>
      <trkpt lat="47.7035" lon="6.18128">
        <ele>262</ele>
        <time>2020-06-01T08:53:53Z</time>
      </trkpt>
      <trkpt lat="47.70354" lon="6.1812">
        <ele>262</ele>
        <time>2020-06-01T08:53:55Z</time>
      </trkpt>
      <trkpt lat="47.70358" lon="6.18114">
        <ele>262</ele>
        <time>2020-06-01T08:53:57Z</time>
      </trkpt>
      <trkpt lat="47.70361" lon="6.18108">
        <ele>262</ele>
        <time>2020-06-01T08:54:00Z</time>
      </trkpt>
      <trkpt lat="47.70367" lon="6.18098">
        <ele>262</ele>
        <time>2020-06-01T08:54:01Z</time>
      </trkpt>
      <trkpt lat="47.7037" lon="6.18093">
        <ele>262</ele>
        <time>2020-06-01T08:54:03Z</time>
      </trkpt>
      <trkpt lat="47.70373" lon="6.18087">
        <ele>262</ele>
        <time>2020-06-01T08:54:08Z</time>
      </trkpt>
      <trkpt lat="47.70377" lon="6.18082">
        <ele>262</ele>
        <time>2020-06-01T08:54:10Z</time>
      </trkpt>
      <trkpt lat="47.70385" lon="6.18066">
        <ele>263</ele>
        <time>2020-06-01T08:54:15Z</time>
      </trkpt>
      <trkpt lat="47.70389" lon="6.18061">
        <ele>263</ele>
        <time>2020-06-01T08:54:18Z</time>
      </trkpt>
      <trkpt lat="47.70393" lon="6.18054">
        <ele>263</ele>
        <time>2020-06-01T08:54:21Z</time>
      </trkpt>
      <trkpt lat="47.70401" lon="6.18043">
        <ele>263</ele>
        <time>2020-06-01T08:54:26Z</time>
      </trkpt>
      <trkpt lat="47.7041" lon="6.1803">
        <ele>263</ele>
        <time>2020-06-01T08:54:30Z</time>
      </trkpt>
      <trkpt lat="47.70413" lon="6.18025">
        <ele>263</ele>
        <time>2020-06-01T08:54:32Z</time>
      </trkpt>
      <trkpt lat="47.70417" lon="6.18018">
        <ele>265</ele>
        <time>2020-06-01T08:54:34Z</time>
      </trkpt>
      <trkpt lat="47.70426" lon="6.18004">
        <ele>264</ele>
        <time>2020-06-01T08:54:38Z</time>
      </trkpt>
      <trkpt lat="47.7043" lon="6.17998">
        <ele>266</ele>
        <time>2020-06-01T08:54:40Z</time>
      </trkpt>
      <trkpt lat="47.70433" lon="6.17992">
        <ele>266</ele>
        <time>2020-06-01T08:54:42Z</time>
      </trkpt>
      <trkpt lat="47.70437" lon="6.17986">
        <ele>266</ele>
        <time>2020-06-01T08:54:44Z</time>
      </trkpt>
      <trkpt lat="47.7044" lon="6.1798">
        <ele>267</ele>
        <time>2020-06-01T08:54:46Z</time>
      </trkpt>
      <trkpt lat="47.70445" lon="6.17972">
        <ele>267</ele>
        <time>2020-06-01T08:54:49Z</time>
      </trkpt>
      <trkpt lat="47.70447" lon="6.17966">
        <ele>267</ele>
        <time>2020-06-01T08:54:52Z</time>
      </trkpt>
      <trkpt lat="47.7045" lon="6.1796">
        <ele>268</ele>
        <time>2020-06-01T08:54:55Z</time>
      </trkpt>
      <trkpt lat="47.70453" lon="6.17954">
        <ele>268</ele>
        <time>2020-06-01T08:54:57Z</time>
      </trkpt>
      <trkpt lat="47.70456" lon="6.17948">
        <ele>268</ele>
        <time>2020-06-01T08:55:00Z</time>
      </trkpt>
      <trkpt lat="47.70458" lon="6.17942">
        <ele>268</ele>
        <time>2020-06-01T08:55:03Z</time>
      </trkpt>
      <trkpt lat="47.70465" lon="6.1793">
        <ele>268</ele>
        <time>2020-06-01T08:55:09Z</time>
      </trkpt>
      <trkpt lat="47.70469" lon="6.17923">
        <ele>268</ele>
        <time>2020-06-01T08:55:12Z</time>
      </trkpt>
      <trkpt lat="47.70476" lon="6.17912">
        <ele>271</ele>
        <time>2020-06-01T08:55:17Z</time>
      </trkpt>
      <trkpt lat="47.70484" lon="6.17899">
        <ele>271</ele>
        <time>2020-06-01T08:55:21Z</time>
      </trkpt>
      <trkpt lat="47.70488" lon="6.17893">
        <ele>271</ele>
        <time>2020-06-01T08:55:25Z</time>
      </trkpt>
      <trkpt lat="47.70493" lon="6.17885">
        <ele>271</ele>
        <time>2020-06-01T08:55:27Z</time>
      </trkpt>
      <trkpt lat="47.70497" lon="6.17879">
        <ele>272</ele>
        <time>2020-06-01T08:55:28Z</time>
      </trkpt>
      <trkpt lat="47.70501" lon="6.17871">
        <ele>274</ele>
        <time>2020-06-01T08:55:31Z</time>
      </trkpt>
      <trkpt lat="47.70505" lon="6.17866">
        <ele>274</ele>
        <time>2020-06-01T08:55:33Z</time>
      </trkpt>
      <trkpt lat="47.70509" lon="6.17858">
        <ele>274</ele>
        <time>2020-06-01T08:55:36Z</time>
      </trkpt>
      <trkpt lat="47.70515" lon="6.17851">
        <ele>275</ele>
        <time>2020-06-01T08:55:39Z</time>
      </trkpt>
      <trkpt lat="47.70518" lon="6.17844">
        <ele>275</ele>
        <time>2020-06-01T08:55:41Z</time>
      </trkpt>
      <trkpt lat="47.70525" lon="6.1783">
        <ele>277</ele>
        <time>2020-06-01T08:55:46Z</time>
      </trkpt>
      <trkpt lat="47.70528" lon="6.17824">
        <ele>278</ele>
        <time>2020-06-01T08:55:48Z</time>
      </trkpt>
      <trkpt lat="47.70531" lon="6.17817">
        <ele>278</ele>
        <time>2020-06-01T08:55:49Z</time>
      </trkpt>
      <trkpt lat="47.70535" lon="6.1781">
        <ele>278</ele>
        <time>2020-06-01T08:55:56Z</time>
      </trkpt>
      <trkpt lat="47.70539" lon="6.17804">
        <ele>278</ele>
        <time>2020-06-01T08:55:58Z</time>
      </trkpt>
      <trkpt lat="47.70542" lon="6.17799">
        <ele>279</ele>
        <time>2020-06-01T08:56:00Z</time>
      </trkpt>
      <trkpt lat="47.70547" lon="6.17794">
        <ele>279</ele>
        <time>2020-06-01T08:56:03Z</time>
      </trkpt>
      <trkpt lat="47.70551" lon="6.17791">
        <ele>279</ele>
        <time>2020-06-01T08:56:05Z</time>
      </trkpt>
      <trkpt lat="47.70556" lon="6.17788">
        <ele>279</ele>
        <time>2020-06-01T08:56:09Z</time>
      </trkpt>
      <trkpt lat="47.70567" lon="6.17785">
        <ele>279</ele>
        <time>2020-06-01T08:56:15Z</time>
      </trkpt>
      <trkpt lat="47.70578" lon="6.17785">
        <ele>279</ele>
        <time>2020-06-01T08:56:18Z</time>
      </trkpt>
      <trkpt lat="47.70583" lon="6.17785">
        <ele>279</ele>
        <time>2020-06-01T08:56:21Z</time>
      </trkpt>
      <trkpt lat="47.70588" lon="6.17784">
        <ele>280</ele>
        <time>2020-06-01T08:56:26Z</time>
      </trkpt>
      <trkpt lat="47.70599" lon="6.17784">
        <ele>281</ele>
        <time>2020-06-01T08:56:32Z</time>
      </trkpt>
      <trkpt lat="47.70603" lon="6.17784">
        <ele>281</ele>
        <time>2020-06-01T08:56:34Z</time>
      </trkpt>
      <trkpt lat="47.70609" lon="6.17782">
        <ele>281</ele>
        <time>2020-06-01T08:56:36Z</time>
      </trkpt>
      <trkpt lat="47.70613" lon="6.1778">
        <ele>281</ele>
        <time>2020-06-01T08:56:38Z</time>
      </trkpt>
      <trkpt lat="47.70619" lon="6.17778">
        <ele>281</ele>
        <time>2020-06-01T08:56:39Z</time>
      </trkpt>
      <trkpt lat="47.70628" lon="6.17771">
        <ele>281</ele>
        <time>2020-06-01T08:56:41Z</time>
      </trkpt>
      <trkpt lat="47.70648" lon="6.17747">
        <ele>281</ele>
        <time>2020-06-01T08:56:46Z</time>
      </trkpt>
      <trkpt lat="47.70652" lon="6.17742">
        <ele>281</ele>
        <time>2020-06-01T08:56:47Z</time>
      </trkpt>
      <trkpt lat="47.70655" lon="6.17736">
        <ele>281</ele>
        <time>2020-06-01T08:56:47Z</time>
      </trkpt>
      <trkpt lat="47.7066" lon="6.17729">
        <ele>281</ele>
        <time>2020-06-01T08:56:49Z</time>
      </trkpt>
      <trkpt lat="47.70672" lon="6.17712">
        <ele>282</ele>
        <time>2020-06-01T08:56:52Z</time>
      </trkpt>
      <trkpt lat="47.70679" lon="6.17707">
        <ele>282</ele>
        <time>2020-06-01T08:56:54Z</time>
      </trkpt>
      <trkpt lat="47.70686" lon="6.17702">
        <ele>282</ele>
        <time>2020-06-01T08:56:56Z</time>
      </trkpt>
      <trkpt lat="47.70691" lon="6.177">
        <ele>282</ele>
        <time>2020-06-01T08:56:57Z</time>
      </trkpt>
      <trkpt lat="47.70697" lon="6.17698">
        <ele>282</ele>
        <time>2020-06-01T08:57:00Z</time>
      </trkpt>
      <trkpt lat="47.70703" lon="6.17695">
        <ele>282</ele>
        <time>2020-06-01T08:57:02Z</time>
      </trkpt>
      <trkpt lat="47.70707" lon="6.17694">
        <ele>282</ele>
        <time>2020-06-01T08:57:04Z</time>
      </trkpt>
      <trkpt lat="47.70714" lon="6.17693">
        <ele>283</ele>
        <time>2020-06-01T08:57:06Z</time>
      </trkpt>
      <trkpt lat="47.70721" lon="6.1769">
        <ele>283</ele>
        <time>2020-06-01T08:57:09Z</time>
      </trkpt>
      <trkpt lat="47.70726" lon="6.17689">
        <ele>283</ele>
        <time>2020-06-01T08:57:10Z</time>
      </trkpt>
      <trkpt lat="47.70732" lon="6.17687">
        <ele>283</ele>
        <time>2020-06-01T08:57:13Z</time>
      </trkpt>
      <trkpt lat="47.70737" lon="6.17685">
        <ele>283</ele>
        <time>2020-06-01T08:57:15Z</time>
      </trkpt>
      <trkpt lat="47.70746" lon="6.17682">
        <ele>284</ele>
        <time>2020-06-01T08:57:20Z</time>
      </trkpt>
      <trkpt lat="47.7075" lon="6.17678">
        <ele>285</ele>
        <time>2020-06-01T08:57:22Z</time>
      </trkpt>
      <trkpt lat="47.70754" lon="6.17673">
        <ele>285</ele>
        <time>2020-06-01T08:57:22Z</time>
      </trkpt>
      <trkpt lat="47.70757" lon="6.17667">
        <ele>286</ele>
        <time>2020-06-01T08:57:30Z</time>
      </trkpt>
      <trkpt lat="47.7076" lon="6.17662">
        <ele>286</ele>
        <time>2020-06-01T08:57:33Z</time>
      </trkpt>
      <trkpt lat="47.70765" lon="6.17655">
        <ele>287</ele>
        <time>2020-06-01T08:57:36Z</time>
      </trkpt>
      <trkpt lat="47.70769" lon="6.17649">
        <ele>287</ele>
        <time>2020-06-01T08:57:41Z</time>
      </trkpt>
      <trkpt lat="47.70772" lon="6.17643">
        <ele>288</ele>
        <time>2020-06-01T08:57:43Z</time>
      </trkpt>
      <trkpt lat="47.70777" lon="6.17636">
        <ele>288</ele>
        <time>2020-06-01T08:57:46Z</time>
      </trkpt>
      <trkpt lat="47.70785" lon="6.17623">
        <ele>289</ele>
        <time>2020-06-01T08:57:52Z</time>
      </trkpt>
      <trkpt lat="47.70793" lon="6.17611">
        <ele>289</ele>
        <time>2020-06-01T08:57:52Z</time>
      </trkpt>
      <trkpt lat="47.70796" lon="6.17606">
        <ele>289</ele>
        <time>2020-06-01T08:57:59Z</time>
      </trkpt>
      <trkpt lat="47.70802" lon="6.17594">
        <ele>290</ele>
        <time>2020-06-01T08:58:03Z</time>
      </trkpt>
      <trkpt lat="47.70806" lon="6.17583">
        <ele>290</ele>
        <time>2020-06-01T08:58:06Z</time>
      </trkpt>
      <trkpt lat="47.70808" lon="6.17575">
        <ele>292</ele>
        <time>2020-06-01T08:58:10Z</time>
      </trkpt>
      <trkpt lat="47.7081" lon="6.17562">
        <ele>292</ele>
        <time>2020-06-01T08:58:10Z</time>
      </trkpt>
      <trkpt lat="47.70811" lon="6.17552">
        <ele>292</ele>
        <time>2020-06-01T08:58:16Z</time>
      </trkpt>
      <trkpt lat="47.70808" lon="6.17527">
        <ele>292</ele>
        <time>2020-06-01T08:58:17Z</time>
      </trkpt>
      <trkpt lat="47.70808" lon="6.17519">
        <ele>292</ele>
        <time>2020-06-01T08:58:18Z</time>
      </trkpt>
      <trkpt lat="47.70807" lon="6.1751">
        <ele>292</ele>
        <time>2020-06-01T08:58:20Z</time>
      </trkpt>
      <trkpt lat="47.70803" lon="6.17495">
        <ele>292</ele>
        <time>2020-06-01T08:58:24Z</time>
      </trkpt>
      <trkpt lat="47.708" lon="6.17481">
        <ele>292</ele>
        <time>2020-06-01T08:58:25Z</time>
      </trkpt>
      <trkpt lat="47.70799" lon="6.17473">
        <ele>292</ele>
        <time>2020-06-01T08:58:28Z</time>
      </trkpt>
      <trkpt lat="47.70798" lon="6.17465">
        <ele>292</ele>
        <time>2020-06-01T08:58:35Z</time>
      </trkpt>
      <trkpt lat="47.70795" lon="6.17452">
        <ele>292</ele>
        <time>2020-06-01T08:58:36Z</time>
      </trkpt>
      <trkpt lat="47.70794" lon="6.17445">
        <ele>292</ele>
        <time>2020-06-01T08:58:39Z</time>
      </trkpt>
      <trkpt lat="47.70792" lon="6.17437">
        <ele>292</ele>
        <time>2020-06-01T08:58:46Z</time>
      </trkpt>
      <trkpt lat="47.70791" lon="6.1743">
        <ele>292</ele>
        <time>2020-06-01T08:58:49Z</time>
      </trkpt>
      <trkpt lat="47.70789" lon="6.17422">
        <ele>292</ele>
        <time>2020-06-01T08:58:49Z</time>
      </trkpt>
      <trkpt lat="47.70787" lon="6.17413">
        <ele>293</ele>
        <time>2020-06-01T08:58:56Z</time>
      </trkpt>
      <trkpt lat="47.70785" lon="6.17403">
        <ele>293</ele>
        <time>2020-06-01T08:59:01Z</time>
      </trkpt>
      <trkpt lat="47.70784" lon="6.17395">
        <ele>293</ele>
        <time>2020-06-01T08:59:04Z</time>
      </trkpt>
      <trkpt lat="47.70782" lon="6.17376">
        <ele>293</ele>
        <time>2020-06-01T08:59:06Z</time>
      </trkpt>
      <trkpt lat="47.7078" lon="6.17368">
        <ele>293</ele>
        <time>2020-06-01T08:59:12Z</time>
      </trkpt>
      <trkpt lat="47.70778" lon="6.1736">
        <ele>292</ele>
        <time>2020-06-01T08:59:14Z</time>
      </trkpt>
      <trkpt lat="47.70776" lon="6.1735">
        <ele>292</ele>
        <time>2020-06-01T08:59:17Z</time>
      </trkpt>
      <trkpt lat="47.70775" lon="6.17342">
        <ele>292</ele>
        <time>2020-06-01T08:59:19Z</time>
      </trkpt>
      <trkpt lat="47.70774" lon="6.17334">
        <ele>292</ele>
        <time>2020-06-01T08:59:21Z</time>
      </trkpt>
      <trkpt lat="47.70773" lon="6.17327">
        <ele>293</ele>
        <time>2020-06-01T08:59:24Z</time>
      </trkpt>
      <trkpt lat="47.7077" lon="6.17315">
        <ele>293</ele>
        <time>2020-06-01T08:59:26Z</time>
      </trkpt>
      <trkpt lat="47.70769" lon="6.17308">
        <ele>293</ele>
        <time>2020-06-01T08:59:29Z</time>
      </trkpt>
      <trkpt lat="47.70768" lon="6.17299">
        <ele>293</ele>
        <time>2020-06-01T08:59:31Z</time>
      </trkpt>
      <trkpt lat="47.70766" lon="6.17292">
        <ele>293</ele>
        <time>2020-06-01T08:59:34Z</time>
      </trkpt>
      <trkpt lat="47.70764" lon="6.17281">
        <ele>293</ele>
        <time>2020-06-01T08:59:37Z</time>
      </trkpt>
      <trkpt lat="47.70762" lon="6.17262">
        <ele>293</ele>
        <time>2020-06-01T08:59:39Z</time>
      </trkpt>
      <trkpt lat="47.70761" lon="6.17253">
        <ele>293</ele>
        <time>2020-06-01T08:59:45Z</time>
      </trkpt>
      <trkpt lat="47.70759" lon="6.17233">
        <ele>294</ele>
        <time>2020-06-01T08:59:51Z</time>
      </trkpt>
      <trkpt lat="47.70754" lon="6.17204">
        <ele>295</ele>
        <time>2020-06-01T08:59:55Z</time>
      </trkpt>
      <trkpt lat="47.70753" lon="6.17197">
        <ele>295</ele>
        <time>2020-06-01T08:59:57Z</time>
      </trkpt>
      <trkpt lat="47.70751" lon="6.17188">
        <ele>295</ele>
        <time>2020-06-01T08:59:59Z</time>
      </trkpt>
      <trkpt lat="47.70748" lon="6.17178">
        <ele>294</ele>
        <time>2020-06-01T09:00:01Z</time>
      </trkpt>
      <trkpt lat="47.70746" lon="6.1717">
        <ele>294</ele>
        <time>2020-06-01T09:00:02Z</time>
      </trkpt>
      <trkpt lat="47.70745" lon="6.17163">
        <ele>294</ele>
        <time>2020-06-01T09:00:04Z</time>
      </trkpt>
      <trkpt lat="47.70742" lon="6.17148">
        <ele>294</ele>
        <time>2020-06-01T09:00:08Z</time>
      </trkpt>
      <trkpt lat="47.7074" lon="6.17132">
        <ele>293</ele>
        <time>2020-06-01T09:00:12Z</time>
      </trkpt>
      <trkpt lat="47.70737" lon="6.1711">
        <ele>293</ele>
        <time>2020-06-01T09:00:12Z</time>
      </trkpt>
      <trkpt lat="47.70735" lon="6.17101">
        <ele>294</ele>
        <time>2020-06-01T09:00:17Z</time>
      </trkpt>
      <trkpt lat="47.70733" lon="6.17087">
        <ele>294</ele>
        <time>2020-06-01T09:00:20Z</time>
      </trkpt>
      <trkpt lat="47.70732" lon="6.1708">
        <ele>295</ele>
        <time>2020-06-01T09:00:22Z</time>
      </trkpt>
      <trkpt lat="47.7073" lon="6.17064">
        <ele>294</ele>
        <time>2020-06-01T09:00:27Z</time>
      </trkpt>
      <trkpt lat="47.70728" lon="6.17049">
        <ele>294</ele>
        <time>2020-06-01T09:00:27Z</time>
      </trkpt>
      <trkpt lat="47.70726" lon="6.17042">
        <ele>294</ele>
        <time>2020-06-01T09:00:33Z</time>
      </trkpt>
      <trkpt lat="47.70725" lon="6.17035">
        <ele>294</ele>
        <time>2020-06-01T09:00:34Z</time>
      </trkpt>
      <trkpt lat="47.70721" lon="6.17017">
        <ele>294</ele>
        <time>2020-06-01T09:00:39Z</time>
      </trkpt>
      <trkpt lat="47.7072" lon="6.1701">
        <ele>294</ele>
        <time>2020-06-01T09:00:41Z</time>
      </trkpt>
      <trkpt lat="47.70719" lon="6.17002">
        <ele>294</ele>
        <time>2020-06-01T09:00:44Z</time>
      </trkpt>
      <trkpt lat="47.70718" lon="6.16994">
        <ele>295</ele>
        <time>2020-06-01T09:00:45Z</time>
      </trkpt>
      <trkpt lat="47.70716" lon="6.16986">
        <ele>295</ele>
        <time>2020-06-01T09:00:49Z</time>
      </trkpt>
      <trkpt lat="47.70716" lon="6.16978">
        <ele>295</ele>
        <time>2020-06-01T09:00:56Z</time>
      </trkpt>
      <trkpt lat="47.70715" lon="6.16971">
        <ele>295</ele>
        <time>2020-06-01T09:00:59Z</time>
      </trkpt>
      <trkpt lat="47.70713" lon="6.16961">
        <ele>295</ele>
        <time>2020-06-01T09:01:02Z</time>
      </trkpt>
      <trkpt lat="47.70711" lon="6.16954">
        <ele>295</ele>
        <time>2020-06-01T09:01:02Z</time>
      </trkpt>
      <trkpt lat="47.70709" lon="6.16947">
        <ele>295</ele>
        <time>2020-06-01T09:01:09Z</time>
      </trkpt>
      <trkpt lat="47.70704" lon="6.16927">
        <ele>295</ele>
        <time>2020-06-01T09:01:14Z</time>
      </trkpt>
      <trkpt lat="47.70701" lon="6.16913">
        <ele>296</ele>
        <time>2020-06-01T09:01:20Z</time>
      </trkpt>
      <trkpt lat="47.707" lon="6.16903">
        <ele>296</ele>
        <time>2020-06-01T09:01:22Z</time>
      </trkpt>
      <trkpt lat="47.707" lon="6.16894">
        <ele>296</ele>
        <time>2020-06-01T09:01:26Z</time>
      </trkpt>
      <trkpt lat="47.70699" lon="6.16886">
        <ele>296</ele>
        <time>2020-06-01T09:01:29Z</time>
      </trkpt>
      <trkpt lat="47.70698" lon="6.16879">
        <ele>296</ele>
        <time>2020-06-01T09:01:31Z</time>
      </trkpt>
      <trkpt lat="47.70697" lon="6.1687">
        <ele>296</ele>
        <time>2020-06-01T09:01:33Z</time>
      </trkpt>
      <trkpt lat="47.70695" lon="6.16863">
        <ele>295</ele>
        <time>2020-06-01T09:01:35Z</time>
      </trkpt>
      <trkpt lat="47.70693" lon="6.16856">
        <ele>295</ele>
        <time>2020-06-01T09:01:37Z</time>
      </trkpt>
      <trkpt lat="47.70692" lon="6.16849">
        <ele>295</ele>
        <time>2020-06-01T09:01:39Z</time>
      </trkpt>
      <trkpt lat="47.70689" lon="6.16829">
        <ele>295</ele>
        <time>2020-06-01T09:01:42Z</time>
      </trkpt>
      <trkpt lat="47.70688" lon="6.16822">
        <ele>295</ele>
        <time>2020-06-01T09:01:44Z</time>
      </trkpt>
      <trkpt lat="47.70687" lon="6.16813">
        <ele>295</ele>
        <time>2020-06-01T09:01:46Z</time>
      </trkpt>
      <trkpt lat="47.70686" lon="6.16804">
        <ele>295</ele>
        <time>2020-06-01T09:01:49Z</time>
      </trkpt>
      <trkpt lat="47.70683" lon="6.16786">
        <ele>295</ele>
        <time>2020-06-01T09:01:49Z</time>
      </trkpt>
      <trkpt lat="47.70681" lon="6.16779">
        <ele>295</ele>
        <time>2020-06-01T09:01:56Z</time>
      </trkpt>
      <trkpt lat="47.70679" lon="6.16773">
        <ele>295</ele>
        <time>2020-06-01T09:01:57Z</time>
      </trkpt>
      <trkpt lat="47.70675" lon="6.1677">
        <ele>295</ele>
        <time>2020-06-01T09:02:01Z</time>
      </trkpt>
      <trkpt lat="47.70671" lon="6.16764">
        <ele>295</ele>
        <time>2020-06-01T09:02:08Z</time>
      </trkpt>
      <trkpt lat="47.7067" lon="6.16757">
        <ele>295</ele>
        <time>2020-06-01T09:02:11Z</time>
      </trkpt>
      <trkpt lat="47.70672" lon="6.16743">
        <ele>296</ele>
        <time>2020-06-01T09:02:17Z</time>
      </trkpt>
      <trkpt lat="47.70672" lon="6.16735">
        <ele>296</ele>
        <time>2020-06-01T09:02:21Z</time>
      </trkpt>
      <trkpt lat="47.70671" lon="6.16728">
        <ele>297</ele>
        <time>2020-06-01T09:02:24Z</time>
      </trkpt>
      <trkpt lat="47.7067" lon="6.1672">
        <ele>297</ele>
        <time>2020-06-01T09:02:27Z</time>
      </trkpt>
      <trkpt lat="47.70668" lon="6.16711">
        <ele>298</ele>
        <time>2020-06-01T09:02:31Z</time>
      </trkpt>
      <trkpt lat="47.70666" lon="6.16695">
        <ele>298</ele>
        <time>2020-06-01T09:02:36Z</time>
      </trkpt>
      <trkpt lat="47.70665" lon="6.16687">
        <ele>299</ele>
        <time>2020-06-01T09:02:40Z</time>
      </trkpt>
      <trkpt lat="47.70663" lon="6.16679">
        <ele>300</ele>
        <time>2020-06-01T09:02:42Z</time>
      </trkpt>
      <trkpt lat="47.70662" lon="6.16672">
        <ele>300</ele>
        <time>2020-06-01T09:02:46Z</time>
      </trkpt>
      <trkpt lat="47.70662" lon="6.16656">
        <ele>301</ele>
        <time>2020-06-01T09:02:53Z</time>
      </trkpt>
      <trkpt lat="47.70663" lon="6.16649">
        <ele>301</ele>
        <time>2020-06-01T09:02:56Z</time>
      </trkpt>
      <trkpt lat="47.70663" lon="6.16639">
        <ele>301</ele>
        <time>2020-06-01T09:02:57Z</time>
      </trkpt>
      <trkpt lat="47.70663" lon="6.16633">
        <ele>301</ele>
        <time>2020-06-01T09:03:00Z</time>
      </trkpt>
      <trkpt lat="47.70661" lon="6.16625">
        <ele>301</ele>
        <time>2020-06-01T09:03:08Z</time>
      </trkpt>
      <trkpt lat="47.70659" lon="6.16616">
        <ele>301</ele>
        <time>2020-06-01T09:03:10Z</time>
      </trkpt>
      <trkpt lat="47.70657" lon="6.16606">
        <ele>301</ele>
        <time>2020-06-01T09:03:13Z</time>
      </trkpt>
      <trkpt lat="47.70657" lon="6.16599">
        <ele>301</ele>
        <time>2020-06-01T09:03:15Z</time>
      </trkpt>
      <trkpt lat="47.70657" lon="6.16591">
        <ele>301</ele>
        <time>2020-06-01T09:03:15Z</time>
      </trkpt>
      <trkpt lat="47.70657" lon="6.16582">
        <ele>302</ele>
        <time>2020-06-01T09:03:19Z</time>
      </trkpt>
      <trkpt lat="47.70658" lon="6.16574">
        <ele>302</ele>
        <time>2020-06-01T09:03:23Z</time>
      </trkpt>
      <trkpt lat="47.70659" lon="6.16566">
        <ele>302</ele>
        <time>2020-06-01T09:03:26Z</time>
      </trkpt>
      <trkpt lat="47.70658" lon="6.16557">
        <ele>302</ele>
        <time>2020-06-01T09:03:33Z</time>
      </trkpt>
      <trkpt lat="47.70658" lon="6.1655">
        <ele>302</ele>
        <time>2020-06-01T09:03:36Z</time>
      </trkpt>
      <trkpt lat="47.70659" lon="6.16543">
        <ele>302</ele>
        <time>2020-06-01T09:03:40Z</time>
      </trkpt>
      <trkpt lat="47.7066" lon="6.16527">
        <ele>302</ele>
        <time>2020-06-01T09:03:46Z</time>
      </trkpt>
      <trkpt lat="47.70659" lon="6.16512">
        <ele>303</ele>
        <time>2020-06-01T09:03:51Z</time>
      </trkpt>
      <trkpt lat="47.70659" lon="6.16505">
        <ele>303</ele>
        <time>2020-06-01T09:03:51Z</time>
      </trkpt>
      <trkpt lat="47.70658" lon="6.16498">
        <ele>303</ele>
        <time>2020-06-01T09:04:07Z</time>
      </trkpt>
      <trkpt lat="47.70657" lon="6.16491">
        <ele>302</ele>
        <time>2020-06-01T09:04:10Z</time>
      </trkpt>
      <trkpt lat="47.70656" lon="6.16484">
        <ele>302</ele>
        <time>2020-06-01T09:04:10Z</time>
      </trkpt>
      <trkpt lat="47.70656" lon="6.16477">
        <ele>302</ele>
        <time>2020-06-01T09:04:19Z</time>
      </trkpt>
      <trkpt lat="47.70656" lon="6.16468">
        <ele>301</ele>
        <time>2020-06-01T09:04:23Z</time>
      </trkpt>
      <trkpt lat="47.70655" lon="6.16462">
        <ele>301</ele>
        <time>2020-06-01T09:04:25Z</time>
      </trkpt>
      <trkpt lat="47.70654" lon="6.16455">
        <ele>301</ele>
        <time>2020-06-01T09:04:28Z</time>
      </trkpt>
      <trkpt lat="47.70653" lon="6.16448">
        <ele>301</ele>
        <time>2020-06-01T09:04:32Z</time>
      </trkpt>
      <trkpt lat="47.70652" lon="6.1644">
        <ele>300</ele>
        <time>2020-06-01T09:04:33Z</time>
      </trkpt>
      <trkpt lat="47.7065" lon="6.16433">
        <ele>300</ele>
        <time>2020-06-01T09:04:36Z</time>
      </trkpt>
      <trkpt lat="47.70649" lon="6.16425">
        <ele>300</ele>
        <time>2020-06-01T09:04:39Z</time>
      </trkpt>
      <trkpt lat="47.70648" lon="6.16417">
        <ele>300</ele>
        <time>2020-06-01T09:04:42Z</time>
      </trkpt>
      <trkpt lat="47.70648" lon="6.16402">
        <ele>297</ele>
        <time>2020-06-01T09:04:48Z</time>
      </trkpt>
      <trkpt lat="47.70647" lon="6.16393">
        <ele>297</ele>
        <time>2020-06-01T09:04:51Z</time>
      </trkpt>
      <trkpt lat="47.70646" lon="6.16374">
        <ele>296</ele>
        <time>2020-06-01T09:04:57Z</time>
      </trkpt>
      <trkpt lat="47.70645" lon="6.16357">
        <ele>296</ele>
        <time>2020-06-01T09:05:02Z</time>
      </trkpt>
      <trkpt lat="47.70644" lon="6.16348">
        <ele>296</ele>
        <time>2020-06-01T09:05:05Z</time>
      </trkpt>
      <trkpt lat="47.70644" lon="6.1634">
        <ele>296</ele>
        <time>2020-06-01T09:05:07Z</time>
      </trkpt>
      <trkpt lat="47.70644" lon="6.16332">
        <ele>294</ele>
        <time>2020-06-01T09:05:10Z</time>
      </trkpt>
      <trkpt lat="47.70644" lon="6.16325">
        <ele>294</ele>
        <time>2020-06-01T09:05:11Z</time>
      </trkpt>
      <trkpt lat="47.70644" lon="6.16316">
        <ele>293</ele>
        <time>2020-06-01T09:05:14Z</time>
      </trkpt>
      <trkpt lat="47.70644" lon="6.16309">
        <ele>293</ele>
        <time>2020-06-01T09:05:17Z</time>
      </trkpt>
      <trkpt lat="47.70644" lon="6.16301">
        <ele>293</ele>
        <time>2020-06-01T09:05:19Z</time>
      </trkpt>
      <trkpt lat="47.70643" lon="6.16294">
        <ele>293</ele>
        <time>2020-06-01T09:05:19Z</time>
      </trkpt>
      <trkpt lat="47.70644" lon="6.16286">
        <ele>293</ele>
        <time>2020-06-01T09:05:43Z</time>
      </trkpt>
      <trkpt lat="47.70646" lon="6.1628">
        <ele>293</ele>
        <time>2020-06-01T09:05:56Z</time>
      </trkpt>
      <trkpt lat="47.70647" lon="6.16273">
        <ele>293</ele>
        <time>2020-06-01T09:06:05Z</time>
      </trkpt>
      <trkpt lat="47.70646" lon="6.16266">
        <ele>293</ele>
        <time>2020-06-01T09:06:17Z</time>
      </trkpt>
      <trkpt lat="47.70649" lon="6.1626">
        <ele>293</ele>
        <time>2020-06-01T09:06:38Z</time>
      </trkpt>
      <trkpt lat="47.70652" lon="6.16254">
        <ele>294</ele>
        <time>2020-06-01T09:07:19Z</time>
      </trkpt>
      <trkpt lat="47.70654" lon="6.16248">
        <ele>295</ele>
        <time>2020-06-01T09:07:26Z</time>
      </trkpt>
      <trkpt lat="47.70658" lon="6.16244">
        <ele>295</ele>
        <time>2020-06-01T09:07:48Z</time>
      </trkpt>
      <trkpt lat="47.70657" lon="6.16237">
        <ele>295</ele>
        <time>2020-06-01T09:08:02Z</time>
      </trkpt>
      <trkpt lat="47.70655" lon="6.1623">
        <ele>295</ele>
        <time>2020-06-01T09:08:12Z</time>
      </trkpt>
      <trkpt lat="47.70653" lon="6.16224">
        <ele>295</ele>
        <time>2020-06-01T09:08:32Z</time>
      </trkpt>
      <trkpt lat="47.7065" lon="6.16219">
        <ele>295</ele>
        <time>2020-06-01T09:08:58Z</time>
      </trkpt>
      <trkpt lat="47.70646" lon="6.16215">
        <ele>295</ele>
        <time>2020-06-01T09:09:09Z</time>
      </trkpt>
      <trkpt lat="47.70641" lon="6.16211">
        <ele>295</ele>
        <time>2020-06-01T09:10:01Z</time>
      </trkpt>
      <trkpt lat="47.70637" lon="6.1621">
        <ele>295</ele>
        <time>2020-06-01T09:10:09Z</time>
      </trkpt>
      <trkpt lat="47.70632" lon="6.1621">
        <ele>295</ele>
        <time>2020-06-01T09:10:12Z</time>
      </trkpt>
      <trkpt lat="47.70626" lon="6.1621">
        <ele>295</ele>
        <time>2020-06-01T09:10:15Z</time>
      </trkpt>
      <trkpt lat="47.70619" lon="6.16211">
        <ele>294</ele>
        <time>2020-06-01T09:10:16Z</time>
      </trkpt>
      <trkpt lat="47.70614" lon="6.16212">
        <ele>294</ele>
        <time>2020-06-01T09:10:17Z</time>
      </trkpt>
      <trkpt lat="47.70607" lon="6.16212">
        <ele>294</ele>
        <time>2020-06-01T09:10:18Z</time>
      </trkpt>
      <trkpt lat="47.70601" lon="6.16213">
        <ele>293</ele>
        <time>2020-06-01T09:10:19Z</time>
      </trkpt>
      <trkpt lat="47.70596" lon="6.16213">
        <ele>293</ele>
        <time>2020-06-01T09:10:20Z</time>
      </trkpt>
      <trkpt lat="47.70592" lon="6.16214">
        <ele>293</ele>
        <time>2020-06-01T09:10:21Z</time>
      </trkpt>
      <trkpt lat="47.70587" lon="6.16214">
        <ele>293</ele>
        <time>2020-06-01T09:10:22Z</time>
      </trkpt>
      <trkpt lat="47.7058" lon="6.16215">
        <ele>289</ele>
        <time>2020-06-01T09:10:24Z</time>
      </trkpt>
      <trkpt lat="47.70575" lon="6.16216">
        <ele>289</ele>
        <time>2020-06-01T09:10:25Z</time>
      </trkpt>
      <trkpt lat="47.70563" lon="6.16217">
        <ele>289</ele>
        <time>2020-06-01T09:10:27Z</time>
      </trkpt>
      <trkpt lat="47.70557" lon="6.16218">
        <ele>289</ele>
        <time>2020-06-01T09:10:28Z</time>
      </trkpt>
      <trkpt lat="47.70553" lon="6.16219">
        <ele>289</ele>
        <time>2020-06-01T09:10:29Z</time>
      </trkpt>
      <trkpt lat="47.70547" lon="6.16221">
        <ele>289</ele>
        <time>2020-06-01T09:10:30Z</time>
      </trkpt>
      <trkpt lat="47.70541" lon="6.16222">
        <ele>289</ele>
        <time>2020-06-01T09:10:32Z</time>
      </trkpt>
      <trkpt lat="47.70528" lon="6.16223">
        <ele>288</ele>
        <time>2020-06-01T09:10:35Z</time>
      </trkpt>
      <trkpt lat="47.70516" lon="6.16224">
        <ele>288</ele>
        <time>2020-06-01T09:10:37Z</time>
      </trkpt>
      <trkpt lat="47.70509" lon="6.16225">
        <ele>288</ele>
        <time>2020-06-01T09:10:39Z</time>
      </trkpt>
      <trkpt lat="47.70501" lon="6.16225">
        <ele>288</ele>
        <time>2020-06-01T09:10:41Z</time>
      </trkpt>
      <trkpt lat="47.70496" lon="6.16225">
        <ele>287</ele>
        <time>2020-06-01T09:10:42Z</time>
      </trkpt>
      <trkpt lat="47.70488" lon="6.16226">
        <ele>287</ele>
        <time>2020-06-01T09:10:44Z</time>
      </trkpt>
      <trkpt lat="47.70483" lon="6.16226">
        <ele>287</ele>
        <time>2020-06-01T09:10:45Z</time>
      </trkpt>
      <trkpt lat="47.70475" lon="6.16226">
        <ele>287</ele>
        <time>2020-06-01T09:10:47Z</time>
      </trkpt>
      <trkpt lat="47.7046" lon="6.16228">
        <ele>287</ele>
        <time>2020-06-01T09:10:50Z</time>
      </trkpt>
      <trkpt lat="47.70452" lon="6.16229">
        <ele>287</ele>
        <time>2020-06-01T09:10:53Z</time>
      </trkpt>
      <trkpt lat="47.70447" lon="6.16229">
        <ele>287</ele>
        <time>2020-06-01T09:10:54Z</time>
      </trkpt>
      <trkpt lat="47.70442" lon="6.1623">
        <ele>287</ele>
        <time>2020-06-01T09:10:56Z</time>
      </trkpt>
      <trkpt lat="47.70436" lon="6.1623">
        <ele>287</ele>
        <time>2020-06-01T09:10:58Z</time>
      </trkpt>
      <trkpt lat="47.70432" lon="6.16231">
        <ele>287</ele>
        <time>2020-06-01T09:10:59Z</time>
      </trkpt>
      <trkpt lat="47.70425" lon="6.16231">
        <ele>287</ele>
        <time>2020-06-01T09:11:02Z</time>
      </trkpt>
      <trkpt lat="47.70414" lon="6.16233">
        <ele>287</ele>
        <time>2020-06-01T09:11:04Z</time>
      </trkpt>
      <trkpt lat="47.70406" lon="6.16235">
        <ele>287</ele>
        <time>2020-06-01T09:11:07Z</time>
      </trkpt>
      <trkpt lat="47.70394" lon="6.16236">
        <ele>287</ele>
        <time>2020-06-01T09:11:11Z</time>
      </trkpt>
      <trkpt lat="47.70386" lon="6.16238">
        <ele>287</ele>
        <time>2020-06-01T09:11:13Z</time>
      </trkpt>
      <trkpt lat="47.70379" lon="6.16239">
        <ele>287</ele>
        <time>2020-06-01T09:11:14Z</time>
      </trkpt>
      <trkpt lat="47.70374" lon="6.16239">
        <ele>287</ele>
        <time>2020-06-01T09:11:16Z</time>
      </trkpt>
      <trkpt lat="47.70366" lon="6.16241">
        <ele>287</ele>
        <time>2020-06-01T09:11:18Z</time>
      </trkpt>
      <trkpt lat="47.70361" lon="6.16243">
        <ele>287</ele>
        <time>2020-06-01T09:11:19Z</time>
      </trkpt>
      <trkpt lat="47.70353" lon="6.16245">
        <ele>286</ele>
        <time>2020-06-01T09:11:20Z</time>
      </trkpt>
      <trkpt lat="47.70342" lon="6.16246">
        <ele>285</ele>
        <time>2020-06-01T09:11:23Z</time>
      </trkpt>
      <trkpt lat="47.70335" lon="6.16246">
        <ele>285</ele>
        <time>2020-06-01T09:11:24Z</time>
      </trkpt>
      <trkpt lat="47.7033" lon="6.16247">
        <ele>285</ele>
        <time>2020-06-01T09:11:25Z</time>
      </trkpt>
      <trkpt lat="47.70321" lon="6.16249">
        <ele>285</ele>
        <time>2020-06-01T09:11:27Z</time>
      </trkpt>
      <trkpt lat="47.70314" lon="6.16252">
        <ele>282</ele>
        <time>2020-06-01T09:11:28Z</time>
      </trkpt>
      <trkpt lat="47.70304" lon="6.16254">
        <ele>282</ele>
        <time>2020-06-01T09:11:30Z</time>
      </trkpt>
      <trkpt lat="47.70284" lon="6.16259">
        <ele>281</ele>
        <time>2020-06-01T09:11:33Z</time>
      </trkpt>
      <trkpt lat="47.70279" lon="6.16261">
        <ele>281</ele>
        <time>2020-06-01T09:11:33Z</time>
      </trkpt>
      <trkpt lat="47.70272" lon="6.16263">
        <ele>281</ele>
        <time>2020-06-01T09:11:34Z</time>
      </trkpt>
      <trkpt lat="47.70244" lon="6.16271">
        <ele>280</ele>
        <time>2020-06-01T09:11:35Z</time>
      </trkpt>
      <trkpt lat="47.70238" lon="6.16272">
        <ele>280</ele>
        <time>2020-06-01T09:11:36Z</time>
      </trkpt>
      <trkpt lat="47.70232" lon="6.16272">
        <ele>279</ele>
        <time>2020-06-01T09:11:37Z</time>
      </trkpt>
      <trkpt lat="47.70225" lon="6.16274">
        <ele>279</ele>
        <time>2020-06-01T09:11:38Z</time>
      </trkpt>
      <trkpt lat="47.70219" lon="6.16275">
        <ele>279</ele>
        <time>2020-06-01T09:11:39Z</time>
      </trkpt>
      <trkpt lat="47.70212" lon="6.16276">
        <ele>278</ele>
        <time>2020-06-01T09:11:40Z</time>
      </trkpt>
      <trkpt lat="47.70207" lon="6.16278">
        <ele>278</ele>
        <time>2020-06-01T09:11:41Z</time>
      </trkpt>
      <trkpt lat="47.70201" lon="6.16279">
        <ele>278</ele>
        <time>2020-06-01T09:11:42Z</time>
      </trkpt>
      <trkpt lat="47.70195" lon="6.1628">
        <ele>278</ele>
        <time>2020-06-01T09:11:43Z</time>
      </trkpt>
      <trkpt lat="47.70189" lon="6.16281">
        <ele>278</ele>
        <time>2020-06-01T09:11:44Z</time>
      </trkpt>
      <trkpt lat="47.70184" lon="6.16281">
        <ele>278</ele>
        <time>2020-06-01T09:11:45Z</time>
      </trkpt>
      <trkpt lat="47.70179" lon="6.16282">
        <ele>278</ele>
        <time>2020-06-01T09:11:46Z</time>
      </trkpt>
      <trkpt lat="47.70174" lon="6.16282">
        <ele>277</ele>
        <time>2020-06-01T09:11:47Z</time>
      </trkpt>
      <trkpt lat="47.70168" lon="6.16283">
        <ele>277</ele>
        <time>2020-06-01T09:11:48Z</time>
      </trkpt>
      <trkpt lat="47.70163" lon="6.16284">
        <ele>276</ele>
        <time>2020-06-01T09:11:49Z</time>
      </trkpt>
      <trkpt lat="47.70158" lon="6.16285">
        <ele>276</ele>
        <time>2020-06-01T09:11:50Z</time>
      </trkpt>
      <trkpt lat="47.70153" lon="6.16286">
        <ele>276</ele>
        <time>2020-06-01T09:11:51Z</time>
      </trkpt>
      <trkpt lat="47.70148" lon="6.16286">
        <ele>276</ele>
        <time>2020-06-01T09:11:52Z</time>
      </trkpt>
      <trkpt lat="47.70142" lon="6.16287">
        <ele>276</ele>
        <time>2020-06-01T09:11:53Z</time>
      </trkpt>
      <trkpt lat="47.70137" lon="6.16287">
        <ele>276</ele>
        <time>2020-06-01T09:11:54Z</time>
      </trkpt>
      <trkpt lat="47.70131" lon="6.16288">
        <ele>276</ele>
        <time>2020-06-01T09:11:55Z</time>
      </trkpt>
      <trkpt lat="47.70125" lon="6.16289">
        <ele>276</ele>
        <time>2020-06-01T09:11:56Z</time>
      </trkpt>
      <trkpt lat="47.70119" lon="6.1629">
        <ele>276</ele>
        <time>2020-06-01T09:11:57Z</time>
      </trkpt>
      <trkpt lat="47.70113" lon="6.16291">
        <ele>275</ele>
        <time>2020-06-01T09:11:58Z</time>
      </trkpt>
      <trkpt lat="47.70108" lon="6.16292">
        <ele>275</ele>
        <time>2020-06-01T09:11:59Z</time>
      </trkpt>
      <trkpt lat="47.70102" lon="6.16293">
        <ele>275</ele>
        <time>2020-06-01T09:12:00Z</time>
      </trkpt>
      <trkpt lat="47.70097" lon="6.16294">
        <ele>275</ele>
        <time>2020-06-01T09:12:01Z</time>
      </trkpt>
      <trkpt lat="47.70091" lon="6.16295">
        <ele>275</ele>
        <time>2020-06-01T09:12:02Z</time>
      </trkpt>
      <trkpt lat="47.70084" lon="6.16296">
        <ele>275</ele>
        <time>2020-06-01T09:12:03Z</time>
      </trkpt>
      <trkpt lat="47.70077" lon="6.16297">
        <ele>274</ele>
        <time>2020-06-01T09:12:04Z</time>
      </trkpt>
      <trkpt lat="47.7007" lon="6.16297">
        <ele>274</ele>
        <time>2020-06-01T09:12:05Z</time>
      </trkpt>
      <trkpt lat="47.70063" lon="6.16297">
        <ele>274</ele>
        <time>2020-06-01T09:12:06Z</time>
      </trkpt>
      <trkpt lat="47.70057" lon="6.16297">
        <ele>274</ele>
        <time>2020-06-01T09:12:07Z</time>
      </trkpt>
      <trkpt lat="47.70051" lon="6.16298">
        <ele>274</ele>
        <time>2020-06-01T09:12:08Z</time>
      </trkpt>
      <trkpt lat="47.70045" lon="6.16298">
        <ele>274</ele>
        <time>2020-06-01T09:12:09Z</time>
      </trkpt>
      <trkpt lat="47.70039" lon="6.16299">
        <ele>274</ele>
        <time>2020-06-01T09:12:10Z</time>
      </trkpt>
      <trkpt lat="47.70033" lon="6.16299">
        <ele>273</ele>
        <time>2020-06-01T09:12:11Z</time>
      </trkpt>
      <trkpt lat="47.70026" lon="6.163">
        <ele>273</ele>
        <time>2020-06-01T09:12:12Z</time>
      </trkpt>
      <trkpt lat="47.7002" lon="6.163">
        <ele>273</ele>
        <time>2020-06-01T09:12:13Z</time>
      </trkpt>
      <trkpt lat="47.70014" lon="6.16301">
        <ele>273</ele>
        <time>2020-06-01T09:12:14Z</time>
      </trkpt>
      <trkpt lat="47.70008" lon="6.16302">
        <ele>273</ele>
        <time>2020-06-01T09:12:15Z</time>
      </trkpt>
      <trkpt lat="47.70001" lon="6.16303">
        <ele>273</ele>
        <time>2020-06-01T09:12:16Z</time>
      </trkpt>
      <trkpt lat="47.69995" lon="6.16303">
        <ele>271</ele>
        <time>2020-06-01T09:12:17Z</time>
      </trkpt>
      <trkpt lat="47.69988" lon="6.16304">
        <ele>271</ele>
        <time>2020-06-01T09:12:18Z</time>
      </trkpt>
      <trkpt lat="47.69982" lon="6.16305">
        <ele>271</ele>
        <time>2020-06-01T09:12:19Z</time>
      </trkpt>
      <trkpt lat="47.69975" lon="6.16305">
        <ele>271</ele>
        <time>2020-06-01T09:12:20Z</time>
      </trkpt>
      <trkpt lat="47.69969" lon="6.16305">
        <ele>271</ele>
        <time>2020-06-01T09:12:21Z</time>
      </trkpt>
      <trkpt lat="47.69963" lon="6.16305">
        <ele>271</ele>
        <time>2020-06-01T09:12:22Z</time>
      </trkpt>
      <trkpt lat="47.69957" lon="6.16304">
        <ele>270</ele>
        <time>2020-06-01T09:12:23Z</time>
      </trkpt>
      <trkpt lat="47.69951" lon="6.16298">
        <ele>270</ele>
        <time>2020-06-01T09:12:24Z</time>
      </trkpt>
      <trkpt lat="47.69946" lon="6.16291">
        <ele>270</ele>
        <time>2020-06-01T09:12:25Z</time>
      </trkpt>
      <trkpt lat="47.69942" lon="6.16284">
        <ele>270</ele>
        <time>2020-06-01T09:12:26Z</time>
      </trkpt>
      <trkpt lat="47.69938" lon="6.16276">
        <ele>270</ele>
        <time>2020-06-01T09:12:27Z</time>
      </trkpt>
      <trkpt lat="47.69934" lon="6.16267">
        <ele>270</ele>
        <time>2020-06-01T09:12:28Z</time>
      </trkpt>
      <trkpt lat="47.69931" lon="6.16258">
        <ele>269</ele>
        <time>2020-06-01T09:12:29Z</time>
      </trkpt>
      <trkpt lat="47.69927" lon="6.16249">
        <ele>269</ele>
        <time>2020-06-01T09:12:30Z</time>
      </trkpt>
      <trkpt lat="47.69923" lon="6.16242">
        <ele>269</ele>
        <time>2020-06-01T09:12:31Z</time>
      </trkpt>
      <trkpt lat="47.69919" lon="6.16234">
        <ele>269</ele>
        <time>2020-06-01T09:12:32Z</time>
      </trkpt>
      <trkpt lat="47.69916" lon="6.16226">
        <ele>267</ele>
        <time>2020-06-01T09:12:33Z</time>
      </trkpt>
      <trkpt lat="47.69912" lon="6.16218">
        <ele>266</ele>
        <time>2020-06-01T09:12:34Z</time>
      </trkpt>
      <trkpt lat="47.69908" lon="6.1621">
        <ele>266</ele>
        <time>2020-06-01T09:12:35Z</time>
      </trkpt>
      <trkpt lat="47.69904" lon="6.16202">
        <ele>266</ele>
        <time>2020-06-01T09:12:36Z</time>
      </trkpt>
      <trkpt lat="47.699" lon="6.16194">
        <ele>266</ele>
        <time>2020-06-01T09:12:37Z</time>
      </trkpt>
      <trkpt lat="47.69896" lon="6.16187">
        <ele>266</ele>
        <time>2020-06-01T09:12:38Z</time>
      </trkpt>
      <trkpt lat="47.69891" lon="6.16179">
        <ele>265</ele>
        <time>2020-06-01T09:12:39Z</time>
      </trkpt>
      <trkpt lat="47.69887" lon="6.16172">
        <ele>265</ele>
        <time>2020-06-01T09:12:40Z</time>
      </trkpt>
      <trkpt lat="47.69883" lon="6.16165">
        <ele>264</ele>
        <time>2020-06-01T09:12:41Z</time>
      </trkpt>
      <trkpt lat="47.69879" lon="6.16159">
        <ele>264</ele>
        <time>2020-06-01T09:12:42Z</time>
      </trkpt>
      <trkpt lat="47.69875" lon="6.16152">
        <ele>264</ele>
        <time>2020-06-01T09:12:43Z</time>
      </trkpt>
      <trkpt lat="47.69871" lon="6.16145">
        <ele>264</ele>
        <time>2020-06-01T09:12:44Z</time>
      </trkpt>
      <trkpt lat="47.69867" lon="6.16137">
        <ele>264</ele>
        <time>2020-06-01T09:12:45Z</time>
      </trkpt>
      <trkpt lat="47.69863" lon="6.1613">
        <ele>264</ele>
        <time>2020-06-01T09:12:46Z</time>
      </trkpt>
      <trkpt lat="47.69859" lon="6.16123">
        <ele>264</ele>
        <time>2020-06-01T09:12:47Z</time>
      </trkpt>
      <trkpt lat="47.69855" lon="6.16116">
        <ele>263</ele>
        <time>2020-06-01T09:12:48Z</time>
      </trkpt>
      <trkpt lat="47.6985" lon="6.16109">
        <ele>263</ele>
        <time>2020-06-01T09:12:49Z</time>
      </trkpt>
      <trkpt lat="47.69846" lon="6.16103">
        <ele>263</ele>
        <time>2020-06-01T09:12:50Z</time>
      </trkpt>
      <trkpt lat="47.6984" lon="6.16097">
        <ele>263</ele>
        <time>2020-06-01T09:12:51Z</time>
      </trkpt>
      <trkpt lat="47.69835" lon="6.16092">
        <ele>263</ele>
        <time>2020-06-01T09:12:52Z</time>
      </trkpt>
      <trkpt lat="47.69829" lon="6.16087">
        <ele>262</ele>
        <time>2020-06-01T09:12:53Z</time>
      </trkpt>
      <trkpt lat="47.69824" lon="6.16082">
        <ele>262</ele>
        <time>2020-06-01T09:12:54Z</time>
      </trkpt>
      <trkpt lat="47.69818" lon="6.16077">
        <ele>261</ele>
        <time>2020-06-01T09:12:55Z</time>
      </trkpt>
      <trkpt lat="47.69812" lon="6.16072">
        <ele>261</ele>
        <time>2020-06-01T09:12:56Z</time>
      </trkpt>
      <trkpt lat="47.69806" lon="6.16068">
        <ele>261</ele>
        <time>2020-06-01T09:12:57Z</time>
      </trkpt>
      <trkpt lat="47.698" lon="6.16063">
        <ele>261</ele>
        <time>2020-06-01T09:12:58Z</time>
      </trkpt>
      <trkpt lat="47.69794" lon="6.16059">
        <ele>261</ele>
        <time>2020-06-01T09:12:59Z</time>
      </trkpt>
      <trkpt lat="47.69788" lon="6.16054">
        <ele>261</ele>
        <time>2020-06-01T09:13:00Z</time>
      </trkpt>
      <trkpt lat="47.69783" lon="6.16049">
        <ele>261</ele>
        <time>2020-06-01T09:13:01Z</time>
      </trkpt>
      <trkpt lat="47.69777" lon="6.16043">
        <ele>261</ele>
        <time>2020-06-01T09:13:02Z</time>
      </trkpt>
      <trkpt lat="47.69771" lon="6.16038">
        <ele>261</ele>
        <time>2020-06-01T09:13:03Z</time>
      </trkpt>
      <trkpt lat="47.69765" lon="6.16035">
        <ele>261</ele>
        <time>2020-06-01T09:13:04Z</time>
      </trkpt>
      <trkpt lat="47.69759" lon="6.16034">
        <ele>260</ele>
        <time>2020-06-01T09:13:05Z</time>
      </trkpt>
      <trkpt lat="47.69752" lon="6.16033">
        <ele>260</ele>
        <time>2020-06-01T09:13:06Z</time>
      </trkpt>
      <trkpt lat="47.69747" lon="6.16035">
        <ele>260</ele>
        <time>2020-06-01T09:13:07Z</time>
      </trkpt>
      <trkpt lat="47.69742" lon="6.16038">
        <ele>260</ele>
        <time>2020-06-01T09:13:08Z</time>
      </trkpt>
      <trkpt lat="47.69737" lon="6.16042">
        <ele>260</ele>
        <time>2020-06-01T09:13:09Z</time>
      </trkpt>
      <trkpt lat="47.69732" lon="6.16047">
        <ele>260</ele>
        <time>2020-06-01T09:13:10Z</time>
      </trkpt>
      <trkpt lat="47.69729" lon="6.16051">
        <ele>260</ele>
        <time>2020-06-01T09:13:11Z</time>
      </trkpt>
      <trkpt lat="47.69723" lon="6.1606">
        <ele>260</ele>
        <time>2020-06-01T09:13:13Z</time>
      </trkpt>
      <trkpt lat="47.69718" lon="6.16065">
        <ele>260</ele>
        <time>2020-06-01T09:13:15Z</time>
      </trkpt>
      <trkpt lat="47.69713" lon="6.1607">
        <ele>260</ele>
        <time>2020-06-01T09:13:17Z</time>
      </trkpt>
      <trkpt lat="47.69708" lon="6.16076">
        <ele>259</ele>
        <time>2020-06-01T09:13:19Z</time>
      </trkpt>
      <trkpt lat="47.69701" lon="6.1608">
        <ele>259</ele>
        <time>2020-06-01T09:13:20Z</time>
      </trkpt>
      <trkpt lat="47.69696" lon="6.16088">
        <ele>260</ele>
        <time>2020-06-01T09:13:26Z</time>
      </trkpt>
      <trkpt lat="47.69693" lon="6.16093">
        <ele>260</ele>
        <time>2020-06-01T09:13:28Z</time>
      </trkpt>
      <trkpt lat="47.69689" lon="6.16098">
        <ele>260</ele>
        <time>2020-06-01T09:13:29Z</time>
      </trkpt>
      <trkpt lat="47.69683" lon="6.16104">
        <ele>260</ele>
        <time>2020-06-01T09:13:32Z</time>
      </trkpt>
      <trkpt lat="47.69675" lon="6.16111">
        <ele>260</ele>
        <time>2020-06-01T09:13:34Z</time>
      </trkpt>
      <trkpt lat="47.6967" lon="6.16115">
        <ele>260</ele>
        <time>2020-06-01T09:13:37Z</time>
      </trkpt>
      <trkpt lat="47.69666" lon="6.16119">
        <ele>260</ele>
        <time>2020-06-01T09:13:38Z</time>
      </trkpt>
      <trkpt lat="47.69661" lon="6.16123">
        <ele>260</ele>
        <time>2020-06-01T09:13:40Z</time>
      </trkpt>
      <trkpt lat="47.69651" lon="6.1613">
        <ele>260</ele>
        <time>2020-06-01T09:13:48Z</time>
      </trkpt>
      <trkpt lat="47.69655" lon="6.16126">
        <ele>260</ele>
        <time>2020-06-01T09:14:00Z</time>
      </trkpt>
      <trkpt lat="47.69651" lon="6.1613">
        <ele>260</ele>
        <time>2020-06-01T09:14:24Z</time>
      </trkpt>
      <trkpt lat="47.69643" lon="6.16135">
        <ele>260</ele>
        <time>2020-06-01T09:14:31Z</time>
      </trkpt>
      <trkpt lat="47.69638" lon="6.16138">
        <ele>260</ele>
        <time>2020-06-01T09:14:34Z</time>
      </trkpt>
      <trkpt lat="47.69633" lon="6.16142">
        <ele>261</ele>
        <time>2020-06-01T09:14:37Z</time>
      </trkpt>
      <trkpt lat="47.69623" lon="6.1615">
        <ele>260</ele>
        <time>2020-06-01T09:14:41Z</time>
      </trkpt>
      <trkpt lat="47.69611" lon="6.16158">
        <ele>260</ele>
        <time>2020-06-01T09:14:43Z</time>
      </trkpt>
      <trkpt lat="47.69598" lon="6.16168">
        <ele>260</ele>
        <time>2020-06-01T09:14:48Z</time>
      </trkpt>
      <trkpt lat="47.69592" lon="6.16173">
        <ele>260</ele>
        <time>2020-06-01T09:14:49Z</time>
      </trkpt>
      <trkpt lat="47.69586" lon="6.16179">
        <ele>260</ele>
        <time>2020-06-01T09:14:52Z</time>
      </trkpt>
      <trkpt lat="47.6958" lon="6.16184">
        <ele>259</ele>
        <time>2020-06-01T09:14:53Z</time>
      </trkpt>
      <trkpt lat="47.69576" lon="6.16188">
        <ele>259</ele>
        <time>2020-06-01T09:14:55Z</time>
      </trkpt>
      <trkpt lat="47.69569" lon="6.16194">
        <ele>259</ele>
        <time>2020-06-01T09:14:56Z</time>
      </trkpt>
      <trkpt lat="47.69565" lon="6.16198">
        <ele>258</ele>
        <time>2020-06-01T09:14:57Z</time>
      </trkpt>
      <trkpt lat="47.69561" lon="6.16203">
        <ele>258</ele>
        <time>2020-06-01T09:14:59Z</time>
      </trkpt>
      <trkpt lat="47.69552" lon="6.16212">
        <ele>258</ele>
        <time>2020-06-01T09:15:02Z</time>
      </trkpt>
      <trkpt lat="47.69549" lon="6.16216">
        <ele>258</ele>
        <time>2020-06-01T09:15:03Z</time>
      </trkpt>
      <trkpt lat="47.69539" lon="6.16227">
        <ele>258</ele>
        <time>2020-06-01T09:15:05Z</time>
      </trkpt>
      <trkpt lat="47.69534" lon="6.16232">
        <ele>258</ele>
        <time>2020-06-01T09:15:07Z</time>
      </trkpt>
      <trkpt lat="47.69529" lon="6.16239">
        <ele>257</ele>
        <time>2020-06-01T09:15:08Z</time>
      </trkpt>
      <trkpt lat="47.69523" lon="6.16246">
        <ele>257</ele>
        <time>2020-06-01T09:15:10Z</time>
      </trkpt>
      <trkpt lat="47.69518" lon="6.16251">
        <ele>257</ele>
        <time>2020-06-01T09:15:12Z</time>
      </trkpt>
      <trkpt lat="47.69504" lon="6.16268">
        <ele>257</ele>
        <time>2020-06-01T09:15:13Z</time>
      </trkpt>
      <trkpt lat="47.69499" lon="6.16273">
        <ele>256</ele>
        <time>2020-06-01T09:15:17Z</time>
      </trkpt>
      <trkpt lat="47.69494" lon="6.16278">
        <ele>255</ele>
        <time>2020-06-01T09:15:19Z</time>
      </trkpt>
      <trkpt lat="47.69489" lon="6.16284">
        <ele>255</ele>
        <time>2020-06-01T09:15:20Z</time>
      </trkpt>
      <trkpt lat="47.69477" lon="6.16298">
        <ele>255</ele>
        <time>2020-06-01T09:15:24Z</time>
      </trkpt>
      <trkpt lat="47.69465" lon="6.1631">
        <ele>255</ele>
        <time>2020-06-01T09:15:28Z</time>
      </trkpt>
      <trkpt lat="47.69461" lon="6.16313">
        <ele>255</ele>
        <time>2020-06-01T09:15:29Z</time>
      </trkpt>
      <trkpt lat="47.69454" lon="6.16317">
        <ele>255</ele>
        <time>2020-06-01T09:15:31Z</time>
      </trkpt>
      <trkpt lat="47.69448" lon="6.16318">
        <ele>255</ele>
        <time>2020-06-01T09:15:33Z</time>
      </trkpt>
      <trkpt lat="47.69441" lon="6.16316">
        <ele>255</ele>
        <time>2020-06-01T09:15:34Z</time>
      </trkpt>
      <trkpt lat="47.69437" lon="6.16315">
        <ele>255</ele>
        <time>2020-06-01T09:15:36Z</time>
      </trkpt>
      <trkpt lat="47.69431" lon="6.16314">
        <ele>255</ele>
        <time>2020-06-01T09:15:38Z</time>
      </trkpt>
      <trkpt lat="47.69426" lon="6.16312">
        <ele>255</ele>
        <time>2020-06-01T09:15:40Z</time>
      </trkpt>
      <trkpt lat="47.69421" lon="6.1631">
        <ele>255</ele>
        <time>2020-06-01T09:15:42Z</time>
      </trkpt>
      <trkpt lat="47.69411" lon="6.16304">
        <ele>253</ele>
        <time>2020-06-01T09:15:46Z</time>
      </trkpt>
      <trkpt lat="47.69406" lon="6.16301">
        <ele>253</ele>
        <time>2020-06-01T09:15:48Z</time>
      </trkpt>
      <trkpt lat="47.694" lon="6.163">
        <ele>252</ele>
        <time>2020-06-01T09:15:50Z</time>
      </trkpt>
      <trkpt lat="47.69393" lon="6.163">
        <ele>252</ele>
        <time>2020-06-01T09:15:52Z</time>
      </trkpt>
      <trkpt lat="47.69385" lon="6.16301">
        <ele>252</ele>
        <time>2020-06-01T09:15:53Z</time>
      </trkpt>
      <trkpt lat="47.69378" lon="6.16305">
        <ele>251</ele>
        <time>2020-06-01T09:15:54Z</time>
      </trkpt>
      <trkpt lat="47.69347" lon="6.16326">
        <ele>249</ele>
        <time>2020-06-01T09:15:55Z</time>
      </trkpt>
      <trkpt lat="47.69339" lon="6.16333">
        <ele>249</ele>
        <time>2020-06-01T09:15:56Z</time>
      </trkpt>
      <trkpt lat="47.69332" lon="6.16339">
        <ele>248</ele>
        <time>2020-06-01T09:15:57Z</time>
      </trkpt>
      <trkpt lat="47.69324" lon="6.16345">
        <ele>248</ele>
        <time>2020-06-01T09:15:58Z</time>
      </trkpt>
      <trkpt lat="47.69317" lon="6.16351">
        <ele>248</ele>
        <time>2020-06-01T09:15:59Z</time>
      </trkpt>
      <trkpt lat="47.6931" lon="6.16357">
        <ele>248</ele>
        <time>2020-06-01T09:16:00Z</time>
      </trkpt>
      <trkpt lat="47.69304" lon="6.16362">
        <ele>248</ele>
        <time>2020-06-01T09:16:01Z</time>
      </trkpt>
      <trkpt lat="47.69297" lon="6.16366">
        <ele>248</ele>
        <time>2020-06-01T09:16:02Z</time>
      </trkpt>
      <trkpt lat="47.69291" lon="6.16371">
        <ele>248</ele>
        <time>2020-06-01T09:16:03Z</time>
      </trkpt>
      <trkpt lat="47.69285" lon="6.16375">
        <ele>248</ele>
        <time>2020-06-01T09:16:04Z</time>
      </trkpt>
      <trkpt lat="47.69279" lon="6.16379">
        <ele>248</ele>
        <time>2020-06-01T09:16:05Z</time>
      </trkpt>
      <trkpt lat="47.69274" lon="6.16383">
        <ele>248</ele>
        <time>2020-06-01T09:16:06Z</time>
      </trkpt>
      <trkpt lat="47.69269" lon="6.16387">
        <ele>248</ele>
        <time>2020-06-01T09:16:07Z</time>
      </trkpt>
      <trkpt lat="47.69263" lon="6.16391">
        <ele>248</ele>
        <time>2020-06-01T09:16:08Z</time>
      </trkpt>
      <trkpt lat="47.69258" lon="6.16394">
        <ele>248</ele>
        <time>2020-06-01T09:16:09Z</time>
      </trkpt>
      <trkpt lat="47.69253" lon="6.16397">
        <ele>248</ele>
        <time>2020-06-01T09:16:10Z</time>
      </trkpt>
      <trkpt lat="47.69248" lon="6.16399">
        <ele>248</ele>
        <time>2020-06-01T09:16:11Z</time>
      </trkpt>
      <trkpt lat="47.69243" lon="6.16401">
        <ele>248</ele>
        <time>2020-06-01T09:16:12Z</time>
      </trkpt>
      <trkpt lat="47.69238" lon="6.16403">
        <ele>248</ele>
        <time>2020-06-01T09:16:13Z</time>
      </trkpt>
      <trkpt lat="47.6923" lon="6.16406">
        <ele>248</ele>
        <time>2020-06-01T09:16:15Z</time>
      </trkpt>
      <trkpt lat="47.69223" lon="6.16408">
        <ele>248</ele>
        <time>2020-06-01T09:16:17Z</time>
      </trkpt>
      <trkpt lat="47.69215" lon="6.1641">
        <ele>248</ele>
        <time>2020-06-01T09:16:19Z</time>
      </trkpt>
      <trkpt lat="47.69208" lon="6.16412">
        <ele>248</ele>
        <time>2020-06-01T09:16:21Z</time>
      </trkpt>
      <trkpt lat="47.69203" lon="6.16413">
        <ele>248</ele>
        <time>2020-06-01T09:16:22Z</time>
      </trkpt>
      <trkpt lat="47.69199" lon="6.16415">
        <ele>248</ele>
        <time>2020-06-01T09:16:23Z</time>
      </trkpt>
      <trkpt lat="47.69193" lon="6.16419">
        <ele>252</ele>
        <time>2020-06-01T09:16:25Z</time>
      </trkpt>
      <trkpt lat="47.69186" lon="6.1642">
        <ele>251</ele>
        <time>2020-06-01T09:16:26Z</time>
      </trkpt>
      <trkpt lat="47.6918" lon="6.16421">
        <ele>251</ele>
        <time>2020-06-01T09:16:27Z</time>
      </trkpt>
      <trkpt lat="47.69175" lon="6.16422">
        <ele>251</ele>
        <time>2020-06-01T09:16:28Z</time>
      </trkpt>
      <trkpt lat="47.6917" lon="6.16423">
        <ele>250</ele>
        <time>2020-06-01T09:16:29Z</time>
      </trkpt>
      <trkpt lat="47.69163" lon="6.16424">
        <ele>251</ele>
        <time>2020-06-01T09:16:31Z</time>
      </trkpt>
      <trkpt lat="47.69157" lon="6.16424">
        <ele>251</ele>
        <time>2020-06-01T09:16:35Z</time>
      </trkpt>
      <trkpt lat="47.69152" lon="6.16424">
        <ele>252</ele>
        <time>2020-06-01T09:16:36Z</time>
      </trkpt>
      <trkpt lat="47.69146" lon="6.16422">
        <ele>252</ele>
        <time>2020-06-01T09:16:38Z</time>
      </trkpt>
      <trkpt lat="47.69139" lon="6.16421">
        <ele>253</ele>
        <time>2020-06-01T09:16:39Z</time>
      </trkpt>
      <trkpt lat="47.69132" lon="6.1642">
        <ele>253</ele>
        <time>2020-06-01T09:16:41Z</time>
      </trkpt>
      <trkpt lat="47.69124" lon="6.16418">
        <ele>253</ele>
        <time>2020-06-01T09:16:42Z</time>
      </trkpt>
      <trkpt lat="47.69113" lon="6.16417">
        <ele>254</ele>
        <time>2020-06-01T09:16:43Z</time>
      </trkpt>
      <trkpt lat="47.69107" lon="6.16416">
        <ele>251</ele>
        <time>2020-06-01T09:16:48Z</time>
      </trkpt>
      <trkpt lat="47.69096" lon="6.16415">
        <ele>252</ele>
        <time>2020-06-01T09:16:52Z</time>
      </trkpt>
      <trkpt lat="47.69085" lon="6.16414">
        <ele>253</ele>
        <time>2020-06-01T09:16:53Z</time>
      </trkpt>
      <trkpt lat="47.6908" lon="6.16413">
        <ele>253</ele>
        <time>2020-06-01T09:16:58Z</time>
      </trkpt>
      <trkpt lat="47.69074" lon="6.16411">
        <ele>253</ele>
        <time>2020-06-01T09:17:01Z</time>
      </trkpt>
      <trkpt lat="47.69068" lon="6.16409">
        <ele>252</ele>
        <time>2020-06-01T09:17:03Z</time>
      </trkpt>
      <trkpt lat="47.69058" lon="6.16407">
        <ele>252</ele>
        <time>2020-06-01T09:17:07Z</time>
      </trkpt>
      <trkpt lat="47.69048" lon="6.16405">
        <ele>251</ele>
        <time>2020-06-01T09:17:12Z</time>
      </trkpt>
      <trkpt lat="47.69042" lon="6.16407">
        <ele>251</ele>
        <time>2020-06-01T09:17:15Z</time>
      </trkpt>
      <trkpt lat="47.69037" lon="6.16404">
        <ele>251</ele>
        <time>2020-06-01T09:17:16Z</time>
      </trkpt>
      <trkpt lat="47.69032" lon="6.16405">
        <ele>252</ele>
        <time>2020-06-01T09:17:22Z</time>
      </trkpt>
      <trkpt lat="47.69026" lon="6.16404">
        <ele>252</ele>
        <time>2020-06-01T09:17:27Z</time>
      </trkpt>
      <trkpt lat="47.69021" lon="6.16404">
        <ele>252</ele>
        <time>2020-06-01T09:17:29Z</time>
      </trkpt>
      <trkpt lat="47.69009" lon="6.16402">
        <ele>252</ele>
        <time>2020-06-01T09:17:32Z</time>
      </trkpt>
      <trkpt lat="47.69001" lon="6.16401">
        <ele>252</ele>
        <time>2020-06-01T09:17:36Z</time>
      </trkpt>
      <trkpt lat="47.68989" lon="6.164">
        <ele>251</ele>
        <time>2020-06-01T09:17:39Z</time>
      </trkpt>
      <trkpt lat="47.68984" lon="6.164">
        <ele>251</ele>
        <time>2020-06-01T09:17:41Z</time>
      </trkpt>
      <trkpt lat="47.68977" lon="6.164">
        <ele>251</ele>
        <time>2020-06-01T09:17:43Z</time>
      </trkpt>
      <trkpt lat="47.68972" lon="6.164">
        <ele>250</ele>
        <time>2020-06-01T09:17:44Z</time>
      </trkpt>
      <trkpt lat="47.68963" lon="6.164">
        <ele>250</ele>
        <time>2020-06-01T09:17:46Z</time>
      </trkpt>
      <trkpt lat="47.68959" lon="6.164">
        <ele>250</ele>
        <time>2020-06-01T09:17:46Z</time>
      </trkpt>
      <trkpt lat="47.68954" lon="6.164">
        <ele>250</ele>
        <time>2020-06-01T09:17:47Z</time>
      </trkpt>
      <trkpt lat="47.68947" lon="6.16401">
        <ele>250</ele>
        <time>2020-06-01T09:17:48Z</time>
      </trkpt>
      <trkpt lat="47.68941" lon="6.16402">
        <ele>250</ele>
        <time>2020-06-01T09:17:50Z</time>
      </trkpt>
      <trkpt lat="47.68933" lon="6.16404">
        <ele>250</ele>
        <time>2020-06-01T09:17:51Z</time>
      </trkpt>
      <trkpt lat="47.68901" lon="6.16417">
        <ele>247</ele>
        <time>2020-06-01T09:17:52Z</time>
      </trkpt>
      <trkpt lat="47.68894" lon="6.16421">
        <ele>249</ele>
        <time>2020-06-01T09:17:53Z</time>
      </trkpt>
      <trkpt lat="47.68887" lon="6.16425">
        <ele>248</ele>
        <time>2020-06-01T09:17:54Z</time>
      </trkpt>
      <trkpt lat="47.68881" lon="6.16429">
        <ele>248</ele>
        <time>2020-06-01T09:17:55Z</time>
      </trkpt>
      <trkpt lat="47.68875" lon="6.16433">
        <ele>248</ele>
        <time>2020-06-01T09:17:56Z</time>
      </trkpt>
      <trkpt lat="47.68868" lon="6.16435">
        <ele>247</ele>
        <time>2020-06-01T09:17:57Z</time>
      </trkpt>
      <trkpt lat="47.68863" lon="6.16438">
        <ele>247</ele>
        <time>2020-06-01T09:17:58Z</time>
      </trkpt>
      <trkpt lat="47.68857" lon="6.16442">
        <ele>247</ele>
        <time>2020-06-01T09:17:59Z</time>
      </trkpt>
      <trkpt lat="47.68851" lon="6.16446">
        <ele>247</ele>
        <time>2020-06-01T09:18:00Z</time>
      </trkpt>
      <trkpt lat="47.68845" lon="6.16451">
        <ele>247</ele>
        <time>2020-06-01T09:18:01Z</time>
      </trkpt>
      <trkpt lat="47.68838" lon="6.16455">
        <ele>247</ele>
        <time>2020-06-01T09:18:02Z</time>
      </trkpt>
      <trkpt lat="47.68832" lon="6.16459">
        <ele>245</ele>
        <time>2020-06-01T09:18:03Z</time>
      </trkpt>
      <trkpt lat="47.68826" lon="6.16463">
        <ele>245</ele>
        <time>2020-06-01T09:18:04Z</time>
      </trkpt>
      <trkpt lat="47.6882" lon="6.16467">
        <ele>245</ele>
        <time>2020-06-01T09:18:05Z</time>
      </trkpt>
      <trkpt lat="47.68813" lon="6.1647">
        <ele>245</ele>
        <time>2020-06-01T09:18:06Z</time>
      </trkpt>
      <trkpt lat="47.68807" lon="6.16472">
        <ele>245</ele>
        <time>2020-06-01T09:18:07Z</time>
      </trkpt>
      <trkpt lat="47.68802" lon="6.16474">
        <ele>245</ele>
        <time>2020-06-01T09:18:08Z</time>
      </trkpt>
      <trkpt lat="47.68796" lon="6.16475">
        <ele>245</ele>
        <time>2020-06-01T09:18:09Z</time>
      </trkpt>
      <trkpt lat="47.6879" lon="6.16475">
        <ele>245</ele>
        <time>2020-06-01T09:18:10Z</time>
      </trkpt>
      <trkpt lat="47.68784" lon="6.16474">
        <ele>245</ele>
        <time>2020-06-01T09:18:11Z</time>
      </trkpt>
      <trkpt lat="47.68779" lon="6.16473">
        <ele>245</ele>
        <time>2020-06-01T09:18:12Z</time>
      </trkpt>
      <trkpt lat="47.68774" lon="6.1647">
        <ele>245</ele>
        <time>2020-06-01T09:18:13Z</time>
      </trkpt>
      <trkpt lat="47.68769" lon="6.16468">
        <ele>245</ele>
        <time>2020-06-01T09:18:14Z</time>
      </trkpt>
      <trkpt lat="47.68764" lon="6.16465">
        <ele>245</ele>
        <time>2020-06-01T09:18:15Z</time>
      </trkpt>
      <trkpt lat="47.68759" lon="6.16463">
        <ele>245</ele>
        <time>2020-06-01T09:18:16Z</time>
      </trkpt>
      <trkpt lat="47.68755" lon="6.16461">
        <ele>245</ele>
        <time>2020-06-01T09:18:17Z</time>
      </trkpt>
      <trkpt lat="47.6875" lon="6.16459">
        <ele>245</ele>
        <time>2020-06-01T09:18:18Z</time>
      </trkpt>
      <trkpt lat="47.68745" lon="6.16457">
        <ele>244</ele>
        <time>2020-06-01T09:18:19Z</time>
      </trkpt>
      <trkpt lat="47.68741" lon="6.16455">
        <ele>244</ele>
        <time>2020-06-01T09:18:20Z</time>
      </trkpt>
      <trkpt lat="47.68736" lon="6.16452">
        <ele>244</ele>
        <time>2020-06-01T09:18:21Z</time>
      </trkpt>
      <trkpt lat="47.68732" lon="6.1645">
        <ele>244</ele>
        <time>2020-06-01T09:18:22Z</time>
      </trkpt>
      <trkpt lat="47.68727" lon="6.16448">
        <ele>244</ele>
        <time>2020-06-01T09:18:23Z</time>
      </trkpt>
      <trkpt lat="47.68723" lon="6.16445">
        <ele>244</ele>
        <time>2020-06-01T09:18:24Z</time>
      </trkpt>
      <trkpt lat="47.68718" lon="6.16443">
        <ele>244</ele>
        <time>2020-06-01T09:18:25Z</time>
      </trkpt>
      <trkpt lat="47.68713" lon="6.16441">
        <ele>244</ele>
        <time>2020-06-01T09:18:26Z</time>
      </trkpt>
      <trkpt lat="47.68708" lon="6.16439">
        <ele>244</ele>
        <time>2020-06-01T09:18:27Z</time>
      </trkpt>
      <trkpt lat="47.68704" lon="6.16437">
        <ele>244</ele>
        <time>2020-06-01T09:18:28Z</time>
      </trkpt>
      <trkpt lat="47.68699" lon="6.16436">
        <ele>244</ele>
        <time>2020-06-01T09:18:29Z</time>
      </trkpt>
      <trkpt lat="47.68693" lon="6.16436">
        <ele>244</ele>
        <time>2020-06-01T09:18:30Z</time>
      </trkpt>
      <trkpt lat="47.68688" lon="6.16436">
        <ele>244</ele>
        <time>2020-06-01T09:18:31Z</time>
      </trkpt>
      <trkpt lat="47.68683" lon="6.16438">
        <ele>244</ele>
        <time>2020-06-01T09:18:32Z</time>
      </trkpt>
      <trkpt lat="47.68678" lon="6.1644">
        <ele>244</ele>
        <time>2020-06-01T09:18:33Z</time>
      </trkpt>
      <trkpt lat="47.68673" lon="6.16443">
        <ele>244</ele>
        <time>2020-06-01T09:18:34Z</time>
      </trkpt>
      <trkpt lat="47.68668" lon="6.16448">
        <ele>244</ele>
        <time>2020-06-01T09:18:35Z</time>
      </trkpt>
      <trkpt lat="47.68663" lon="6.16453">
        <ele>242</ele>
        <time>2020-06-01T09:18:36Z</time>
      </trkpt>
      <trkpt lat="47.68658" lon="6.16458">
        <ele>242</ele>
        <time>2020-06-01T09:18:37Z</time>
      </trkpt>
      <trkpt lat="47.68653" lon="6.16463">
        <ele>242</ele>
        <time>2020-06-01T09:18:38Z</time>
      </trkpt>
      <trkpt lat="47.68648" lon="6.16468">
        <ele>242</ele>
        <time>2020-06-01T09:18:39Z</time>
      </trkpt>
      <trkpt lat="47.68643" lon="6.16473">
        <ele>242</ele>
        <time>2020-06-01T09:18:40Z</time>
      </trkpt>
      <trkpt lat="47.68637" lon="6.16479">
        <ele>242</ele>
        <time>2020-06-01T09:18:41Z</time>
      </trkpt>
      <trkpt lat="47.68631" lon="6.16484">
        <ele>242</ele>
        <time>2020-06-01T09:18:42Z</time>
      </trkpt>
      <trkpt lat="47.68626" lon="6.16489">
        <ele>242</ele>
        <time>2020-06-01T09:18:43Z</time>
      </trkpt>
      <trkpt lat="47.68619" lon="6.16492">
        <ele>242</ele>
        <time>2020-06-01T09:18:44Z</time>
      </trkpt>
      <trkpt lat="47.68613" lon="6.16495">
        <ele>241</ele>
        <time>2020-06-01T09:18:45Z</time>
      </trkpt>
      <trkpt lat="47.68606" lon="6.16497">
        <ele>241</ele>
        <time>2020-06-01T09:18:46Z</time>
      </trkpt>
      <trkpt lat="47.68599" lon="6.165">
        <ele>241</ele>
        <time>2020-06-01T09:18:47Z</time>
      </trkpt>
      <trkpt lat="47.68593" lon="6.16502">
        <ele>240</ele>
        <time>2020-06-01T09:18:48Z</time>
      </trkpt>
      <trkpt lat="47.68586" lon="6.16503">
        <ele>240</ele>
        <time>2020-06-01T09:18:49Z</time>
      </trkpt>
      <trkpt lat="47.68579" lon="6.16504">
        <ele>240</ele>
        <time>2020-06-01T09:18:50Z</time>
      </trkpt>
      <trkpt lat="47.68572" lon="6.16505">
        <ele>240</ele>
        <time>2020-06-01T09:18:51Z</time>
      </trkpt>
      <trkpt lat="47.68565" lon="6.16505">
        <ele>239</ele>
        <time>2020-06-01T09:18:52Z</time>
      </trkpt>
      <trkpt lat="47.68558" lon="6.16505">
        <ele>239</ele>
        <time>2020-06-01T09:18:53Z</time>
      </trkpt>
      <trkpt lat="47.68551" lon="6.16504">
        <ele>239</ele>
        <time>2020-06-01T09:18:54Z</time>
      </trkpt>
      <trkpt lat="47.68544" lon="6.16503">
        <ele>239</ele>
        <time>2020-06-01T09:18:55Z</time>
      </trkpt>
      <trkpt lat="47.68537" lon="6.16502">
        <ele>239</ele>
        <time>2020-06-01T09:18:56Z</time>
      </trkpt>
      <trkpt lat="47.68529" lon="6.16502">
        <ele>239</ele>
        <time>2020-06-01T09:18:57Z</time>
      </trkpt>
      <trkpt lat="47.68522" lon="6.165">
        <ele>239</ele>
        <time>2020-06-01T09:18:58Z</time>
      </trkpt>
      <trkpt lat="47.68515" lon="6.16498">
        <ele>239</ele>
        <time>2020-06-01T09:18:59Z</time>
      </trkpt>
      <trkpt lat="47.68509" lon="6.16496">
        <ele>239</ele>
        <time>2020-06-01T09:19:00Z</time>
      </trkpt>
      <trkpt lat="47.68502" lon="6.16494">
        <ele>239</ele>
        <time>2020-06-01T09:19:01Z</time>
      </trkpt>
      <trkpt lat="47.68496" lon="6.16489">
        <ele>239</ele>
        <time>2020-06-01T09:19:02Z</time>
      </trkpt>
      <trkpt lat="47.68489" lon="6.16484">
        <ele>239</ele>
        <time>2020-06-01T09:19:03Z</time>
      </trkpt>
      <trkpt lat="47.68483" lon="6.16478">
        <ele>239</ele>
        <time>2020-06-01T09:19:04Z</time>
      </trkpt>
      <trkpt lat="47.68478" lon="6.16471">
        <ele>238</ele>
        <time>2020-06-01T09:19:05Z</time>
      </trkpt>
      <trkpt lat="47.68473" lon="6.16464">
        <ele>238</ele>
        <time>2020-06-01T09:19:06Z</time>
      </trkpt>
      <trkpt lat="47.68469" lon="6.16457">
        <ele>238</ele>
        <time>2020-06-01T09:19:07Z</time>
      </trkpt>
      <trkpt lat="47.68466" lon="6.1645">
        <ele>238</ele>
        <time>2020-06-01T09:19:08Z</time>
      </trkpt>
      <trkpt lat="47.68463" lon="6.16445">
        <ele>238</ele>
        <time>2020-06-01T09:19:09Z</time>
      </trkpt>
      <trkpt lat="47.6846" lon="6.16439">
        <ele>238</ele>
        <time>2020-06-01T09:19:10Z</time>
      </trkpt>
      <trkpt lat="47.68457" lon="6.16434">
        <ele>238</ele>
        <time>2020-06-01T09:19:11Z</time>
      </trkpt>
      <trkpt lat="47.68453" lon="6.16429">
        <ele>238</ele>
        <time>2020-06-01T09:19:12Z</time>
      </trkpt>
      <trkpt lat="47.68449" lon="6.16424">
        <ele>238</ele>
        <time>2020-06-01T09:19:13Z</time>
      </trkpt>
      <trkpt lat="47.68446" lon="6.1642">
        <ele>238</ele>
        <time>2020-06-01T09:19:14Z</time>
      </trkpt>
      <trkpt lat="47.68441" lon="6.16414">
        <ele>238</ele>
        <time>2020-06-01T09:19:16Z</time>
      </trkpt>
      <trkpt lat="47.68435" lon="6.16407">
        <ele>238</ele>
        <time>2020-06-01T09:19:18Z</time>
      </trkpt>
      <trkpt lat="47.68429" lon="6.164">
        <ele>237</ele>
        <time>2020-06-01T09:19:20Z</time>
      </trkpt>
      <trkpt lat="47.68424" lon="6.16401">
        <ele>237</ele>
        <time>2020-06-01T09:19:22Z</time>
      </trkpt>
      <trkpt lat="47.68419" lon="6.16395">
        <ele>237</ele>
        <time>2020-06-01T09:19:26Z</time>
      </trkpt>
      <trkpt lat="47.68414" lon="6.16389">
        <ele>236</ele>
        <time>2020-06-01T09:19:27Z</time>
      </trkpt>
      <trkpt lat="47.6841" lon="6.16384">
        <ele>236</ele>
        <time>2020-06-01T09:19:29Z</time>
      </trkpt>
      <trkpt lat="47.68399" lon="6.16374">
        <ele>236</ele>
        <time>2020-06-01T09:19:31Z</time>
      </trkpt>
      <trkpt lat="47.68383" lon="6.1636">
        <ele>236</ele>
        <time>2020-06-01T09:19:32Z</time>
      </trkpt>
      <trkpt lat="47.68379" lon="6.16357">
        <ele>236</ele>
        <time>2020-06-01T09:19:33Z</time>
      </trkpt>
      <trkpt lat="47.68374" lon="6.16355">
        <ele>236</ele>
        <time>2020-06-01T09:19:34Z</time>
      </trkpt>
      <trkpt lat="47.6837" lon="6.16352">
        <ele>236</ele>
        <time>2020-06-01T09:19:35Z</time>
      </trkpt>
      <trkpt lat="47.68366" lon="6.1635">
        <ele>236</ele>
        <time>2020-06-01T09:19:36Z</time>
      </trkpt>
      <trkpt lat="47.68361" lon="6.1635">
        <ele>236</ele>
        <time>2020-06-01T09:19:37Z</time>
      </trkpt>
      <trkpt lat="47.68356" lon="6.1635">
        <ele>235</ele>
        <time>2020-06-01T09:19:38Z</time>
      </trkpt>
      <trkpt lat="47.68351" lon="6.1635">
        <ele>235</ele>
        <time>2020-06-01T09:19:39Z</time>
      </trkpt>
      <trkpt lat="47.68342" lon="6.16345">
        <ele>235</ele>
        <time>2020-06-01T09:19:41Z</time>
      </trkpt>
      <trkpt lat="47.68338" lon="6.16341">
        <ele>235</ele>
        <time>2020-06-01T09:19:42Z</time>
      </trkpt>
      <trkpt lat="47.68334" lon="6.16336">
        <ele>235</ele>
        <time>2020-06-01T09:19:43Z</time>
      </trkpt>
      <trkpt lat="47.68329" lon="6.16332">
        <ele>234</ele>
        <time>2020-06-01T09:19:44Z</time>
      </trkpt>
      <trkpt lat="47.68323" lon="6.16325">
        <ele>234</ele>
        <time>2020-06-01T09:19:46Z</time>
      </trkpt>
      <trkpt lat="47.68318" lon="6.16318">
        <ele>233</ele>
        <time>2020-06-01T09:19:48Z</time>
      </trkpt>
      <trkpt lat="47.68318" lon="6.1631">
        <ele>233</ele>
        <time>2020-06-01T09:19:50Z</time>
      </trkpt>
      <trkpt lat="47.68321" lon="6.16301">
        <ele>232</ele>
        <time>2020-06-01T09:19:53Z</time>
      </trkpt>
      <trkpt lat="47.68325" lon="6.16294">
        <ele>232</ele>
        <time>2020-06-01T09:19:55Z</time>
      </trkpt>
      <trkpt lat="47.6833" lon="6.16289">
        <ele>232</ele>
        <time>2020-06-01T09:20:01Z</time>
      </trkpt>
      <trkpt lat="47.68338" lon="6.16269">
        <ele>233</ele>
        <time>2020-06-01T09:20:02Z</time>
      </trkpt>
      <trkpt lat="47.68341" lon="6.16259">
        <ele>232</ele>
        <time>2020-06-01T09:20:04Z</time>
      </trkpt>
      <trkpt lat="47.68345" lon="6.16251">
        <ele>232</ele>
        <time>2020-06-01T09:20:06Z</time>
      </trkpt>
      <trkpt lat="47.68348" lon="6.16245">
        <ele>231</ele>
        <time>2020-06-01T09:20:10Z</time>
      </trkpt>
      <trkpt lat="47.68352" lon="6.1624">
        <ele>231</ele>
        <time>2020-06-01T09:20:12Z</time>
      </trkpt>
      <trkpt lat="47.68357" lon="6.16233">
        <ele>232</ele>
        <time>2020-06-01T09:20:14Z</time>
      </trkpt>
      <trkpt lat="47.68369" lon="6.16215">
        <ele>232</ele>
        <time>2020-06-01T09:20:18Z</time>
      </trkpt>
      <trkpt lat="47.68386" lon="6.16189">
        <ele>232</ele>
        <time>2020-06-01T09:20:20Z</time>
      </trkpt>
      <trkpt lat="47.68391" lon="6.16181">
        <ele>232</ele>
        <time>2020-06-01T09:20:24Z</time>
      </trkpt>
      <trkpt lat="47.68399" lon="6.16166">
        <ele>231</ele>
        <time>2020-06-01T09:20:27Z</time>
      </trkpt>
      <trkpt lat="47.68402" lon="6.1616">
        <ele>231</ele>
        <time>2020-06-01T09:20:28Z</time>
      </trkpt>
      <trkpt lat="47.68406" lon="6.16151">
        <ele>231</ele>
        <time>2020-06-01T09:20:30Z</time>
      </trkpt>
      <trkpt lat="47.68413" lon="6.16136">
        <ele>231</ele>
        <time>2020-06-01T09:20:34Z</time>
      </trkpt>
      <trkpt lat="47.68421" lon="6.16122">
        <ele>231</ele>
        <time>2020-06-01T09:20:38Z</time>
      </trkpt>
      <trkpt lat="47.68429" lon="6.1611">
        <ele>231</ele>
        <time>2020-06-01T09:20:42Z</time>
      </trkpt>
      <trkpt lat="47.68438" lon="6.16101">
        <ele>231</ele>
        <time>2020-06-01T09:20:45Z</time>
      </trkpt>
      <trkpt lat="47.68449" lon="6.16089">
        <ele>231</ele>
        <time>2020-06-01T09:20:48Z</time>
      </trkpt>
      <trkpt lat="47.68456" lon="6.16083">
        <ele>231</ele>
        <time>2020-06-01T09:20:50Z</time>
      </trkpt>
      <trkpt lat="47.68464" lon="6.16075">
        <ele>231</ele>
        <time>2020-06-01T09:20:52Z</time>
      </trkpt>
      <trkpt lat="47.68474" lon="6.16063">
        <ele>231</ele>
        <time>2020-06-01T09:20:55Z</time>
      </trkpt>
      <trkpt lat="47.68478" lon="6.16059">
        <ele>231</ele>
        <time>2020-06-01T09:20:56Z</time>
      </trkpt>
      <trkpt lat="47.68496" lon="6.16042">
        <ele>232</ele>
        <time>2020-06-01T09:21:01Z</time>
      </trkpt>
      <trkpt lat="47.68509" lon="6.16028">
        <ele>232</ele>
        <time>2020-06-01T09:21:04Z</time>
      </trkpt>
      <trkpt lat="47.68519" lon="6.16018">
        <ele>232</ele>
        <time>2020-06-01T09:21:05Z</time>
      </trkpt>
      <trkpt lat="47.68523" lon="6.16012">
        <ele>232</ele>
        <time>2020-06-01T09:21:07Z</time>
      </trkpt>
      <trkpt lat="47.68529" lon="6.16005">
        <ele>232</ele>
        <time>2020-06-01T09:21:09Z</time>
      </trkpt>
      <trkpt lat="47.68533" lon="6.16001">
        <ele>232</ele>
        <time>2020-06-01T09:21:13Z</time>
      </trkpt>
      <trkpt lat="47.68545" lon="6.15989">
        <ele>233</ele>
        <time>2020-06-01T09:21:16Z</time>
      </trkpt>
      <trkpt lat="47.68549" lon="6.15985">
        <ele>233</ele>
        <time>2020-06-01T09:21:18Z</time>
      </trkpt>
      <trkpt lat="47.68554" lon="6.15981">
        <ele>233</ele>
        <time>2020-06-01T09:21:20Z</time>
      </trkpt>
      <trkpt lat="47.68559" lon="6.15976">
        <ele>233</ele>
        <time>2020-06-01T09:21:26Z</time>
      </trkpt>
      <trkpt lat="47.68568" lon="6.1597">
        <ele>233</ele>
        <time>2020-06-01T09:21:27Z</time>
      </trkpt>
      <trkpt lat="47.68573" lon="6.15969">
        <ele>233</ele>
        <time>2020-06-01T09:21:29Z</time>
      </trkpt>
      <trkpt lat="47.68577" lon="6.15968">
        <ele>233</ele>
        <time>2020-06-01T09:21:31Z</time>
      </trkpt>
      <trkpt lat="47.68582" lon="6.15966">
        <ele>233</ele>
        <time>2020-06-01T09:21:33Z</time>
      </trkpt>
      <trkpt lat="47.68587" lon="6.15965">
        <ele>235</ele>
        <time>2020-06-01T09:21:39Z</time>
      </trkpt>
      <trkpt lat="47.68598" lon="6.15962">
        <ele>235</ele>
        <time>2020-06-01T09:21:41Z</time>
      </trkpt>
      <trkpt lat="47.68603" lon="6.15961">
        <ele>235</ele>
        <time>2020-06-01T09:21:45Z</time>
      </trkpt>
      <trkpt lat="47.68608" lon="6.15959">
        <ele>235</ele>
        <time>2020-06-01T09:21:52Z</time>
      </trkpt>
      <trkpt lat="47.68614" lon="6.15957">
        <ele>235</ele>
        <time>2020-06-01T09:21:55Z</time>
      </trkpt>
      <trkpt lat="47.6862" lon="6.15954">
        <ele>235</ele>
        <time>2020-06-01T09:21:59Z</time>
      </trkpt>
      <trkpt lat="47.68628" lon="6.15953">
        <ele>235</ele>
        <time>2020-06-01T09:22:00Z</time>
      </trkpt>
      <trkpt lat="47.68636" lon="6.15952">
        <ele>236</ele>
        <time>2020-06-01T09:22:02Z</time>
      </trkpt>
      <trkpt lat="47.6864" lon="6.15951">
        <ele>236</ele>
        <time>2020-06-01T09:22:04Z</time>
      </trkpt>
      <trkpt lat="47.68645" lon="6.15949">
        <ele>236</ele>
        <time>2020-06-01T09:22:06Z</time>
      </trkpt>
      <trkpt lat="47.68647" lon="6.15943">
        <ele>236</ele>
        <time>2020-06-01T09:22:14Z</time>
      </trkpt>
      <trkpt lat="47.68652" lon="6.15941">
        <ele>237</ele>
        <time>2020-06-01T09:22:21Z</time>
      </trkpt>
      <trkpt lat="47.68665" lon="6.15935">
        <ele>237</ele>
        <time>2020-06-01T09:22:29Z</time>
      </trkpt>
      <trkpt lat="47.6867" lon="6.15934">
        <ele>238</ele>
        <time>2020-06-01T09:22:32Z</time>
      </trkpt>
      <trkpt lat="47.68676" lon="6.15932">
        <ele>238</ele>
        <time>2020-06-01T09:22:35Z</time>
      </trkpt>
      <trkpt lat="47.68691" lon="6.15921">
        <ele>238</ele>
        <time>2020-06-01T09:22:42Z</time>
      </trkpt>
      <trkpt lat="47.68698" lon="6.15916">
        <ele>242</ele>
        <time>2020-06-01T09:22:48Z</time>
      </trkpt>
      <trkpt lat="47.68707" lon="6.15908">
        <ele>242</ele>
        <time>2020-06-01T09:22:51Z</time>
      </trkpt>
      <trkpt lat="47.68721" lon="6.15899">
        <ele>243</ele>
        <time>2020-06-01T09:22:54Z</time>
      </trkpt>
      <trkpt lat="47.68728" lon="6.15894">
        <ele>243</ele>
        <time>2020-06-01T09:22:55Z</time>
      </trkpt>
      <trkpt lat="47.68734" lon="6.15889">
        <ele>243</ele>
        <time>2020-06-01T09:22:58Z</time>
      </trkpt>
      <trkpt lat="47.68739" lon="6.15885">
        <ele>243</ele>
        <time>2020-06-01T09:23:00Z</time>
      </trkpt>
      <trkpt lat="47.68745" lon="6.15883">
        <ele>243</ele>
        <time>2020-06-01T09:23:06Z</time>
      </trkpt>
      <trkpt lat="47.68749" lon="6.15878">
        <ele>244</ele>
        <time>2020-06-01T09:23:10Z</time>
      </trkpt>
      <trkpt lat="47.68753" lon="6.15874">
        <ele>243</ele>
        <time>2020-06-01T09:23:13Z</time>
      </trkpt>
      <trkpt lat="47.6876" lon="6.15867">
        <ele>243</ele>
        <time>2020-06-01T09:23:16Z</time>
      </trkpt>
      <trkpt lat="47.68766" lon="6.1586">
        <ele>244</ele>
        <time>2020-06-01T09:23:21Z</time>
      </trkpt>
      <trkpt lat="47.6877" lon="6.15856">
        <ele>244</ele>
        <time>2020-06-01T09:23:24Z</time>
      </trkpt>
      <trkpt lat="47.68774" lon="6.15852">
        <ele>244</ele>
        <time>2020-06-01T09:23:27Z</time>
      </trkpt>
      <trkpt lat="47.68786" lon="6.15841">
        <ele>244</ele>
        <time>2020-06-01T09:23:30Z</time>
      </trkpt>
      <trkpt lat="47.68791" lon="6.15837">
        <ele>244</ele>
        <time>2020-06-01T09:23:31Z</time>
      </trkpt>
      <trkpt lat="47.68795" lon="6.1583">
        <ele>248</ele>
        <time>2020-06-01T09:23:39Z</time>
      </trkpt>
      <trkpt lat="47.68799" lon="6.15826">
        <ele>248</ele>
        <time>2020-06-01T09:23:44Z</time>
      </trkpt>
      <trkpt lat="47.68813" lon="6.15808">
        <ele>248</ele>
        <time>2020-06-01T09:23:45Z</time>
      </trkpt>
      <trkpt lat="47.68818" lon="6.158">
        <ele>248</ele>
        <time>2020-06-01T09:23:50Z</time>
      </trkpt>
      <trkpt lat="47.68826" lon="6.15786">
        <ele>248</ele>
        <time>2020-06-01T09:23:51Z</time>
      </trkpt>
      <trkpt lat="47.68829" lon="6.15779">
        <ele>249</ele>
        <time>2020-06-01T09:23:53Z</time>
      </trkpt>
      <trkpt lat="47.68832" lon="6.15773">
        <ele>249</ele>
        <time>2020-06-01T09:23:55Z</time>
      </trkpt>
      <trkpt lat="47.68834" lon="6.15766">
        <ele>247</ele>
        <time>2020-06-01T09:23:57Z</time>
      </trkpt>
      <trkpt lat="47.68837" lon="6.15759">
        <ele>248</ele>
        <time>2020-06-01T09:23:59Z</time>
      </trkpt>
      <trkpt lat="47.6884" lon="6.15751">
        <ele>248</ele>
        <time>2020-06-01T09:24:02Z</time>
      </trkpt>
      <trkpt lat="47.68843" lon="6.15743">
        <ele>249</ele>
        <time>2020-06-01T09:24:05Z</time>
      </trkpt>
      <trkpt lat="47.68845" lon="6.15738">
        <ele>249</ele>
        <time>2020-06-01T09:24:07Z</time>
      </trkpt>
      <trkpt lat="47.68847" lon="6.15732">
        <ele>249</ele>
        <time>2020-06-01T09:24:09Z</time>
      </trkpt>
      <trkpt lat="47.68849" lon="6.15725">
        <ele>248</ele>
        <time>2020-06-01T09:24:11Z</time>
      </trkpt>
      <trkpt lat="47.68852" lon="6.15716">
        <ele>248</ele>
        <time>2020-06-01T09:24:14Z</time>
      </trkpt>
      <trkpt lat="47.68853" lon="6.1571">
        <ele>248</ele>
        <time>2020-06-01T09:24:19Z</time>
      </trkpt>
      <trkpt lat="47.68855" lon="6.15695">
        <ele>249</ele>
        <time>2020-06-01T09:24:20Z</time>
      </trkpt>
      <trkpt lat="47.68855" lon="6.15686">
        <ele>249</ele>
        <time>2020-06-01T09:24:26Z</time>
      </trkpt>
      <trkpt lat="47.68857" lon="6.1567">
        <ele>249</ele>
        <time>2020-06-01T09:24:28Z</time>
      </trkpt>
      <trkpt lat="47.68858" lon="6.15663">
        <ele>251</ele>
        <time>2020-06-01T09:24:32Z</time>
      </trkpt>
      <trkpt lat="47.6886" lon="6.15655">
        <ele>251</ele>
        <time>2020-06-01T09:24:36Z</time>
      </trkpt>
      <trkpt lat="47.68861" lon="6.15648">
        <ele>252</ele>
        <time>2020-06-01T09:24:41Z</time>
      </trkpt>
      <trkpt lat="47.68862" lon="6.15642">
        <ele>252</ele>
        <time>2020-06-01T09:24:45Z</time>
      </trkpt>
      <trkpt lat="47.68864" lon="6.15626">
        <ele>252</ele>
        <time>2020-06-01T09:24:50Z</time>
      </trkpt>
      <trkpt lat="47.68866" lon="6.15619">
        <ele>252</ele>
        <time>2020-06-01T09:24:51Z</time>
      </trkpt>
      <trkpt lat="47.68867" lon="6.15612">
        <ele>252</ele>
        <time>2020-06-01T09:24:57Z</time>
      </trkpt>
      <trkpt lat="47.6887" lon="6.15593">
        <ele>253</ele>
        <time>2020-06-01T09:25:01Z</time>
      </trkpt>
      <trkpt lat="47.68871" lon="6.15585">
        <ele>253</ele>
        <time>2020-06-01T09:25:07Z</time>
      </trkpt>
      <trkpt lat="47.68872" lon="6.15566">
        <ele>256</ele>
        <time>2020-06-01T09:25:12Z</time>
      </trkpt>
      <trkpt lat="47.68873" lon="6.15559">
        <ele>256</ele>
        <time>2020-06-01T09:25:15Z</time>
      </trkpt>
      <trkpt lat="47.68873" lon="6.15548">
        <ele>257</ele>
        <time>2020-06-01T09:25:17Z</time>
      </trkpt>
      <trkpt lat="47.68874" lon="6.1554">
        <ele>257</ele>
        <time>2020-06-01T09:25:21Z</time>
      </trkpt>
      <trkpt lat="47.68876" lon="6.15533">
        <ele>257</ele>
        <time>2020-06-01T09:25:24Z</time>
      </trkpt>
      <trkpt lat="47.68877" lon="6.15521">
        <ele>257</ele>
        <time>2020-06-01T09:25:26Z</time>
      </trkpt>
      <trkpt lat="47.68878" lon="6.15512">
        <ele>257</ele>
        <time>2020-06-01T09:25:30Z</time>
      </trkpt>
      <trkpt lat="47.68878" lon="6.15505">
        <ele>257</ele>
        <time>2020-06-01T09:25:32Z</time>
      </trkpt>
      <trkpt lat="47.68878" lon="6.15497">
        <ele>259</ele>
        <time>2020-06-01T09:25:35Z</time>
      </trkpt>
      <trkpt lat="47.68879" lon="6.15489">
        <ele>259</ele>
        <time>2020-06-01T09:25:37Z</time>
      </trkpt>
      <trkpt lat="47.68879" lon="6.15481">
        <ele>260</ele>
        <time>2020-06-01T09:25:40Z</time>
      </trkpt>
      <trkpt lat="47.6888" lon="6.15474">
        <ele>260</ele>
        <time>2020-06-01T09:25:43Z</time>
      </trkpt>
      <trkpt lat="47.68881" lon="6.15461">
        <ele>260</ele>
        <time>2020-06-01T09:25:47Z</time>
      </trkpt>
      <trkpt lat="47.68882" lon="6.15453">
        <ele>260</ele>
        <time>2020-06-01T09:25:51Z</time>
      </trkpt>
      <trkpt lat="47.68882" lon="6.15444">
        <ele>260</ele>
        <time>2020-06-01T09:25:54Z</time>
      </trkpt>
      <trkpt lat="47.6888" lon="6.15435">
        <ele>260</ele>
        <time>2020-06-01T09:26:01Z</time>
      </trkpt>
      <trkpt lat="47.6888" lon="6.15428">
        <ele>260</ele>
        <time>2020-06-01T09:26:04Z</time>
      </trkpt>
      <trkpt lat="47.68876" lon="6.1541">
        <ele>262</ele>
        <time>2020-06-01T09:26:10Z</time>
      </trkpt>
      <trkpt lat="47.68875" lon="6.15401">
        <ele>262</ele>
        <time>2020-06-01T09:26:12Z</time>
      </trkpt>
      <trkpt lat="47.68874" lon="6.15394">
        <ele>262</ele>
        <time>2020-06-01T09:26:16Z</time>
      </trkpt>
      <trkpt lat="47.68872" lon="6.15388">
        <ele>262</ele>
        <time>2020-06-01T09:26:21Z</time>
      </trkpt>
      <trkpt lat="47.68872" lon="6.1538">
        <ele>262</ele>
        <time>2020-06-01T09:26:26Z</time>
      </trkpt>
      <trkpt lat="47.68871" lon="6.15373">
        <ele>262</ele>
        <time>2020-06-01T09:26:29Z</time>
      </trkpt>
      <trkpt lat="47.68869" lon="6.15365">
        <ele>263</ele>
        <time>2020-06-01T09:26:33Z</time>
      </trkpt>
      <trkpt lat="47.68867" lon="6.15359">
        <ele>263</ele>
        <time>2020-06-01T09:26:36Z</time>
      </trkpt>
      <trkpt lat="47.68865" lon="6.15351">
        <ele>263</ele>
        <time>2020-06-01T09:26:39Z</time>
      </trkpt>
      <trkpt lat="47.68864" lon="6.15344">
        <ele>263</ele>
        <time>2020-06-01T09:26:42Z</time>
      </trkpt>
      <trkpt lat="47.68862" lon="6.15336">
        <ele>263</ele>
        <time>2020-06-01T09:26:50Z</time>
      </trkpt>
      <trkpt lat="47.6886" lon="6.1533">
        <ele>266</ele>
        <time>2020-06-01T09:26:51Z</time>
      </trkpt>
      <trkpt lat="47.68859" lon="6.15323">
        <ele>266</ele>
        <time>2020-06-01T09:26:51Z</time>
      </trkpt>
      <trkpt lat="47.68857" lon="6.15313">
        <ele>267</ele>
        <time>2020-06-01T09:26:56Z</time>
      </trkpt>
      <trkpt lat="47.68856" lon="6.15305">
        <ele>267</ele>
        <time>2020-06-01T09:27:04Z</time>
      </trkpt>
      <trkpt lat="47.68854" lon="6.15296">
        <ele>267</ele>
        <time>2020-06-01T09:27:04Z</time>
      </trkpt>
      <trkpt lat="47.68852" lon="6.15287">
        <ele>268</ele>
        <time>2020-06-01T09:27:08Z</time>
      </trkpt>
      <trkpt lat="47.68851" lon="6.15281">
        <ele>268</ele>
        <time>2020-06-01T09:27:15Z</time>
      </trkpt>
      <trkpt lat="47.68848" lon="6.15273">
        <ele>268</ele>
        <time>2020-06-01T09:27:15Z</time>
      </trkpt>
      <trkpt lat="47.68845" lon="6.15264">
        <ele>269</ele>
        <time>2020-06-01T09:27:18Z</time>
      </trkpt>
      <trkpt lat="47.68843" lon="6.15256">
        <ele>269</ele>
        <time>2020-06-01T09:27:22Z</time>
      </trkpt>
      <trkpt lat="47.68841" lon="6.15249">
        <ele>270</ele>
        <time>2020-06-01T09:27:25Z</time>
      </trkpt>
      <trkpt lat="47.68839" lon="6.15239">
        <ele>271</ele>
        <time>2020-06-01T09:27:28Z</time>
      </trkpt>
      <trkpt lat="47.68837" lon="6.15231">
        <ele>271</ele>
        <time>2020-06-01T09:27:33Z</time>
      </trkpt>
      <trkpt lat="47.68836" lon="6.15223">
        <ele>271</ele>
        <time>2020-06-01T09:27:48Z</time>
      </trkpt>
      <trkpt lat="47.68833" lon="6.15216">
        <ele>271</ele>
        <time>2020-06-01T09:28:54Z</time>
      </trkpt>
      <trkpt lat="47.68833" lon="6.15204">
        <ele>270</ele>
        <time>2020-06-01T09:28:58Z</time>
      </trkpt>
      <trkpt lat="47.68831" lon="6.15194">
        <ele>271</ele>
        <time>2020-06-01T09:29:04Z</time>
      </trkpt>
      <trkpt lat="47.68829" lon="6.15177">
        <ele>271</ele>
        <time>2020-06-01T09:29:07Z</time>
      </trkpt>
      <trkpt lat="47.68829" lon="6.15168">
        <ele>272</ele>
        <time>2020-06-01T09:29:08Z</time>
      </trkpt>
      <trkpt lat="47.68828" lon="6.15151">
        <ele>272</ele>
        <time>2020-06-01T09:29:11Z</time>
      </trkpt>
      <trkpt lat="47.68829" lon="6.15144">
        <ele>272</ele>
        <time>2020-06-01T09:29:13Z</time>
      </trkpt>
      <trkpt lat="47.68829" lon="6.15134">
        <ele>273</ele>
        <time>2020-06-01T09:29:15Z</time>
      </trkpt>
      <trkpt lat="47.6883" lon="6.15125">
        <ele>273</ele>
        <time>2020-06-01T09:29:17Z</time>
      </trkpt>
      <trkpt lat="47.68829" lon="6.151">
        <ele>273</ele>
        <time>2020-06-01T09:29:22Z</time>
      </trkpt>
      <trkpt lat="47.68828" lon="6.15093">
        <ele>274</ele>
        <time>2020-06-01T09:29:23Z</time>
      </trkpt>
      <trkpt lat="47.68828" lon="6.15083">
        <ele>274</ele>
        <time>2020-06-01T09:29:25Z</time>
      </trkpt>
      <trkpt lat="47.68829" lon="6.15065">
        <ele>274</ele>
        <time>2020-06-01T09:29:30Z</time>
      </trkpt>
      <trkpt lat="47.6883" lon="6.15057">
        <ele>274</ele>
        <time>2020-06-01T09:29:31Z</time>
      </trkpt>
      <trkpt lat="47.68832" lon="6.15048">
        <ele>275</ele>
        <time>2020-06-01T09:29:34Z</time>
      </trkpt>
      <trkpt lat="47.68832" lon="6.1504">
        <ele>275</ele>
        <time>2020-06-01T09:29:36Z</time>
      </trkpt>
      <trkpt lat="47.68836" lon="6.15024">
        <ele>274</ele>
        <time>2020-06-01T09:29:40Z</time>
      </trkpt>
      <trkpt lat="47.68838" lon="6.15016">
        <ele>274</ele>
        <time>2020-06-01T09:29:42Z</time>
      </trkpt>
      <trkpt lat="47.6884" lon="6.15007">
        <ele>274</ele>
        <time>2020-06-01T09:29:43Z</time>
      </trkpt>
      <trkpt lat="47.68842" lon="6.15001">
        <ele>274</ele>
        <time>2020-06-01T09:29:45Z</time>
      </trkpt>
      <trkpt lat="47.6885" lon="6.1497">
        <ele>274</ele>
        <time>2020-06-01T09:29:45Z</time>
      </trkpt>
      <trkpt lat="47.68845" lon="6.14964">
        <ele>274</ele>
        <time>2020-06-01T09:29:47Z</time>
      </trkpt>
      <trkpt lat="47.68847" lon="6.14958">
        <ele>274</ele>
        <time>2020-06-01T09:29:52Z</time>
      </trkpt>
      <trkpt lat="47.68849" lon="6.14931">
        <ele>274</ele>
        <time>2020-06-01T09:29:55Z</time>
      </trkpt>
      <trkpt lat="47.68851" lon="6.14899">
        <ele>274</ele>
        <time>2020-06-01T09:29:55Z</time>
      </trkpt>
      <trkpt lat="47.6885" lon="6.14891">
        <ele>274</ele>
        <time>2020-06-01T09:29:56Z</time>
      </trkpt>
      <trkpt lat="47.68849" lon="6.14884">
        <ele>274</ele>
        <time>2020-06-01T09:29:57Z</time>
      </trkpt>
      <trkpt lat="47.68848" lon="6.14876">
        <ele>274</ele>
        <time>2020-06-01T09:29:58Z</time>
      </trkpt>
      <trkpt lat="47.68847" lon="6.14869">
        <ele>274</ele>
        <time>2020-06-01T09:29:59Z</time>
      </trkpt>
      <trkpt lat="47.68845" lon="6.14862">
        <ele>274</ele>
        <time>2020-06-01T09:30:00Z</time>
      </trkpt>
      <trkpt lat="47.68842" lon="6.14855">
        <ele>274</ele>
        <time>2020-06-01T09:30:01Z</time>
      </trkpt>
      <trkpt lat="47.68839" lon="6.14849">
        <ele>274</ele>
        <time>2020-06-01T09:30:02Z</time>
      </trkpt>
      <trkpt lat="47.68836" lon="6.14843">
        <ele>274</ele>
        <time>2020-06-01T09:30:03Z</time>
      </trkpt>
      <trkpt lat="47.68833" lon="6.14836">
        <ele>275</ele>
        <time>2020-06-01T09:30:04Z</time>
      </trkpt>
      <trkpt lat="47.68831" lon="6.1483">
        <ele>275</ele>
        <time>2020-06-01T09:30:05Z</time>
      </trkpt>
      <trkpt lat="47.68829" lon="6.14824">
        <ele>276</ele>
        <time>2020-06-01T09:30:06Z</time>
      </trkpt>
      <trkpt lat="47.68825" lon="6.14813">
        <ele>276</ele>
        <time>2020-06-01T09:30:08Z</time>
      </trkpt>
      <trkpt lat="47.68821" lon="6.14802">
        <ele>276</ele>
        <time>2020-06-01T09:30:10Z</time>
      </trkpt>
      <trkpt lat="47.68818" lon="6.14793">
        <ele>277</ele>
        <time>2020-06-01T09:30:12Z</time>
      </trkpt>
      <trkpt lat="47.68816" lon="6.14785">
        <ele>277</ele>
        <time>2020-06-01T09:30:17Z</time>
      </trkpt>
      <trkpt lat="47.6881" lon="6.14773">
        <ele>277</ele>
        <time>2020-06-01T09:30:19Z</time>
      </trkpt>
      <trkpt lat="47.68806" lon="6.14757">
        <ele>277</ele>
        <time>2020-06-01T09:30:24Z</time>
      </trkpt>
      <trkpt lat="47.688" lon="6.14737">
        <ele>278</ele>
        <time>2020-06-01T09:30:24Z</time>
      </trkpt>
      <trkpt lat="47.68799" lon="6.14729">
        <ele>278</ele>
        <time>2020-06-01T09:30:29Z</time>
      </trkpt>
      <trkpt lat="47.68795" lon="6.14711">
        <ele>278</ele>
        <time>2020-06-01T09:30:29Z</time>
      </trkpt>
      <trkpt lat="47.68793" lon="6.14702">
        <ele>278</ele>
        <time>2020-06-01T09:30:34Z</time>
      </trkpt>
      <trkpt lat="47.68791" lon="6.14695">
        <ele>278</ele>
        <time>2020-06-01T09:30:36Z</time>
      </trkpt>
      <trkpt lat="47.68788" lon="6.14688">
        <ele>278</ele>
        <time>2020-06-01T09:30:37Z</time>
      </trkpt>
      <trkpt lat="47.68782" lon="6.14675">
        <ele>278</ele>
        <time>2020-06-01T09:30:40Z</time>
      </trkpt>
      <trkpt lat="47.68779" lon="6.1467">
        <ele>278</ele>
        <time>2020-06-01T09:30:42Z</time>
      </trkpt>
      <trkpt lat="47.68775" lon="6.14661">
        <ele>279</ele>
        <time>2020-06-01T09:30:44Z</time>
      </trkpt>
      <trkpt lat="47.68771" lon="6.14651">
        <ele>279</ele>
        <time>2020-06-01T09:30:46Z</time>
      </trkpt>
      <trkpt lat="47.68768" lon="6.14646">
        <ele>279</ele>
        <time>2020-06-01T09:30:47Z</time>
      </trkpt>
      <trkpt lat="47.68764" lon="6.14638">
        <ele>280</ele>
        <time>2020-06-01T09:30:49Z</time>
      </trkpt>
      <trkpt lat="47.6876" lon="6.14631">
        <ele>280</ele>
        <time>2020-06-01T09:30:51Z</time>
      </trkpt>
      <trkpt lat="47.68758" lon="6.14624">
        <ele>280</ele>
        <time>2020-06-01T09:30:53Z</time>
      </trkpt>
      <trkpt lat="47.68755" lon="6.14617">
        <ele>280</ele>
        <time>2020-06-01T09:30:55Z</time>
      </trkpt>
      <trkpt lat="47.68752" lon="6.14611">
        <ele>280</ele>
        <time>2020-06-01T09:30:57Z</time>
      </trkpt>
      <trkpt lat="47.6875" lon="6.14603">
        <ele>280</ele>
        <time>2020-06-01T09:30:59Z</time>
      </trkpt>
      <trkpt lat="47.68748" lon="6.14595">
        <ele>280</ele>
        <time>2020-06-01T09:31:01Z</time>
      </trkpt>
      <trkpt lat="47.68746" lon="6.14589">
        <ele>281</ele>
        <time>2020-06-01T09:31:03Z</time>
      </trkpt>
      <trkpt lat="47.68742" lon="6.14576">
        <ele>281</ele>
        <time>2020-06-01T09:31:06Z</time>
      </trkpt>
      <trkpt lat="47.68739" lon="6.14565">
        <ele>281</ele>
        <time>2020-06-01T09:31:09Z</time>
      </trkpt>
      <trkpt lat="47.68736" lon="6.14557">
        <ele>281</ele>
        <time>2020-06-01T09:31:11Z</time>
      </trkpt>
      <trkpt lat="47.68733" lon="6.14549">
        <ele>281</ele>
        <time>2020-06-01T09:31:12Z</time>
      </trkpt>
      <trkpt lat="47.68732" lon="6.14543">
        <ele>281</ele>
        <time>2020-06-01T09:31:13Z</time>
      </trkpt>
      <trkpt lat="47.6873" lon="6.14536">
        <ele>281</ele>
        <time>2020-06-01T09:31:15Z</time>
      </trkpt>
      <trkpt lat="47.68726" lon="6.14521">
        <ele>281</ele>
        <time>2020-06-01T09:31:17Z</time>
      </trkpt>
      <trkpt lat="47.68722" lon="6.14506">
        <ele>281</ele>
        <time>2020-06-01T09:31:20Z</time>
      </trkpt>
      <trkpt lat="47.6872" lon="6.14496">
        <ele>281</ele>
        <time>2020-06-01T09:31:23Z</time>
      </trkpt>
      <trkpt lat="47.68719" lon="6.14485">
        <ele>281</ele>
        <time>2020-06-01T09:31:25Z</time>
      </trkpt>
      <trkpt lat="47.68716" lon="6.14471">
        <ele>281</ele>
        <time>2020-06-01T09:31:27Z</time>
      </trkpt>
      <trkpt lat="47.68711" lon="6.1446">
        <ele>282</ele>
        <time>2020-06-01T09:31:29Z</time>
      </trkpt>
      <trkpt lat="47.68707" lon="6.14454">
        <ele>282</ele>
        <time>2020-06-01T09:31:31Z</time>
      </trkpt>
      <trkpt lat="47.68704" lon="6.14448">
        <ele>282</ele>
        <time>2020-06-01T09:31:32Z</time>
      </trkpt>
      <trkpt lat="47.68698" lon="6.14439">
        <ele>282</ele>
        <time>2020-06-01T09:31:34Z</time>
      </trkpt>
      <trkpt lat="47.68683" lon="6.14411">
        <ele>282</ele>
        <time>2020-06-01T09:31:34Z</time>
      </trkpt>
      <trkpt lat="47.68679" lon="6.14398">
        <ele>282</ele>
        <time>2020-06-01T09:31:36Z</time>
      </trkpt>
      <trkpt lat="47.68675" lon="6.14386">
        <ele>282</ele>
        <time>2020-06-01T09:31:38Z</time>
      </trkpt>
      <trkpt lat="47.68673" lon="6.14381">
        <ele>283</ele>
        <time>2020-06-01T09:31:44Z</time>
      </trkpt>
      <trkpt lat="47.68671" lon="6.14374">
        <ele>283</ele>
        <time>2020-06-01T09:31:45Z</time>
      </trkpt>
      <trkpt lat="47.6866" lon="6.1434">
        <ele>282</ele>
        <time>2020-06-01T09:31:50Z</time>
      </trkpt>
      <trkpt lat="47.68656" lon="6.14322">
        <ele>283</ele>
        <time>2020-06-01T09:31:53Z</time>
      </trkpt>
      <trkpt lat="47.68653" lon="6.14314">
        <ele>283</ele>
        <time>2020-06-01T09:31:54Z</time>
      </trkpt>
      <trkpt lat="47.68646" lon="6.14298">
        <ele>283</ele>
        <time>2020-06-01T09:31:57Z</time>
      </trkpt>
      <trkpt lat="47.68639" lon="6.14283">
        <ele>283</ele>
        <time>2020-06-01T09:32:01Z</time>
      </trkpt>
      <trkpt lat="47.68635" lon="6.14273">
        <ele>283</ele>
        <time>2020-06-01T09:32:03Z</time>
      </trkpt>
      <trkpt lat="47.68633" lon="6.14265">
        <ele>283</ele>
        <time>2020-06-01T09:32:04Z</time>
      </trkpt>
      <trkpt lat="47.6863" lon="6.14258">
        <ele>283</ele>
        <time>2020-06-01T09:32:06Z</time>
      </trkpt>
      <trkpt lat="47.68626" lon="6.1425">
        <ele>283</ele>
        <time>2020-06-01T09:32:07Z</time>
      </trkpt>
      <trkpt lat="47.6862" lon="6.14236">
        <ele>284</ele>
        <time>2020-06-01T09:32:10Z</time>
      </trkpt>
      <trkpt lat="47.68615" lon="6.14227">
        <ele>284</ele>
        <time>2020-06-01T09:32:12Z</time>
      </trkpt>
      <trkpt lat="47.6861" lon="6.1422">
        <ele>284</ele>
        <time>2020-06-01T09:32:14Z</time>
      </trkpt>
      <trkpt lat="47.68605" lon="6.14212">
        <ele>284</ele>
        <time>2020-06-01T09:32:16Z</time>
      </trkpt>
      <trkpt lat="47.68601" lon="6.14205">
        <ele>284</ele>
        <time>2020-06-01T09:32:17Z</time>
      </trkpt>
      <trkpt lat="47.68597" lon="6.14197">
        <ele>284</ele>
        <time>2020-06-01T09:32:19Z</time>
      </trkpt>
      <trkpt lat="47.68594" lon="6.14191">
        <ele>284</ele>
        <time>2020-06-01T09:32:21Z</time>
      </trkpt>
      <trkpt lat="47.68589" lon="6.14184">
        <ele>284</ele>
        <time>2020-06-01T09:32:23Z</time>
      </trkpt>
      <trkpt lat="47.68585" lon="6.14177">
        <ele>285</ele>
        <time>2020-06-01T09:32:25Z</time>
      </trkpt>
      <trkpt lat="47.68583" lon="6.14171">
        <ele>285</ele>
        <time>2020-06-01T09:32:26Z</time>
      </trkpt>
      <trkpt lat="47.68579" lon="6.14162">
        <ele>285</ele>
        <time>2020-06-01T09:32:29Z</time>
      </trkpt>
      <trkpt lat="47.68577" lon="6.14156">
        <ele>285</ele>
        <time>2020-06-01T09:32:31Z</time>
      </trkpt>
      <trkpt lat="47.68573" lon="6.14149">
        <ele>285</ele>
        <time>2020-06-01T09:32:33Z</time>
      </trkpt>
      <trkpt lat="47.68569" lon="6.14144">
        <ele>285</ele>
        <time>2020-06-01T09:32:34Z</time>
      </trkpt>
      <trkpt lat="47.68565" lon="6.14138">
        <ele>285</ele>
        <time>2020-06-01T09:32:37Z</time>
      </trkpt>
      <trkpt lat="47.68561" lon="6.14132">
        <ele>285</ele>
        <time>2020-06-01T09:32:39Z</time>
      </trkpt>
      <trkpt lat="47.68557" lon="6.14126">
        <ele>285</ele>
        <time>2020-06-01T09:32:40Z</time>
      </trkpt>
      <trkpt lat="47.68554" lon="6.14121">
        <ele>285</ele>
        <time>2020-06-01T09:32:42Z</time>
      </trkpt>
      <trkpt lat="47.6855" lon="6.14116">
        <ele>285</ele>
        <time>2020-06-01T09:32:43Z</time>
      </trkpt>
      <trkpt lat="47.68545" lon="6.14109">
        <ele>285</ele>
        <time>2020-06-01T09:32:45Z</time>
      </trkpt>
      <trkpt lat="47.68542" lon="6.14105">
        <ele>285</ele>
        <time>2020-06-01T09:32:47Z</time>
      </trkpt>
      <trkpt lat="47.68532" lon="6.14091">
        <ele>285</ele>
        <time>2020-06-01T09:32:50Z</time>
      </trkpt>
      <trkpt lat="47.68527" lon="6.14083">
        <ele>285</ele>
        <time>2020-06-01T09:32:52Z</time>
      </trkpt>
      <trkpt lat="47.68521" lon="6.14074">
        <ele>285</ele>
        <time>2020-06-01T09:32:55Z</time>
      </trkpt>
      <trkpt lat="47.68518" lon="6.14069">
        <ele>285</ele>
        <time>2020-06-01T09:32:56Z</time>
      </trkpt>
      <trkpt lat="47.68514" lon="6.14064">
        <ele>285</ele>
        <time>2020-06-01T09:32:58Z</time>
      </trkpt>
      <trkpt lat="47.6851" lon="6.14056">
        <ele>285</ele>
        <time>2020-06-01T09:33:00Z</time>
      </trkpt>
      <trkpt lat="47.68507" lon="6.1405">
        <ele>286</ele>
        <time>2020-06-01T09:33:02Z</time>
      </trkpt>
      <trkpt lat="47.68504" lon="6.14045">
        <ele>286</ele>
        <time>2020-06-01T09:33:03Z</time>
      </trkpt>
      <trkpt lat="47.68499" lon="6.14036">
        <ele>284</ele>
        <time>2020-06-01T09:33:06Z</time>
      </trkpt>
      <trkpt lat="47.68496" lon="6.14029">
        <ele>284</ele>
        <time>2020-06-01T09:33:08Z</time>
      </trkpt>
      <trkpt lat="47.68492" lon="6.14023">
        <ele>284</ele>
        <time>2020-06-01T09:33:10Z</time>
      </trkpt>
      <trkpt lat="47.68489" lon="6.14016">
        <ele>284</ele>
        <time>2020-06-01T09:33:11Z</time>
      </trkpt>
      <trkpt lat="47.68486" lon="6.1401">
        <ele>285</ele>
        <time>2020-06-01T09:33:13Z</time>
      </trkpt>
      <trkpt lat="47.68482" lon="6.14004">
        <ele>284</ele>
        <time>2020-06-01T09:33:15Z</time>
      </trkpt>
      <trkpt lat="47.68478" lon="6.13996">
        <ele>285</ele>
        <time>2020-06-01T09:33:17Z</time>
      </trkpt>
      <trkpt lat="47.68473" lon="6.13987">
        <ele>285</ele>
        <time>2020-06-01T09:33:20Z</time>
      </trkpt>
      <trkpt lat="47.6847" lon="6.13982">
        <ele>285</ele>
        <time>2020-06-01T09:33:22Z</time>
      </trkpt>
      <trkpt lat="47.68466" lon="6.13974">
        <ele>285</ele>
        <time>2020-06-01T09:33:24Z</time>
      </trkpt>
      <trkpt lat="47.68462" lon="6.13966">
        <ele>285</ele>
        <time>2020-06-01T09:33:25Z</time>
      </trkpt>
      <trkpt lat="47.68459" lon="6.1396">
        <ele>285</ele>
        <time>2020-06-01T09:33:27Z</time>
      </trkpt>
      <trkpt lat="47.68455" lon="6.13953">
        <ele>286</ele>
        <time>2020-06-01T09:33:29Z</time>
      </trkpt>
      <trkpt lat="47.68452" lon="6.13945">
        <ele>286</ele>
        <time>2020-06-01T09:33:31Z</time>
      </trkpt>
      <trkpt lat="47.68448" lon="6.13939">
        <ele>286</ele>
        <time>2020-06-01T09:33:33Z</time>
      </trkpt>
      <trkpt lat="47.6844" lon="6.13926">
        <ele>285</ele>
        <time>2020-06-01T09:33:37Z</time>
      </trkpt>
      <trkpt lat="47.68434" lon="6.13915">
        <ele>286</ele>
        <time>2020-06-01T09:33:41Z</time>
      </trkpt>
      <trkpt lat="47.68431" lon="6.13909">
        <ele>286</ele>
        <time>2020-06-01T09:33:42Z</time>
      </trkpt>
      <trkpt lat="47.68422" lon="6.13891">
        <ele>286</ele>
        <time>2020-06-01T09:33:47Z</time>
      </trkpt>
      <trkpt lat="47.68418" lon="6.13883">
        <ele>286</ele>
        <time>2020-06-01T09:33:49Z</time>
      </trkpt>
      <trkpt lat="47.68414" lon="6.13876">
        <ele>284</ele>
        <time>2020-06-01T09:33:50Z</time>
      </trkpt>
      <trkpt lat="47.68409" lon="6.13867">
        <ele>284</ele>
        <time>2020-06-01T09:33:53Z</time>
      </trkpt>
      <trkpt lat="47.68401" lon="6.13853">
        <ele>284</ele>
        <time>2020-06-01T09:33:56Z</time>
      </trkpt>
      <trkpt lat="47.68398" lon="6.13848">
        <ele>284</ele>
        <time>2020-06-01T09:33:57Z</time>
      </trkpt>
      <trkpt lat="47.68388" lon="6.13836">
        <ele>284</ele>
        <time>2020-06-01T09:34:03Z</time>
      </trkpt>
      <trkpt lat="47.68382" lon="6.13832">
        <ele>283</ele>
        <time>2020-06-01T09:34:06Z</time>
      </trkpt>
      <trkpt lat="47.68378" lon="6.13837">
        <ele>284</ele>
        <time>2020-06-01T09:34:18Z</time>
      </trkpt>
      <trkpt lat="47.68375" lon="6.13842">
        <ele>284</ele>
        <time>2020-06-01T09:34:23Z</time>
      </trkpt>
      <trkpt lat="47.68372" lon="6.13848">
        <ele>283</ele>
        <time>2020-06-01T09:34:24Z</time>
      </trkpt>
      <trkpt lat="47.68369" lon="6.13854">
        <ele>283</ele>
        <time>2020-06-01T09:34:27Z</time>
      </trkpt>
      <trkpt lat="47.68366" lon="6.13862">
        <ele>283</ele>
        <time>2020-06-01T09:34:31Z</time>
      </trkpt>
      <trkpt lat="47.68363" lon="6.13867">
        <ele>283</ele>
        <time>2020-06-01T09:34:35Z</time>
      </trkpt>
      <trkpt lat="47.68358" lon="6.13869">
        <ele>283</ele>
        <time>2020-06-01T09:35:21Z</time>
      </trkpt>
      <trkpt lat="47.68355" lon="6.13876">
        <ele>283</ele>
        <time>2020-06-01T09:35:30Z</time>
      </trkpt>
      <trkpt lat="47.68352" lon="6.13881">
        <ele>283</ele>
        <time>2020-06-01T09:35:32Z</time>
      </trkpt>
      <trkpt lat="47.68348" lon="6.13888">
        <ele>283</ele>
        <time>2020-06-01T09:35:43Z</time>
      </trkpt>
      <trkpt lat="47.68337" lon="6.13901">
        <ele>283</ele>
        <time>2020-06-01T09:35:43Z</time>
      </trkpt>
      <trkpt lat="47.68333" lon="6.13905">
        <ele>281</ele>
        <time>2020-06-01T09:35:48Z</time>
      </trkpt>
      <trkpt lat="47.68317" lon="6.13925">
        <ele>281</ele>
        <time>2020-06-01T09:35:49Z</time>
      </trkpt>
      <trkpt lat="47.68311" lon="6.13932">
        <ele>281</ele>
        <time>2020-06-01T09:35:51Z</time>
      </trkpt>
      <trkpt lat="47.68307" lon="6.13939">
        <ele>281</ele>
        <time>2020-06-01T09:35:57Z</time>
      </trkpt>
      <trkpt lat="47.68302" lon="6.13946">
        <ele>281</ele>
        <time>2020-06-01T09:35:59Z</time>
      </trkpt>
      <trkpt lat="47.68298" lon="6.13951">
        <ele>281</ele>
        <time>2020-06-01T09:36:00Z</time>
      </trkpt>
      <trkpt lat="47.68289" lon="6.13963">
        <ele>281</ele>
        <time>2020-06-01T09:36:04Z</time>
      </trkpt>
      <trkpt lat="47.68284" lon="6.1397">
        <ele>281</ele>
        <time>2020-06-01T09:36:06Z</time>
      </trkpt>
      <trkpt lat="47.68278" lon="6.13979">
        <ele>280</ele>
        <time>2020-06-01T09:36:08Z</time>
      </trkpt>
      <trkpt lat="47.68274" lon="6.13989">
        <ele>280</ele>
        <time>2020-06-01T09:36:10Z</time>
      </trkpt>
      <trkpt lat="47.68266" lon="6.14006">
        <ele>280</ele>
        <time>2020-06-01T09:36:12Z</time>
      </trkpt>
      <trkpt lat="47.68262" lon="6.14013">
        <ele>280</ele>
        <time>2020-06-01T09:36:14Z</time>
      </trkpt>
      <trkpt lat="47.68259" lon="6.14019">
        <ele>280</ele>
        <time>2020-06-01T09:36:16Z</time>
      </trkpt>
      <trkpt lat="47.68252" lon="6.14033">
        <ele>280</ele>
        <time>2020-06-01T09:36:18Z</time>
      </trkpt>
      <trkpt lat="47.68247" lon="6.1404">
        <ele>278</ele>
        <time>2020-06-01T09:36:20Z</time>
      </trkpt>
      <trkpt lat="47.68243" lon="6.14049">
        <ele>278</ele>
        <time>2020-06-01T09:36:22Z</time>
      </trkpt>
      <trkpt lat="47.68238" lon="6.14058">
        <ele>278</ele>
        <time>2020-06-01T09:36:24Z</time>
      </trkpt>
      <trkpt lat="47.68233" lon="6.14065">
        <ele>278</ele>
        <time>2020-06-01T09:36:25Z</time>
      </trkpt>
      <trkpt lat="47.6823" lon="6.1407">
        <ele>278</ele>
        <time>2020-06-01T09:36:26Z</time>
      </trkpt>
      <trkpt lat="47.68227" lon="6.14075">
        <ele>278</ele>
        <time>2020-06-01T09:36:27Z</time>
      </trkpt>
      <trkpt lat="47.68224" lon="6.14081">
        <ele>278</ele>
        <time>2020-06-01T09:36:29Z</time>
      </trkpt>
      <trkpt lat="47.6822" lon="6.14088">
        <ele>277</ele>
        <time>2020-06-01T09:36:30Z</time>
      </trkpt>
      <trkpt lat="47.6821" lon="6.141">
        <ele>277</ele>
        <time>2020-06-01T09:36:33Z</time>
      </trkpt>
      <trkpt lat="47.68205" lon="6.14105">
        <ele>277</ele>
        <time>2020-06-01T09:36:35Z</time>
      </trkpt>
      <trkpt lat="47.68189" lon="6.14132">
        <ele>276</ele>
        <time>2020-06-01T09:36:35Z</time>
      </trkpt>
      <trkpt lat="47.68185" lon="6.14138">
        <ele>276</ele>
        <time>2020-06-01T09:36:36Z</time>
      </trkpt>
      <trkpt lat="47.68182" lon="6.14143">
        <ele>276</ele>
        <time>2020-06-01T09:36:37Z</time>
      </trkpt>
      <trkpt lat="47.68177" lon="6.14148">
        <ele>276</ele>
        <time>2020-06-01T09:36:38Z</time>
      </trkpt>
      <trkpt lat="47.68174" lon="6.14153">
        <ele>276</ele>
        <time>2020-06-01T09:36:39Z</time>
      </trkpt>
      <trkpt lat="47.68169" lon="6.14159">
        <ele>275</ele>
        <time>2020-06-01T09:36:40Z</time>
      </trkpt>
      <trkpt lat="47.68166" lon="6.14165">
        <ele>275</ele>
        <time>2020-06-01T09:36:41Z</time>
      </trkpt>
      <trkpt lat="47.68162" lon="6.1417">
        <ele>274</ele>
        <time>2020-06-01T09:36:42Z</time>
      </trkpt>
      <trkpt lat="47.68157" lon="6.14175">
        <ele>274</ele>
        <time>2020-06-01T09:36:43Z</time>
      </trkpt>
      <trkpt lat="47.68153" lon="6.1418">
        <ele>274</ele>
        <time>2020-06-01T09:36:44Z</time>
      </trkpt>
      <trkpt lat="47.68148" lon="6.14186">
        <ele>273</ele>
        <time>2020-06-01T09:36:45Z</time>
      </trkpt>
      <trkpt lat="47.68143" lon="6.14193">
        <ele>273</ele>
        <time>2020-06-01T09:36:46Z</time>
      </trkpt>
      <trkpt lat="47.68138" lon="6.14199">
        <ele>273</ele>
        <time>2020-06-01T09:36:47Z</time>
      </trkpt>
      <trkpt lat="47.68134" lon="6.14204">
        <ele>273</ele>
        <time>2020-06-01T09:36:48Z</time>
      </trkpt>
      <trkpt lat="47.68129" lon="6.1421">
        <ele>273</ele>
        <time>2020-06-01T09:36:49Z</time>
      </trkpt>
      <trkpt lat="47.68124" lon="6.14217">
        <ele>272</ele>
        <time>2020-06-01T09:36:50Z</time>
      </trkpt>
      <trkpt lat="47.6812" lon="6.14223">
        <ele>272</ele>
        <time>2020-06-01T09:36:51Z</time>
      </trkpt>
      <trkpt lat="47.68115" lon="6.14229">
        <ele>272</ele>
        <time>2020-06-01T09:36:52Z</time>
      </trkpt>
      <trkpt lat="47.68109" lon="6.14235">
        <ele>272</ele>
        <time>2020-06-01T09:36:53Z</time>
      </trkpt>
      <trkpt lat="47.68105" lon="6.14242">
        <ele>272</ele>
        <time>2020-06-01T09:36:54Z</time>
      </trkpt>
      <trkpt lat="47.681" lon="6.14248">
        <ele>271</ele>
        <time>2020-06-01T09:36:55Z</time>
      </trkpt>
      <trkpt lat="47.68094" lon="6.14254">
        <ele>270</ele>
        <time>2020-06-01T09:36:56Z</time>
      </trkpt>
      <trkpt lat="47.68089" lon="6.1426">
        <ele>270</ele>
        <time>2020-06-01T09:36:57Z</time>
      </trkpt>
      <trkpt lat="47.68084" lon="6.14266">
        <ele>270</ele>
        <time>2020-06-01T09:36:58Z</time>
      </trkpt>
      <trkpt lat="47.68079" lon="6.14273">
        <ele>269</ele>
        <time>2020-06-01T09:36:59Z</time>
      </trkpt>
      <trkpt lat="47.68075" lon="6.14279">
        <ele>269</ele>
        <time>2020-06-01T09:37:00Z</time>
      </trkpt>
      <trkpt lat="47.6807" lon="6.14285">
        <ele>268</ele>
        <time>2020-06-01T09:37:01Z</time>
      </trkpt>
      <trkpt lat="47.68066" lon="6.14291">
        <ele>268</ele>
        <time>2020-06-01T09:37:02Z</time>
      </trkpt>
      <trkpt lat="47.68061" lon="6.14296">
        <ele>268</ele>
        <time>2020-06-01T09:37:03Z</time>
      </trkpt>
      <trkpt lat="47.68056" lon="6.14302">
        <ele>268</ele>
        <time>2020-06-01T09:37:04Z</time>
      </trkpt>
      <trkpt lat="47.68052" lon="6.14307">
        <ele>268</ele>
        <time>2020-06-01T09:37:05Z</time>
      </trkpt>
      <trkpt lat="47.68047" lon="6.14312">
        <ele>268</ele>
        <time>2020-06-01T09:37:06Z</time>
      </trkpt>
      <trkpt lat="47.68042" lon="6.14317">
        <ele>268</ele>
        <time>2020-06-01T09:37:07Z</time>
      </trkpt>
      <trkpt lat="47.68038" lon="6.14322">
        <ele>268</ele>
        <time>2020-06-01T09:37:08Z</time>
      </trkpt>
      <trkpt lat="47.68033" lon="6.14328">
        <ele>268</ele>
        <time>2020-06-01T09:37:09Z</time>
      </trkpt>
      <trkpt lat="47.68028" lon="6.14333">
        <ele>268</ele>
        <time>2020-06-01T09:37:10Z</time>
      </trkpt>
      <trkpt lat="47.68024" lon="6.14339">
        <ele>267</ele>
        <time>2020-06-01T09:37:11Z</time>
      </trkpt>
      <trkpt lat="47.68019" lon="6.14345">
        <ele>267</ele>
        <time>2020-06-01T09:37:12Z</time>
      </trkpt>
      <trkpt lat="47.68015" lon="6.14351">
        <ele>267</ele>
        <time>2020-06-01T09:37:13Z</time>
      </trkpt>
      <trkpt lat="47.68011" lon="6.14356">
        <ele>267</ele>
        <time>2020-06-01T09:37:14Z</time>
      </trkpt>
      <trkpt lat="47.68006" lon="6.14362">
        <ele>267</ele>
        <time>2020-06-01T09:37:15Z</time>
      </trkpt>
      <trkpt lat="47.68002" lon="6.14368">
        <ele>267</ele>
        <time>2020-06-01T09:37:16Z</time>
      </trkpt>
      <trkpt lat="47.67998" lon="6.14374">
        <ele>266</ele>
        <time>2020-06-01T09:37:17Z</time>
      </trkpt>
      <trkpt lat="47.67994" lon="6.1438">
        <ele>266</ele>
        <time>2020-06-01T09:37:18Z</time>
      </trkpt>
      <trkpt lat="47.6799" lon="6.14386">
        <ele>266</ele>
        <time>2020-06-01T09:37:19Z</time>
      </trkpt>
      <trkpt lat="47.67986" lon="6.14392">
        <ele>265</ele>
        <time>2020-06-01T09:37:20Z</time>
      </trkpt>
      <trkpt lat="47.67982" lon="6.14398">
        <ele>265</ele>
        <time>2020-06-01T09:37:21Z</time>
      </trkpt>
      <trkpt lat="47.67978" lon="6.14404">
        <ele>265</ele>
        <time>2020-06-01T09:37:22Z</time>
      </trkpt>
      <trkpt lat="47.67974" lon="6.1441">
        <ele>265</ele>
        <time>2020-06-01T09:37:23Z</time>
      </trkpt>
      <trkpt lat="47.6797" lon="6.14416">
        <ele>265</ele>
        <time>2020-06-01T09:37:24Z</time>
      </trkpt>
      <trkpt lat="47.67965" lon="6.14422">
        <ele>265</ele>
        <time>2020-06-01T09:37:25Z</time>
      </trkpt>
      <trkpt lat="47.67961" lon="6.14429">
        <ele>265</ele>
        <time>2020-06-01T09:37:26Z</time>
      </trkpt>
      <trkpt lat="47.67956" lon="6.14435">
        <ele>265</ele>
        <time>2020-06-01T09:37:27Z</time>
      </trkpt>
      <trkpt lat="47.67952" lon="6.14442">
        <ele>265</ele>
        <time>2020-06-01T09:37:28Z</time>
      </trkpt>
      <trkpt lat="47.67947" lon="6.14448">
        <ele>265</ele>
        <time>2020-06-01T09:37:29Z</time>
      </trkpt>
      <trkpt lat="47.67943" lon="6.14454">
        <ele>265</ele>
        <time>2020-06-01T09:37:30Z</time>
      </trkpt>
      <trkpt lat="47.67938" lon="6.1446">
        <ele>265</ele>
        <time>2020-06-01T09:37:31Z</time>
      </trkpt>
      <trkpt lat="47.67933" lon="6.14466">
        <ele>265</ele>
        <time>2020-06-01T09:37:32Z</time>
      </trkpt>
      <trkpt lat="47.67929" lon="6.14472">
        <ele>265</ele>
        <time>2020-06-01T09:37:33Z</time>
      </trkpt>
      <trkpt lat="47.67924" lon="6.14478">
        <ele>264</ele>
        <time>2020-06-01T09:37:34Z</time>
      </trkpt>
      <trkpt lat="47.6792" lon="6.14483">
        <ele>264</ele>
        <time>2020-06-01T09:37:35Z</time>
      </trkpt>
      <trkpt lat="47.67915" lon="6.14489">
        <ele>264</ele>
        <time>2020-06-01T09:37:36Z</time>
      </trkpt>
      <trkpt lat="47.67911" lon="6.14494">
        <ele>264</ele>
        <time>2020-06-01T09:37:37Z</time>
      </trkpt>
      <trkpt lat="47.67907" lon="6.14498">
        <ele>264</ele>
        <time>2020-06-01T09:37:38Z</time>
      </trkpt>
      <trkpt lat="47.67902" lon="6.14503">
        <ele>263</ele>
        <time>2020-06-01T09:37:39Z</time>
      </trkpt>
      <trkpt lat="47.67898" lon="6.14508">
        <ele>263</ele>
        <time>2020-06-01T09:37:40Z</time>
      </trkpt>
      <trkpt lat="47.67894" lon="6.14513">
        <ele>263</ele>
        <time>2020-06-01T09:37:41Z</time>
      </trkpt>
      <trkpt lat="47.6789" lon="6.14517">
        <ele>263</ele>
        <time>2020-06-01T09:37:42Z</time>
      </trkpt>
      <trkpt lat="47.67885" lon="6.14522">
        <ele>262</ele>
        <time>2020-06-01T09:37:43Z</time>
      </trkpt>
      <trkpt lat="47.67881" lon="6.14526">
        <ele>262</ele>
        <time>2020-06-01T09:37:44Z</time>
      </trkpt>
      <trkpt lat="47.67877" lon="6.14531">
        <ele>262</ele>
        <time>2020-06-01T09:37:45Z</time>
      </trkpt>
      <trkpt lat="47.67872" lon="6.14535">
        <ele>262</ele>
        <time>2020-06-01T09:37:46Z</time>
      </trkpt>
      <trkpt lat="47.67867" lon="6.14539">
        <ele>262</ele>
        <time>2020-06-01T09:37:47Z</time>
      </trkpt>
      <trkpt lat="47.67862" lon="6.14544">
        <ele>262</ele>
        <time>2020-06-01T09:37:48Z</time>
      </trkpt>
      <trkpt lat="47.67858" lon="6.14547">
        <ele>262</ele>
        <time>2020-06-01T09:37:49Z</time>
      </trkpt>
      <trkpt lat="47.67852" lon="6.14551">
        <ele>262</ele>
        <time>2020-06-01T09:37:50Z</time>
      </trkpt>
      <trkpt lat="47.67847" lon="6.14554">
        <ele>262</ele>
        <time>2020-06-01T09:37:51Z</time>
      </trkpt>
      <trkpt lat="47.67841" lon="6.14558">
        <ele>262</ele>
        <time>2020-06-01T09:37:52Z</time>
      </trkpt>
      <trkpt lat="47.67836" lon="6.14561">
        <ele>262</ele>
        <time>2020-06-01T09:37:53Z</time>
      </trkpt>
      <trkpt lat="47.6783" lon="6.14565">
        <ele>261</ele>
        <time>2020-06-01T09:37:54Z</time>
      </trkpt>
      <trkpt lat="47.67824" lon="6.14569">
        <ele>261</ele>
        <time>2020-06-01T09:37:55Z</time>
      </trkpt>
      <trkpt lat="47.67818" lon="6.14573">
        <ele>261</ele>
        <time>2020-06-01T09:37:56Z</time>
      </trkpt>
      <trkpt lat="47.67812" lon="6.14576">
        <ele>261</ele>
        <time>2020-06-01T09:37:57Z</time>
      </trkpt>
      <trkpt lat="47.67807" lon="6.14579">
        <ele>261</ele>
        <time>2020-06-01T09:37:58Z</time>
      </trkpt>
      <trkpt lat="47.67801" lon="6.14583">
        <ele>261</ele>
        <time>2020-06-01T09:37:59Z</time>
      </trkpt>
      <trkpt lat="47.67796" lon="6.14585">
        <ele>260</ele>
        <time>2020-06-01T09:38:00Z</time>
      </trkpt>
      <trkpt lat="47.67791" lon="6.14588">
        <ele>260</ele>
        <time>2020-06-01T09:38:01Z</time>
      </trkpt>
      <trkpt lat="47.67786" lon="6.14592">
        <ele>260</ele>
        <time>2020-06-01T09:38:02Z</time>
      </trkpt>
      <trkpt lat="47.67781" lon="6.14595">
        <ele>260</ele>
        <time>2020-06-01T09:38:03Z</time>
      </trkpt>
      <trkpt lat="47.67776" lon="6.14597">
        <ele>260</ele>
        <time>2020-06-01T09:38:04Z</time>
      </trkpt>
      <trkpt lat="47.67772" lon="6.146">
        <ele>260</ele>
        <time>2020-06-01T09:38:05Z</time>
      </trkpt>
      <trkpt lat="47.67767" lon="6.14602">
        <ele>260</ele>
        <time>2020-06-01T09:38:06Z</time>
      </trkpt>
      <trkpt lat="47.67762" lon="6.14604">
        <ele>260</ele>
        <time>2020-06-01T09:38:07Z</time>
      </trkpt>
      <trkpt lat="47.67758" lon="6.14608">
        <ele>260</ele>
        <time>2020-06-01T09:38:08Z</time>
      </trkpt>
      <trkpt lat="47.67754" lon="6.14611">
        <ele>260</ele>
        <time>2020-06-01T09:38:09Z</time>
      </trkpt>
      <trkpt lat="47.67746" lon="6.14617">
        <ele>259</ele>
        <time>2020-06-01T09:38:11Z</time>
      </trkpt>
      <trkpt lat="47.67742" lon="6.1462">
        <ele>259</ele>
        <time>2020-06-01T09:38:12Z</time>
      </trkpt>
      <trkpt lat="47.67734" lon="6.14626">
        <ele>259</ele>
        <time>2020-06-01T09:38:14Z</time>
      </trkpt>
      <trkpt lat="47.67726" lon="6.1463">
        <ele>259</ele>
        <time>2020-06-01T09:38:16Z</time>
      </trkpt>
      <trkpt lat="47.67718" lon="6.14635">
        <ele>259</ele>
        <time>2020-06-01T09:38:18Z</time>
      </trkpt>
      <trkpt lat="47.67711" lon="6.14639">
        <ele>259</ele>
        <time>2020-06-01T09:38:20Z</time>
      </trkpt>
      <trkpt lat="47.67706" lon="6.14642">
        <ele>259</ele>
        <time>2020-06-01T09:38:21Z</time>
      </trkpt>
      <trkpt lat="47.677" lon="6.14646">
        <ele>259</ele>
        <time>2020-06-01T09:38:23Z</time>
      </trkpt>
      <trkpt lat="47.67693" lon="6.14651">
        <ele>259</ele>
        <time>2020-06-01T09:38:24Z</time>
      </trkpt>
      <trkpt lat="47.67687" lon="6.14659">
        <ele>259</ele>
        <time>2020-06-01T09:38:26Z</time>
      </trkpt>
      <trkpt lat="47.67683" lon="6.14655">
        <ele>259</ele>
        <time>2020-06-01T09:38:31Z</time>
      </trkpt>
      <trkpt lat="47.67675" lon="6.1466">
        <ele>258</ele>
        <time>2020-06-01T09:38:33Z</time>
      </trkpt>
      <trkpt lat="47.6767" lon="6.14663">
        <ele>258</ele>
        <time>2020-06-01T09:38:35Z</time>
      </trkpt>
      <trkpt lat="47.67666" lon="6.14667">
        <ele>258</ele>
        <time>2020-06-01T09:38:36Z</time>
      </trkpt>
      <trkpt lat="47.67654" lon="6.14675">
        <ele>261</ele>
        <time>2020-06-01T09:38:39Z</time>
      </trkpt>
      <trkpt lat="47.67646" lon="6.14679">
        <ele>262</ele>
        <time>2020-06-01T09:38:41Z</time>
      </trkpt>
      <trkpt lat="47.67634" lon="6.14688">
        <ele>263</ele>
        <time>2020-06-01T09:38:44Z</time>
      </trkpt>
      <trkpt lat="47.67621" lon="6.14697">
        <ele>264</ele>
        <time>2020-06-01T09:38:47Z</time>
      </trkpt>
      <trkpt lat="47.67614" lon="6.14702">
        <ele>265</ele>
        <time>2020-06-01T09:38:49Z</time>
      </trkpt>
      <trkpt lat="47.67604" lon="6.14711">
        <ele>265</ele>
        <time>2020-06-01T09:38:53Z</time>
      </trkpt>
      <trkpt lat="47.67589" lon="6.14724">
        <ele>265</ele>
        <time>2020-06-01T09:38:58Z</time>
      </trkpt>
      <trkpt lat="47.67584" lon="6.14729">
        <ele>265</ele>
        <time>2020-06-01T09:38:59Z</time>
      </trkpt>
      <trkpt lat="47.67579" lon="6.14734">
        <ele>269</ele>
        <time>2020-06-01T09:39:02Z</time>
      </trkpt>
      <trkpt lat="47.67574" lon="6.14738">
        <ele>269</ele>
        <time>2020-06-01T09:39:04Z</time>
      </trkpt>
      <trkpt lat="47.67563" lon="6.14748">
        <ele>270</ele>
        <time>2020-06-01T09:39:07Z</time>
      </trkpt>
      <trkpt lat="47.67559" lon="6.14752">
        <ele>266</ele>
        <time>2020-06-01T09:39:09Z</time>
      </trkpt>
      <trkpt lat="47.6755" lon="6.14759">
        <ele>266</ele>
        <time>2020-06-01T09:39:11Z</time>
      </trkpt>
      <trkpt lat="47.67543" lon="6.14765">
        <ele>267</ele>
        <time>2020-06-01T09:39:13Z</time>
      </trkpt>
      <trkpt lat="47.67536" lon="6.1477">
        <ele>267</ele>
        <time>2020-06-01T09:39:15Z</time>
      </trkpt>
      <trkpt lat="47.67527" lon="6.14778">
        <ele>267</ele>
        <time>2020-06-01T09:39:18Z</time>
      </trkpt>
      <trkpt lat="47.67522" lon="6.14783">
        <ele>267</ele>
        <time>2020-06-01T09:39:19Z</time>
      </trkpt>
      <trkpt lat="47.6751" lon="6.14794">
        <ele>266</ele>
        <time>2020-06-01T09:39:19Z</time>
      </trkpt>
      <trkpt lat="47.67505" lon="6.14799">
        <ele>266</ele>
        <time>2020-06-01T09:39:24Z</time>
      </trkpt>
      <trkpt lat="47.675" lon="6.14804">
        <ele>265</ele>
        <time>2020-06-01T09:39:26Z</time>
      </trkpt>
      <trkpt lat="47.67495" lon="6.1481">
        <ele>270</ele>
        <time>2020-06-01T09:39:28Z</time>
      </trkpt>
      <trkpt lat="47.67489" lon="6.14815">
        <ele>269</ele>
        <time>2020-06-01T09:39:31Z</time>
      </trkpt>
      <trkpt lat="47.67482" lon="6.14821">
        <ele>269</ele>
        <time>2020-06-01T09:39:33Z</time>
      </trkpt>
      <trkpt lat="47.6747" lon="6.14833">
        <ele>270</ele>
        <time>2020-06-01T09:39:35Z</time>
      </trkpt>
      <trkpt lat="47.67465" lon="6.14838">
        <ele>265</ele>
        <time>2020-06-01T09:39:36Z</time>
      </trkpt>
      <trkpt lat="47.6746" lon="6.14843">
        <ele>266</ele>
        <time>2020-06-01T09:39:37Z</time>
      </trkpt>
      <trkpt lat="47.6745" lon="6.14852">
        <ele>266</ele>
        <time>2020-06-01T09:39:41Z</time>
      </trkpt>
      <trkpt lat="47.67443" lon="6.14859">
        <ele>266</ele>
        <time>2020-06-01T09:39:43Z</time>
      </trkpt>
      <trkpt lat="47.67437" lon="6.14865">
        <ele>266</ele>
        <time>2020-06-01T09:39:45Z</time>
      </trkpt>
      <trkpt lat="47.67417" lon="6.14886">
        <ele>269</ele>
        <time>2020-06-01T09:39:45Z</time>
      </trkpt>
      <trkpt lat="47.67412" lon="6.14891">
        <ele>269</ele>
        <time>2020-06-01T09:39:46Z</time>
      </trkpt>
      <trkpt lat="47.67407" lon="6.14895">
        <ele>268</ele>
        <time>2020-06-01T09:39:47Z</time>
      </trkpt>
      <trkpt lat="47.67403" lon="6.14899">
        <ele>268</ele>
        <time>2020-06-01T09:39:48Z</time>
      </trkpt>
      <trkpt lat="47.67398" lon="6.14903">
        <ele>268</ele>
        <time>2020-06-01T09:39:49Z</time>
      </trkpt>
      <trkpt lat="47.67394" lon="6.14907">
        <ele>268</ele>
        <time>2020-06-01T09:39:50Z</time>
      </trkpt>
      <trkpt lat="47.67389" lon="6.14911">
        <ele>268</ele>
        <time>2020-06-01T09:39:51Z</time>
      </trkpt>
      <trkpt lat="47.67385" lon="6.14916">
        <ele>268</ele>
        <time>2020-06-01T09:39:52Z</time>
      </trkpt>
      <trkpt lat="47.67381" lon="6.1492">
        <ele>263</ele>
        <time>2020-06-01T09:39:53Z</time>
      </trkpt>
      <trkpt lat="47.67377" lon="6.14923">
        <ele>263</ele>
        <time>2020-06-01T09:39:54Z</time>
      </trkpt>
      <trkpt lat="47.67373" lon="6.14927">
        <ele>263</ele>
        <time>2020-06-01T09:39:55Z</time>
      </trkpt>
      <trkpt lat="47.67369" lon="6.1493">
        <ele>263</ele>
        <time>2020-06-01T09:39:56Z</time>
      </trkpt>
      <trkpt lat="47.67365" lon="6.14934">
        <ele>263</ele>
        <time>2020-06-01T09:39:57Z</time>
      </trkpt>
      <trkpt lat="47.67361" lon="6.14937">
        <ele>263</ele>
        <time>2020-06-01T09:39:58Z</time>
      </trkpt>
      <trkpt lat="47.67357" lon="6.14941">
        <ele>263</ele>
        <time>2020-06-01T09:39:59Z</time>
      </trkpt>
      <trkpt lat="47.67353" lon="6.14945">
        <ele>263</ele>
        <time>2020-06-01T09:40:00Z</time>
      </trkpt>
      <trkpt lat="47.67349" lon="6.14949">
        <ele>263</ele>
        <time>2020-06-01T09:40:01Z</time>
      </trkpt>
      <trkpt lat="47.67344" lon="6.14953">
        <ele>263</ele>
        <time>2020-06-01T09:40:02Z</time>
      </trkpt>
      <trkpt lat="47.6734" lon="6.14957">
        <ele>263</ele>
        <time>2020-06-01T09:40:04Z</time>
      </trkpt>
      <trkpt lat="47.67336" lon="6.14961">
        <ele>263</ele>
        <time>2020-06-01T09:40:05Z</time>
      </trkpt>
      <trkpt lat="47.67331" lon="6.14964">
        <ele>262</ele>
        <time>2020-06-01T09:40:06Z</time>
      </trkpt>
      <trkpt lat="47.67326" lon="6.14968">
        <ele>262</ele>
        <time>2020-06-01T09:40:07Z</time>
      </trkpt>
      <trkpt lat="47.67321" lon="6.14972">
        <ele>262</ele>
        <time>2020-06-01T09:40:08Z</time>
      </trkpt>
      <trkpt lat="47.67317" lon="6.14976">
        <ele>262</ele>
        <time>2020-06-01T09:40:09Z</time>
      </trkpt>
      <trkpt lat="47.67312" lon="6.14979">
        <ele>262</ele>
        <time>2020-06-01T09:40:10Z</time>
      </trkpt>
      <trkpt lat="47.67307" lon="6.14983">
        <ele>262</ele>
        <time>2020-06-01T09:40:11Z</time>
      </trkpt>
      <trkpt lat="47.67302" lon="6.14987">
        <ele>262</ele>
        <time>2020-06-01T09:40:12Z</time>
      </trkpt>
      <trkpt lat="47.67297" lon="6.14991">
        <ele>262</ele>
        <time>2020-06-01T09:40:13Z</time>
      </trkpt>
      <trkpt lat="47.67293" lon="6.14995">
        <ele>261</ele>
        <time>2020-06-01T09:40:14Z</time>
      </trkpt>
      <trkpt lat="47.67288" lon="6.14999">
        <ele>261</ele>
        <time>2020-06-01T09:40:15Z</time>
      </trkpt>
      <trkpt lat="47.67284" lon="6.15003">
        <ele>260</ele>
        <time>2020-06-01T09:40:16Z</time>
      </trkpt>
      <trkpt lat="47.67279" lon="6.15006">
        <ele>260</ele>
        <time>2020-06-01T09:40:17Z</time>
      </trkpt>
      <trkpt lat="47.67275" lon="6.1501">
        <ele>260</ele>
        <time>2020-06-01T09:40:18Z</time>
      </trkpt>
      <trkpt lat="47.6727" lon="6.15013">
        <ele>260</ele>
        <time>2020-06-01T09:40:19Z</time>
      </trkpt>
      <trkpt lat="47.67266" lon="6.15017">
        <ele>260</ele>
        <time>2020-06-01T09:40:20Z</time>
      </trkpt>
      <trkpt lat="47.67261" lon="6.1502">
        <ele>260</ele>
        <time>2020-06-01T09:40:21Z</time>
      </trkpt>
      <trkpt lat="47.67257" lon="6.15024">
        <ele>260</ele>
        <time>2020-06-01T09:40:22Z</time>
      </trkpt>
      <trkpt lat="47.67253" lon="6.15027">
        <ele>260</ele>
        <time>2020-06-01T09:40:23Z</time>
      </trkpt>
      <trkpt lat="47.67249" lon="6.15031">
        <ele>262</ele>
        <time>2020-06-01T09:40:24Z</time>
      </trkpt>
      <trkpt lat="47.67242" lon="6.15037">
        <ele>262</ele>
        <time>2020-06-01T09:40:26Z</time>
      </trkpt>
      <trkpt lat="47.67235" lon="6.15042">
        <ele>262</ele>
        <time>2020-06-01T09:40:28Z</time>
      </trkpt>
      <trkpt lat="47.67228" lon="6.15048">
        <ele>262</ele>
        <time>2020-06-01T09:40:30Z</time>
      </trkpt>
      <trkpt lat="47.67222" lon="6.15054">
        <ele>263</ele>
        <time>2020-06-01T09:40:32Z</time>
      </trkpt>
      <trkpt lat="47.67216" lon="6.15059">
        <ele>263</ele>
        <time>2020-06-01T09:40:34Z</time>
      </trkpt>
      <trkpt lat="47.6721" lon="6.15064">
        <ele>263</ele>
        <time>2020-06-01T09:40:36Z</time>
      </trkpt>
      <trkpt lat="47.67204" lon="6.15068">
        <ele>263</ele>
        <time>2020-06-01T09:40:38Z</time>
      </trkpt>
      <trkpt lat="47.67197" lon="6.15072">
        <ele>263</ele>
        <time>2020-06-01T09:40:43Z</time>
      </trkpt>
      <trkpt lat="47.67187" lon="6.15082">
        <ele>264</ele>
        <time>2020-06-01T09:40:46Z</time>
      </trkpt>
      <trkpt lat="47.67178" lon="6.15089">
        <ele>263</ele>
        <time>2020-06-01T09:40:49Z</time>
      </trkpt>
      <trkpt lat="47.67167" lon="6.15098">
        <ele>263</ele>
        <time>2020-06-01T09:40:52Z</time>
      </trkpt>
      <trkpt lat="47.67157" lon="6.15106">
        <ele>264</ele>
        <time>2020-06-01T09:40:56Z</time>
      </trkpt>
      <trkpt lat="47.67151" lon="6.1511">
        <ele>263</ele>
        <time>2020-06-01T09:40:57Z</time>
      </trkpt>
      <trkpt lat="47.67143" lon="6.15114">
        <ele>263</ele>
        <time>2020-06-01T09:40:59Z</time>
      </trkpt>
      <trkpt lat="47.67131" lon="6.1512">
        <ele>263</ele>
        <time>2020-06-01T09:41:02Z</time>
      </trkpt>
      <trkpt lat="47.67118" lon="6.15125">
        <ele>263</ele>
        <time>2020-06-01T09:41:06Z</time>
      </trkpt>
      <trkpt lat="47.67114" lon="6.15127">
        <ele>263</ele>
        <time>2020-06-01T09:41:07Z</time>
      </trkpt>
      <trkpt lat="47.67105" lon="6.15129">
        <ele>263</ele>
        <time>2020-06-01T09:41:09Z</time>
      </trkpt>
      <trkpt lat="47.67098" lon="6.15132">
        <ele>263</ele>
        <time>2020-06-01T09:41:10Z</time>
      </trkpt>
      <trkpt lat="47.6708" lon="6.15139">
        <ele>263</ele>
        <time>2020-06-01T09:41:14Z</time>
      </trkpt>
      <trkpt lat="47.67075" lon="6.15141">
        <ele>263</ele>
        <time>2020-06-01T09:41:15Z</time>
      </trkpt>
      <trkpt lat="47.6707" lon="6.15142">
        <ele>263</ele>
        <time>2020-06-01T09:41:17Z</time>
      </trkpt>
      <trkpt lat="47.67042" lon="6.15152">
        <ele>263</ele>
        <time>2020-06-01T09:41:18Z</time>
      </trkpt>
      <trkpt lat="47.67036" lon="6.15154">
        <ele>263</ele>
        <time>2020-06-01T09:41:19Z</time>
      </trkpt>
      <trkpt lat="47.67031" lon="6.15156">
        <ele>263</ele>
        <time>2020-06-01T09:41:20Z</time>
      </trkpt>
      <trkpt lat="47.67025" lon="6.15157">
        <ele>263</ele>
        <time>2020-06-01T09:41:21Z</time>
      </trkpt>
      <trkpt lat="47.6702" lon="6.15159">
        <ele>263</ele>
        <time>2020-06-01T09:41:22Z</time>
      </trkpt>
      <trkpt lat="47.67014" lon="6.1516">
        <ele>263</ele>
        <time>2020-06-01T09:41:23Z</time>
      </trkpt>
      <trkpt lat="47.6701" lon="6.1516">
        <ele>263</ele>
        <time>2020-06-01T09:41:24Z</time>
      </trkpt>
      <trkpt lat="47.67005" lon="6.15158">
        <ele>263</ele>
        <time>2020-06-01T09:41:25Z</time>
      </trkpt>
      <trkpt lat="47.67" lon="6.15157">
        <ele>263</ele>
        <time>2020-06-01T09:41:26Z</time>
      </trkpt>
      <trkpt lat="47.66992" lon="6.15155">
        <ele>264</ele>
        <time>2020-06-01T09:41:28Z</time>
      </trkpt>
      <trkpt lat="47.66984" lon="6.15152">
        <ele>264</ele>
        <time>2020-06-01T09:41:30Z</time>
      </trkpt>
      <trkpt lat="47.66979" lon="6.1515">
        <ele>264</ele>
        <time>2020-06-01T09:41:32Z</time>
      </trkpt>
      <trkpt lat="47.66973" lon="6.15148">
        <ele>264</ele>
        <time>2020-06-01T09:41:34Z</time>
      </trkpt>
      <trkpt lat="47.66968" lon="6.15144">
        <ele>264</ele>
        <time>2020-06-01T09:41:36Z</time>
      </trkpt>
      <trkpt lat="47.66963" lon="6.15136">
        <ele>264</ele>
        <time>2020-06-01T09:41:39Z</time>
      </trkpt>
      <trkpt lat="47.66957" lon="6.15135">
        <ele>264</ele>
        <time>2020-06-01T09:41:42Z</time>
      </trkpt>
      <trkpt lat="47.66952" lon="6.15131">
        <ele>264</ele>
        <time>2020-06-01T09:41:47Z</time>
      </trkpt>
      <trkpt lat="47.66942" lon="6.15121">
        <ele>264</ele>
        <time>2020-06-01T09:41:49Z</time>
      </trkpt>
      <trkpt lat="47.66937" lon="6.15116">
        <ele>264</ele>
        <time>2020-06-01T09:41:51Z</time>
      </trkpt>
      <trkpt lat="47.66933" lon="6.15111">
        <ele>264</ele>
        <time>2020-06-01T09:41:55Z</time>
      </trkpt>
      <trkpt lat="47.66929" lon="6.15106">
        <ele>263</ele>
        <time>2020-06-01T09:41:57Z</time>
      </trkpt>
      <trkpt lat="47.66916" lon="6.15084">
        <ele>262</ele>
        <time>2020-06-01T09:42:01Z</time>
      </trkpt>
      <trkpt lat="47.66895" lon="6.15046">
        <ele>261</ele>
        <time>2020-06-01T09:42:03Z</time>
      </trkpt>
      <trkpt lat="47.66891" lon="6.15039">
        <ele>261</ele>
        <time>2020-06-01T09:42:04Z</time>
      </trkpt>
      <trkpt lat="47.66887" lon="6.15032">
        <ele>261</ele>
        <time>2020-06-01T09:42:05Z</time>
      </trkpt>
      <trkpt lat="47.66883" lon="6.15025">
        <ele>261</ele>
        <time>2020-06-01T09:42:06Z</time>
      </trkpt>
      <trkpt lat="47.66879" lon="6.15018">
        <ele>260</ele>
        <time>2020-06-01T09:42:07Z</time>
      </trkpt>
      <trkpt lat="47.66875" lon="6.15011">
        <ele>260</ele>
        <time>2020-06-01T09:42:08Z</time>
      </trkpt>
      <trkpt lat="47.66871" lon="6.15004">
        <ele>260</ele>
        <time>2020-06-01T09:42:09Z</time>
      </trkpt>
      <trkpt lat="47.66866" lon="6.14997">
        <ele>260</ele>
        <time>2020-06-01T09:42:10Z</time>
      </trkpt>
      <trkpt lat="47.66862" lon="6.14991">
        <ele>259</ele>
        <time>2020-06-01T09:42:11Z</time>
      </trkpt>
      <trkpt lat="47.66858" lon="6.14985">
        <ele>259</ele>
        <time>2020-06-01T09:42:12Z</time>
      </trkpt>
      <trkpt lat="47.66853" lon="6.14978">
        <ele>259</ele>
        <time>2020-06-01T09:42:13Z</time>
      </trkpt>
      <trkpt lat="47.66849" lon="6.14971">
        <ele>259</ele>
        <time>2020-06-01T09:42:14Z</time>
      </trkpt>
      <trkpt lat="47.66844" lon="6.14965">
        <ele>259</ele>
        <time>2020-06-01T09:42:15Z</time>
      </trkpt>
      <trkpt lat="47.6684" lon="6.14958">
        <ele>259</ele>
        <time>2020-06-01T09:42:16Z</time>
      </trkpt>
      <trkpt lat="47.66835" lon="6.14951">
        <ele>259</ele>
        <time>2020-06-01T09:42:17Z</time>
      </trkpt>
      <trkpt lat="47.6683" lon="6.14944">
        <ele>258</ele>
        <time>2020-06-01T09:42:18Z</time>
      </trkpt>
      <trkpt lat="47.66825" lon="6.14937">
        <ele>258</ele>
        <time>2020-06-01T09:42:19Z</time>
      </trkpt>
      <trkpt lat="47.6682" lon="6.14931">
        <ele>258</ele>
        <time>2020-06-01T09:42:20Z</time>
      </trkpt>
      <trkpt lat="47.66815" lon="6.14925">
        <ele>258</ele>
        <time>2020-06-01T09:42:21Z</time>
      </trkpt>
      <trkpt lat="47.6681" lon="6.14919">
        <ele>258</ele>
        <time>2020-06-01T09:42:22Z</time>
      </trkpt>
      <trkpt lat="47.66805" lon="6.14913">
        <ele>258</ele>
        <time>2020-06-01T09:42:23Z</time>
      </trkpt>
      <trkpt lat="47.668" lon="6.14906">
        <ele>258</ele>
        <time>2020-06-01T09:42:24Z</time>
      </trkpt>
      <trkpt lat="47.66794" lon="6.149">
        <ele>258</ele>
        <time>2020-06-01T09:42:25Z</time>
      </trkpt>
      <trkpt lat="47.66789" lon="6.14895">
        <ele>258</ele>
        <time>2020-06-01T09:42:26Z</time>
      </trkpt>
      <trkpt lat="47.66785" lon="6.14891">
        <ele>258</ele>
        <time>2020-06-01T09:42:27Z</time>
      </trkpt>
      <trkpt lat="47.66781" lon="6.14886">
        <ele>258</ele>
        <time>2020-06-01T09:42:28Z</time>
      </trkpt>
      <trkpt lat="47.66777" lon="6.14881">
        <ele>258</ele>
        <time>2020-06-01T09:42:29Z</time>
      </trkpt>
      <trkpt lat="47.66773" lon="6.14877">
        <ele>258</ele>
        <time>2020-06-01T09:42:30Z</time>
      </trkpt>
      <trkpt lat="47.66769" lon="6.14873">
        <ele>258</ele>
        <time>2020-06-01T09:42:31Z</time>
      </trkpt>
      <trkpt lat="47.66765" lon="6.14869">
        <ele>258</ele>
        <time>2020-06-01T09:42:32Z</time>
      </trkpt>
      <trkpt lat="47.66761" lon="6.14864">
        <ele>258</ele>
        <time>2020-06-01T09:42:33Z</time>
      </trkpt>
      <trkpt lat="47.66758" lon="6.1486">
        <ele>258</ele>
        <time>2020-06-01T09:42:34Z</time>
      </trkpt>
      <trkpt lat="47.66754" lon="6.14855">
        <ele>258</ele>
        <time>2020-06-01T09:42:35Z</time>
      </trkpt>
      <trkpt lat="47.66751" lon="6.1485">
        <ele>258</ele>
        <time>2020-06-01T09:42:36Z</time>
      </trkpt>
      <trkpt lat="47.66747" lon="6.14846">
        <ele>256</ele>
        <time>2020-06-01T09:42:37Z</time>
      </trkpt>
      <trkpt lat="47.66744" lon="6.14842">
        <ele>257</ele>
        <time>2020-06-01T09:42:38Z</time>
      </trkpt>
      <trkpt lat="47.6674" lon="6.14837">
        <ele>256</ele>
        <time>2020-06-01T09:42:39Z</time>
      </trkpt>
      <trkpt lat="47.66736" lon="6.14833">
        <ele>257</ele>
        <time>2020-06-01T09:42:40Z</time>
      </trkpt>
      <trkpt lat="47.66732" lon="6.14829">
        <ele>257</ele>
        <time>2020-06-01T09:42:41Z</time>
      </trkpt>
      <trkpt lat="47.66727" lon="6.14825">
        <ele>257</ele>
        <time>2020-06-01T09:42:42Z</time>
      </trkpt>
      <trkpt lat="47.66723" lon="6.1482">
        <ele>257</ele>
        <time>2020-06-01T09:42:43Z</time>
      </trkpt>
      <trkpt lat="47.66719" lon="6.14816">
        <ele>257</ele>
        <time>2020-06-01T09:42:44Z</time>
      </trkpt>
      <trkpt lat="47.66715" lon="6.14812">
        <ele>257</ele>
        <time>2020-06-01T09:42:45Z</time>
      </trkpt>
      <trkpt lat="47.66711" lon="6.14808">
        <ele>257</ele>
        <time>2020-06-01T09:42:46Z</time>
      </trkpt>
      <trkpt lat="47.66706" lon="6.14803">
        <ele>257</ele>
        <time>2020-06-01T09:42:47Z</time>
      </trkpt>
      <trkpt lat="47.66702" lon="6.14798">
        <ele>257</ele>
        <time>2020-06-01T09:42:48Z</time>
      </trkpt>
      <trkpt lat="47.66697" lon="6.14794">
        <ele>257</ele>
        <time>2020-06-01T09:42:49Z</time>
      </trkpt>
      <trkpt lat="47.66693" lon="6.14791">
        <ele>257</ele>
        <time>2020-06-01T09:42:50Z</time>
      </trkpt>
      <trkpt lat="47.66687" lon="6.1479">
        <ele>257</ele>
        <time>2020-06-01T09:42:51Z</time>
      </trkpt>
      <trkpt lat="47.66682" lon="6.14792">
        <ele>257</ele>
        <time>2020-06-01T09:42:52Z</time>
      </trkpt>
      <trkpt lat="47.66678" lon="6.14798">
        <ele>257</ele>
        <time>2020-06-01T09:42:53Z</time>
      </trkpt>
      <trkpt lat="47.66676" lon="6.14805">
        <ele>256</ele>
        <time>2020-06-01T09:42:54Z</time>
      </trkpt>
      <trkpt lat="47.66674" lon="6.14812">
        <ele>256</ele>
        <time>2020-06-01T09:42:55Z</time>
      </trkpt>
      <trkpt lat="47.66672" lon="6.14819">
        <ele>256</ele>
        <time>2020-06-01T09:42:56Z</time>
      </trkpt>
      <trkpt lat="47.6667" lon="6.14826">
        <ele>256</ele>
        <time>2020-06-01T09:42:57Z</time>
      </trkpt>
      <trkpt lat="47.66668" lon="6.14833">
        <ele>255</ele>
        <time>2020-06-01T09:42:58Z</time>
      </trkpt>
      <trkpt lat="47.66665" lon="6.1484">
        <ele>254</ele>
        <time>2020-06-01T09:42:59Z</time>
      </trkpt>
      <trkpt lat="47.66663" lon="6.14847">
        <ele>254</ele>
        <time>2020-06-01T09:43:00Z</time>
      </trkpt>
      <trkpt lat="47.6666" lon="6.14855">
        <ele>253</ele>
        <time>2020-06-01T09:43:01Z</time>
      </trkpt>
      <trkpt lat="47.66658" lon="6.14863">
        <ele>253</ele>
        <time>2020-06-01T09:43:02Z</time>
      </trkpt>
      <trkpt lat="47.66655" lon="6.14871">
        <ele>253</ele>
        <time>2020-06-01T09:43:03Z</time>
      </trkpt>
      <trkpt lat="47.66652" lon="6.14878">
        <ele>253</ele>
        <time>2020-06-01T09:43:04Z</time>
      </trkpt>
      <trkpt lat="47.66649" lon="6.14887">
        <ele>253</ele>
        <time>2020-06-01T09:43:05Z</time>
      </trkpt>
      <trkpt lat="47.66646" lon="6.14895">
        <ele>252</ele>
        <time>2020-06-01T09:43:06Z</time>
      </trkpt>
      <trkpt lat="47.66644" lon="6.14904">
        <ele>252</ele>
        <time>2020-06-01T09:43:07Z</time>
      </trkpt>
      <trkpt lat="47.66641" lon="6.14914">
        <ele>252</ele>
        <time>2020-06-01T09:43:08Z</time>
      </trkpt>
      <trkpt lat="47.66637" lon="6.14923">
        <ele>251</ele>
        <time>2020-06-01T09:43:09Z</time>
      </trkpt>
      <trkpt lat="47.66633" lon="6.14932">
        <ele>250</ele>
        <time>2020-06-01T09:43:10Z</time>
      </trkpt>
      <trkpt lat="47.66629" lon="6.1494">
        <ele>250</ele>
        <time>2020-06-01T09:43:11Z</time>
      </trkpt>
      <trkpt lat="47.66623" lon="6.14948">
        <ele>250</ele>
        <time>2020-06-01T09:43:12Z</time>
      </trkpt>
      <trkpt lat="47.66618" lon="6.14956">
        <ele>250</ele>
        <time>2020-06-01T09:43:13Z</time>
      </trkpt>
      <trkpt lat="47.66613" lon="6.14965">
        <ele>249</ele>
        <time>2020-06-01T09:43:14Z</time>
      </trkpt>
      <trkpt lat="47.66608" lon="6.14973">
        <ele>249</ele>
        <time>2020-06-01T09:43:15Z</time>
      </trkpt>
      <trkpt lat="47.66603" lon="6.14981">
        <ele>249</ele>
        <time>2020-06-01T09:43:16Z</time>
      </trkpt>
      <trkpt lat="47.66599" lon="6.14989">
        <ele>248</ele>
        <time>2020-06-01T09:43:17Z</time>
      </trkpt>
      <trkpt lat="47.66594" lon="6.14997">
        <ele>247</ele>
        <time>2020-06-01T09:43:18Z</time>
      </trkpt>
      <trkpt lat="47.66589" lon="6.15004">
        <ele>247</ele>
        <time>2020-06-01T09:43:19Z</time>
      </trkpt>
      <trkpt lat="47.66584" lon="6.15012">
        <ele>247</ele>
        <time>2020-06-01T09:43:20Z</time>
      </trkpt>
      <trkpt lat="47.6658" lon="6.15019">
        <ele>245</ele>
        <time>2020-06-01T09:43:21Z</time>
      </trkpt>
      <trkpt lat="47.66575" lon="6.15025">
        <ele>245</ele>
        <time>2020-06-01T09:43:22Z</time>
      </trkpt>
      <trkpt lat="47.66572" lon="6.15032">
        <ele>245</ele>
        <time>2020-06-01T09:43:23Z</time>
      </trkpt>
      <trkpt lat="47.66569" lon="6.15037">
        <ele>245</ele>
        <time>2020-06-01T09:43:24Z</time>
      </trkpt>
      <trkpt lat="47.66565" lon="6.15042">
        <ele>244</ele>
        <time>2020-06-01T09:43:25Z</time>
      </trkpt>
      <trkpt lat="47.66561" lon="6.15045">
        <ele>244</ele>
        <time>2020-06-01T09:43:26Z</time>
      </trkpt>
      <trkpt lat="47.66556" lon="6.15047">
        <ele>244</ele>
        <time>2020-06-01T09:43:27Z</time>
      </trkpt>
      <trkpt lat="47.66551" lon="6.15048">
        <ele>244</ele>
        <time>2020-06-01T09:43:28Z</time>
      </trkpt>
      <trkpt lat="47.66545" lon="6.15048">
        <ele>244</ele>
        <time>2020-06-01T09:43:29Z</time>
      </trkpt>
      <trkpt lat="47.66539" lon="6.15048">
        <ele>244</ele>
        <time>2020-06-01T09:43:30Z</time>
      </trkpt>
      <trkpt lat="47.66533" lon="6.15048">
        <ele>243</ele>
        <time>2020-06-01T09:43:31Z</time>
      </trkpt>
      <trkpt lat="47.66527" lon="6.15048">
        <ele>243</ele>
        <time>2020-06-01T09:43:32Z</time>
      </trkpt>
      <trkpt lat="47.66521" lon="6.15048">
        <ele>243</ele>
        <time>2020-06-01T09:43:33Z</time>
      </trkpt>
      <trkpt lat="47.66515" lon="6.15048">
        <ele>243</ele>
        <time>2020-06-01T09:43:34Z</time>
      </trkpt>
      <trkpt lat="47.66509" lon="6.15047">
        <ele>243</ele>
        <time>2020-06-01T09:43:35Z</time>
      </trkpt>
      <trkpt lat="47.66503" lon="6.15047">
        <ele>243</ele>
        <time>2020-06-01T09:43:36Z</time>
      </trkpt>
      <trkpt lat="47.66497" lon="6.15046">
        <ele>241</ele>
        <time>2020-06-01T09:43:37Z</time>
      </trkpt>
      <trkpt lat="47.66492" lon="6.15045">
        <ele>241</ele>
        <time>2020-06-01T09:43:38Z</time>
      </trkpt>
      <trkpt lat="47.66486" lon="6.15043">
        <ele>241</ele>
        <time>2020-06-01T09:43:39Z</time>
      </trkpt>
      <trkpt lat="47.66481" lon="6.1504">
        <ele>241</ele>
        <time>2020-06-01T09:43:40Z</time>
      </trkpt>
      <trkpt lat="47.66476" lon="6.15037">
        <ele>241</ele>
        <time>2020-06-01T09:43:41Z</time>
      </trkpt>
      <trkpt lat="47.66472" lon="6.15034">
        <ele>241</ele>
        <time>2020-06-01T09:43:42Z</time>
      </trkpt>
      <trkpt lat="47.66468" lon="6.15032">
        <ele>241</ele>
        <time>2020-06-01T09:43:43Z</time>
      </trkpt>
      <trkpt lat="47.6646" lon="6.1503">
        <ele>241</ele>
        <time>2020-06-01T09:43:45Z</time>
      </trkpt>
      <trkpt lat="47.66452" lon="6.1503">
        <ele>241</ele>
        <time>2020-06-01T09:43:47Z</time>
      </trkpt>
      <trkpt lat="47.66445" lon="6.15032">
        <ele>241</ele>
        <time>2020-06-01T09:43:49Z</time>
      </trkpt>
      <trkpt lat="47.66438" lon="6.15034">
        <ele>241</ele>
        <time>2020-06-01T09:43:51Z</time>
      </trkpt>
      <trkpt lat="47.6643" lon="6.15037">
        <ele>241</ele>
        <time>2020-06-01T09:43:53Z</time>
      </trkpt>
      <trkpt lat="47.66422" lon="6.15038">
        <ele>240</ele>
        <time>2020-06-01T09:43:56Z</time>
      </trkpt>
      <trkpt lat="47.66416" lon="6.15039">
        <ele>240</ele>
        <time>2020-06-01T09:43:57Z</time>
      </trkpt>
      <trkpt lat="47.6641" lon="6.15041">
        <ele>240</ele>
        <time>2020-06-01T09:43:59Z</time>
      </trkpt>
      <trkpt lat="47.66403" lon="6.15043">
        <ele>240</ele>
        <time>2020-06-01T09:44:01Z</time>
      </trkpt>
      <trkpt lat="47.66397" lon="6.15045">
        <ele>240</ele>
        <time>2020-06-01T09:44:05Z</time>
      </trkpt>
      <trkpt lat="47.66387" lon="6.15048">
        <ele>239</ele>
        <time>2020-06-01T09:44:09Z</time>
      </trkpt>
      <trkpt lat="47.66376" lon="6.1505">
        <ele>239</ele>
        <time>2020-06-01T09:44:12Z</time>
      </trkpt>
      <trkpt lat="47.66369" lon="6.1505">
        <ele>239</ele>
        <time>2020-06-01T09:44:13Z</time>
      </trkpt>
      <trkpt lat="47.66361" lon="6.15051">
        <ele>239</ele>
        <time>2020-06-01T09:44:16Z</time>
      </trkpt>
      <trkpt lat="47.66348" lon="6.15052">
        <ele>239</ele>
        <time>2020-06-01T09:44:19Z</time>
      </trkpt>
      <trkpt lat="47.66341" lon="6.15052">
        <ele>239</ele>
        <time>2020-06-01T09:44:20Z</time>
      </trkpt>
      <trkpt lat="47.66324" lon="6.15048">
        <ele>238</ele>
        <time>2020-06-01T09:44:21Z</time>
      </trkpt>
      <trkpt lat="47.66319" lon="6.15047">
        <ele>238</ele>
        <time>2020-06-01T09:44:22Z</time>
      </trkpt>
      <trkpt lat="47.66314" lon="6.15046">
        <ele>238</ele>
        <time>2020-06-01T09:44:23Z</time>
      </trkpt>
      <trkpt lat="47.6631" lon="6.15045">
        <ele>238</ele>
        <time>2020-06-01T09:44:24Z</time>
      </trkpt>
      <trkpt lat="47.66305" lon="6.15044">
        <ele>238</ele>
        <time>2020-06-01T09:44:25Z</time>
      </trkpt>
      <trkpt lat="47.66301" lon="6.15043">
        <ele>238</ele>
        <time>2020-06-01T09:44:26Z</time>
      </trkpt>
      <trkpt lat="47.66296" lon="6.15043">
        <ele>238</ele>
        <time>2020-06-01T09:44:27Z</time>
      </trkpt>
      <trkpt lat="47.66291" lon="6.15042">
        <ele>237</ele>
        <time>2020-06-01T09:44:28Z</time>
      </trkpt>
      <trkpt lat="47.66286" lon="6.1504">
        <ele>237</ele>
        <time>2020-06-01T09:44:29Z</time>
      </trkpt>
      <trkpt lat="47.6628" lon="6.15039">
        <ele>237</ele>
        <time>2020-06-01T09:44:30Z</time>
      </trkpt>
      <trkpt lat="47.66275" lon="6.15038">
        <ele>237</ele>
        <time>2020-06-01T09:44:31Z</time>
      </trkpt>
      <trkpt lat="47.66269" lon="6.15037">
        <ele>237</ele>
        <time>2020-06-01T09:44:32Z</time>
      </trkpt>
      <trkpt lat="47.66264" lon="6.15036">
        <ele>237</ele>
        <time>2020-06-01T09:44:33Z</time>
      </trkpt>
      <trkpt lat="47.66258" lon="6.15035">
        <ele>237</ele>
        <time>2020-06-01T09:44:34Z</time>
      </trkpt>
      <trkpt lat="47.66252" lon="6.15034">
        <ele>237</ele>
        <time>2020-06-01T09:44:35Z</time>
      </trkpt>
      <trkpt lat="47.66246" lon="6.15033">
        <ele>234</ele>
        <time>2020-06-01T09:44:36Z</time>
      </trkpt>
      <trkpt lat="47.66239" lon="6.15031">
        <ele>234</ele>
        <time>2020-06-01T09:44:37Z</time>
      </trkpt>
      <trkpt lat="47.66233" lon="6.1503">
        <ele>234</ele>
        <time>2020-06-01T09:44:38Z</time>
      </trkpt>
      <trkpt lat="47.66226" lon="6.15029">
        <ele>234</ele>
        <time>2020-06-01T09:44:39Z</time>
      </trkpt>
      <trkpt lat="47.6622" lon="6.15027">
        <ele>234</ele>
        <time>2020-06-01T09:44:40Z</time>
      </trkpt>
      <trkpt lat="47.66213" lon="6.15026">
        <ele>234</ele>
        <time>2020-06-01T09:44:41Z</time>
      </trkpt>
      <trkpt lat="47.66206" lon="6.15025">
        <ele>233</ele>
        <time>2020-06-01T09:44:42Z</time>
      </trkpt>
      <trkpt lat="47.66198" lon="6.15024">
        <ele>233</ele>
        <time>2020-06-01T09:44:43Z</time>
      </trkpt>
      <trkpt lat="47.66191" lon="6.15022">
        <ele>233</ele>
        <time>2020-06-01T09:44:44Z</time>
      </trkpt>
      <trkpt lat="47.66183" lon="6.15021">
        <ele>233</ele>
        <time>2020-06-01T09:44:45Z</time>
      </trkpt>
      <trkpt lat="47.66175" lon="6.1502">
        <ele>232</ele>
        <time>2020-06-01T09:44:46Z</time>
      </trkpt>
      <trkpt lat="47.66167" lon="6.15019">
        <ele>230</ele>
        <time>2020-06-01T09:44:47Z</time>
      </trkpt>
      <trkpt lat="47.66158" lon="6.15019">
        <ele>230</ele>
        <time>2020-06-01T09:44:48Z</time>
      </trkpt>
      <trkpt lat="47.66149" lon="6.15019">
        <ele>230</ele>
        <time>2020-06-01T09:44:49Z</time>
      </trkpt>
      <trkpt lat="47.6614" lon="6.15019">
        <ele>229</ele>
        <time>2020-06-01T09:44:50Z</time>
      </trkpt>
      <trkpt lat="47.66131" lon="6.15019">
        <ele>229</ele>
        <time>2020-06-01T09:44:51Z</time>
      </trkpt>
      <trkpt lat="47.66121" lon="6.15019">
        <ele>229</ele>
        <time>2020-06-01T09:44:52Z</time>
      </trkpt>
      <trkpt lat="47.66112" lon="6.15019">
        <ele>228</ele>
        <time>2020-06-01T09:44:53Z</time>
      </trkpt>
      <trkpt lat="47.66102" lon="6.15019">
        <ele>228</ele>
        <time>2020-06-01T09:44:54Z</time>
      </trkpt>
      <trkpt lat="47.66093" lon="6.15019">
        <ele>228</ele>
        <time>2020-06-01T09:44:55Z</time>
      </trkpt>
      <trkpt lat="47.66084" lon="6.15019">
        <ele>227</ele>
        <time>2020-06-01T09:44:56Z</time>
      </trkpt>
      <trkpt lat="47.66074" lon="6.15019">
        <ele>226</ele>
        <time>2020-06-01T09:44:57Z</time>
      </trkpt>
      <trkpt lat="47.66064" lon="6.1502">
        <ele>226</ele>
        <time>2020-06-01T09:44:58Z</time>
      </trkpt>
      <trkpt lat="47.66055" lon="6.1502">
        <ele>226</ele>
        <time>2020-06-01T09:44:59Z</time>
      </trkpt>
      <trkpt lat="47.66046" lon="6.1502">
        <ele>226</ele>
        <time>2020-06-01T09:45:00Z</time>
      </trkpt>
      <trkpt lat="47.66037" lon="6.15021">
        <ele>226</ele>
        <time>2020-06-01T09:45:01Z</time>
      </trkpt>
      <trkpt lat="47.66029" lon="6.15021">
        <ele>225</ele>
        <time>2020-06-01T09:45:02Z</time>
      </trkpt>
      <trkpt lat="47.66021" lon="6.15021">
        <ele>225</ele>
        <time>2020-06-01T09:45:03Z</time>
      </trkpt>
      <trkpt lat="47.66013" lon="6.1502">
        <ele>225</ele>
        <time>2020-06-01T09:45:04Z</time>
      </trkpt>
      <trkpt lat="47.66005" lon="6.1502">
        <ele>225</ele>
        <time>2020-06-01T09:45:05Z</time>
      </trkpt>
      <trkpt lat="47.65998" lon="6.15019">
        <ele>225</ele>
        <time>2020-06-01T09:45:06Z</time>
      </trkpt>
      <trkpt lat="47.65991" lon="6.15018">
        <ele>225</ele>
        <time>2020-06-01T09:45:07Z</time>
      </trkpt>
      <trkpt lat="47.65984" lon="6.15017">
        <ele>225</ele>
        <time>2020-06-01T09:45:08Z</time>
      </trkpt>
      <trkpt lat="47.65978" lon="6.15017">
        <ele>226</ele>
        <time>2020-06-01T09:45:09Z</time>
      </trkpt>
      <trkpt lat="47.65972" lon="6.15016">
        <ele>226</ele>
        <time>2020-06-01T09:45:10Z</time>
      </trkpt>
      <trkpt lat="47.65966" lon="6.15016">
        <ele>226</ele>
        <time>2020-06-01T09:45:11Z</time>
      </trkpt>
      <trkpt lat="47.6596" lon="6.15015">
        <ele>226</ele>
        <time>2020-06-01T09:45:12Z</time>
      </trkpt>
      <trkpt lat="47.65954" lon="6.15015">
        <ele>226</ele>
        <time>2020-06-01T09:45:13Z</time>
      </trkpt>
      <trkpt lat="47.65949" lon="6.15015">
        <ele>226</ele>
        <time>2020-06-01T09:45:14Z</time>
      </trkpt>
      <trkpt lat="47.65944" lon="6.15014">
        <ele>226</ele>
        <time>2020-06-01T09:45:15Z</time>
      </trkpt>
      <trkpt lat="47.65939" lon="6.15014">
        <ele>226</ele>
        <time>2020-06-01T09:45:16Z</time>
      </trkpt>
      <trkpt lat="47.65934" lon="6.15014">
        <ele>227</ele>
        <time>2020-06-01T09:45:17Z</time>
      </trkpt>
      <trkpt lat="47.65925" lon="6.15013">
        <ele>227</ele>
        <time>2020-06-01T09:45:19Z</time>
      </trkpt>
      <trkpt lat="47.65919" lon="6.15013">
        <ele>227</ele>
        <time>2020-06-01T09:45:21Z</time>
      </trkpt>
      <trkpt lat="47.65912" lon="6.15013">
        <ele>228</ele>
        <time>2020-06-01T09:45:23Z</time>
      </trkpt>
      <trkpt lat="47.65905" lon="6.15013">
        <ele>228</ele>
        <time>2020-06-01T09:45:25Z</time>
      </trkpt>
      <trkpt lat="47.65896" lon="6.1501">
        <ele>228</ele>
        <time>2020-06-01T09:45:27Z</time>
      </trkpt>
      <trkpt lat="47.6589" lon="6.15012">
        <ele>228</ele>
        <time>2020-06-01T09:45:30Z</time>
      </trkpt>
      <trkpt lat="47.65885" lon="6.15013">
        <ele>229</ele>
        <time>2020-06-01T09:45:35Z</time>
      </trkpt>
      <trkpt lat="47.65879" lon="6.15012">
        <ele>229</ele>
        <time>2020-06-01T09:45:37Z</time>
      </trkpt>
      <trkpt lat="47.65867" lon="6.15012">
        <ele>229</ele>
        <time>2020-06-01T09:45:39Z</time>
      </trkpt>
      <trkpt lat="47.65861" lon="6.15012">
        <ele>229</ele>
        <time>2020-06-01T09:45:41Z</time>
      </trkpt>
      <trkpt lat="47.65855" lon="6.15012">
        <ele>229</ele>
        <time>2020-06-01T09:45:43Z</time>
      </trkpt>
      <trkpt lat="47.6585" lon="6.15012">
        <ele>230</ele>
        <time>2020-06-01T09:45:48Z</time>
      </trkpt>
      <trkpt lat="47.65844" lon="6.15011">
        <ele>230</ele>
        <time>2020-06-01T09:45:50Z</time>
      </trkpt>
      <trkpt lat="47.65837" lon="6.15012">
        <ele>230</ele>
        <time>2020-06-01T09:45:52Z</time>
      </trkpt>
      <trkpt lat="47.6583" lon="6.15012">
        <ele>231</ele>
        <time>2020-06-01T09:45:53Z</time>
      </trkpt>
      <trkpt lat="47.65825" lon="6.15013">
        <ele>231</ele>
        <time>2020-06-01T09:45:55Z</time>
      </trkpt>
      <trkpt lat="47.65819" lon="6.15013">
        <ele>231</ele>
        <time>2020-06-01T09:45:57Z</time>
      </trkpt>
      <trkpt lat="47.65806" lon="6.15015">
        <ele>230</ele>
        <time>2020-06-01T09:46:00Z</time>
      </trkpt>
      <trkpt lat="47.658" lon="6.15016">
        <ele>230</ele>
        <time>2020-06-01T09:46:02Z</time>
      </trkpt>
      <trkpt lat="47.65787" lon="6.15017">
        <ele>230</ele>
        <time>2020-06-01T09:46:04Z</time>
      </trkpt>
      <trkpt lat="47.65782" lon="6.15017">
        <ele>230</ele>
        <time>2020-06-01T09:46:08Z</time>
      </trkpt>
      <trkpt lat="47.65775" lon="6.15018">
        <ele>231</ele>
        <time>2020-06-01T09:46:11Z</time>
      </trkpt>
      <trkpt lat="47.6577" lon="6.15018">
        <ele>231</ele>
        <time>2020-06-01T09:46:13Z</time>
      </trkpt>
      <trkpt lat="47.65765" lon="6.15019">
        <ele>231</ele>
        <time>2020-06-01T09:46:14Z</time>
      </trkpt>
      <trkpt lat="47.65754" lon="6.15019">
        <ele>231</ele>
        <time>2020-06-01T09:46:15Z</time>
      </trkpt>
      <trkpt lat="47.65748" lon="6.15019">
        <ele>230</ele>
        <time>2020-06-01T09:46:20Z</time>
      </trkpt>
      <trkpt lat="47.65743" lon="6.15019">
        <ele>230</ele>
        <time>2020-06-01T09:46:21Z</time>
      </trkpt>
      <trkpt lat="47.65732" lon="6.15019">
        <ele>230</ele>
        <time>2020-06-01T09:46:22Z</time>
      </trkpt>
      <trkpt lat="47.65726" lon="6.15018">
        <ele>230</ele>
        <time>2020-06-01T09:46:24Z</time>
      </trkpt>
      <trkpt lat="47.6572" lon="6.15018">
        <ele>229</ele>
        <time>2020-06-01T09:46:26Z</time>
      </trkpt>
      <trkpt lat="47.65716" lon="6.15018">
        <ele>229</ele>
        <time>2020-06-01T09:46:31Z</time>
      </trkpt>
      <trkpt lat="47.65711" lon="6.15021">
        <ele>229</ele>
        <time>2020-06-01T09:46:34Z</time>
      </trkpt>
      <trkpt lat="47.65708" lon="6.15026">
        <ele>229</ele>
        <time>2020-06-01T09:46:35Z</time>
      </trkpt>
      <trkpt lat="47.65707" lon="6.15037">
        <ele>229</ele>
        <time>2020-06-01T09:46:40Z</time>
      </trkpt>
      <trkpt lat="47.65708" lon="6.15044">
        <ele>229</ele>
        <time>2020-06-01T09:46:41Z</time>
      </trkpt>
      <trkpt lat="47.65709" lon="6.15051">
        <ele>229</ele>
        <time>2020-06-01T09:46:43Z</time>
      </trkpt>
      <trkpt lat="47.65711" lon="6.15059">
        <ele>229</ele>
        <time>2020-06-01T09:46:44Z</time>
      </trkpt>
      <trkpt lat="47.65713" lon="6.15071">
        <ele>229</ele>
        <time>2020-06-01T09:46:47Z</time>
      </trkpt>
      <trkpt lat="47.65717" lon="6.15089">
        <ele>228</ele>
        <time>2020-06-01T09:46:51Z</time>
      </trkpt>
      <trkpt lat="47.65719" lon="6.15097">
        <ele>228</ele>
        <time>2020-06-01T09:46:53Z</time>
      </trkpt>
      <trkpt lat="47.6572" lon="6.15105">
        <ele>228</ele>
        <time>2020-06-01T09:46:56Z</time>
      </trkpt>
      <trkpt lat="47.65724" lon="6.15123">
        <ele>228</ele>
        <time>2020-06-01T09:47:00Z</time>
      </trkpt>
      <trkpt lat="47.65725" lon="6.15131">
        <ele>228</ele>
        <time>2020-06-01T09:47:01Z</time>
      </trkpt>
      <trkpt lat="47.65727" lon="6.15138">
        <ele>227</ele>
        <time>2020-06-01T09:47:03Z</time>
      </trkpt>
      <trkpt lat="47.65728" lon="6.15145">
        <ele>227</ele>
        <time>2020-06-01T09:47:04Z</time>
      </trkpt>
      <trkpt lat="47.65731" lon="6.15162">
        <ele>227</ele>
        <time>2020-06-01T09:47:08Z</time>
      </trkpt>
      <trkpt lat="47.65733" lon="6.1517">
        <ele>226</ele>
        <time>2020-06-01T09:47:09Z</time>
      </trkpt>
      <trkpt lat="47.65735" lon="6.1518">
        <ele>226</ele>
        <time>2020-06-01T09:47:12Z</time>
      </trkpt>
      <trkpt lat="47.65737" lon="6.15189">
        <ele>226</ele>
        <time>2020-06-01T09:47:14Z</time>
      </trkpt>
      <trkpt lat="47.6574" lon="6.15203">
        <ele>225</ele>
        <time>2020-06-01T09:47:16Z</time>
      </trkpt>
      <trkpt lat="47.65742" lon="6.15212">
        <ele>225</ele>
        <time>2020-06-01T09:47:18Z</time>
      </trkpt>
      <trkpt lat="47.65746" lon="6.15233">
        <ele>225</ele>
        <time>2020-06-01T09:47:21Z</time>
      </trkpt>
      <trkpt lat="47.65748" lon="6.15244">
        <ele>224</ele>
        <time>2020-06-01T09:47:22Z</time>
      </trkpt>
      <trkpt lat="47.65751" lon="6.15254">
        <ele>224</ele>
        <time>2020-06-01T09:47:23Z</time>
      </trkpt>
      <trkpt lat="47.6576" lon="6.15295">
        <ele>223</ele>
        <time>2020-06-01T09:47:24Z</time>
      </trkpt>
      <trkpt lat="47.65762" lon="6.15305">
        <ele>222</ele>
        <time>2020-06-01T09:47:25Z</time>
      </trkpt>
      <trkpt lat="47.65764" lon="6.15316">
        <ele>222</ele>
        <time>2020-06-01T09:47:26Z</time>
      </trkpt>
      <trkpt lat="47.65766" lon="6.15326">
        <ele>222</ele>
        <time>2020-06-01T09:47:27Z</time>
      </trkpt>
      <trkpt lat="47.65768" lon="6.15335">
        <ele>221</ele>
        <time>2020-06-01T09:47:28Z</time>
      </trkpt>
      <trkpt lat="47.65769" lon="6.15344">
        <ele>221</ele>
        <time>2020-06-01T09:47:29Z</time>
      </trkpt>
      <trkpt lat="47.65771" lon="6.15353">
        <ele>221</ele>
        <time>2020-06-01T09:47:30Z</time>
      </trkpt>
      <trkpt lat="47.65772" lon="6.15361">
        <ele>221</ele>
        <time>2020-06-01T09:47:31Z</time>
      </trkpt>
      <trkpt lat="47.65774" lon="6.15369">
        <ele>221</ele>
        <time>2020-06-01T09:47:32Z</time>
      </trkpt>
      <trkpt lat="47.65775" lon="6.15377">
        <ele>221</ele>
        <time>2020-06-01T09:47:33Z</time>
      </trkpt>
      <trkpt lat="47.65777" lon="6.15385">
        <ele>221</ele>
        <time>2020-06-01T09:47:34Z</time>
      </trkpt>
      <trkpt lat="47.65778" lon="6.15392">
        <ele>221</ele>
        <time>2020-06-01T09:47:35Z</time>
      </trkpt>
      <trkpt lat="47.65779" lon="6.15399">
        <ele>221</ele>
        <time>2020-06-01T09:47:36Z</time>
      </trkpt>
      <trkpt lat="47.6578" lon="6.15405">
        <ele>221</ele>
        <time>2020-06-01T09:47:37Z</time>
      </trkpt>
      <trkpt lat="47.65782" lon="6.15416">
        <ele>221</ele>
        <time>2020-06-01T09:47:39Z</time>
      </trkpt>
      <trkpt lat="47.65784" lon="6.15424">
        <ele>221</ele>
        <time>2020-06-01T09:47:41Z</time>
      </trkpt>
      <trkpt lat="47.65786" lon="6.15434">
        <ele>221</ele>
        <time>2020-06-01T09:47:43Z</time>
      </trkpt>
      <trkpt lat="47.65781" lon="6.15442">
        <ele>221</ele>
        <time>2020-06-01T09:47:46Z</time>
      </trkpt>
      <trkpt lat="47.65786" lon="6.1545">
        <ele>222</ele>
        <time>2020-06-01T09:47:51Z</time>
      </trkpt>
      <trkpt lat="47.65792" lon="6.15465">
        <ele>222</ele>
        <time>2020-06-01T09:47:53Z</time>
      </trkpt>
      <trkpt lat="47.65794" lon="6.15474">
        <ele>222</ele>
        <time>2020-06-01T09:47:56Z</time>
      </trkpt>
      <trkpt lat="47.65796" lon="6.15483">
        <ele>222</ele>
        <time>2020-06-01T09:48:00Z</time>
      </trkpt>
      <trkpt lat="47.65797" lon="6.15491">
        <ele>222</ele>
        <time>2020-06-01T09:48:03Z</time>
      </trkpt>
      <trkpt lat="47.65799" lon="6.155">
        <ele>223</ele>
        <time>2020-06-01T09:48:06Z</time>
      </trkpt>
      <trkpt lat="47.65801" lon="6.15509">
        <ele>224</ele>
        <time>2020-06-01T09:48:09Z</time>
      </trkpt>
      <trkpt lat="47.65802" lon="6.15517">
        <ele>224</ele>
        <time>2020-06-01T09:48:11Z</time>
      </trkpt>
      <trkpt lat="47.65804" lon="6.15525">
        <ele>224</ele>
        <time>2020-06-01T09:48:13Z</time>
      </trkpt>
      <trkpt lat="47.65806" lon="6.15533">
        <ele>224</ele>
        <time>2020-06-01T09:48:15Z</time>
      </trkpt>
      <trkpt lat="47.65807" lon="6.1554">
        <ele>224</ele>
        <time>2020-06-01T09:48:17Z</time>
      </trkpt>
      <trkpt lat="47.65808" lon="6.15547">
        <ele>224</ele>
        <time>2020-06-01T09:48:19Z</time>
      </trkpt>
      <trkpt lat="47.65809" lon="6.15556">
        <ele>224</ele>
        <time>2020-06-01T09:48:25Z</time>
      </trkpt>
      <trkpt lat="47.65811" lon="6.15565">
        <ele>225</ele>
        <time>2020-06-01T09:48:28Z</time>
      </trkpt>
      <trkpt lat="47.65813" lon="6.15573">
        <ele>225</ele>
        <time>2020-06-01T09:48:31Z</time>
      </trkpt>
      <trkpt lat="47.65814" lon="6.1558">
        <ele>225</ele>
        <time>2020-06-01T09:48:33Z</time>
      </trkpt>
      <trkpt lat="47.65816" lon="6.15586">
        <ele>226</ele>
        <time>2020-06-01T09:48:35Z</time>
      </trkpt>
      <trkpt lat="47.6582" lon="6.15602">
        <ele>226</ele>
        <time>2020-06-01T09:48:40Z</time>
      </trkpt>
      <trkpt lat="47.65821" lon="6.15608">
        <ele>226</ele>
        <time>2020-06-01T09:48:43Z</time>
      </trkpt>
      <trkpt lat="47.65822" lon="6.15618">
        <ele>226</ele>
        <time>2020-06-01T09:48:47Z</time>
      </trkpt>
      <trkpt lat="47.65824" lon="6.15624">
        <ele>226</ele>
        <time>2020-06-01T09:48:48Z</time>
      </trkpt>
      <trkpt lat="47.65826" lon="6.15631">
        <ele>227</ele>
        <time>2020-06-01T09:48:51Z</time>
      </trkpt>
      <trkpt lat="47.65829" lon="6.15648">
        <ele>227</ele>
        <time>2020-06-01T09:48:58Z</time>
      </trkpt>
      <trkpt lat="47.65831" lon="6.15655">
        <ele>227</ele>
        <time>2020-06-01T09:49:00Z</time>
      </trkpt>
      <trkpt lat="47.65832" lon="6.15662">
        <ele>228</ele>
        <time>2020-06-01T09:49:03Z</time>
      </trkpt>
      <trkpt lat="47.65834" lon="6.15669">
        <ele>228</ele>
        <time>2020-06-01T09:49:06Z</time>
      </trkpt>
      <trkpt lat="47.65838" lon="6.15688">
        <ele>228</ele>
        <time>2020-06-01T09:49:13Z</time>
      </trkpt>
      <trkpt lat="47.6584" lon="6.15698">
        <ele>228</ele>
        <time>2020-06-01T09:49:15Z</time>
      </trkpt>
      <trkpt lat="47.65843" lon="6.15716">
        <ele>228</ele>
        <time>2020-06-01T09:49:18Z</time>
      </trkpt>
      <trkpt lat="47.65844" lon="6.15725">
        <ele>228</ele>
        <time>2020-06-01T09:49:21Z</time>
      </trkpt>
      <trkpt lat="47.65848" lon="6.15742">
        <ele>228</ele>
        <time>2020-06-01T09:49:25Z</time>
      </trkpt>
      <trkpt lat="47.65849" lon="6.1575">
        <ele>230</ele>
        <time>2020-06-01T09:49:27Z</time>
      </trkpt>
      <trkpt lat="47.65851" lon="6.15758">
        <ele>230</ele>
        <time>2020-06-01T09:49:29Z</time>
      </trkpt>
      <trkpt lat="47.65852" lon="6.15765">
        <ele>230</ele>
        <time>2020-06-01T09:49:31Z</time>
      </trkpt>
      <trkpt lat="47.65854" lon="6.15773">
        <ele>230</ele>
        <time>2020-06-01T09:49:33Z</time>
      </trkpt>
      <trkpt lat="47.65856" lon="6.15782">
        <ele>230</ele>
        <time>2020-06-01T09:49:35Z</time>
      </trkpt>
      <trkpt lat="47.6586" lon="6.15803">
        <ele>231</ele>
        <time>2020-06-01T09:49:38Z</time>
      </trkpt>
      <trkpt lat="47.65861" lon="6.15813">
        <ele>231</ele>
        <time>2020-06-01T09:49:40Z</time>
      </trkpt>
      <trkpt lat="47.65863" lon="6.1582">
        <ele>231</ele>
        <time>2020-06-01T09:49:42Z</time>
      </trkpt>
      <trkpt lat="47.65865" lon="6.15828">
        <ele>232</ele>
        <time>2020-06-01T09:49:44Z</time>
      </trkpt>
      <trkpt lat="47.65867" lon="6.15836">
        <ele>235</ele>
        <time>2020-06-01T09:49:45Z</time>
      </trkpt>
      <trkpt lat="47.65871" lon="6.15849">
        <ele>235</ele>
        <time>2020-06-01T09:49:49Z</time>
      </trkpt>
      <trkpt lat="47.65874" lon="6.15856">
        <ele>235</ele>
        <time>2020-06-01T09:49:51Z</time>
      </trkpt>
      <trkpt lat="47.65881" lon="6.15872">
        <ele>235</ele>
        <time>2020-06-01T09:49:57Z</time>
      </trkpt>
      <trkpt lat="47.65885" lon="6.1588">
        <ele>235</ele>
        <time>2020-06-01T09:50:00Z</time>
      </trkpt>
      <trkpt lat="47.65889" lon="6.15886">
        <ele>236</ele>
        <time>2020-06-01T09:50:02Z</time>
      </trkpt>
      <trkpt lat="47.65895" lon="6.15899">
        <ele>236</ele>
        <time>2020-06-01T09:50:06Z</time>
      </trkpt>
      <trkpt lat="47.65899" lon="6.15905">
        <ele>236</ele>
        <time>2020-06-01T09:50:09Z</time>
      </trkpt>
      <trkpt lat="47.65903" lon="6.15913">
        <ele>236</ele>
        <time>2020-06-01T09:50:11Z</time>
      </trkpt>
      <trkpt lat="47.65913" lon="6.15928">
        <ele>237</ele>
        <time>2020-06-01T09:50:12Z</time>
      </trkpt>
      <trkpt lat="47.65916" lon="6.15934">
        <ele>238</ele>
        <time>2020-06-01T09:50:17Z</time>
      </trkpt>
      <trkpt lat="47.65925" lon="6.15948">
        <ele>235</ele>
        <time>2020-06-01T09:50:22Z</time>
      </trkpt>
      <trkpt lat="47.65927" lon="6.15958">
        <ele>235</ele>
        <time>2020-06-01T09:50:25Z</time>
      </trkpt>
      <trkpt lat="47.6592" lon="6.15973">
        <ele>236</ele>
        <time>2020-06-01T09:50:28Z</time>
      </trkpt>
      <trkpt lat="47.65917" lon="6.15979">
        <ele>236</ele>
        <time>2020-06-01T09:50:30Z</time>
      </trkpt>
      <trkpt lat="47.65913" lon="6.15987">
        <ele>239</ele>
        <time>2020-06-01T09:50:33Z</time>
      </trkpt>
      <trkpt lat="47.6591" lon="6.15992">
        <ele>239</ele>
        <time>2020-06-01T09:50:35Z</time>
      </trkpt>
      <trkpt lat="47.65907" lon="6.15998">
        <ele>239</ele>
        <time>2020-06-01T09:50:37Z</time>
      </trkpt>
      <trkpt lat="47.65904" lon="6.16003">
        <ele>240</ele>
        <time>2020-06-01T09:50:40Z</time>
      </trkpt>
      <trkpt lat="47.659" lon="6.16008">
        <ele>241</ele>
        <time>2020-06-01T09:50:44Z</time>
      </trkpt>
      <trkpt lat="47.65897" lon="6.16013">
        <ele>241</ele>
        <time>2020-06-01T09:50:47Z</time>
      </trkpt>
      <trkpt lat="47.65893" lon="6.16018">
        <ele>241</ele>
        <time>2020-06-01T09:50:51Z</time>
      </trkpt>
      <trkpt lat="47.65885" lon="6.1603">
        <ele>241</ele>
        <time>2020-06-01T09:50:55Z</time>
      </trkpt>
      <trkpt lat="47.65881" lon="6.16036">
        <ele>242</ele>
        <time>2020-06-01T09:50:57Z</time>
      </trkpt>
      <trkpt lat="47.65874" lon="6.16046">
        <ele>242</ele>
        <time>2020-06-01T09:50:59Z</time>
      </trkpt>
      <trkpt lat="47.65865" lon="6.16057">
        <ele>242</ele>
        <time>2020-06-01T09:51:01Z</time>
      </trkpt>
      <trkpt lat="47.65857" lon="6.16066">
        <ele>242</ele>
        <time>2020-06-01T09:51:04Z</time>
      </trkpt>
      <trkpt lat="47.65848" lon="6.16079">
        <ele>242</ele>
        <time>2020-06-01T09:51:07Z</time>
      </trkpt>
      <trkpt lat="47.65843" lon="6.16087">
        <ele>243</ele>
        <time>2020-06-01T09:51:09Z</time>
      </trkpt>
      <trkpt lat="47.65839" lon="6.16094">
        <ele>243</ele>
        <time>2020-06-01T09:51:10Z</time>
      </trkpt>
      <trkpt lat="47.65825" lon="6.16117">
        <ele>241</ele>
        <time>2020-06-01T09:51:14Z</time>
      </trkpt>
      <trkpt lat="47.65815" lon="6.16134">
        <ele>241</ele>
        <time>2020-06-01T09:51:16Z</time>
      </trkpt>
      <trkpt lat="47.6581" lon="6.16142">
        <ele>241</ele>
        <time>2020-06-01T09:51:18Z</time>
      </trkpt>
      <trkpt lat="47.65779" lon="6.16181">
        <ele>239</ele>
        <time>2020-06-01T09:51:19Z</time>
      </trkpt>
      <trkpt lat="47.65773" lon="6.16188">
        <ele>238</ele>
        <time>2020-06-01T09:51:20Z</time>
      </trkpt>
      <trkpt lat="47.65766" lon="6.16196">
        <ele>238</ele>
        <time>2020-06-01T09:51:21Z</time>
      </trkpt>
      <trkpt lat="47.65759" lon="6.16203">
        <ele>238</ele>
        <time>2020-06-01T09:51:22Z</time>
      </trkpt>
      <trkpt lat="47.65752" lon="6.16211">
        <ele>238</ele>
        <time>2020-06-01T09:51:23Z</time>
      </trkpt>
      <trkpt lat="47.65747" lon="6.16218">
        <ele>233</ele>
        <time>2020-06-01T09:51:24Z</time>
      </trkpt>
      <trkpt lat="47.65741" lon="6.16225">
        <ele>233</ele>
        <time>2020-06-01T09:51:25Z</time>
      </trkpt>
      <trkpt lat="47.65736" lon="6.16231">
        <ele>233</ele>
        <time>2020-06-01T09:51:26Z</time>
      </trkpt>
      <trkpt lat="47.65731" lon="6.16239">
        <ele>233</ele>
        <time>2020-06-01T09:51:27Z</time>
      </trkpt>
      <trkpt lat="47.65726" lon="6.16246">
        <ele>233</ele>
        <time>2020-06-01T09:51:28Z</time>
      </trkpt>
      <trkpt lat="47.65721" lon="6.16253">
        <ele>233</ele>
        <time>2020-06-01T09:51:29Z</time>
      </trkpt>
      <trkpt lat="47.65717" lon="6.16259">
        <ele>233</ele>
        <time>2020-06-01T09:51:30Z</time>
      </trkpt>
      <trkpt lat="47.65712" lon="6.16265">
        <ele>233</ele>
        <time>2020-06-01T09:51:31Z</time>
      </trkpt>
      <trkpt lat="47.65708" lon="6.16271">
        <ele>232</ele>
        <time>2020-06-01T09:51:32Z</time>
      </trkpt>
      <trkpt lat="47.65705" lon="6.16276">
        <ele>232</ele>
        <time>2020-06-01T09:51:33Z</time>
      </trkpt>
      <trkpt lat="47.65701" lon="6.16282">
        <ele>232</ele>
        <time>2020-06-01T09:51:34Z</time>
      </trkpt>
      <trkpt lat="47.65698" lon="6.16287">
        <ele>232</ele>
        <time>2020-06-01T09:51:35Z</time>
      </trkpt>
      <trkpt lat="47.65693" lon="6.16296">
        <ele>232</ele>
        <time>2020-06-01T09:51:37Z</time>
      </trkpt>
      <trkpt lat="47.65687" lon="6.16306">
        <ele>232</ele>
        <time>2020-06-01T09:51:39Z</time>
      </trkpt>
      <trkpt lat="47.65683" lon="6.1631">
        <ele>232</ele>
        <time>2020-06-01T09:51:40Z</time>
      </trkpt>
      <trkpt lat="47.65677" lon="6.16319">
        <ele>232</ele>
        <time>2020-06-01T09:51:42Z</time>
      </trkpt>
      <trkpt lat="47.65674" lon="6.16323">
        <ele>232</ele>
        <time>2020-06-01T09:51:43Z</time>
      </trkpt>
      <trkpt lat="47.6567" lon="6.16329">
        <ele>232</ele>
        <time>2020-06-01T09:51:44Z</time>
      </trkpt>
      <trkpt lat="47.65666" lon="6.16334">
        <ele>232</ele>
        <time>2020-06-01T09:51:45Z</time>
      </trkpt>
      <trkpt lat="47.65663" lon="6.16339">
        <ele>232</ele>
        <time>2020-06-01T09:51:46Z</time>
      </trkpt>
      <trkpt lat="47.6566" lon="6.16347">
        <ele>232</ele>
        <time>2020-06-01T09:51:51Z</time>
      </trkpt>
      <trkpt lat="47.65651" lon="6.16358">
        <ele>233</ele>
        <time>2020-06-01T09:51:52Z</time>
      </trkpt>
      <trkpt lat="47.65646" lon="6.16365">
        <ele>233</ele>
        <time>2020-06-01T09:51:56Z</time>
      </trkpt>
      <trkpt lat="47.65642" lon="6.16372">
        <ele>233</ele>
        <time>2020-06-01T09:51:58Z</time>
      </trkpt>
      <trkpt lat="47.65636" lon="6.16383">
        <ele>233</ele>
        <time>2020-06-01T09:52:00Z</time>
      </trkpt>
      <trkpt lat="47.6563" lon="6.1639">
        <ele>233</ele>
        <time>2020-06-01T09:52:02Z</time>
      </trkpt>
      <trkpt lat="47.65626" lon="6.16396">
        <ele>233</ele>
        <time>2020-06-01T09:52:04Z</time>
      </trkpt>
      <trkpt lat="47.65617" lon="6.16408">
        <ele>233</ele>
        <time>2020-06-01T09:52:07Z</time>
      </trkpt>
      <trkpt lat="47.65613" lon="6.16416">
        <ele>233</ele>
        <time>2020-06-01T09:52:09Z</time>
      </trkpt>
      <trkpt lat="47.65609" lon="6.16422">
        <ele>235</ele>
        <time>2020-06-01T09:52:10Z</time>
      </trkpt>
      <trkpt lat="47.65603" lon="6.1643">
        <ele>235</ele>
        <time>2020-06-01T09:52:12Z</time>
      </trkpt>
      <trkpt lat="47.65595" lon="6.16442">
        <ele>235</ele>
        <time>2020-06-01T09:52:16Z</time>
      </trkpt>
      <trkpt lat="47.65591" lon="6.16447">
        <ele>236</ele>
        <time>2020-06-01T09:52:21Z</time>
      </trkpt>
      <trkpt lat="47.65586" lon="6.16455">
        <ele>236</ele>
        <time>2020-06-01T09:52:22Z</time>
      </trkpt>
      <trkpt lat="47.65581" lon="6.16461">
        <ele>234</ele>
        <time>2020-06-01T09:52:24Z</time>
      </trkpt>
      <trkpt lat="47.65577" lon="6.16466">
        <ele>234</ele>
        <time>2020-06-01T09:52:29Z</time>
      </trkpt>
      <trkpt lat="47.65573" lon="6.16471">
        <ele>234</ele>
        <time>2020-06-01T09:52:31Z</time>
      </trkpt>
      <trkpt lat="47.65563" lon="6.16484">
        <ele>234</ele>
        <time>2020-06-01T09:52:32Z</time>
      </trkpt>
      <trkpt lat="47.65558" lon="6.16491">
        <ele>234</ele>
        <time>2020-06-01T09:52:33Z</time>
      </trkpt>
      <trkpt lat="47.6555" lon="6.16501">
        <ele>235</ele>
        <time>2020-06-01T09:52:35Z</time>
      </trkpt>
      <trkpt lat="47.65544" lon="6.1651">
        <ele>235</ele>
        <time>2020-06-01T09:52:37Z</time>
      </trkpt>
      <trkpt lat="47.65536" lon="6.16522">
        <ele>235</ele>
        <time>2020-06-01T09:52:41Z</time>
      </trkpt>
      <trkpt lat="47.65524" lon="6.16531">
        <ele>234</ele>
        <time>2020-06-01T09:52:43Z</time>
      </trkpt>
      <trkpt lat="47.65518" lon="6.16533">
        <ele>234</ele>
        <time>2020-06-01T09:52:47Z</time>
      </trkpt>
      <trkpt lat="47.65505" lon="6.16534">
        <ele>234</ele>
        <time>2020-06-01T09:52:51Z</time>
      </trkpt>
      <trkpt lat="47.6548" lon="6.1653">
        <ele>232</ele>
        <time>2020-06-01T09:52:52Z</time>
      </trkpt>
      <trkpt lat="47.65475" lon="6.16529">
        <ele>232</ele>
        <time>2020-06-01T09:52:53Z</time>
      </trkpt>
      <trkpt lat="47.65469" lon="6.16528">
        <ele>232</ele>
        <time>2020-06-01T09:52:54Z</time>
      </trkpt>
      <trkpt lat="47.65463" lon="6.16527">
        <ele>232</ele>
        <time>2020-06-01T09:52:55Z</time>
      </trkpt>
      <trkpt lat="47.65458" lon="6.16526">
        <ele>232</ele>
        <time>2020-06-01T09:52:56Z</time>
      </trkpt>
      <trkpt lat="47.65452" lon="6.16525">
        <ele>232</ele>
        <time>2020-06-01T09:52:57Z</time>
      </trkpt>
      <trkpt lat="47.65447" lon="6.16524">
        <ele>231</ele>
        <time>2020-06-01T09:52:58Z</time>
      </trkpt>
      <trkpt lat="47.65442" lon="6.16523">
        <ele>231</ele>
        <time>2020-06-01T09:52:59Z</time>
      </trkpt>
      <trkpt lat="47.65437" lon="6.16523">
        <ele>231</ele>
        <time>2020-06-01T09:53:00Z</time>
      </trkpt>
      <trkpt lat="47.65432" lon="6.16522">
        <ele>231</ele>
        <time>2020-06-01T09:53:01Z</time>
      </trkpt>
      <trkpt lat="47.65427" lon="6.16521">
        <ele>231</ele>
        <time>2020-06-01T09:53:02Z</time>
      </trkpt>
      <trkpt lat="47.65422" lon="6.1652">
        <ele>231</ele>
        <time>2020-06-01T09:53:03Z</time>
      </trkpt>
      <trkpt lat="47.65417" lon="6.1652">
        <ele>230</ele>
        <time>2020-06-01T09:53:04Z</time>
      </trkpt>
      <trkpt lat="47.65412" lon="6.16519">
        <ele>230</ele>
        <time>2020-06-01T09:53:05Z</time>
      </trkpt>
      <trkpt lat="47.65407" lon="6.16519">
        <ele>230</ele>
        <time>2020-06-01T09:53:06Z</time>
      </trkpt>
      <trkpt lat="47.65402" lon="6.16518">
        <ele>230</ele>
        <time>2020-06-01T09:53:07Z</time>
      </trkpt>
      <trkpt lat="47.65397" lon="6.16517">
        <ele>230</ele>
        <time>2020-06-01T09:53:08Z</time>
      </trkpt>
      <trkpt lat="47.65392" lon="6.16516">
        <ele>230</ele>
        <time>2020-06-01T09:53:09Z</time>
      </trkpt>
      <trkpt lat="47.65387" lon="6.16515">
        <ele>230</ele>
        <time>2020-06-01T09:53:10Z</time>
      </trkpt>
      <trkpt lat="47.65382" lon="6.16514">
        <ele>230</ele>
        <time>2020-06-01T09:53:11Z</time>
      </trkpt>
      <trkpt lat="47.65378" lon="6.16513">
        <ele>230</ele>
        <time>2020-06-01T09:53:12Z</time>
      </trkpt>
      <trkpt lat="47.65373" lon="6.16512">
        <ele>230</ele>
        <time>2020-06-01T09:53:13Z</time>
      </trkpt>
      <trkpt lat="47.65364" lon="6.16511">
        <ele>230</ele>
        <time>2020-06-01T09:53:15Z</time>
      </trkpt>
      <trkpt lat="47.6536" lon="6.1651">
        <ele>230</ele>
        <time>2020-06-01T09:53:16Z</time>
      </trkpt>
      <trkpt lat="47.65355" lon="6.16509">
        <ele>230</ele>
        <time>2020-06-01T09:53:17Z</time>
      </trkpt>
      <trkpt lat="47.65351" lon="6.16508">
        <ele>230</ele>
        <time>2020-06-01T09:53:18Z</time>
      </trkpt>
      <trkpt lat="47.65346" lon="6.16507">
        <ele>230</ele>
        <time>2020-06-01T09:53:19Z</time>
      </trkpt>
      <trkpt lat="47.65337" lon="6.16506">
        <ele>230</ele>
        <time>2020-06-01T09:53:21Z</time>
      </trkpt>
      <trkpt lat="47.65333" lon="6.16505">
        <ele>230</ele>
        <time>2020-06-01T09:53:22Z</time>
      </trkpt>
      <trkpt lat="47.65325" lon="6.16503">
        <ele>230</ele>
        <time>2020-06-01T09:53:24Z</time>
      </trkpt>
      <trkpt lat="47.65316" lon="6.16502">
        <ele>231</ele>
        <time>2020-06-01T09:53:26Z</time>
      </trkpt>
      <trkpt lat="47.65306" lon="6.16501">
        <ele>231</ele>
        <time>2020-06-01T09:53:27Z</time>
      </trkpt>
      <trkpt lat="47.653" lon="6.16499">
        <ele>229</ele>
        <time>2020-06-01T09:53:29Z</time>
      </trkpt>
      <trkpt lat="47.65292" lon="6.16498">
        <ele>229</ele>
        <time>2020-06-01T09:53:31Z</time>
      </trkpt>
      <trkpt lat="47.65287" lon="6.16497">
        <ele>229</ele>
        <time>2020-06-01T09:53:32Z</time>
      </trkpt>
      <trkpt lat="47.65282" lon="6.16496">
        <ele>229</ele>
        <time>2020-06-01T09:53:33Z</time>
      </trkpt>
      <trkpt lat="47.65277" lon="6.16495">
        <ele>230</ele>
        <time>2020-06-01T09:53:34Z</time>
      </trkpt>
      <trkpt lat="47.65273" lon="6.16494">
        <ele>230</ele>
        <time>2020-06-01T09:53:35Z</time>
      </trkpt>
      <trkpt lat="47.65268" lon="6.16493">
        <ele>230</ele>
        <time>2020-06-01T09:53:36Z</time>
      </trkpt>
      <trkpt lat="47.65263" lon="6.16492">
        <ele>230</ele>
        <time>2020-06-01T09:53:37Z</time>
      </trkpt>
      <trkpt lat="47.65258" lon="6.16491">
        <ele>230</ele>
        <time>2020-06-01T09:53:38Z</time>
      </trkpt>
      <trkpt lat="47.65254" lon="6.1649">
        <ele>230</ele>
        <time>2020-06-01T09:53:39Z</time>
      </trkpt>
      <trkpt lat="47.65249" lon="6.16489">
        <ele>231</ele>
        <time>2020-06-01T09:53:40Z</time>
      </trkpt>
      <trkpt lat="47.65245" lon="6.16489">
        <ele>231</ele>
        <time>2020-06-01T09:53:41Z</time>
      </trkpt>
      <trkpt lat="47.6524" lon="6.16489">
        <ele>231</ele>
        <time>2020-06-01T09:53:42Z</time>
      </trkpt>
      <trkpt lat="47.65235" lon="6.16488">
        <ele>231</ele>
        <time>2020-06-01T09:53:43Z</time>
      </trkpt>
      <trkpt lat="47.65226" lon="6.16487">
        <ele>231</ele>
        <time>2020-06-01T09:53:45Z</time>
      </trkpt>
      <trkpt lat="47.65219" lon="6.16486">
        <ele>231</ele>
        <time>2020-06-01T09:53:47Z</time>
      </trkpt>
      <trkpt lat="47.65212" lon="6.16485">
        <ele>231</ele>
        <time>2020-06-01T09:53:49Z</time>
      </trkpt>
      <trkpt lat="47.65204" lon="6.16483">
        <ele>231</ele>
        <time>2020-06-01T09:53:50Z</time>
      </trkpt>
      <trkpt lat="47.652" lon="6.16482">
        <ele>231</ele>
        <time>2020-06-01T09:53:52Z</time>
      </trkpt>
      <trkpt lat="47.65194" lon="6.16481">
        <ele>231</ele>
        <time>2020-06-01T09:53:54Z</time>
      </trkpt>
      <trkpt lat="47.65188" lon="6.1648">
        <ele>232</ele>
        <time>2020-06-01T09:53:56Z</time>
      </trkpt>
      <trkpt lat="47.65183" lon="6.16479">
        <ele>232</ele>
        <time>2020-06-01T09:53:58Z</time>
      </trkpt>
      <trkpt lat="47.65177" lon="6.16478">
        <ele>232</ele>
        <time>2020-06-01T09:54:00Z</time>
      </trkpt>
      <trkpt lat="47.65173" lon="6.16477">
        <ele>232</ele>
        <time>2020-06-01T09:54:02Z</time>
      </trkpt>
      <trkpt lat="47.65166" lon="6.16475">
        <ele>233</ele>
        <time>2020-06-01T09:54:05Z</time>
      </trkpt>
      <trkpt lat="47.65161" lon="6.16475">
        <ele>233</ele>
        <time>2020-06-01T09:54:07Z</time>
      </trkpt>
      <trkpt lat="47.65157" lon="6.16474">
        <ele>233</ele>
        <time>2020-06-01T09:54:09Z</time>
      </trkpt>
      <trkpt lat="47.65152" lon="6.16473">
        <ele>233</ele>
        <time>2020-06-01T09:54:11Z</time>
      </trkpt>
      <trkpt lat="47.65147" lon="6.16472">
        <ele>233</ele>
        <time>2020-06-01T09:54:13Z</time>
      </trkpt>
      <trkpt lat="47.65142" lon="6.16471">
        <ele>233</ele>
        <time>2020-06-01T09:54:15Z</time>
      </trkpt>
      <trkpt lat="47.65137" lon="6.1647">
        <ele>233</ele>
        <time>2020-06-01T09:54:17Z</time>
      </trkpt>
      <trkpt lat="47.65132" lon="6.16469">
        <ele>233</ele>
        <time>2020-06-01T09:54:19Z</time>
      </trkpt>
      <trkpt lat="47.65127" lon="6.16467">
        <ele>233</ele>
        <time>2020-06-01T09:54:21Z</time>
      </trkpt>
      <trkpt lat="47.65122" lon="6.16467">
        <ele>233</ele>
        <time>2020-06-01T09:54:23Z</time>
      </trkpt>
      <trkpt lat="47.65116" lon="6.16466">
        <ele>233</ele>
        <time>2020-06-01T09:54:24Z</time>
      </trkpt>
      <trkpt lat="47.6511" lon="6.16465">
        <ele>233</ele>
        <time>2020-06-01T09:54:26Z</time>
      </trkpt>
      <trkpt lat="47.65105" lon="6.16464">
        <ele>233</ele>
        <time>2020-06-01T09:54:27Z</time>
      </trkpt>
      <trkpt lat="47.651" lon="6.16462">
        <ele>233</ele>
        <time>2020-06-01T09:54:29Z</time>
      </trkpt>
      <trkpt lat="47.65095" lon="6.16461">
        <ele>233</ele>
        <time>2020-06-01T09:54:31Z</time>
      </trkpt>
      <trkpt lat="47.65088" lon="6.1646">
        <ele>233</ele>
        <time>2020-06-01T09:54:33Z</time>
      </trkpt>
      <trkpt lat="47.65083" lon="6.16459">
        <ele>234</ele>
        <time>2020-06-01T09:54:35Z</time>
      </trkpt>
      <trkpt lat="47.65076" lon="6.16458">
        <ele>234</ele>
        <time>2020-06-01T09:54:37Z</time>
      </trkpt>
      <trkpt lat="47.6507" lon="6.16456">
        <ele>234</ele>
        <time>2020-06-01T09:54:39Z</time>
      </trkpt>
      <trkpt lat="47.65064" lon="6.16456">
        <ele>234</ele>
        <time>2020-06-01T09:54:41Z</time>
      </trkpt>
      <trkpt lat="47.65058" lon="6.16455">
        <ele>234</ele>
        <time>2020-06-01T09:54:43Z</time>
      </trkpt>
      <trkpt lat="47.65052" lon="6.16454">
        <ele>235</ele>
        <time>2020-06-01T09:54:45Z</time>
      </trkpt>
      <trkpt lat="47.65047" lon="6.16453">
        <ele>235</ele>
        <time>2020-06-01T09:54:47Z</time>
      </trkpt>
      <trkpt lat="47.65041" lon="6.16452">
        <ele>235</ele>
        <time>2020-06-01T09:54:49Z</time>
      </trkpt>
      <trkpt lat="47.65035" lon="6.1645">
        <ele>235</ele>
        <time>2020-06-01T09:54:51Z</time>
      </trkpt>
      <trkpt lat="47.65029" lon="6.16449">
        <ele>235</ele>
        <time>2020-06-01T09:54:53Z</time>
      </trkpt>
      <trkpt lat="47.65023" lon="6.16448">
        <ele>235</ele>
        <time>2020-06-01T09:54:55Z</time>
      </trkpt>
      <trkpt lat="47.65017" lon="6.16447">
        <ele>235</ele>
        <time>2020-06-01T09:54:57Z</time>
      </trkpt>
      <trkpt lat="47.6501" lon="6.16446">
        <ele>235</ele>
        <time>2020-06-01T09:54:59Z</time>
      </trkpt>
      <trkpt lat="47.65003" lon="6.16444">
        <ele>235</ele>
        <time>2020-06-01T09:55:01Z</time>
      </trkpt>
      <trkpt lat="47.64994" lon="6.16443">
        <ele>236</ele>
        <time>2020-06-01T09:55:03Z</time>
      </trkpt>
      <trkpt lat="47.64986" lon="6.16442">
        <ele>236</ele>
        <time>2020-06-01T09:55:05Z</time>
      </trkpt>
      <trkpt lat="47.64973" lon="6.16439">
        <ele>237</ele>
        <time>2020-06-01T09:55:07Z</time>
      </trkpt>
      <trkpt lat="47.64968" lon="6.16438">
        <ele>237</ele>
        <time>2020-06-01T09:55:09Z</time>
      </trkpt>
      <trkpt lat="47.6496" lon="6.16437">
        <ele>237</ele>
        <time>2020-06-01T09:55:11Z</time>
      </trkpt>
      <trkpt lat="47.64951" lon="6.16436">
        <ele>237</ele>
        <time>2020-06-01T09:55:13Z</time>
      </trkpt>
      <trkpt lat="47.64943" lon="6.16434">
        <ele>237</ele>
        <time>2020-06-01T09:55:15Z</time>
      </trkpt>
      <trkpt lat="47.64936" lon="6.16433">
        <ele>237</ele>
        <time>2020-06-01T09:55:17Z</time>
      </trkpt>
      <trkpt lat="47.6493" lon="6.16432">
        <ele>237</ele>
        <time>2020-06-01T09:55:22Z</time>
      </trkpt>
      <trkpt lat="47.64913" lon="6.1643">
        <ele>238</ele>
        <time>2020-06-01T09:55:23Z</time>
      </trkpt>
      <trkpt lat="47.64906" lon="6.16429">
        <ele>238</ele>
        <time>2020-06-01T09:55:25Z</time>
      </trkpt>
      <trkpt lat="47.64898" lon="6.16428">
        <ele>238</ele>
        <time>2020-06-01T09:55:27Z</time>
      </trkpt>
      <trkpt lat="47.64891" lon="6.16426">
        <ele>238</ele>
        <time>2020-06-01T09:55:29Z</time>
      </trkpt>
      <trkpt lat="47.64886" lon="6.16425">
        <ele>238</ele>
        <time>2020-06-01T09:55:30Z</time>
      </trkpt>
      <trkpt lat="47.64878" lon="6.16423">
        <ele>238</ele>
        <time>2020-06-01T09:55:32Z</time>
      </trkpt>
      <trkpt lat="47.64869" lon="6.16421">
        <ele>239</ele>
        <time>2020-06-01T09:55:34Z</time>
      </trkpt>
      <trkpt lat="47.64862" lon="6.16421">
        <ele>239</ele>
        <time>2020-06-01T09:55:36Z</time>
      </trkpt>
      <trkpt lat="47.64853" lon="6.16419">
        <ele>239</ele>
        <time>2020-06-01T09:55:38Z</time>
      </trkpt>
      <trkpt lat="47.64845" lon="6.16419">
        <ele>240</ele>
        <time>2020-06-01T09:55:40Z</time>
      </trkpt>
      <trkpt lat="47.6484" lon="6.16418">
        <ele>240</ele>
        <time>2020-06-01T09:55:41Z</time>
      </trkpt>
      <trkpt lat="47.64831" lon="6.16416">
        <ele>241</ele>
        <time>2020-06-01T09:55:43Z</time>
      </trkpt>
      <trkpt lat="47.64824" lon="6.16415">
        <ele>241</ele>
        <time>2020-06-01T09:55:45Z</time>
      </trkpt>
      <trkpt lat="47.64815" lon="6.16413">
        <ele>241</ele>
        <time>2020-06-01T09:55:47Z</time>
      </trkpt>
      <trkpt lat="47.64807" lon="6.16411">
        <ele>240</ele>
        <time>2020-06-01T09:55:49Z</time>
      </trkpt>
      <trkpt lat="47.648" lon="6.16409">
        <ele>240</ele>
        <time>2020-06-01T09:55:51Z</time>
      </trkpt>
      <trkpt lat="47.64795" lon="6.16409">
        <ele>240</ele>
        <time>2020-06-01T09:55:52Z</time>
      </trkpt>
      <trkpt lat="47.6479" lon="6.16408">
        <ele>240</ele>
        <time>2020-06-01T09:55:53Z</time>
      </trkpt>
      <trkpt lat="47.64785" lon="6.16407">
        <ele>240</ele>
        <time>2020-06-01T09:55:54Z</time>
      </trkpt>
      <trkpt lat="47.6478" lon="6.16406">
        <ele>240</ele>
        <time>2020-06-01T09:55:55Z</time>
      </trkpt>
      <trkpt lat="47.64775" lon="6.16405">
        <ele>240</ele>
        <time>2020-06-01T09:55:56Z</time>
      </trkpt>
      <trkpt lat="47.6477" lon="6.16404">
        <ele>240</ele>
        <time>2020-06-01T09:55:57Z</time>
      </trkpt>
      <trkpt lat="47.64765" lon="6.16403">
        <ele>240</ele>
        <time>2020-06-01T09:55:58Z</time>
      </trkpt>
      <trkpt lat="47.64759" lon="6.16402">
        <ele>240</ele>
        <time>2020-06-01T09:55:59Z</time>
      </trkpt>
      <trkpt lat="47.64754" lon="6.16401">
        <ele>240</ele>
        <time>2020-06-01T09:56:00Z</time>
      </trkpt>
      <trkpt lat="47.64748" lon="6.164">
        <ele>238</ele>
        <time>2020-06-01T09:56:01Z</time>
      </trkpt>
      <trkpt lat="47.64742" lon="6.16399">
        <ele>238</ele>
        <time>2020-06-01T09:56:02Z</time>
      </trkpt>
      <trkpt lat="47.64735" lon="6.16398">
        <ele>238</ele>
        <time>2020-06-01T09:56:03Z</time>
      </trkpt>
      <trkpt lat="47.64729" lon="6.16397">
        <ele>238</ele>
        <time>2020-06-01T09:56:04Z</time>
      </trkpt>
      <trkpt lat="47.64723" lon="6.16396">
        <ele>237</ele>
        <time>2020-06-01T09:56:05Z</time>
      </trkpt>
      <trkpt lat="47.64717" lon="6.16394">
        <ele>237</ele>
        <time>2020-06-01T09:56:06Z</time>
      </trkpt>
      <trkpt lat="47.6471" lon="6.16393">
        <ele>237</ele>
        <time>2020-06-01T09:56:07Z</time>
      </trkpt>
      <trkpt lat="47.64704" lon="6.16392">
        <ele>237</ele>
        <time>2020-06-01T09:56:08Z</time>
      </trkpt>
      <trkpt lat="47.64697" lon="6.16391">
        <ele>237</ele>
        <time>2020-06-01T09:56:09Z</time>
      </trkpt>
      <trkpt lat="47.64691" lon="6.1639">
        <ele>237</ele>
        <time>2020-06-01T09:56:10Z</time>
      </trkpt>
      <trkpt lat="47.64685" lon="6.16389">
        <ele>237</ele>
        <time>2020-06-01T09:56:11Z</time>
      </trkpt>
      <trkpt lat="47.64678" lon="6.16387">
        <ele>236</ele>
        <time>2020-06-01T09:56:12Z</time>
      </trkpt>
      <trkpt lat="47.64672" lon="6.16386">
        <ele>236</ele>
        <time>2020-06-01T09:56:13Z</time>
      </trkpt>
      <trkpt lat="47.64665" lon="6.16385">
        <ele>235</ele>
        <time>2020-06-01T09:56:14Z</time>
      </trkpt>
      <trkpt lat="47.64659" lon="6.16384">
        <ele>235</ele>
        <time>2020-06-01T09:56:15Z</time>
      </trkpt>
      <trkpt lat="47.64652" lon="6.16383">
        <ele>235</ele>
        <time>2020-06-01T09:56:16Z</time>
      </trkpt>
      <trkpt lat="47.64646" lon="6.16381">
        <ele>235</ele>
        <time>2020-06-01T09:56:17Z</time>
      </trkpt>
      <trkpt lat="47.64639" lon="6.1638">
        <ele>235</ele>
        <time>2020-06-01T09:56:18Z</time>
      </trkpt>
      <trkpt lat="47.64633" lon="6.16379">
        <ele>235</ele>
        <time>2020-06-01T09:56:19Z</time>
      </trkpt>
      <trkpt lat="47.64626" lon="6.16378">
        <ele>235</ele>
        <time>2020-06-01T09:56:20Z</time>
      </trkpt>
      <trkpt lat="47.6462" lon="6.16377">
        <ele>234</ele>
        <time>2020-06-01T09:56:21Z</time>
      </trkpt>
      <trkpt lat="47.64614" lon="6.16376">
        <ele>234</ele>
        <time>2020-06-01T09:56:22Z</time>
      </trkpt>
      <trkpt lat="47.64608" lon="6.16375">
        <ele>234</ele>
        <time>2020-06-01T09:56:23Z</time>
      </trkpt>
      <trkpt lat="47.64602" lon="6.16374">
        <ele>234</ele>
        <time>2020-06-01T09:56:24Z</time>
      </trkpt>
      <trkpt lat="47.64596" lon="6.16372">
        <ele>234</ele>
        <time>2020-06-01T09:56:25Z</time>
      </trkpt>
      <trkpt lat="47.64591" lon="6.16371">
        <ele>234</ele>
        <time>2020-06-01T09:56:26Z</time>
      </trkpt>
      <trkpt lat="47.64585" lon="6.1637">
        <ele>234</ele>
        <time>2020-06-01T09:56:27Z</time>
      </trkpt>
      <trkpt lat="47.6458" lon="6.16369">
        <ele>234</ele>
        <time>2020-06-01T09:56:28Z</time>
      </trkpt>
      <trkpt lat="47.64575" lon="6.16368">
        <ele>234</ele>
        <time>2020-06-01T09:56:29Z</time>
      </trkpt>
      <trkpt lat="47.6457" lon="6.16367">
        <ele>234</ele>
        <time>2020-06-01T09:56:30Z</time>
      </trkpt>
      <trkpt lat="47.64565" lon="6.16366">
        <ele>234</ele>
        <time>2020-06-01T09:56:31Z</time>
      </trkpt>
      <trkpt lat="47.6456" lon="6.16366">
        <ele>234</ele>
        <time>2020-06-01T09:56:32Z</time>
      </trkpt>
      <trkpt lat="47.64555" lon="6.16365">
        <ele>234</ele>
        <time>2020-06-01T09:56:33Z</time>
      </trkpt>
      <trkpt lat="47.6455" lon="6.16364">
        <ele>234</ele>
        <time>2020-06-01T09:56:34Z</time>
      </trkpt>
      <trkpt lat="47.64546" lon="6.16363">
        <ele>234</ele>
        <time>2020-06-01T09:56:35Z</time>
      </trkpt>
      <trkpt lat="47.64541" lon="6.16363">
        <ele>234</ele>
        <time>2020-06-01T09:56:36Z</time>
      </trkpt>
      <trkpt lat="47.64536" lon="6.16362">
        <ele>234</ele>
        <time>2020-06-01T09:56:37Z</time>
      </trkpt>
      <trkpt lat="47.64531" lon="6.16362">
        <ele>234</ele>
        <time>2020-06-01T09:56:38Z</time>
      </trkpt>
      <trkpt lat="47.64526" lon="6.16361">
        <ele>234</ele>
        <time>2020-06-01T09:56:39Z</time>
      </trkpt>
      <trkpt lat="47.64521" lon="6.1636">
        <ele>234</ele>
        <time>2020-06-01T09:56:40Z</time>
      </trkpt>
      <trkpt lat="47.64516" lon="6.16359">
        <ele>234</ele>
        <time>2020-06-01T09:56:41Z</time>
      </trkpt>
      <trkpt lat="47.64511" lon="6.16358">
        <ele>234</ele>
        <time>2020-06-01T09:56:42Z</time>
      </trkpt>
      <trkpt lat="47.64506" lon="6.16357">
        <ele>234</ele>
        <time>2020-06-01T09:56:43Z</time>
      </trkpt>
      <trkpt lat="47.64501" lon="6.16357">
        <ele>234</ele>
        <time>2020-06-01T09:56:44Z</time>
      </trkpt>
      <trkpt lat="47.64496" lon="6.16356">
        <ele>234</ele>
        <time>2020-06-01T09:56:45Z</time>
      </trkpt>
      <trkpt lat="47.64491" lon="6.16355">
        <ele>234</ele>
        <time>2020-06-01T09:56:46Z</time>
      </trkpt>
      <trkpt lat="47.64486" lon="6.16354">
        <ele>234</ele>
        <time>2020-06-01T09:56:47Z</time>
      </trkpt>
      <trkpt lat="47.64481" lon="6.16354">
        <ele>234</ele>
        <time>2020-06-01T09:56:48Z</time>
      </trkpt>
      <trkpt lat="47.64476" lon="6.16353">
        <ele>234</ele>
        <time>2020-06-01T09:56:49Z</time>
      </trkpt>
      <trkpt lat="47.6447" lon="6.16353">
        <ele>234</ele>
        <time>2020-06-01T09:56:50Z</time>
      </trkpt>
      <trkpt lat="47.64465" lon="6.16354">
        <ele>234</ele>
        <time>2020-06-01T09:56:51Z</time>
      </trkpt>
      <trkpt lat="47.6446" lon="6.16354">
        <ele>234</ele>
        <time>2020-06-01T09:56:52Z</time>
      </trkpt>
      <trkpt lat="47.64456" lon="6.16355">
        <ele>234</ele>
        <time>2020-06-01T09:56:53Z</time>
      </trkpt>
      <trkpt lat="47.64449" lon="6.16354">
        <ele>234</ele>
        <time>2020-06-01T09:56:55Z</time>
      </trkpt>
      <trkpt lat="47.64443" lon="6.16356">
        <ele>234</ele>
        <time>2020-06-01T09:56:57Z</time>
      </trkpt>
      <trkpt lat="47.64436" lon="6.1636">
        <ele>234</ele>
        <time>2020-06-01T09:56:59Z</time>
      </trkpt>
      <trkpt lat="47.64429" lon="6.16362">
        <ele>234</ele>
        <time>2020-06-01T09:57:01Z</time>
      </trkpt>
      <trkpt lat="47.64423" lon="6.16362">
        <ele>234</ele>
        <time>2020-06-01T09:57:07Z</time>
      </trkpt>
      <trkpt lat="47.64415" lon="6.16362">
        <ele>234</ele>
        <time>2020-06-01T09:57:09Z</time>
      </trkpt>
      <trkpt lat="47.64404" lon="6.16361">
        <ele>235</ele>
        <time>2020-06-01T09:57:12Z</time>
      </trkpt>
      <trkpt lat="47.64396" lon="6.16361">
        <ele>235</ele>
        <time>2020-06-01T09:57:14Z</time>
      </trkpt>
      <trkpt lat="47.64389" lon="6.16361">
        <ele>235</ele>
        <time>2020-06-01T09:57:15Z</time>
      </trkpt>
      <trkpt lat="47.6438" lon="6.16363">
        <ele>235</ele>
        <time>2020-06-01T09:57:18Z</time>
      </trkpt>
      <trkpt lat="47.64376" lon="6.16364">
        <ele>235</ele>
        <time>2020-06-01T09:57:19Z</time>
      </trkpt>
      <trkpt lat="47.64369" lon="6.16368">
        <ele>235</ele>
        <time>2020-06-01T09:57:21Z</time>
      </trkpt>
      <trkpt lat="47.64361" lon="6.16373">
        <ele>235</ele>
        <time>2020-06-01T09:57:23Z</time>
      </trkpt>
      <trkpt lat="47.64349" lon="6.16391">
        <ele>235</ele>
        <time>2020-06-01T09:57:23Z</time>
      </trkpt>
      <trkpt lat="47.64342" lon="6.16405">
        <ele>235</ele>
        <time>2020-06-01T09:57:25Z</time>
      </trkpt>
      <trkpt lat="47.64336" lon="6.16424">
        <ele>235</ele>
        <time>2020-06-01T09:57:27Z</time>
      </trkpt>
      <trkpt lat="47.64334" lon="6.16433">
        <ele>235</ele>
        <time>2020-06-01T09:57:28Z</time>
      </trkpt>
      <trkpt lat="47.64332" lon="6.16442">
        <ele>236</ele>
        <time>2020-06-01T09:57:29Z</time>
      </trkpt>
      <trkpt lat="47.64329" lon="6.1645">
        <ele>236</ele>
        <time>2020-06-01T09:57:30Z</time>
      </trkpt>
      <trkpt lat="47.64327" lon="6.16458">
        <ele>236</ele>
        <time>2020-06-01T09:57:31Z</time>
      </trkpt>
      <trkpt lat="47.64325" lon="6.16466">
        <ele>236</ele>
        <time>2020-06-01T09:57:32Z</time>
      </trkpt>
      <trkpt lat="47.64323" lon="6.16475">
        <ele>236</ele>
        <time>2020-06-01T09:57:33Z</time>
      </trkpt>
      <trkpt lat="47.64321" lon="6.16482">
        <ele>236</ele>
        <time>2020-06-01T09:57:34Z</time>
      </trkpt>
      <trkpt lat="47.64319" lon="6.16489">
        <ele>236</ele>
        <time>2020-06-01T09:57:35Z</time>
      </trkpt>
      <trkpt lat="47.64317" lon="6.16496">
        <ele>236</ele>
        <time>2020-06-01T09:57:36Z</time>
      </trkpt>
      <trkpt lat="47.64316" lon="6.16503">
        <ele>236</ele>
        <time>2020-06-01T09:57:37Z</time>
      </trkpt>
      <trkpt lat="47.64314" lon="6.1651">
        <ele>236</ele>
        <time>2020-06-01T09:57:38Z</time>
      </trkpt>
      <trkpt lat="47.64312" lon="6.16517">
        <ele>236</ele>
        <time>2020-06-01T09:57:39Z</time>
      </trkpt>
      <trkpt lat="47.64311" lon="6.16523">
        <ele>236</ele>
        <time>2020-06-01T09:57:40Z</time>
      </trkpt>
      <trkpt lat="47.64309" lon="6.16529">
        <ele>236</ele>
        <time>2020-06-01T09:57:41Z</time>
      </trkpt>
      <trkpt lat="47.64306" lon="6.16541">
        <ele>236</ele>
        <time>2020-06-01T09:57:43Z</time>
      </trkpt>
      <trkpt lat="47.64303" lon="6.16552">
        <ele>236</ele>
        <time>2020-06-01T09:57:45Z</time>
      </trkpt>
      <trkpt lat="47.643" lon="6.16564">
        <ele>236</ele>
        <time>2020-06-01T09:57:47Z</time>
      </trkpt>
      <trkpt lat="47.64297" lon="6.16575">
        <ele>236</ele>
        <time>2020-06-01T09:57:49Z</time>
      </trkpt>
      <trkpt lat="47.64294" lon="6.16584">
        <ele>237</ele>
        <time>2020-06-01T09:57:51Z</time>
      </trkpt>
      <trkpt lat="47.64292" lon="6.16593">
        <ele>237</ele>
        <time>2020-06-01T09:57:53Z</time>
      </trkpt>
      <trkpt lat="47.6429" lon="6.16601">
        <ele>237</ele>
        <time>2020-06-01T09:57:55Z</time>
      </trkpt>
      <trkpt lat="47.64287" lon="6.16608">
        <ele>237</ele>
        <time>2020-06-01T09:57:57Z</time>
      </trkpt>
      <trkpt lat="47.64285" lon="6.16616">
        <ele>237</ele>
        <time>2020-06-01T09:57:59Z</time>
      </trkpt>
      <trkpt lat="47.64283" lon="6.16623">
        <ele>237</ele>
        <time>2020-06-01T09:58:01Z</time>
      </trkpt>
      <trkpt lat="47.64281" lon="6.16631">
        <ele>237</ele>
        <time>2020-06-01T09:58:03Z</time>
      </trkpt>
      <trkpt lat="47.64279" lon="6.16639">
        <ele>237</ele>
        <time>2020-06-01T09:58:05Z</time>
      </trkpt>
      <trkpt lat="47.64277" lon="6.16646">
        <ele>237</ele>
        <time>2020-06-01T09:58:11Z</time>
      </trkpt>
      <trkpt lat="47.6427" lon="6.16673">
        <ele>238</ele>
        <time>2020-06-01T09:58:12Z</time>
      </trkpt>
      <trkpt lat="47.64267" lon="6.16685">
        <ele>238</ele>
        <time>2020-06-01T09:58:14Z</time>
      </trkpt>
      <trkpt lat="47.64264" lon="6.16695">
        <ele>238</ele>
        <time>2020-06-01T09:58:20Z</time>
      </trkpt>
      <trkpt lat="47.64261" lon="6.16703">
        <ele>238</ele>
        <time>2020-06-01T09:58:22Z</time>
      </trkpt>
      <trkpt lat="47.64258" lon="6.16712">
        <ele>238</ele>
        <time>2020-06-01T09:58:24Z</time>
      </trkpt>
      <trkpt lat="47.64256" lon="6.1672">
        <ele>238</ele>
        <time>2020-06-01T09:58:25Z</time>
      </trkpt>
      <trkpt lat="47.6425" lon="6.16744">
        <ele>239</ele>
        <time>2020-06-01T09:58:26Z</time>
      </trkpt>
      <trkpt lat="47.64248" lon="6.16755">
        <ele>239</ele>
        <time>2020-06-01T09:58:28Z</time>
      </trkpt>
      <trkpt lat="47.64245" lon="6.16766">
        <ele>239</ele>
        <time>2020-06-01T09:58:30Z</time>
      </trkpt>
      <trkpt lat="47.64241" lon="6.16778">
        <ele>239</ele>
        <time>2020-06-01T09:58:32Z</time>
      </trkpt>
      <trkpt lat="47.64239" lon="6.16789">
        <ele>239</ele>
        <time>2020-06-01T09:58:34Z</time>
      </trkpt>
      <trkpt lat="47.64237" lon="6.16799">
        <ele>238</ele>
        <time>2020-06-01T09:58:36Z</time>
      </trkpt>
      <trkpt lat="47.64234" lon="6.16808">
        <ele>238</ele>
        <time>2020-06-01T09:58:38Z</time>
      </trkpt>
      <trkpt lat="47.64233" lon="6.16819">
        <ele>238</ele>
        <time>2020-06-01T09:58:40Z</time>
      </trkpt>
      <trkpt lat="47.6423" lon="6.16829">
        <ele>238</ele>
        <time>2020-06-01T09:58:42Z</time>
      </trkpt>
      <trkpt lat="47.64229" lon="6.16838">
        <ele>237</ele>
        <time>2020-06-01T09:58:44Z</time>
      </trkpt>
      <trkpt lat="47.64227" lon="6.16845">
        <ele>237</ele>
        <time>2020-06-01T09:58:49Z</time>
      </trkpt>
      <trkpt lat="47.64223" lon="6.1686">
        <ele>237</ele>
        <time>2020-06-01T09:58:49Z</time>
      </trkpt>
      <trkpt lat="47.64221" lon="6.16868">
        <ele>237</ele>
        <time>2020-06-01T09:58:51Z</time>
      </trkpt>
      <trkpt lat="47.64218" lon="6.16878">
        <ele>237</ele>
        <time>2020-06-01T09:58:53Z</time>
      </trkpt>
      <trkpt lat="47.64216" lon="6.16887">
        <ele>237</ele>
        <time>2020-06-01T09:58:55Z</time>
      </trkpt>
      <trkpt lat="47.64214" lon="6.16897">
        <ele>237</ele>
        <time>2020-06-01T09:58:57Z</time>
      </trkpt>
      <trkpt lat="47.64211" lon="6.16907">
        <ele>237</ele>
        <time>2020-06-01T09:59:03Z</time>
      </trkpt>
      <trkpt lat="47.64205" lon="6.16931">
        <ele>236</ele>
        <time>2020-06-01T09:59:03Z</time>
      </trkpt>
      <trkpt lat="47.64202" lon="6.16943">
        <ele>236</ele>
        <time>2020-06-01T09:59:08Z</time>
      </trkpt>
      <trkpt lat="47.642" lon="6.16953">
        <ele>236</ele>
        <time>2020-06-01T09:59:10Z</time>
      </trkpt>
      <trkpt lat="47.64198" lon="6.16962">
        <ele>235</ele>
        <time>2020-06-01T09:59:11Z</time>
      </trkpt>
      <trkpt lat="47.64196" lon="6.1697">
        <ele>235</ele>
        <time>2020-06-01T09:59:12Z</time>
      </trkpt>
      <trkpt lat="47.64185" lon="6.17016">
        <ele>233</ele>
        <time>2020-06-01T09:59:12Z</time>
      </trkpt>
      <trkpt lat="47.64183" lon="6.17026">
        <ele>233</ele>
        <time>2020-06-01T09:59:13Z</time>
      </trkpt>
      <trkpt lat="47.6418" lon="6.17037">
        <ele>232</ele>
        <time>2020-06-01T09:59:14Z</time>
      </trkpt>
      <trkpt lat="47.64177" lon="6.17047">
        <ele>232</ele>
        <time>2020-06-01T09:59:15Z</time>
      </trkpt>
      <trkpt lat="47.64175" lon="6.17059">
        <ele>231</ele>
        <time>2020-06-01T09:59:16Z</time>
      </trkpt>
      <trkpt lat="47.64172" lon="6.17071">
        <ele>231</ele>
        <time>2020-06-01T09:59:17Z</time>
      </trkpt>
      <trkpt lat="47.64169" lon="6.17083">
        <ele>230</ele>
        <time>2020-06-01T09:59:18Z</time>
      </trkpt>
      <trkpt lat="47.64166" lon="6.17095">
        <ele>229</ele>
        <time>2020-06-01T09:59:19Z</time>
      </trkpt>
      <trkpt lat="47.64163" lon="6.17107">
        <ele>228</ele>
        <time>2020-06-01T09:59:20Z</time>
      </trkpt>
      <trkpt lat="47.6416" lon="6.1712">
        <ele>228</ele>
        <time>2020-06-01T09:59:21Z</time>
      </trkpt>
      <trkpt lat="47.64157" lon="6.17133">
        <ele>227</ele>
        <time>2020-06-01T09:59:22Z</time>
      </trkpt>
      <trkpt lat="47.64154" lon="6.17147">
        <ele>226</ele>
        <time>2020-06-01T09:59:23Z</time>
      </trkpt>
      <trkpt lat="47.6415" lon="6.1716">
        <ele>225</ele>
        <time>2020-06-01T09:59:24Z</time>
      </trkpt>
      <trkpt lat="47.64147" lon="6.17174">
        <ele>224</ele>
        <time>2020-06-01T09:59:25Z</time>
      </trkpt>
      <trkpt lat="47.64144" lon="6.17188">
        <ele>224</ele>
        <time>2020-06-01T09:59:26Z</time>
      </trkpt>
      <trkpt lat="47.64141" lon="6.17202">
        <ele>224</ele>
        <time>2020-06-01T09:59:27Z</time>
      </trkpt>
      <trkpt lat="47.64137" lon="6.17215">
        <ele>224</ele>
        <time>2020-06-01T09:59:28Z</time>
      </trkpt>
      <trkpt lat="47.64134" lon="6.17228">
        <ele>224</ele>
        <time>2020-06-01T09:59:29Z</time>
      </trkpt>
      <trkpt lat="47.64129" lon="6.1724">
        <ele>224</ele>
        <time>2020-06-01T09:59:30Z</time>
      </trkpt>
      <trkpt lat="47.64124" lon="6.17252">
        <ele>222</ele>
        <time>2020-06-01T09:59:31Z</time>
      </trkpt>
      <trkpt lat="47.64119" lon="6.17262">
        <ele>222</ele>
        <time>2020-06-01T09:59:32Z</time>
      </trkpt>
      <trkpt lat="47.64114" lon="6.17273">
        <ele>222</ele>
        <time>2020-06-01T09:59:33Z</time>
      </trkpt>
      <trkpt lat="47.64109" lon="6.17283">
        <ele>222</ele>
        <time>2020-06-01T09:59:34Z</time>
      </trkpt>
      <trkpt lat="47.64104" lon="6.17293">
        <ele>221</ele>
        <time>2020-06-01T09:59:35Z</time>
      </trkpt>
      <trkpt lat="47.64099" lon="6.17302">
        <ele>221</ele>
        <time>2020-06-01T09:59:36Z</time>
      </trkpt>
      <trkpt lat="47.64094" lon="6.1731">
        <ele>221</ele>
        <time>2020-06-01T09:59:37Z</time>
      </trkpt>
      <trkpt lat="47.64089" lon="6.17318">
        <ele>221</ele>
        <time>2020-06-01T09:59:38Z</time>
      </trkpt>
      <trkpt lat="47.64084" lon="6.17326">
        <ele>220</ele>
        <time>2020-06-01T09:59:39Z</time>
      </trkpt>
      <trkpt lat="47.64079" lon="6.17333">
        <ele>220</ele>
        <time>2020-06-01T09:59:40Z</time>
      </trkpt>
      <trkpt lat="47.64074" lon="6.1734">
        <ele>220</ele>
        <time>2020-06-01T09:59:41Z</time>
      </trkpt>
      <trkpt lat="47.64069" lon="6.17347">
        <ele>220</ele>
        <time>2020-06-01T09:59:42Z</time>
      </trkpt>
      <trkpt lat="47.64064" lon="6.17353">
        <ele>220</ele>
        <time>2020-06-01T09:59:43Z</time>
      </trkpt>
      <trkpt lat="47.64058" lon="6.17358">
        <ele>220</ele>
        <time>2020-06-01T09:59:44Z</time>
      </trkpt>
      <trkpt lat="47.64053" lon="6.17363">
        <ele>220</ele>
        <time>2020-06-01T09:59:45Z</time>
      </trkpt>
      <trkpt lat="47.64048" lon="6.17367">
        <ele>220</ele>
        <time>2020-06-01T09:59:46Z</time>
      </trkpt>
      <trkpt lat="47.64043" lon="6.17371">
        <ele>220</ele>
        <time>2020-06-01T09:59:47Z</time>
      </trkpt>
      <trkpt lat="47.64038" lon="6.17375">
        <ele>220</ele>
        <time>2020-06-01T09:59:48Z</time>
      </trkpt>
      <trkpt lat="47.64033" lon="6.17378">
        <ele>220</ele>
        <time>2020-06-01T09:59:49Z</time>
      </trkpt>
      <trkpt lat="47.64028" lon="6.17381">
        <ele>220</ele>
        <time>2020-06-01T09:59:50Z</time>
      </trkpt>
      <trkpt lat="47.64024" lon="6.17384">
        <ele>220</ele>
        <time>2020-06-01T09:59:51Z</time>
      </trkpt>
      <trkpt lat="47.64019" lon="6.17387">
        <ele>220</ele>
        <time>2020-06-01T09:59:52Z</time>
      </trkpt>
      <trkpt lat="47.64014" lon="6.17389">
        <ele>219</ele>
        <time>2020-06-01T09:59:53Z</time>
      </trkpt>
      <trkpt lat="47.6401" lon="6.17393">
        <ele>219</ele>
        <time>2020-06-01T09:59:54Z</time>
      </trkpt>
      <trkpt lat="47.64006" lon="6.17396">
        <ele>219</ele>
        <time>2020-06-01T09:59:55Z</time>
      </trkpt>
      <trkpt lat="47.64001" lon="6.17403">
        <ele>219</ele>
        <time>2020-06-01T09:59:57Z</time>
      </trkpt>
      <trkpt lat="47.63995" lon="6.17414">
        <ele>219</ele>
        <time>2020-06-01T09:59:59Z</time>
      </trkpt>
      <trkpt lat="47.63994" lon="6.17423">
        <ele>219</ele>
        <time>2020-06-01T10:00:01Z</time>
      </trkpt>
      <trkpt lat="47.63998" lon="6.1743">
        <ele>219</ele>
        <time>2020-06-01T10:00:03Z</time>
      </trkpt>
      <trkpt lat="47.64004" lon="6.17431">
        <ele>219</ele>
        <time>2020-06-01T10:00:05Z</time>
      </trkpt>
      <trkpt lat="47.64009" lon="6.17436">
        <ele>218</ele>
        <time>2020-06-01T10:00:07Z</time>
      </trkpt>
      <trkpt lat="47.64013" lon="6.17442">
        <ele>218</ele>
        <time>2020-06-01T10:00:08Z</time>
      </trkpt>
      <trkpt lat="47.64019" lon="6.17449">
        <ele>218</ele>
        <time>2020-06-01T10:00:10Z</time>
      </trkpt>
      <trkpt lat="47.64025" lon="6.17457">
        <ele>218</ele>
        <time>2020-06-01T10:00:12Z</time>
      </trkpt>
      <trkpt lat="47.6403" lon="6.17466">
        <ele>218</ele>
        <time>2020-06-01T10:00:14Z</time>
      </trkpt>
      <trkpt lat="47.64036" lon="6.17474">
        <ele>218</ele>
        <time>2020-06-01T10:00:16Z</time>
      </trkpt>
      <trkpt lat="47.64039" lon="6.17479">
        <ele>218</ele>
        <time>2020-06-01T10:00:17Z</time>
      </trkpt>
      <trkpt lat="47.64044" lon="6.17487">
        <ele>218</ele>
        <time>2020-06-01T10:00:19Z</time>
      </trkpt>
      <trkpt lat="47.64049" lon="6.17494">
        <ele>218</ele>
        <time>2020-06-01T10:00:21Z</time>
      </trkpt>
      <trkpt lat="47.64053" lon="6.175">
        <ele>218</ele>
        <time>2020-06-01T10:00:22Z</time>
      </trkpt>
      <trkpt lat="47.64059" lon="6.17507">
        <ele>217</ele>
        <time>2020-06-01T10:00:24Z</time>
      </trkpt>
      <trkpt lat="47.64065" lon="6.17515">
        <ele>217</ele>
        <time>2020-06-01T10:00:26Z</time>
      </trkpt>
      <trkpt lat="47.64069" lon="6.1752">
        <ele>217</ele>
        <time>2020-06-01T10:00:27Z</time>
      </trkpt>
      <trkpt lat="47.64076" lon="6.17529">
        <ele>217</ele>
        <time>2020-06-01T10:00:33Z</time>
      </trkpt>
      <trkpt lat="47.64091" lon="6.17551">
        <ele>217</ele>
        <time>2020-06-01T10:00:33Z</time>
      </trkpt>
      <trkpt lat="47.64095" lon="6.17556">
        <ele>217</ele>
        <time>2020-06-01T10:00:34Z</time>
      </trkpt>
      <trkpt lat="47.64098" lon="6.17561">
        <ele>217</ele>
        <time>2020-06-01T10:00:35Z</time>
      </trkpt>
      <trkpt lat="47.64102" lon="6.17566">
        <ele>217</ele>
        <time>2020-06-01T10:00:36Z</time>
      </trkpt>
      <trkpt lat="47.64105" lon="6.17571">
        <ele>217</ele>
        <time>2020-06-01T10:00:37Z</time>
      </trkpt>
      <trkpt lat="47.64109" lon="6.17578">
        <ele>217</ele>
        <time>2020-06-01T10:00:43Z</time>
      </trkpt>
      <trkpt lat="47.64115" lon="6.17586">
        <ele>217</ele>
        <time>2020-06-01T10:00:46Z</time>
      </trkpt>
      <trkpt lat="47.64119" lon="6.17592">
        <ele>217</ele>
        <time>2020-06-01T10:00:47Z</time>
      </trkpt>
      <trkpt lat="47.64123" lon="6.17597">
        <ele>217</ele>
        <time>2020-06-01T10:00:48Z</time>
      </trkpt>
      <trkpt lat="47.64135" lon="6.17615">
        <ele>217</ele>
        <time>2020-06-01T10:00:48Z</time>
      </trkpt>
      <trkpt lat="47.64141" lon="6.17623">
        <ele>217</ele>
        <time>2020-06-01T10:00:50Z</time>
      </trkpt>
      <trkpt lat="47.64147" lon="6.17631">
        <ele>218</ele>
        <time>2020-06-01T10:00:52Z</time>
      </trkpt>
      <trkpt lat="47.64151" lon="6.17636">
        <ele>218</ele>
        <time>2020-06-01T10:00:53Z</time>
      </trkpt>
      <trkpt lat="47.64157" lon="6.17645">
        <ele>218</ele>
        <time>2020-06-01T10:00:59Z</time>
      </trkpt>
      <trkpt lat="47.64168" lon="6.1766">
        <ele>218</ele>
        <time>2020-06-01T10:01:02Z</time>
      </trkpt>
      <trkpt lat="47.64172" lon="6.17665">
        <ele>218</ele>
        <time>2020-06-01T10:01:03Z</time>
      </trkpt>
      <trkpt lat="47.64182" lon="6.17679">
        <ele>218</ele>
        <time>2020-06-01T10:01:07Z</time>
      </trkpt>
      <trkpt lat="47.64198" lon="6.17702">
        <ele>218</ele>
        <time>2020-06-01T10:01:07Z</time>
      </trkpt>
      <trkpt lat="47.64202" lon="6.17707">
        <ele>217</ele>
        <time>2020-06-01T10:01:08Z</time>
      </trkpt>
      <trkpt lat="47.64206" lon="6.17712">
        <ele>217</ele>
        <time>2020-06-01T10:01:09Z</time>
      </trkpt>
      <trkpt lat="47.6421" lon="6.17717">
        <ele>217</ele>
        <time>2020-06-01T10:01:10Z</time>
      </trkpt>
      <trkpt lat="47.64214" lon="6.17722">
        <ele>217</ele>
        <time>2020-06-01T10:01:11Z</time>
      </trkpt>
      <trkpt lat="47.64218" lon="6.17727">
        <ele>217</ele>
        <time>2020-06-01T10:01:12Z</time>
      </trkpt>
      <trkpt lat="47.64221" lon="6.17732">
        <ele>217</ele>
        <time>2020-06-01T10:01:13Z</time>
      </trkpt>
      <trkpt lat="47.64225" lon="6.17736">
        <ele>217</ele>
        <time>2020-06-01T10:01:14Z</time>
      </trkpt>
      <trkpt lat="47.64229" lon="6.1774">
        <ele>217</ele>
        <time>2020-06-01T10:01:15Z</time>
      </trkpt>
      <trkpt lat="47.64233" lon="6.17744">
        <ele>217</ele>
        <time>2020-06-01T10:01:16Z</time>
      </trkpt>
      <trkpt lat="47.64236" lon="6.17747">
        <ele>217</ele>
        <time>2020-06-01T10:01:17Z</time>
      </trkpt>
      <trkpt lat="47.6424" lon="6.17751">
        <ele>217</ele>
        <time>2020-06-01T10:01:18Z</time>
      </trkpt>
      <trkpt lat="47.64244" lon="6.17754">
        <ele>217</ele>
        <time>2020-06-01T10:01:19Z</time>
      </trkpt>
      <trkpt lat="47.64248" lon="6.17757">
        <ele>217</ele>
        <time>2020-06-01T10:01:20Z</time>
      </trkpt>
      <trkpt lat="47.64257" lon="6.17762">
        <ele>218</ele>
        <time>2020-06-01T10:01:22Z</time>
      </trkpt>
      <trkpt lat="47.64264" lon="6.17766">
        <ele>218</ele>
        <time>2020-06-01T10:01:24Z</time>
      </trkpt>
      <trkpt lat="47.64269" lon="6.17769">
        <ele>218</ele>
        <time>2020-06-01T10:01:25Z</time>
      </trkpt>
      <trkpt lat="47.64273" lon="6.17772">
        <ele>218</ele>
        <time>2020-06-01T10:01:26Z</time>
      </trkpt>
      <trkpt lat="47.64281" lon="6.17776">
        <ele>219</ele>
        <time>2020-06-01T10:01:28Z</time>
      </trkpt>
      <trkpt lat="47.64286" lon="6.17779">
        <ele>219</ele>
        <time>2020-06-01T10:01:29Z</time>
      </trkpt>
      <trkpt lat="47.6429" lon="6.17781">
        <ele>219</ele>
        <time>2020-06-01T10:01:30Z</time>
      </trkpt>
      <trkpt lat="47.64295" lon="6.17784">
        <ele>219</ele>
        <time>2020-06-01T10:01:31Z</time>
      </trkpt>
      <trkpt lat="47.643" lon="6.17786">
        <ele>219</ele>
        <time>2020-06-01T10:01:32Z</time>
      </trkpt>
      <trkpt lat="47.64304" lon="6.17788">
        <ele>219</ele>
        <time>2020-06-01T10:01:33Z</time>
      </trkpt>
      <trkpt lat="47.64309" lon="6.17791">
        <ele>219</ele>
        <time>2020-06-01T10:01:34Z</time>
      </trkpt>
      <trkpt lat="47.64313" lon="6.17793">
        <ele>219</ele>
        <time>2020-06-01T10:01:35Z</time>
      </trkpt>
      <trkpt lat="47.64321" lon="6.17798">
        <ele>219</ele>
        <time>2020-06-01T10:01:37Z</time>
      </trkpt>
      <trkpt lat="47.6433" lon="6.17803">
        <ele>219</ele>
        <time>2020-06-01T10:01:39Z</time>
      </trkpt>
      <trkpt lat="47.64334" lon="6.17805">
        <ele>220</ele>
        <time>2020-06-01T10:01:40Z</time>
      </trkpt>
      <trkpt lat="47.64339" lon="6.17806">
        <ele>220</ele>
        <time>2020-06-01T10:01:45Z</time>
      </trkpt>
      <trkpt lat="47.64345" lon="6.17811">
        <ele>220</ele>
        <time>2020-06-01T10:01:47Z</time>
      </trkpt>
      <trkpt lat="47.64355" lon="6.17821">
        <ele>220</ele>
        <time>2020-06-01T10:01:51Z</time>
      </trkpt>
      <trkpt lat="47.64356" lon="6.17829">
        <ele>220</ele>
        <time>2020-06-01T10:01:52Z</time>
      </trkpt>
      <trkpt lat="47.64358" lon="6.17845">
        <ele>220</ele>
        <time>2020-06-01T10:01:52Z</time>
      </trkpt>
      <trkpt lat="47.64361" lon="6.17851">
        <ele>220</ele>
        <time>2020-06-01T10:01:58Z</time>
      </trkpt>
      <trkpt lat="47.64373" lon="6.17867">
        <ele>220</ele>
        <time>2020-06-01T10:01:58Z</time>
      </trkpt>
      <trkpt lat="47.64378" lon="6.17874">
        <ele>220</ele>
        <time>2020-06-01T10:02:00Z</time>
      </trkpt>
      <trkpt lat="47.64384" lon="6.17883">
        <ele>220</ele>
        <time>2020-06-01T10:02:02Z</time>
      </trkpt>
      <trkpt lat="47.64389" lon="6.1789">
        <ele>220</ele>
        <time>2020-06-01T10:02:08Z</time>
      </trkpt>
      <trkpt lat="47.64398" lon="6.17906">
        <ele>221</ele>
        <time>2020-06-01T10:02:08Z</time>
      </trkpt>
      <trkpt lat="47.64403" lon="6.17915">
        <ele>221</ele>
        <time>2020-06-01T10:02:10Z</time>
      </trkpt>
      <trkpt lat="47.64406" lon="6.17921">
        <ele>221</ele>
        <time>2020-06-01T10:02:11Z</time>
      </trkpt>
      <trkpt lat="47.6441" lon="6.17929">
        <ele>221</ele>
        <time>2020-06-01T10:02:17Z</time>
      </trkpt>
      <trkpt lat="47.64414" lon="6.17935">
        <ele>221</ele>
        <time>2020-06-01T10:02:19Z</time>
      </trkpt>
      <trkpt lat="47.64416" lon="6.17941">
        <ele>221</ele>
        <time>2020-06-01T10:02:21Z</time>
      </trkpt>
      <trkpt lat="47.64421" lon="6.17949">
        <ele>222</ele>
        <time>2020-06-01T10:02:24Z</time>
      </trkpt>
      <trkpt lat="47.64429" lon="6.17967">
        <ele>222</ele>
        <time>2020-06-01T10:02:25Z</time>
      </trkpt>
      <trkpt lat="47.64433" lon="6.17974">
        <ele>222</ele>
        <time>2020-06-01T10:02:27Z</time>
      </trkpt>
      <trkpt lat="47.64438" lon="6.17982">
        <ele>222</ele>
        <time>2020-06-01T10:02:33Z</time>
      </trkpt>
      <trkpt lat="47.6445" lon="6.18002">
        <ele>223</ele>
        <time>2020-06-01T10:02:33Z</time>
      </trkpt>
      <trkpt lat="47.64455" lon="6.1801">
        <ele>223</ele>
        <time>2020-06-01T10:02:35Z</time>
      </trkpt>
      <trkpt lat="47.64458" lon="6.18015">
        <ele>223</ele>
        <time>2020-06-01T10:02:36Z</time>
      </trkpt>
      <trkpt lat="47.64463" lon="6.18022">
        <ele>223</ele>
        <time>2020-06-01T10:02:38Z</time>
      </trkpt>
      <trkpt lat="47.64467" lon="6.18029">
        <ele>223</ele>
        <time>2020-06-01T10:02:40Z</time>
      </trkpt>
      <trkpt lat="47.6447" lon="6.18034">
        <ele>223</ele>
        <time>2020-06-01T10:02:46Z</time>
      </trkpt>
      <trkpt lat="47.64476" lon="6.18037">
        <ele>223</ele>
        <time>2020-06-01T10:02:51Z</time>
      </trkpt>
      <trkpt lat="47.64485" lon="6.18043">
        <ele>223</ele>
        <time>2020-06-01T10:02:56Z</time>
      </trkpt>
      <trkpt lat="47.64491" lon="6.18046">
        <ele>223</ele>
        <time>2020-06-01T10:03:00Z</time>
      </trkpt>
      <trkpt lat="47.64495" lon="6.18048">
        <ele>223</ele>
        <time>2020-06-01T10:03:07Z</time>
      </trkpt>
      <trkpt lat="47.64504" lon="6.18065">
        <ele>226</ele>
        <time>2020-06-01T10:03:10Z</time>
      </trkpt>
      <trkpt lat="47.64501" lon="6.18077">
        <ele>225</ele>
        <time>2020-06-01T10:03:21Z</time>
      </trkpt>
      <trkpt lat="47.64496" lon="6.18111">
        <ele>223</ele>
        <time>2020-06-01T10:03:24Z</time>
      </trkpt>
      <trkpt lat="47.64495" lon="6.1812">
        <ele>224</ele>
        <time>2020-06-01T10:03:26Z</time>
      </trkpt>
      <trkpt lat="47.64492" lon="6.18138">
        <ele>224</ele>
        <time>2020-06-01T10:03:29Z</time>
      </trkpt>
      <trkpt lat="47.64493" lon="6.18149">
        <ele>224</ele>
        <time>2020-06-01T10:03:30Z</time>
      </trkpt>
      <trkpt lat="47.64494" lon="6.18158">
        <ele>224</ele>
        <time>2020-06-01T10:03:32Z</time>
      </trkpt>
      <trkpt lat="47.64495" lon="6.18164">
        <ele>225</ele>
        <time>2020-06-01T10:03:33Z</time>
      </trkpt>
      <trkpt lat="47.64497" lon="6.18173">
        <ele>225</ele>
        <time>2020-06-01T10:03:34Z</time>
      </trkpt>
      <trkpt lat="47.64498" lon="6.18188">
        <ele>226</ele>
        <time>2020-06-01T10:03:34Z</time>
      </trkpt>
      <trkpt lat="47.64496" lon="6.18195">
        <ele>226</ele>
        <time>2020-06-01T10:03:36Z</time>
      </trkpt>
      <trkpt lat="47.64493" lon="6.18203">
        <ele>226</ele>
        <time>2020-06-01T10:03:42Z</time>
      </trkpt>
      <trkpt lat="47.64491" lon="6.18217">
        <ele>227</ele>
        <time>2020-06-01T10:03:42Z</time>
      </trkpt>
      <trkpt lat="47.64488" lon="6.18224">
        <ele>227</ele>
        <time>2020-06-01T10:03:48Z</time>
      </trkpt>
      <trkpt lat="47.64486" lon="6.18231">
        <ele>227</ele>
        <time>2020-06-01T10:03:49Z</time>
      </trkpt>
      <trkpt lat="47.64483" lon="6.18237">
        <ele>228</ele>
        <time>2020-06-01T10:03:51Z</time>
      </trkpt>
      <trkpt lat="47.6448" lon="6.18244">
        <ele>228</ele>
        <time>2020-06-01T10:03:52Z</time>
      </trkpt>
      <trkpt lat="47.64477" lon="6.1825">
        <ele>231</ele>
        <time>2020-06-01T10:03:53Z</time>
      </trkpt>
      <trkpt lat="47.6447" lon="6.18264">
        <ele>231</ele>
        <time>2020-06-01T10:03:56Z</time>
      </trkpt>
      <trkpt lat="47.64465" lon="6.1827">
        <ele>231</ele>
        <time>2020-06-01T10:03:59Z</time>
      </trkpt>
      <trkpt lat="47.64456" lon="6.18281">
        <ele>231</ele>
        <time>2020-06-01T10:04:28Z</time>
      </trkpt>
      <trkpt lat="47.64452" lon="6.18285">
        <ele>230</ele>
        <time>2020-06-01T10:04:29Z</time>
      </trkpt>
      <trkpt lat="47.64448" lon="6.18289">
        <ele>230</ele>
        <time>2020-06-01T10:04:34Z</time>
      </trkpt>
      <trkpt lat="47.64441" lon="6.18297">
        <ele>230</ele>
        <time>2020-06-01T10:04:37Z</time>
      </trkpt>
      <trkpt lat="47.6444" lon="6.18304">
        <ele>230</ele>
        <time>2020-06-01T10:04:39Z</time>
      </trkpt>
      <trkpt lat="47.64441" lon="6.18312">
        <ele>231</ele>
        <time>2020-06-01T10:04:42Z</time>
      </trkpt>
      <trkpt lat="47.64439" lon="6.18319">
        <ele>231</ele>
        <time>2020-06-01T10:04:42Z</time>
      </trkpt>
      <trkpt lat="47.6444" lon="6.18325">
        <ele>231</ele>
        <time>2020-06-01T10:05:05Z</time>
      </trkpt>
    </trkseg>
  </trk>
</gpx>